<?xml version="1.0" encoding="UTF-8" standalone="no" ?>
<gpx xmlns="http://www.topografix.com/GPX/1/1" xmlns:xsi="http://www.w3.org/2001/XMLSchema-instance" xsi:schemaLocation="http://www.topografix.com/GPX/1/1 http://www.topografix.com/GPX/1/1/gpx.xsd" version="1.1" creator="VisuGPX - https://www.visugpx.com">
  <metadata>
    <name>2017-04-22 Bike ride-Ambérieux Saône O</name>
    <desc><![CDATA[2017-04-22 Bike ride-Ambérieux Saône O]]></desc>
  </metadata>
  <wpt lat="45.92529" lon="4.73711">
    <ele>173</ele>
    <name><![CDATA[2017-04-22 11:05 (Start)]]></name>
  </wpt>
  <wpt lat="45.92462" lon="4.7371">
    <ele>174</ele>
    <name><![CDATA[2017-04-22 11:05 (End)]]></name>
    <desc><![CDATA[Created by Google My Tracks on Android  Name: 2017-04-22 11:05 Activity type: biking Description: - Total distance: 31.17 km (19.4 mi) Total time: 1:31:39 Moving time: 1:29:24 Average speed: 20.40 km/h (12.7 mi/h) Average moving speed: 20.92 km/h (13.0 mi/h) Max speed: 34.33 km/h (21.3 mi/h) Average pace: 2:56 min/km (4:44 min/mi) Average moving pace: 2:52 min/km (4:37 min/mi) Fastest pace: 1:45 min/km (2:49 min/mi) Max elevation: 274 m (898 ft) Min elevation: 166 m (544 ft) Elevation gain: 506 m (1661 ft) Max grade: 15 % Min grade: -13 % Recorded: 22/04/2017 11:05]]></desc>
  </wpt>
  <trk>
    <name><![CDATA[2017-04-22 11:05]]></name>
    <trkseg>
      <trkpt lat="45.92529" lon="4.73711">
        <ele>173</ele>
        <time>2017-04-22T09:05:49.888Z</time>
      </trkpt>
      <trkpt lat="45.92524" lon="4.73708">
        <ele>173</ele>
        <time>2017-04-22T09:06:02Z</time>
      </trkpt>
      <trkpt lat="45.9251" lon="4.7371">
        <ele>173</ele>
        <time>2017-04-22T09:06:03Z</time>
      </trkpt>
      <trkpt lat="45.92493" lon="4.73712">
        <ele>174</ele>
        <time>2017-04-22T09:06:04Z</time>
      </trkpt>
      <trkpt lat="45.92478" lon="4.7372">
        <ele>174</ele>
        <time>2017-04-22T09:06:06Z</time>
      </trkpt>
      <trkpt lat="45.92469" lon="4.7373">
        <ele>174</ele>
        <time>2017-04-22T09:06:11Z</time>
      </trkpt>
      <trkpt lat="45.92469" lon="4.7373">
        <ele>174</ele>
        <time>2017-04-22T09:06:21Z</time>
      </trkpt>
      <trkpt lat="45.92449" lon="4.73736">
        <ele>174</ele>
        <time>2017-04-22T09:06:22Z</time>
      </trkpt>
      <trkpt lat="45.9245" lon="4.73728">
        <ele>174</ele>
        <time>2017-04-22T09:07:29Z</time>
      </trkpt>
      <trkpt lat="45.92456" lon="4.73723">
        <ele>174</ele>
        <time>2017-04-22T09:07:30Z</time>
      </trkpt>
      <trkpt lat="45.92461" lon="4.73715">
        <ele>174</ele>
        <time>2017-04-22T09:07:45Z</time>
      </trkpt>
      <trkpt lat="45.92462" lon="4.73712">
        <ele>174</ele>
        <time>2017-04-22T09:07:46Z</time>
      </trkpt>
      <trkpt lat="45.92464" lon="4.73701">
        <ele>174</ele>
        <time>2017-04-22T09:07:50Z</time>
      </trkpt>
      <trkpt lat="45.92465" lon="4.73698">
        <ele>174</ele>
        <time>2017-04-22T09:07:51Z</time>
      </trkpt>
      <trkpt lat="45.92466" lon="4.73688">
        <ele>174</ele>
        <time>2017-04-22T09:07:54Z</time>
      </trkpt>
      <trkpt lat="45.92466" lon="4.73685">
        <ele>174</ele>
        <time>2017-04-22T09:07:55Z</time>
      </trkpt>
      <trkpt lat="45.92467" lon="4.73676">
        <ele>174</ele>
        <time>2017-04-22T09:07:57Z</time>
      </trkpt>
      <trkpt lat="45.92468" lon="4.73671">
        <ele>174</ele>
        <time>2017-04-22T09:07:58Z</time>
      </trkpt>
      <trkpt lat="45.92469" lon="4.73661">
        <ele>174</ele>
        <time>2017-04-22T09:08:00Z</time>
      </trkpt>
      <trkpt lat="45.9247" lon="4.73655">
        <ele>174</ele>
        <time>2017-04-22T09:08:01Z</time>
      </trkpt>
      <trkpt lat="45.9247" lon="4.73644">
        <ele>174</ele>
        <time>2017-04-22T09:08:03Z</time>
      </trkpt>
      <trkpt lat="45.92471" lon="4.73638">
        <ele>174</ele>
        <time>2017-04-22T09:08:04Z</time>
      </trkpt>
      <trkpt lat="45.92471" lon="4.73631">
        <ele>174</ele>
        <time>2017-04-22T09:08:05Z</time>
      </trkpt>
      <trkpt lat="45.92471" lon="4.73624">
        <ele>174</ele>
        <time>2017-04-22T09:08:06Z</time>
      </trkpt>
      <trkpt lat="45.92471" lon="4.73618">
        <ele>174</ele>
        <time>2017-04-22T09:08:07Z</time>
      </trkpt>
      <trkpt lat="45.9247" lon="4.73611">
        <ele>174</ele>
        <time>2017-04-22T09:08:08Z</time>
      </trkpt>
      <trkpt lat="45.9247" lon="4.73604">
        <ele>174</ele>
        <time>2017-04-22T09:08:09Z</time>
      </trkpt>
      <trkpt lat="45.92469" lon="4.73597">
        <ele>174</ele>
        <time>2017-04-22T09:08:10Z</time>
      </trkpt>
      <trkpt lat="45.92469" lon="4.7359">
        <ele>174</ele>
        <time>2017-04-22T09:08:11Z</time>
      </trkpt>
      <trkpt lat="45.92468" lon="4.73583">
        <ele>173</ele>
        <time>2017-04-22T09:08:12Z</time>
      </trkpt>
      <trkpt lat="45.92467" lon="4.73576">
        <ele>173</ele>
        <time>2017-04-22T09:08:13Z</time>
      </trkpt>
      <trkpt lat="45.92467" lon="4.7357">
        <ele>173</ele>
        <time>2017-04-22T09:08:14Z</time>
      </trkpt>
      <trkpt lat="45.92467" lon="4.73558">
        <ele>173</ele>
        <time>2017-04-22T09:08:16Z</time>
      </trkpt>
      <trkpt lat="45.92466" lon="4.73553">
        <ele>173</ele>
        <time>2017-04-22T09:08:17Z</time>
      </trkpt>
      <trkpt lat="45.92461" lon="4.73547">
        <ele>173</ele>
        <time>2017-04-22T09:08:19Z</time>
      </trkpt>
      <trkpt lat="45.92456" lon="4.73546">
        <ele>174</ele>
        <time>2017-04-22T09:08:20Z</time>
      </trkpt>
      <trkpt lat="45.9245" lon="4.73547">
        <ele>174</ele>
        <time>2017-04-22T09:08:21Z</time>
      </trkpt>
      <trkpt lat="45.92445" lon="4.73547">
        <ele>174</ele>
        <time>2017-04-22T09:08:22Z</time>
      </trkpt>
      <trkpt lat="45.92441" lon="4.73549">
        <ele>174</ele>
        <time>2017-04-22T09:08:23Z</time>
      </trkpt>
      <trkpt lat="45.92436" lon="4.73551">
        <ele>174</ele>
        <time>2017-04-22T09:08:24Z</time>
      </trkpt>
      <trkpt lat="45.92431" lon="4.73553">
        <ele>174</ele>
        <time>2017-04-22T09:08:25Z</time>
      </trkpt>
      <trkpt lat="45.92426" lon="4.73556">
        <ele>174</ele>
        <time>2017-04-22T09:08:26Z</time>
      </trkpt>
      <trkpt lat="45.92421" lon="4.73558">
        <ele>174</ele>
        <time>2017-04-22T09:08:27Z</time>
      </trkpt>
      <trkpt lat="45.92417" lon="4.73561">
        <ele>173</ele>
        <time>2017-04-22T09:08:28Z</time>
      </trkpt>
      <trkpt lat="45.92412" lon="4.73563">
        <ele>173</ele>
        <time>2017-04-22T09:08:29Z</time>
      </trkpt>
      <trkpt lat="45.92407" lon="4.73564">
        <ele>173</ele>
        <time>2017-04-22T09:08:30Z</time>
      </trkpt>
      <trkpt lat="45.92403" lon="4.73566">
        <ele>173</ele>
        <time>2017-04-22T09:08:31Z</time>
      </trkpt>
      <trkpt lat="45.92398" lon="4.73568">
        <ele>173</ele>
        <time>2017-04-22T09:08:32Z</time>
      </trkpt>
      <trkpt lat="45.92393" lon="4.73571">
        <ele>173</ele>
        <time>2017-04-22T09:08:33Z</time>
      </trkpt>
      <trkpt lat="45.92388" lon="4.73574">
        <ele>173</ele>
        <time>2017-04-22T09:08:34Z</time>
      </trkpt>
      <trkpt lat="45.92383" lon="4.73577">
        <ele>173</ele>
        <time>2017-04-22T09:08:35Z</time>
      </trkpt>
      <trkpt lat="45.92377" lon="4.73579">
        <ele>173</ele>
        <time>2017-04-22T09:08:36Z</time>
      </trkpt>
      <trkpt lat="45.92372" lon="4.73581">
        <ele>173</ele>
        <time>2017-04-22T09:08:37Z</time>
      </trkpt>
      <trkpt lat="45.92367" lon="4.73583">
        <ele>173</ele>
        <time>2017-04-22T09:08:38Z</time>
      </trkpt>
      <trkpt lat="45.92362" lon="4.73586">
        <ele>173</ele>
        <time>2017-04-22T09:08:39Z</time>
      </trkpt>
      <trkpt lat="45.92357" lon="4.73588">
        <ele>173</ele>
        <time>2017-04-22T09:08:40Z</time>
      </trkpt>
      <trkpt lat="45.92353" lon="4.7359">
        <ele>173</ele>
        <time>2017-04-22T09:08:41Z</time>
      </trkpt>
      <trkpt lat="45.92348" lon="4.73592">
        <ele>173</ele>
        <time>2017-04-22T09:08:42Z</time>
      </trkpt>
      <trkpt lat="45.92344" lon="4.73594">
        <ele>172</ele>
        <time>2017-04-22T09:08:43Z</time>
      </trkpt>
      <trkpt lat="45.92339" lon="4.73597">
        <ele>172</ele>
        <time>2017-04-22T09:08:44Z</time>
      </trkpt>
      <trkpt lat="45.92335" lon="4.73599">
        <ele>172</ele>
        <time>2017-04-22T09:08:45Z</time>
      </trkpt>
      <trkpt lat="45.9233" lon="4.73602">
        <ele>172</ele>
        <time>2017-04-22T09:08:46Z</time>
      </trkpt>
      <trkpt lat="45.92322" lon="4.73607">
        <ele>172</ele>
        <time>2017-04-22T09:08:48Z</time>
      </trkpt>
      <trkpt lat="45.92319" lon="4.73609">
        <ele>172</ele>
        <time>2017-04-22T09:08:49Z</time>
      </trkpt>
      <trkpt lat="45.92312" lon="4.73615">
        <ele>172</ele>
        <time>2017-04-22T09:08:51Z</time>
      </trkpt>
      <trkpt lat="45.92308" lon="4.73619">
        <ele>172</ele>
        <time>2017-04-22T09:08:52Z</time>
      </trkpt>
      <trkpt lat="45.92303" lon="4.73622">
        <ele>172</ele>
        <time>2017-04-22T09:08:53Z</time>
      </trkpt>
      <trkpt lat="45.92298" lon="4.73625">
        <ele>172</ele>
        <time>2017-04-22T09:08:54Z</time>
      </trkpt>
      <trkpt lat="45.92293" lon="4.73628">
        <ele>172</ele>
        <time>2017-04-22T09:08:55Z</time>
      </trkpt>
      <trkpt lat="45.92288" lon="4.73631">
        <ele>172</ele>
        <time>2017-04-22T09:08:56Z</time>
      </trkpt>
      <trkpt lat="45.92282" lon="4.73634">
        <ele>172</ele>
        <time>2017-04-22T09:08:57Z</time>
      </trkpt>
      <trkpt lat="45.92276" lon="4.73638">
        <ele>172</ele>
        <time>2017-04-22T09:08:58Z</time>
      </trkpt>
      <trkpt lat="45.92271" lon="4.73641">
        <ele>172</ele>
        <time>2017-04-22T09:08:59Z</time>
      </trkpt>
      <trkpt lat="45.92265" lon="4.73644">
        <ele>172</ele>
        <time>2017-04-22T09:09:00Z</time>
      </trkpt>
      <trkpt lat="45.92259" lon="4.73647">
        <ele>171</ele>
        <time>2017-04-22T09:09:01Z</time>
      </trkpt>
      <trkpt lat="45.92253" lon="4.7365">
        <ele>171</ele>
        <time>2017-04-22T09:09:02Z</time>
      </trkpt>
      <trkpt lat="45.92247" lon="4.73654">
        <ele>171</ele>
        <time>2017-04-22T09:09:03Z</time>
      </trkpt>
      <trkpt lat="45.92242" lon="4.73658">
        <ele>171</ele>
        <time>2017-04-22T09:09:04Z</time>
      </trkpt>
      <trkpt lat="45.92236" lon="4.73661">
        <ele>171</ele>
        <time>2017-04-22T09:09:05Z</time>
      </trkpt>
      <trkpt lat="45.9223" lon="4.73664">
        <ele>171</ele>
        <time>2017-04-22T09:09:06Z</time>
      </trkpt>
      <trkpt lat="45.92224" lon="4.73668">
        <ele>171</ele>
        <time>2017-04-22T09:09:07Z</time>
      </trkpt>
      <trkpt lat="45.92218" lon="4.73671">
        <ele>171</ele>
        <time>2017-04-22T09:09:08Z</time>
      </trkpt>
      <trkpt lat="45.92212" lon="4.73675">
        <ele>171</ele>
        <time>2017-04-22T09:09:09Z</time>
      </trkpt>
      <trkpt lat="45.92205" lon="4.73678">
        <ele>171</ele>
        <time>2017-04-22T09:09:10Z</time>
      </trkpt>
      <trkpt lat="45.92199" lon="4.73681">
        <ele>171</ele>
        <time>2017-04-22T09:09:11Z</time>
      </trkpt>
      <trkpt lat="45.92193" lon="4.73684">
        <ele>171</ele>
        <time>2017-04-22T09:09:12Z</time>
      </trkpt>
      <trkpt lat="45.92187" lon="4.73687">
        <ele>171</ele>
        <time>2017-04-22T09:09:13Z</time>
      </trkpt>
      <trkpt lat="45.92181" lon="4.73691">
        <ele>171</ele>
        <time>2017-04-22T09:09:14Z</time>
      </trkpt>
      <trkpt lat="45.92175" lon="4.73694">
        <ele>171</ele>
        <time>2017-04-22T09:09:15Z</time>
      </trkpt>
      <trkpt lat="45.92169" lon="4.73698">
        <ele>171</ele>
        <time>2017-04-22T09:09:16Z</time>
      </trkpt>
      <trkpt lat="45.92163" lon="4.73701">
        <ele>171</ele>
        <time>2017-04-22T09:09:17Z</time>
      </trkpt>
      <trkpt lat="45.92156" lon="4.73704">
        <ele>171</ele>
        <time>2017-04-22T09:09:18Z</time>
      </trkpt>
      <trkpt lat="45.9215" lon="4.73707">
        <ele>171</ele>
        <time>2017-04-22T09:09:19Z</time>
      </trkpt>
      <trkpt lat="45.92144" lon="4.73709">
        <ele>171</ele>
        <time>2017-04-22T09:09:20Z</time>
      </trkpt>
      <trkpt lat="45.92138" lon="4.73712">
        <ele>171</ele>
        <time>2017-04-22T09:09:21Z</time>
      </trkpt>
      <trkpt lat="45.92132" lon="4.73714">
        <ele>171</ele>
        <time>2017-04-22T09:09:22Z</time>
      </trkpt>
      <trkpt lat="45.92125" lon="4.73716">
        <ele>171</ele>
        <time>2017-04-22T09:09:23Z</time>
      </trkpt>
      <trkpt lat="45.92118" lon="4.73719">
        <ele>171</ele>
        <time>2017-04-22T09:09:24Z</time>
      </trkpt>
      <trkpt lat="45.92112" lon="4.73721">
        <ele>171</ele>
        <time>2017-04-22T09:09:25Z</time>
      </trkpt>
      <trkpt lat="45.92105" lon="4.73723">
        <ele>171</ele>
        <time>2017-04-22T09:09:26Z</time>
      </trkpt>
      <trkpt lat="45.92099" lon="4.73724">
        <ele>171</ele>
        <time>2017-04-22T09:09:27Z</time>
      </trkpt>
      <trkpt lat="45.92092" lon="4.73725">
        <ele>171</ele>
        <time>2017-04-22T09:09:28Z</time>
      </trkpt>
      <trkpt lat="45.92085" lon="4.73726">
        <ele>171</ele>
        <time>2017-04-22T09:09:29Z</time>
      </trkpt>
      <trkpt lat="45.92078" lon="4.73727">
        <ele>171</ele>
        <time>2017-04-22T09:09:30Z</time>
      </trkpt>
      <trkpt lat="45.92072" lon="4.73728">
        <ele>171</ele>
        <time>2017-04-22T09:09:31Z</time>
      </trkpt>
      <trkpt lat="45.92065" lon="4.73729">
        <ele>171</ele>
        <time>2017-04-22T09:09:32Z</time>
      </trkpt>
      <trkpt lat="45.92059" lon="4.73728">
        <ele>171</ele>
        <time>2017-04-22T09:09:33Z</time>
      </trkpt>
      <trkpt lat="45.92053" lon="4.73728">
        <ele>171</ele>
        <time>2017-04-22T09:09:34Z</time>
      </trkpt>
      <trkpt lat="45.92047" lon="4.73728">
        <ele>171</ele>
        <time>2017-04-22T09:09:35Z</time>
      </trkpt>
      <trkpt lat="45.9204" lon="4.73728">
        <ele>171</ele>
        <time>2017-04-22T09:09:36Z</time>
      </trkpt>
      <trkpt lat="45.92034" lon="4.73728">
        <ele>171</ele>
        <time>2017-04-22T09:09:37Z</time>
      </trkpt>
      <trkpt lat="45.92028" lon="4.73727">
        <ele>171</ele>
        <time>2017-04-22T09:09:38Z</time>
      </trkpt>
      <trkpt lat="45.92022" lon="4.73727">
        <ele>171</ele>
        <time>2017-04-22T09:09:39Z</time>
      </trkpt>
      <trkpt lat="45.92016" lon="4.73727">
        <ele>171</ele>
        <time>2017-04-22T09:09:40Z</time>
      </trkpt>
      <trkpt lat="45.92009" lon="4.73727">
        <ele>171</ele>
        <time>2017-04-22T09:09:41Z</time>
      </trkpt>
      <trkpt lat="45.92002" lon="4.73727">
        <ele>171</ele>
        <time>2017-04-22T09:09:42Z</time>
      </trkpt>
      <trkpt lat="45.91996" lon="4.73727">
        <ele>171</ele>
        <time>2017-04-22T09:09:43Z</time>
      </trkpt>
      <trkpt lat="45.91989" lon="4.73727">
        <ele>171</ele>
        <time>2017-04-22T09:09:44Z</time>
      </trkpt>
      <trkpt lat="45.91983" lon="4.73727">
        <ele>171</ele>
        <time>2017-04-22T09:09:45Z</time>
      </trkpt>
      <trkpt lat="45.91976" lon="4.73727">
        <ele>171</ele>
        <time>2017-04-22T09:09:46Z</time>
      </trkpt>
      <trkpt lat="45.91969" lon="4.73728">
        <ele>171</ele>
        <time>2017-04-22T09:09:47Z</time>
      </trkpt>
      <trkpt lat="45.91963" lon="4.73728">
        <ele>171</ele>
        <time>2017-04-22T09:09:48Z</time>
      </trkpt>
      <trkpt lat="45.91956" lon="4.73728">
        <ele>170</ele>
        <time>2017-04-22T09:09:49Z</time>
      </trkpt>
      <trkpt lat="45.9195" lon="4.73727">
        <ele>170</ele>
        <time>2017-04-22T09:09:50Z</time>
      </trkpt>
      <trkpt lat="45.91943" lon="4.73727">
        <ele>170</ele>
        <time>2017-04-22T09:09:51Z</time>
      </trkpt>
      <trkpt lat="45.91937" lon="4.73728">
        <ele>170</ele>
        <time>2017-04-22T09:09:52Z</time>
      </trkpt>
      <trkpt lat="45.91931" lon="4.73728">
        <ele>170</ele>
        <time>2017-04-22T09:09:53Z</time>
      </trkpt>
      <trkpt lat="45.91925" lon="4.73729">
        <ele>170</ele>
        <time>2017-04-22T09:09:54Z</time>
      </trkpt>
      <trkpt lat="45.91919" lon="4.73729">
        <ele>170</ele>
        <time>2017-04-22T09:09:55Z</time>
      </trkpt>
      <trkpt lat="45.91913" lon="4.73729">
        <ele>171</ele>
        <time>2017-04-22T09:09:56Z</time>
      </trkpt>
      <trkpt lat="45.91907" lon="4.73729">
        <ele>171</ele>
        <time>2017-04-22T09:09:57Z</time>
      </trkpt>
      <trkpt lat="45.919" lon="4.73729">
        <ele>171</ele>
        <time>2017-04-22T09:09:58Z</time>
      </trkpt>
      <trkpt lat="45.91894" lon="4.73729">
        <ele>171</ele>
        <time>2017-04-22T09:09:59Z</time>
      </trkpt>
      <trkpt lat="45.91888" lon="4.73729">
        <ele>171</ele>
        <time>2017-04-22T09:10:00Z</time>
      </trkpt>
      <trkpt lat="45.91881" lon="4.73729">
        <ele>171</ele>
        <time>2017-04-22T09:10:01Z</time>
      </trkpt>
      <trkpt lat="45.91875" lon="4.73729">
        <ele>171</ele>
        <time>2017-04-22T09:10:02Z</time>
      </trkpt>
      <trkpt lat="45.91869" lon="4.73729">
        <ele>171</ele>
        <time>2017-04-22T09:10:03Z</time>
      </trkpt>
      <trkpt lat="45.91862" lon="4.73729">
        <ele>171</ele>
        <time>2017-04-22T09:10:04Z</time>
      </trkpt>
      <trkpt lat="45.91856" lon="4.73729">
        <ele>171</ele>
        <time>2017-04-22T09:10:05Z</time>
      </trkpt>
      <trkpt lat="45.91849" lon="4.73729">
        <ele>172</ele>
        <time>2017-04-22T09:10:06Z</time>
      </trkpt>
      <trkpt lat="45.91843" lon="4.73729">
        <ele>172</ele>
        <time>2017-04-22T09:10:07Z</time>
      </trkpt>
      <trkpt lat="45.91836" lon="4.7373">
        <ele>172</ele>
        <time>2017-04-22T09:10:08Z</time>
      </trkpt>
      <trkpt lat="45.9183" lon="4.7373">
        <ele>172</ele>
        <time>2017-04-22T09:10:09Z</time>
      </trkpt>
      <trkpt lat="45.91824" lon="4.7373">
        <ele>172</ele>
        <time>2017-04-22T09:10:10Z</time>
      </trkpt>
      <trkpt lat="45.91817" lon="4.7373">
        <ele>172</ele>
        <time>2017-04-22T09:10:11Z</time>
      </trkpt>
      <trkpt lat="45.91811" lon="4.7373">
        <ele>172</ele>
        <time>2017-04-22T09:10:12Z</time>
      </trkpt>
      <trkpt lat="45.91805" lon="4.73731">
        <ele>172</ele>
        <time>2017-04-22T09:10:13Z</time>
      </trkpt>
      <trkpt lat="45.91799" lon="4.73731">
        <ele>172</ele>
        <time>2017-04-22T09:10:14Z</time>
      </trkpt>
      <trkpt lat="45.91793" lon="4.73731">
        <ele>172</ele>
        <time>2017-04-22T09:10:15Z</time>
      </trkpt>
      <trkpt lat="45.91788" lon="4.73731">
        <ele>173</ele>
        <time>2017-04-22T09:10:16Z</time>
      </trkpt>
      <trkpt lat="45.91782" lon="4.73731">
        <ele>173</ele>
        <time>2017-04-22T09:10:17Z</time>
      </trkpt>
      <trkpt lat="45.91776" lon="4.7373">
        <ele>173</ele>
        <time>2017-04-22T09:10:18Z</time>
      </trkpt>
      <trkpt lat="45.9177" lon="4.7373">
        <ele>173</ele>
        <time>2017-04-22T09:10:19Z</time>
      </trkpt>
      <trkpt lat="45.91765" lon="4.73729">
        <ele>173</ele>
        <time>2017-04-22T09:10:20Z</time>
      </trkpt>
      <trkpt lat="45.91759" lon="4.73729">
        <ele>173</ele>
        <time>2017-04-22T09:10:21Z</time>
      </trkpt>
      <trkpt lat="45.91753" lon="4.73729">
        <ele>173</ele>
        <time>2017-04-22T09:10:22Z</time>
      </trkpt>
      <trkpt lat="45.91747" lon="4.73729">
        <ele>173</ele>
        <time>2017-04-22T09:10:23Z</time>
      </trkpt>
      <trkpt lat="45.91741" lon="4.73729">
        <ele>173</ele>
        <time>2017-04-22T09:10:24Z</time>
      </trkpt>
      <trkpt lat="45.91734" lon="4.73729">
        <ele>173</ele>
        <time>2017-04-22T09:10:25Z</time>
      </trkpt>
      <trkpt lat="45.91727" lon="4.73729">
        <ele>173</ele>
        <time>2017-04-22T09:10:26Z</time>
      </trkpt>
      <trkpt lat="45.91721" lon="4.73729">
        <ele>173</ele>
        <time>2017-04-22T09:10:27Z</time>
      </trkpt>
      <trkpt lat="45.91715" lon="4.73729">
        <ele>173</ele>
        <time>2017-04-22T09:10:28Z</time>
      </trkpt>
      <trkpt lat="45.91708" lon="4.73729">
        <ele>172</ele>
        <time>2017-04-22T09:10:29Z</time>
      </trkpt>
      <trkpt lat="45.91702" lon="4.7373">
        <ele>172</ele>
        <time>2017-04-22T09:10:30Z</time>
      </trkpt>
      <trkpt lat="45.91696" lon="4.7373">
        <ele>172</ele>
        <time>2017-04-22T09:10:31Z</time>
      </trkpt>
      <trkpt lat="45.9169" lon="4.73731">
        <ele>172</ele>
        <time>2017-04-22T09:10:32Z</time>
      </trkpt>
      <trkpt lat="45.91684" lon="4.7373">
        <ele>172</ele>
        <time>2017-04-22T09:10:33Z</time>
      </trkpt>
      <trkpt lat="45.91678" lon="4.7373">
        <ele>172</ele>
        <time>2017-04-22T09:10:34Z</time>
      </trkpt>
      <trkpt lat="45.91671" lon="4.73729">
        <ele>172</ele>
        <time>2017-04-22T09:10:35Z</time>
      </trkpt>
      <trkpt lat="45.91665" lon="4.73729">
        <ele>172</ele>
        <time>2017-04-22T09:10:36Z</time>
      </trkpt>
      <trkpt lat="45.91659" lon="4.73729">
        <ele>172</ele>
        <time>2017-04-22T09:10:37Z</time>
      </trkpt>
      <trkpt lat="45.91653" lon="4.7373">
        <ele>172</ele>
        <time>2017-04-22T09:10:38Z</time>
      </trkpt>
      <trkpt lat="45.91647" lon="4.7373">
        <ele>172</ele>
        <time>2017-04-22T09:10:39Z</time>
      </trkpt>
      <trkpt lat="45.9164" lon="4.7373">
        <ele>172</ele>
        <time>2017-04-22T09:10:40Z</time>
      </trkpt>
      <trkpt lat="45.91633" lon="4.7373">
        <ele>172</ele>
        <time>2017-04-22T09:10:41Z</time>
      </trkpt>
      <trkpt lat="45.91627" lon="4.7373">
        <ele>172</ele>
        <time>2017-04-22T09:10:42Z</time>
      </trkpt>
      <trkpt lat="45.91621" lon="4.7373">
        <ele>173</ele>
        <time>2017-04-22T09:10:43Z</time>
      </trkpt>
      <trkpt lat="45.91614" lon="4.7373">
        <ele>173</ele>
        <time>2017-04-22T09:10:44Z</time>
      </trkpt>
      <trkpt lat="45.91608" lon="4.7373">
        <ele>173</ele>
        <time>2017-04-22T09:10:45Z</time>
      </trkpt>
      <trkpt lat="45.91601" lon="4.7373">
        <ele>173</ele>
        <time>2017-04-22T09:10:46Z</time>
      </trkpt>
      <trkpt lat="45.91594" lon="4.7373">
        <ele>173</ele>
        <time>2017-04-22T09:10:47Z</time>
      </trkpt>
      <trkpt lat="45.91588" lon="4.7373">
        <ele>173</ele>
        <time>2017-04-22T09:10:48Z</time>
      </trkpt>
      <trkpt lat="45.91581" lon="4.73731">
        <ele>173</ele>
        <time>2017-04-22T09:10:49Z</time>
      </trkpt>
      <trkpt lat="45.91575" lon="4.73731">
        <ele>173</ele>
        <time>2017-04-22T09:10:50Z</time>
      </trkpt>
      <trkpt lat="45.91568" lon="4.73731">
        <ele>173</ele>
        <time>2017-04-22T09:10:51Z</time>
      </trkpt>
      <trkpt lat="45.91562" lon="4.73731">
        <ele>173</ele>
        <time>2017-04-22T09:10:52Z</time>
      </trkpt>
      <trkpt lat="45.91556" lon="4.73731">
        <ele>174</ele>
        <time>2017-04-22T09:10:53Z</time>
      </trkpt>
      <trkpt lat="45.9155" lon="4.73732">
        <ele>174</ele>
        <time>2017-04-22T09:10:54Z</time>
      </trkpt>
      <trkpt lat="45.91544" lon="4.73732">
        <ele>174</ele>
        <time>2017-04-22T09:10:55Z</time>
      </trkpt>
      <trkpt lat="45.91538" lon="4.73732">
        <ele>174</ele>
        <time>2017-04-22T09:10:56Z</time>
      </trkpt>
      <trkpt lat="45.91532" lon="4.73732">
        <ele>174</ele>
        <time>2017-04-22T09:10:57Z</time>
      </trkpt>
      <trkpt lat="45.91526" lon="4.73732">
        <ele>174</ele>
        <time>2017-04-22T09:10:58Z</time>
      </trkpt>
      <trkpt lat="45.9152" lon="4.73732">
        <ele>174</ele>
        <time>2017-04-22T09:10:59Z</time>
      </trkpt>
      <trkpt lat="45.91514" lon="4.73733">
        <ele>174</ele>
        <time>2017-04-22T09:11:00Z</time>
      </trkpt>
      <trkpt lat="45.91508" lon="4.73733">
        <ele>174</ele>
        <time>2017-04-22T09:11:01Z</time>
      </trkpt>
      <trkpt lat="45.91502" lon="4.73733">
        <ele>174</ele>
        <time>2017-04-22T09:11:02Z</time>
      </trkpt>
      <trkpt lat="45.91496" lon="4.73733">
        <ele>174</ele>
        <time>2017-04-22T09:11:03Z</time>
      </trkpt>
      <trkpt lat="45.9149" lon="4.73733">
        <ele>174</ele>
        <time>2017-04-22T09:11:04Z</time>
      </trkpt>
      <trkpt lat="45.91484" lon="4.73734">
        <ele>174</ele>
        <time>2017-04-22T09:11:05Z</time>
      </trkpt>
      <trkpt lat="45.91477" lon="4.73734">
        <ele>174</ele>
        <time>2017-04-22T09:11:06Z</time>
      </trkpt>
      <trkpt lat="45.91471" lon="4.73734">
        <ele>174</ele>
        <time>2017-04-22T09:11:07Z</time>
      </trkpt>
      <trkpt lat="45.91464" lon="4.73733">
        <ele>174</ele>
        <time>2017-04-22T09:11:08Z</time>
      </trkpt>
      <trkpt lat="45.91457" lon="4.73733">
        <ele>174</ele>
        <time>2017-04-22T09:11:09Z</time>
      </trkpt>
      <trkpt lat="45.91451" lon="4.73734">
        <ele>173</ele>
        <time>2017-04-22T09:11:10Z</time>
      </trkpt>
      <trkpt lat="45.91444" lon="4.73734">
        <ele>173</ele>
        <time>2017-04-22T09:11:11Z</time>
      </trkpt>
      <trkpt lat="45.91438" lon="4.73734">
        <ele>173</ele>
        <time>2017-04-22T09:11:12Z</time>
      </trkpt>
      <trkpt lat="45.91431" lon="4.73734">
        <ele>173</ele>
        <time>2017-04-22T09:11:13Z</time>
      </trkpt>
      <trkpt lat="45.91424" lon="4.73734">
        <ele>173</ele>
        <time>2017-04-22T09:11:14Z</time>
      </trkpt>
      <trkpt lat="45.91418" lon="4.73734">
        <ele>173</ele>
        <time>2017-04-22T09:11:15Z</time>
      </trkpt>
      <trkpt lat="45.91412" lon="4.73734">
        <ele>173</ele>
        <time>2017-04-22T09:11:16Z</time>
      </trkpt>
      <trkpt lat="45.91405" lon="4.73735">
        <ele>173</ele>
        <time>2017-04-22T09:11:17Z</time>
      </trkpt>
      <trkpt lat="45.91399" lon="4.73736">
        <ele>173</ele>
        <time>2017-04-22T09:11:18Z</time>
      </trkpt>
      <trkpt lat="45.91393" lon="4.73736">
        <ele>173</ele>
        <time>2017-04-22T09:11:19Z</time>
      </trkpt>
      <trkpt lat="45.91387" lon="4.73736">
        <ele>173</ele>
        <time>2017-04-22T09:11:20Z</time>
      </trkpt>
      <trkpt lat="45.91381" lon="4.73736">
        <ele>173</ele>
        <time>2017-04-22T09:11:21Z</time>
      </trkpt>
      <trkpt lat="45.91375" lon="4.73736">
        <ele>173</ele>
        <time>2017-04-22T09:11:22Z</time>
      </trkpt>
      <trkpt lat="45.91369" lon="4.73736">
        <ele>173</ele>
        <time>2017-04-22T09:11:23Z</time>
      </trkpt>
      <trkpt lat="45.91362" lon="4.73736">
        <ele>173</ele>
        <time>2017-04-22T09:11:24Z</time>
      </trkpt>
      <trkpt lat="45.91357" lon="4.73736">
        <ele>173</ele>
        <time>2017-04-22T09:11:25Z</time>
      </trkpt>
      <trkpt lat="45.91351" lon="4.73736">
        <ele>173</ele>
        <time>2017-04-22T09:11:26Z</time>
      </trkpt>
      <trkpt lat="45.91345" lon="4.73736">
        <ele>173</ele>
        <time>2017-04-22T09:11:27Z</time>
      </trkpt>
      <trkpt lat="45.91339" lon="4.73736">
        <ele>173</ele>
        <time>2017-04-22T09:11:28Z</time>
      </trkpt>
      <trkpt lat="45.91333" lon="4.73736">
        <ele>173</ele>
        <time>2017-04-22T09:11:29Z</time>
      </trkpt>
      <trkpt lat="45.91326" lon="4.73736">
        <ele>173</ele>
        <time>2017-04-22T09:11:30Z</time>
      </trkpt>
      <trkpt lat="45.9132" lon="4.73737">
        <ele>174</ele>
        <time>2017-04-22T09:11:31Z</time>
      </trkpt>
      <trkpt lat="45.91314" lon="4.73738">
        <ele>174</ele>
        <time>2017-04-22T09:11:32Z</time>
      </trkpt>
      <trkpt lat="45.91307" lon="4.73738">
        <ele>174</ele>
        <time>2017-04-22T09:11:33Z</time>
      </trkpt>
      <trkpt lat="45.91301" lon="4.73738">
        <ele>174</ele>
        <time>2017-04-22T09:11:34Z</time>
      </trkpt>
      <trkpt lat="45.91294" lon="4.73739">
        <ele>174</ele>
        <time>2017-04-22T09:11:35Z</time>
      </trkpt>
      <trkpt lat="45.91288" lon="4.73739">
        <ele>174</ele>
        <time>2017-04-22T09:11:36Z</time>
      </trkpt>
      <trkpt lat="45.91281" lon="4.73739">
        <ele>174</ele>
        <time>2017-04-22T09:11:37Z</time>
      </trkpt>
      <trkpt lat="45.91275" lon="4.73739">
        <ele>174</ele>
        <time>2017-04-22T09:11:38Z</time>
      </trkpt>
      <trkpt lat="45.91268" lon="4.73739">
        <ele>174</ele>
        <time>2017-04-22T09:11:39Z</time>
      </trkpt>
      <trkpt lat="45.91262" lon="4.73739">
        <ele>174</ele>
        <time>2017-04-22T09:11:40Z</time>
      </trkpt>
      <trkpt lat="45.91255" lon="4.73739">
        <ele>175</ele>
        <time>2017-04-22T09:11:41Z</time>
      </trkpt>
      <trkpt lat="45.91248" lon="4.73739">
        <ele>175</ele>
        <time>2017-04-22T09:11:42Z</time>
      </trkpt>
      <trkpt lat="45.91242" lon="4.73739">
        <ele>175</ele>
        <time>2017-04-22T09:11:43Z</time>
      </trkpt>
      <trkpt lat="45.91235" lon="4.7374">
        <ele>175</ele>
        <time>2017-04-22T09:11:44Z</time>
      </trkpt>
      <trkpt lat="45.91229" lon="4.73739">
        <ele>175</ele>
        <time>2017-04-22T09:11:45Z</time>
      </trkpt>
      <trkpt lat="45.91222" lon="4.7374">
        <ele>175</ele>
        <time>2017-04-22T09:11:46Z</time>
      </trkpt>
      <trkpt lat="45.91216" lon="4.7374">
        <ele>175</ele>
        <time>2017-04-22T09:11:47Z</time>
      </trkpt>
      <trkpt lat="45.9121" lon="4.7374">
        <ele>175</ele>
        <time>2017-04-22T09:11:48Z</time>
      </trkpt>
      <trkpt lat="45.91204" lon="4.7374">
        <ele>175</ele>
        <time>2017-04-22T09:11:49Z</time>
      </trkpt>
      <trkpt lat="45.91198" lon="4.73739">
        <ele>175</ele>
        <time>2017-04-22T09:11:50Z</time>
      </trkpt>
      <trkpt lat="45.91192" lon="4.73738">
        <ele>175</ele>
        <time>2017-04-22T09:11:51Z</time>
      </trkpt>
      <trkpt lat="45.91186" lon="4.73736">
        <ele>175</ele>
        <time>2017-04-22T09:11:52Z</time>
      </trkpt>
      <trkpt lat="45.91181" lon="4.73734">
        <ele>175</ele>
        <time>2017-04-22T09:11:53Z</time>
      </trkpt>
      <trkpt lat="45.91175" lon="4.7373">
        <ele>175</ele>
        <time>2017-04-22T09:11:54Z</time>
      </trkpt>
      <trkpt lat="45.9117" lon="4.73729">
        <ele>175</ele>
        <time>2017-04-22T09:11:55Z</time>
      </trkpt>
      <trkpt lat="45.91165" lon="4.7373">
        <ele>175</ele>
        <time>2017-04-22T09:11:56Z</time>
      </trkpt>
      <trkpt lat="45.91158" lon="4.73738">
        <ele>175</ele>
        <time>2017-04-22T09:11:58Z</time>
      </trkpt>
      <trkpt lat="45.91156" lon="4.73743">
        <ele>175</ele>
        <time>2017-04-22T09:11:59Z</time>
      </trkpt>
      <trkpt lat="45.91159" lon="4.73754">
        <ele>175</ele>
        <time>2017-04-22T09:12:01Z</time>
      </trkpt>
      <trkpt lat="45.91161" lon="4.73759">
        <ele>175</ele>
        <time>2017-04-22T09:12:02Z</time>
      </trkpt>
      <trkpt lat="45.91166" lon="4.7377">
        <ele>175</ele>
        <time>2017-04-22T09:12:04Z</time>
      </trkpt>
      <trkpt lat="45.91169" lon="4.73776">
        <ele>175</ele>
        <time>2017-04-22T09:12:05Z</time>
      </trkpt>
      <trkpt lat="45.91171" lon="4.73782">
        <ele>175</ele>
        <time>2017-04-22T09:12:06Z</time>
      </trkpt>
      <trkpt lat="45.91174" lon="4.73787">
        <ele>175</ele>
        <time>2017-04-22T09:12:07Z</time>
      </trkpt>
      <trkpt lat="45.91176" lon="4.73793">
        <ele>175</ele>
        <time>2017-04-22T09:12:08Z</time>
      </trkpt>
      <trkpt lat="45.91179" lon="4.73799">
        <ele>175</ele>
        <time>2017-04-22T09:12:09Z</time>
      </trkpt>
      <trkpt lat="45.91182" lon="4.73804">
        <ele>175</ele>
        <time>2017-04-22T09:12:10Z</time>
      </trkpt>
      <trkpt lat="45.91184" lon="4.7381">
        <ele>175</ele>
        <time>2017-04-22T09:12:11Z</time>
      </trkpt>
      <trkpt lat="45.91187" lon="4.73816">
        <ele>175</ele>
        <time>2017-04-22T09:12:12Z</time>
      </trkpt>
      <trkpt lat="45.91189" lon="4.73822">
        <ele>175</ele>
        <time>2017-04-22T09:12:13Z</time>
      </trkpt>
      <trkpt lat="45.91192" lon="4.73828">
        <ele>175</ele>
        <time>2017-04-22T09:12:14Z</time>
      </trkpt>
      <trkpt lat="45.91194" lon="4.73834">
        <ele>174</ele>
        <time>2017-04-22T09:12:15Z</time>
      </trkpt>
      <trkpt lat="45.91197" lon="4.7384">
        <ele>174</ele>
        <time>2017-04-22T09:12:16Z</time>
      </trkpt>
      <trkpt lat="45.91199" lon="4.73846">
        <ele>174</ele>
        <time>2017-04-22T09:12:17Z</time>
      </trkpt>
      <trkpt lat="45.91202" lon="4.73852">
        <ele>174</ele>
        <time>2017-04-22T09:12:18Z</time>
      </trkpt>
      <trkpt lat="45.91204" lon="4.73858">
        <ele>174</ele>
        <time>2017-04-22T09:12:19Z</time>
      </trkpt>
      <trkpt lat="45.91207" lon="4.73864">
        <ele>174</ele>
        <time>2017-04-22T09:12:20Z</time>
      </trkpt>
      <trkpt lat="45.91209" lon="4.7387">
        <ele>174</ele>
        <time>2017-04-22T09:12:21Z</time>
      </trkpt>
      <trkpt lat="45.91211" lon="4.73876">
        <ele>174</ele>
        <time>2017-04-22T09:12:22Z</time>
      </trkpt>
      <trkpt lat="45.91213" lon="4.73883">
        <ele>174</ele>
        <time>2017-04-22T09:12:23Z</time>
      </trkpt>
      <trkpt lat="45.91215" lon="4.73889">
        <ele>174</ele>
        <time>2017-04-22T09:12:24Z</time>
      </trkpt>
      <trkpt lat="45.91216" lon="4.73896">
        <ele>174</ele>
        <time>2017-04-22T09:12:25Z</time>
      </trkpt>
      <trkpt lat="45.91218" lon="4.73903">
        <ele>174</ele>
        <time>2017-04-22T09:12:26Z</time>
      </trkpt>
      <trkpt lat="45.91219" lon="4.73909">
        <ele>174</ele>
        <time>2017-04-22T09:12:27Z</time>
      </trkpt>
      <trkpt lat="45.9122" lon="4.73922">
        <ele>173</ele>
        <time>2017-04-22T09:12:29Z</time>
      </trkpt>
      <trkpt lat="45.91221" lon="4.73928">
        <ele>173</ele>
        <time>2017-04-22T09:12:30Z</time>
      </trkpt>
      <trkpt lat="45.91222" lon="4.73935">
        <ele>173</ele>
        <time>2017-04-22T09:12:31Z</time>
      </trkpt>
      <trkpt lat="45.91222" lon="4.73942">
        <ele>173</ele>
        <time>2017-04-22T09:12:32Z</time>
      </trkpt>
      <trkpt lat="45.91222" lon="4.73948">
        <ele>173</ele>
        <time>2017-04-22T09:12:33Z</time>
      </trkpt>
      <trkpt lat="45.91222" lon="4.73955">
        <ele>173</ele>
        <time>2017-04-22T09:12:34Z</time>
      </trkpt>
      <trkpt lat="45.91222" lon="4.73962">
        <ele>173</ele>
        <time>2017-04-22T09:12:35Z</time>
      </trkpt>
      <trkpt lat="45.91222" lon="4.73968">
        <ele>173</ele>
        <time>2017-04-22T09:12:36Z</time>
      </trkpt>
      <trkpt lat="45.91222" lon="4.73975">
        <ele>173</ele>
        <time>2017-04-22T09:12:37Z</time>
      </trkpt>
      <trkpt lat="45.91221" lon="4.73981">
        <ele>173</ele>
        <time>2017-04-22T09:12:38Z</time>
      </trkpt>
      <trkpt lat="45.91221" lon="4.73988">
        <ele>173</ele>
        <time>2017-04-22T09:12:39Z</time>
      </trkpt>
      <trkpt lat="45.9122" lon="4.73994">
        <ele>173</ele>
        <time>2017-04-22T09:12:40Z</time>
      </trkpt>
      <trkpt lat="45.91219" lon="4.74001">
        <ele>173</ele>
        <time>2017-04-22T09:12:41Z</time>
      </trkpt>
      <trkpt lat="45.91217" lon="4.74007">
        <ele>173</ele>
        <time>2017-04-22T09:12:42Z</time>
      </trkpt>
      <trkpt lat="45.91216" lon="4.74013">
        <ele>173</ele>
        <time>2017-04-22T09:12:43Z</time>
      </trkpt>
      <trkpt lat="45.91215" lon="4.7402">
        <ele>173</ele>
        <time>2017-04-22T09:12:44Z</time>
      </trkpt>
      <trkpt lat="45.91213" lon="4.74032">
        <ele>173</ele>
        <time>2017-04-22T09:12:46Z</time>
      </trkpt>
      <trkpt lat="45.91211" lon="4.74038">
        <ele>173</ele>
        <time>2017-04-22T09:12:47Z</time>
      </trkpt>
      <trkpt lat="45.9121" lon="4.74045">
        <ele>173</ele>
        <time>2017-04-22T09:12:48Z</time>
      </trkpt>
      <trkpt lat="45.91209" lon="4.74051">
        <ele>173</ele>
        <time>2017-04-22T09:12:49Z</time>
      </trkpt>
      <trkpt lat="45.91208" lon="4.74057">
        <ele>173</ele>
        <time>2017-04-22T09:12:50Z</time>
      </trkpt>
      <trkpt lat="45.91206" lon="4.74064">
        <ele>173</ele>
        <time>2017-04-22T09:12:51Z</time>
      </trkpt>
      <trkpt lat="45.91205" lon="4.7407">
        <ele>173</ele>
        <time>2017-04-22T09:12:52Z</time>
      </trkpt>
      <trkpt lat="45.91203" lon="4.74077">
        <ele>173</ele>
        <time>2017-04-22T09:12:53Z</time>
      </trkpt>
      <trkpt lat="45.91202" lon="4.74084">
        <ele>173</ele>
        <time>2017-04-22T09:12:54Z</time>
      </trkpt>
      <trkpt lat="45.912" lon="4.74091">
        <ele>173</ele>
        <time>2017-04-22T09:12:55Z</time>
      </trkpt>
      <trkpt lat="45.91198" lon="4.74098">
        <ele>173</ele>
        <time>2017-04-22T09:12:56Z</time>
      </trkpt>
      <trkpt lat="45.91196" lon="4.74105">
        <ele>174</ele>
        <time>2017-04-22T09:12:57Z</time>
      </trkpt>
      <trkpt lat="45.91195" lon="4.74113">
        <ele>174</ele>
        <time>2017-04-22T09:12:58Z</time>
      </trkpt>
      <trkpt lat="45.91193" lon="4.7412">
        <ele>174</ele>
        <time>2017-04-22T09:12:59Z</time>
      </trkpt>
      <trkpt lat="45.91192" lon="4.74127">
        <ele>174</ele>
        <time>2017-04-22T09:13:00Z</time>
      </trkpt>
      <trkpt lat="45.9119" lon="4.74135">
        <ele>174</ele>
        <time>2017-04-22T09:13:01Z</time>
      </trkpt>
      <trkpt lat="45.91189" lon="4.74142">
        <ele>174</ele>
        <time>2017-04-22T09:13:02Z</time>
      </trkpt>
      <trkpt lat="45.91188" lon="4.7415">
        <ele>174</ele>
        <time>2017-04-22T09:13:03Z</time>
      </trkpt>
      <trkpt lat="45.91186" lon="4.74158">
        <ele>174</ele>
        <time>2017-04-22T09:13:04Z</time>
      </trkpt>
      <trkpt lat="45.91185" lon="4.74166">
        <ele>174</ele>
        <time>2017-04-22T09:13:05Z</time>
      </trkpt>
      <trkpt lat="45.91184" lon="4.74175">
        <ele>174</ele>
        <time>2017-04-22T09:13:06Z</time>
      </trkpt>
      <trkpt lat="45.91183" lon="4.74183">
        <ele>174</ele>
        <time>2017-04-22T09:13:07Z</time>
      </trkpt>
      <trkpt lat="45.91182" lon="4.74193">
        <ele>175</ele>
        <time>2017-04-22T09:13:08Z</time>
      </trkpt>
      <trkpt lat="45.91182" lon="4.74202">
        <ele>175</ele>
        <time>2017-04-22T09:13:09Z</time>
      </trkpt>
      <trkpt lat="45.91182" lon="4.74212">
        <ele>175</ele>
        <time>2017-04-22T09:13:10Z</time>
      </trkpt>
      <trkpt lat="45.91183" lon="4.74223">
        <ele>175</ele>
        <time>2017-04-22T09:13:11Z</time>
      </trkpt>
      <trkpt lat="45.91184" lon="4.74233">
        <ele>175</ele>
        <time>2017-04-22T09:13:12Z</time>
      </trkpt>
      <trkpt lat="45.91185" lon="4.74243">
        <ele>175</ele>
        <time>2017-04-22T09:13:13Z</time>
      </trkpt>
      <trkpt lat="45.91186" lon="4.74253">
        <ele>175</ele>
        <time>2017-04-22T09:13:14Z</time>
      </trkpt>
      <trkpt lat="45.91188" lon="4.74264">
        <ele>175</ele>
        <time>2017-04-22T09:13:15Z</time>
      </trkpt>
      <trkpt lat="45.9119" lon="4.74275">
        <ele>175</ele>
        <time>2017-04-22T09:13:16Z</time>
      </trkpt>
      <trkpt lat="45.91192" lon="4.74285">
        <ele>175</ele>
        <time>2017-04-22T09:13:17Z</time>
      </trkpt>
      <trkpt lat="45.91195" lon="4.74296">
        <ele>175</ele>
        <time>2017-04-22T09:13:18Z</time>
      </trkpt>
      <trkpt lat="45.91198" lon="4.74307">
        <ele>175</ele>
        <time>2017-04-22T09:13:19Z</time>
      </trkpt>
      <trkpt lat="45.91201" lon="4.74319">
        <ele>175</ele>
        <time>2017-04-22T09:13:20Z</time>
      </trkpt>
      <trkpt lat="45.91204" lon="4.7433">
        <ele>175</ele>
        <time>2017-04-22T09:13:21Z</time>
      </trkpt>
      <trkpt lat="45.91206" lon="4.74342">
        <ele>175</ele>
        <time>2017-04-22T09:13:22Z</time>
      </trkpt>
      <trkpt lat="45.91209" lon="4.74353">
        <ele>175</ele>
        <time>2017-04-22T09:13:23Z</time>
      </trkpt>
      <trkpt lat="45.91212" lon="4.74364">
        <ele>175</ele>
        <time>2017-04-22T09:13:24Z</time>
      </trkpt>
      <trkpt lat="45.91215" lon="4.74375">
        <ele>174</ele>
        <time>2017-04-22T09:13:25Z</time>
      </trkpt>
      <trkpt lat="45.91218" lon="4.74386">
        <ele>174</ele>
        <time>2017-04-22T09:13:26Z</time>
      </trkpt>
      <trkpt lat="45.91221" lon="4.74397">
        <ele>174</ele>
        <time>2017-04-22T09:13:27Z</time>
      </trkpt>
      <trkpt lat="45.91224" lon="4.74408">
        <ele>174</ele>
        <time>2017-04-22T09:13:28Z</time>
      </trkpt>
      <trkpt lat="45.91227" lon="4.74419">
        <ele>174</ele>
        <time>2017-04-22T09:13:29Z</time>
      </trkpt>
      <trkpt lat="45.9123" lon="4.74429">
        <ele>174</ele>
        <time>2017-04-22T09:13:30Z</time>
      </trkpt>
      <trkpt lat="45.91233" lon="4.74439">
        <ele>174</ele>
        <time>2017-04-22T09:13:31Z</time>
      </trkpt>
      <trkpt lat="45.91236" lon="4.74449">
        <ele>174</ele>
        <time>2017-04-22T09:13:32Z</time>
      </trkpt>
      <trkpt lat="45.91238" lon="4.74458">
        <ele>174</ele>
        <time>2017-04-22T09:13:33Z</time>
      </trkpt>
      <trkpt lat="45.91241" lon="4.74467">
        <ele>174</ele>
        <time>2017-04-22T09:13:34Z</time>
      </trkpt>
      <trkpt lat="45.91243" lon="4.74476">
        <ele>174</ele>
        <time>2017-04-22T09:13:35Z</time>
      </trkpt>
      <trkpt lat="45.91246" lon="4.74484">
        <ele>174</ele>
        <time>2017-04-22T09:13:36Z</time>
      </trkpt>
      <trkpt lat="45.91248" lon="4.74493">
        <ele>174</ele>
        <time>2017-04-22T09:13:37Z</time>
      </trkpt>
      <trkpt lat="45.9125" lon="4.74501">
        <ele>174</ele>
        <time>2017-04-22T09:13:38Z</time>
      </trkpt>
      <trkpt lat="45.91252" lon="4.7451">
        <ele>174</ele>
        <time>2017-04-22T09:13:39Z</time>
      </trkpt>
      <trkpt lat="45.91255" lon="4.74518">
        <ele>174</ele>
        <time>2017-04-22T09:13:40Z</time>
      </trkpt>
      <trkpt lat="45.91257" lon="4.74527">
        <ele>173</ele>
        <time>2017-04-22T09:13:41Z</time>
      </trkpt>
      <trkpt lat="45.9126" lon="4.74535">
        <ele>173</ele>
        <time>2017-04-22T09:13:42Z</time>
      </trkpt>
      <trkpt lat="45.91263" lon="4.74543">
        <ele>173</ele>
        <time>2017-04-22T09:13:43Z</time>
      </trkpt>
      <trkpt lat="45.91266" lon="4.74551">
        <ele>173</ele>
        <time>2017-04-22T09:13:44Z</time>
      </trkpt>
      <trkpt lat="45.91269" lon="4.74558">
        <ele>173</ele>
        <time>2017-04-22T09:13:45Z</time>
      </trkpt>
      <trkpt lat="45.91272" lon="4.74565">
        <ele>173</ele>
        <time>2017-04-22T09:13:46Z</time>
      </trkpt>
      <trkpt lat="45.91275" lon="4.74572">
        <ele>173</ele>
        <time>2017-04-22T09:13:47Z</time>
      </trkpt>
      <trkpt lat="45.91278" lon="4.7458">
        <ele>173</ele>
        <time>2017-04-22T09:13:48Z</time>
      </trkpt>
      <trkpt lat="45.91282" lon="4.74587">
        <ele>173</ele>
        <time>2017-04-22T09:13:49Z</time>
      </trkpt>
      <trkpt lat="45.91285" lon="4.74594">
        <ele>173</ele>
        <time>2017-04-22T09:13:50Z</time>
      </trkpt>
      <trkpt lat="45.91288" lon="4.74601">
        <ele>173</ele>
        <time>2017-04-22T09:13:51Z</time>
      </trkpt>
      <trkpt lat="45.91291" lon="4.74609">
        <ele>173</ele>
        <time>2017-04-22T09:13:52Z</time>
      </trkpt>
      <trkpt lat="45.91294" lon="4.74616">
        <ele>173</ele>
        <time>2017-04-22T09:13:53Z</time>
      </trkpt>
      <trkpt lat="45.91297" lon="4.74624">
        <ele>173</ele>
        <time>2017-04-22T09:13:54Z</time>
      </trkpt>
      <trkpt lat="45.913" lon="4.74631">
        <ele>173</ele>
        <time>2017-04-22T09:13:55Z</time>
      </trkpt>
      <trkpt lat="45.91303" lon="4.74638">
        <ele>173</ele>
        <time>2017-04-22T09:13:56Z</time>
      </trkpt>
      <trkpt lat="45.91306" lon="4.74645">
        <ele>173</ele>
        <time>2017-04-22T09:13:57Z</time>
      </trkpt>
      <trkpt lat="45.91309" lon="4.74652">
        <ele>173</ele>
        <time>2017-04-22T09:13:58Z</time>
      </trkpt>
      <trkpt lat="45.91312" lon="4.74659">
        <ele>173</ele>
        <time>2017-04-22T09:13:59Z</time>
      </trkpt>
      <trkpt lat="45.91314" lon="4.74665">
        <ele>173</ele>
        <time>2017-04-22T09:14:00Z</time>
      </trkpt>
      <trkpt lat="45.91316" lon="4.74673">
        <ele>173</ele>
        <time>2017-04-22T09:14:01Z</time>
      </trkpt>
      <trkpt lat="45.91318" lon="4.7468">
        <ele>173</ele>
        <time>2017-04-22T09:14:02Z</time>
      </trkpt>
      <trkpt lat="45.9132" lon="4.74686">
        <ele>173</ele>
        <time>2017-04-22T09:14:03Z</time>
      </trkpt>
      <trkpt lat="45.91321" lon="4.74693">
        <ele>173</ele>
        <time>2017-04-22T09:14:04Z</time>
      </trkpt>
      <trkpt lat="45.91323" lon="4.747">
        <ele>173</ele>
        <time>2017-04-22T09:14:05Z</time>
      </trkpt>
      <trkpt lat="45.91324" lon="4.74707">
        <ele>173</ele>
        <time>2017-04-22T09:14:06Z</time>
      </trkpt>
      <trkpt lat="45.91325" lon="4.74715">
        <ele>173</ele>
        <time>2017-04-22T09:14:07Z</time>
      </trkpt>
      <trkpt lat="45.91324" lon="4.74723">
        <ele>173</ele>
        <time>2017-04-22T09:14:08Z</time>
      </trkpt>
      <trkpt lat="45.91324" lon="4.7473">
        <ele>173</ele>
        <time>2017-04-22T09:14:09Z</time>
      </trkpt>
      <trkpt lat="45.91323" lon="4.74738">
        <ele>173</ele>
        <time>2017-04-22T09:14:10Z</time>
      </trkpt>
      <trkpt lat="45.91322" lon="4.74746">
        <ele>173</ele>
        <time>2017-04-22T09:14:11Z</time>
      </trkpt>
      <trkpt lat="45.91321" lon="4.74754">
        <ele>174</ele>
        <time>2017-04-22T09:14:12Z</time>
      </trkpt>
      <trkpt lat="45.9132" lon="4.74762">
        <ele>174</ele>
        <time>2017-04-22T09:14:13Z</time>
      </trkpt>
      <trkpt lat="45.91318" lon="4.7477">
        <ele>174</ele>
        <time>2017-04-22T09:14:14Z</time>
      </trkpt>
      <trkpt lat="45.91317" lon="4.74777">
        <ele>174</ele>
        <time>2017-04-22T09:14:15Z</time>
      </trkpt>
      <trkpt lat="45.91316" lon="4.74785">
        <ele>174</ele>
        <time>2017-04-22T09:14:16Z</time>
      </trkpt>
      <trkpt lat="45.91314" lon="4.74792">
        <ele>174</ele>
        <time>2017-04-22T09:14:17Z</time>
      </trkpt>
      <trkpt lat="45.91313" lon="4.74798">
        <ele>174</ele>
        <time>2017-04-22T09:14:18Z</time>
      </trkpt>
      <trkpt lat="45.91312" lon="4.74806">
        <ele>175</ele>
        <time>2017-04-22T09:14:19Z</time>
      </trkpt>
      <trkpt lat="45.91312" lon="4.74814">
        <ele>175</ele>
        <time>2017-04-22T09:14:20Z</time>
      </trkpt>
      <trkpt lat="45.91311" lon="4.74822">
        <ele>175</ele>
        <time>2017-04-22T09:14:21Z</time>
      </trkpt>
      <trkpt lat="45.91311" lon="4.7483">
        <ele>175</ele>
        <time>2017-04-22T09:14:22Z</time>
      </trkpt>
      <trkpt lat="45.91311" lon="4.74838">
        <ele>176</ele>
        <time>2017-04-22T09:14:23Z</time>
      </trkpt>
      <trkpt lat="45.91311" lon="4.74847">
        <ele>176</ele>
        <time>2017-04-22T09:14:24Z</time>
      </trkpt>
      <trkpt lat="45.91312" lon="4.74855">
        <ele>176</ele>
        <time>2017-04-22T09:14:25Z</time>
      </trkpt>
      <trkpt lat="45.91312" lon="4.74863">
        <ele>176</ele>
        <time>2017-04-22T09:14:26Z</time>
      </trkpt>
      <trkpt lat="45.91312" lon="4.7487">
        <ele>176</ele>
        <time>2017-04-22T09:14:27Z</time>
      </trkpt>
      <trkpt lat="45.91311" lon="4.74878">
        <ele>176</ele>
        <time>2017-04-22T09:14:28Z</time>
      </trkpt>
      <trkpt lat="45.9131" lon="4.74886">
        <ele>176</ele>
        <time>2017-04-22T09:14:29Z</time>
      </trkpt>
      <trkpt lat="45.9131" lon="4.74894">
        <ele>176</ele>
        <time>2017-04-22T09:14:30Z</time>
      </trkpt>
      <trkpt lat="45.91309" lon="4.74902">
        <ele>176</ele>
        <time>2017-04-22T09:14:31Z</time>
      </trkpt>
      <trkpt lat="45.91307" lon="4.74908">
        <ele>176</ele>
        <time>2017-04-22T09:14:32Z</time>
      </trkpt>
      <trkpt lat="45.91306" lon="4.74915">
        <ele>176</ele>
        <time>2017-04-22T09:14:33Z</time>
      </trkpt>
      <trkpt lat="45.91304" lon="4.74922">
        <ele>177</ele>
        <time>2017-04-22T09:14:34Z</time>
      </trkpt>
      <trkpt lat="45.91303" lon="4.74929">
        <ele>177</ele>
        <time>2017-04-22T09:14:35Z</time>
      </trkpt>
      <trkpt lat="45.91302" lon="4.74936">
        <ele>177</ele>
        <time>2017-04-22T09:14:36Z</time>
      </trkpt>
      <trkpt lat="45.91301" lon="4.74944">
        <ele>177</ele>
        <time>2017-04-22T09:14:37Z</time>
      </trkpt>
      <trkpt lat="45.913" lon="4.74951">
        <ele>177</ele>
        <time>2017-04-22T09:14:38Z</time>
      </trkpt>
      <trkpt lat="45.91299" lon="4.74958">
        <ele>177</ele>
        <time>2017-04-22T09:14:39Z</time>
      </trkpt>
      <trkpt lat="45.91298" lon="4.74966">
        <ele>177</ele>
        <time>2017-04-22T09:14:40Z</time>
      </trkpt>
      <trkpt lat="45.91297" lon="4.74973">
        <ele>177</ele>
        <time>2017-04-22T09:14:41Z</time>
      </trkpt>
      <trkpt lat="45.91297" lon="4.7498">
        <ele>177</ele>
        <time>2017-04-22T09:14:42Z</time>
      </trkpt>
      <trkpt lat="45.91297" lon="4.74987">
        <ele>177</ele>
        <time>2017-04-22T09:14:43Z</time>
      </trkpt>
      <trkpt lat="45.91296" lon="4.74995">
        <ele>177</ele>
        <time>2017-04-22T09:14:44Z</time>
      </trkpt>
      <trkpt lat="45.91296" lon="4.75002">
        <ele>177</ele>
        <time>2017-04-22T09:14:45Z</time>
      </trkpt>
      <trkpt lat="45.91296" lon="4.75009">
        <ele>177</ele>
        <time>2017-04-22T09:14:46Z</time>
      </trkpt>
      <trkpt lat="45.91296" lon="4.75018">
        <ele>177</ele>
        <time>2017-04-22T09:14:47Z</time>
      </trkpt>
      <trkpt lat="45.91296" lon="4.75026">
        <ele>177</ele>
        <time>2017-04-22T09:14:48Z</time>
      </trkpt>
      <trkpt lat="45.91296" lon="4.75034">
        <ele>177</ele>
        <time>2017-04-22T09:14:49Z</time>
      </trkpt>
      <trkpt lat="45.91296" lon="4.75042">
        <ele>177</ele>
        <time>2017-04-22T09:14:50Z</time>
      </trkpt>
      <trkpt lat="45.91296" lon="4.7505">
        <ele>177</ele>
        <time>2017-04-22T09:14:51Z</time>
      </trkpt>
      <trkpt lat="45.91297" lon="4.75059">
        <ele>177</ele>
        <time>2017-04-22T09:14:52Z</time>
      </trkpt>
      <trkpt lat="45.91297" lon="4.75067">
        <ele>177</ele>
        <time>2017-04-22T09:14:53Z</time>
      </trkpt>
      <trkpt lat="45.91297" lon="4.75076">
        <ele>177</ele>
        <time>2017-04-22T09:14:54Z</time>
      </trkpt>
      <trkpt lat="45.91298" lon="4.75084">
        <ele>177</ele>
        <time>2017-04-22T09:14:55Z</time>
      </trkpt>
      <trkpt lat="45.91299" lon="4.75092">
        <ele>177</ele>
        <time>2017-04-22T09:14:56Z</time>
      </trkpt>
      <trkpt lat="45.91299" lon="4.751">
        <ele>177</ele>
        <time>2017-04-22T09:14:57Z</time>
      </trkpt>
      <trkpt lat="45.913" lon="4.75108">
        <ele>177</ele>
        <time>2017-04-22T09:14:58Z</time>
      </trkpt>
      <trkpt lat="45.91301" lon="4.75115">
        <ele>177</ele>
        <time>2017-04-22T09:14:59Z</time>
      </trkpt>
      <trkpt lat="45.91302" lon="4.75123">
        <ele>177</ele>
        <time>2017-04-22T09:15:00Z</time>
      </trkpt>
      <trkpt lat="45.91302" lon="4.7513">
        <ele>177</ele>
        <time>2017-04-22T09:15:01Z</time>
      </trkpt>
      <trkpt lat="45.91304" lon="4.75137">
        <ele>177</ele>
        <time>2017-04-22T09:15:02Z</time>
      </trkpt>
      <trkpt lat="45.91305" lon="4.75144">
        <ele>177</ele>
        <time>2017-04-22T09:15:03Z</time>
      </trkpt>
      <trkpt lat="45.91305" lon="4.75156">
        <ele>177</ele>
        <time>2017-04-22T09:15:05Z</time>
      </trkpt>
      <trkpt lat="45.91304" lon="4.75159">
        <ele>177</ele>
        <time>2017-04-22T09:15:06Z</time>
      </trkpt>
      <trkpt lat="45.91298" lon="4.75159">
        <ele>177</ele>
        <time>2017-04-22T09:15:08Z</time>
      </trkpt>
      <trkpt lat="45.91294" lon="4.75156">
        <ele>177</ele>
        <time>2017-04-22T09:15:09Z</time>
      </trkpt>
      <trkpt lat="45.9129" lon="4.75154">
        <ele>177</ele>
        <time>2017-04-22T09:15:10Z</time>
      </trkpt>
      <trkpt lat="45.91285" lon="4.75153">
        <ele>177</ele>
        <time>2017-04-22T09:15:11Z</time>
      </trkpt>
      <trkpt lat="45.9128" lon="4.75151">
        <ele>177</ele>
        <time>2017-04-22T09:15:12Z</time>
      </trkpt>
      <trkpt lat="45.91276" lon="4.75148">
        <ele>177</ele>
        <time>2017-04-22T09:15:13Z</time>
      </trkpt>
      <trkpt lat="45.91271" lon="4.75145">
        <ele>177</ele>
        <time>2017-04-22T09:15:14Z</time>
      </trkpt>
      <trkpt lat="45.91266" lon="4.75142">
        <ele>177</ele>
        <time>2017-04-22T09:15:15Z</time>
      </trkpt>
      <trkpt lat="45.9126" lon="4.7514">
        <ele>177</ele>
        <time>2017-04-22T09:15:16Z</time>
      </trkpt>
      <trkpt lat="45.91255" lon="4.75137">
        <ele>177</ele>
        <time>2017-04-22T09:15:17Z</time>
      </trkpt>
      <trkpt lat="45.9125" lon="4.75134">
        <ele>177</ele>
        <time>2017-04-22T09:15:18Z</time>
      </trkpt>
      <trkpt lat="45.91246" lon="4.7513">
        <ele>177</ele>
        <time>2017-04-22T09:15:19Z</time>
      </trkpt>
      <trkpt lat="45.91241" lon="4.75127">
        <ele>177</ele>
        <time>2017-04-22T09:15:20Z</time>
      </trkpt>
      <trkpt lat="45.91235" lon="4.75125">
        <ele>177</ele>
        <time>2017-04-22T09:15:21Z</time>
      </trkpt>
      <trkpt lat="45.9123" lon="4.75123">
        <ele>177</ele>
        <time>2017-04-22T09:15:22Z</time>
      </trkpt>
      <trkpt lat="45.91225" lon="4.75121">
        <ele>177</ele>
        <time>2017-04-22T09:15:23Z</time>
      </trkpt>
      <trkpt lat="45.9122" lon="4.75119">
        <ele>177</ele>
        <time>2017-04-22T09:15:24Z</time>
      </trkpt>
      <trkpt lat="45.91215" lon="4.75117">
        <ele>177</ele>
        <time>2017-04-22T09:15:25Z</time>
      </trkpt>
      <trkpt lat="45.9121" lon="4.75116">
        <ele>177</ele>
        <time>2017-04-22T09:15:26Z</time>
      </trkpt>
      <trkpt lat="45.91205" lon="4.75115">
        <ele>178</ele>
        <time>2017-04-22T09:15:27Z</time>
      </trkpt>
      <trkpt lat="45.91201" lon="4.75114">
        <ele>178</ele>
        <time>2017-04-22T09:15:28Z</time>
      </trkpt>
      <trkpt lat="45.91195" lon="4.75113">
        <ele>178</ele>
        <time>2017-04-22T09:15:29Z</time>
      </trkpt>
      <trkpt lat="45.9119" lon="4.75112">
        <ele>178</ele>
        <time>2017-04-22T09:15:30Z</time>
      </trkpt>
      <trkpt lat="45.91184" lon="4.7511">
        <ele>178</ele>
        <time>2017-04-22T09:15:31Z</time>
      </trkpt>
      <trkpt lat="45.91179" lon="4.75109">
        <ele>178</ele>
        <time>2017-04-22T09:15:32Z</time>
      </trkpt>
      <trkpt lat="45.91173" lon="4.75108">
        <ele>178</ele>
        <time>2017-04-22T09:15:33Z</time>
      </trkpt>
      <trkpt lat="45.91168" lon="4.75106">
        <ele>178</ele>
        <time>2017-04-22T09:15:34Z</time>
      </trkpt>
      <trkpt lat="45.91162" lon="4.75105">
        <ele>179</ele>
        <time>2017-04-22T09:15:35Z</time>
      </trkpt>
      <trkpt lat="45.91156" lon="4.75103">
        <ele>179</ele>
        <time>2017-04-22T09:15:36Z</time>
      </trkpt>
      <trkpt lat="45.91151" lon="4.75102">
        <ele>179</ele>
        <time>2017-04-22T09:15:37Z</time>
      </trkpt>
      <trkpt lat="45.91145" lon="4.751">
        <ele>179</ele>
        <time>2017-04-22T09:15:38Z</time>
      </trkpt>
      <trkpt lat="45.9114" lon="4.75098">
        <ele>179</ele>
        <time>2017-04-22T09:15:39Z</time>
      </trkpt>
      <trkpt lat="45.91135" lon="4.75096">
        <ele>179</ele>
        <time>2017-04-22T09:15:40Z</time>
      </trkpt>
      <trkpt lat="45.91129" lon="4.75094">
        <ele>179</ele>
        <time>2017-04-22T09:15:41Z</time>
      </trkpt>
      <trkpt lat="45.91123" lon="4.75092">
        <ele>179</ele>
        <time>2017-04-22T09:15:42Z</time>
      </trkpt>
      <trkpt lat="45.91118" lon="4.7509">
        <ele>179</ele>
        <time>2017-04-22T09:15:43Z</time>
      </trkpt>
      <trkpt lat="45.91113" lon="4.75088">
        <ele>179</ele>
        <time>2017-04-22T09:15:44Z</time>
      </trkpt>
      <trkpt lat="45.91107" lon="4.75086">
        <ele>180</ele>
        <time>2017-04-22T09:15:45Z</time>
      </trkpt>
      <trkpt lat="45.91102" lon="4.75084">
        <ele>180</ele>
        <time>2017-04-22T09:15:46Z</time>
      </trkpt>
      <trkpt lat="45.91097" lon="4.75082">
        <ele>179</ele>
        <time>2017-04-22T09:15:47Z</time>
      </trkpt>
      <trkpt lat="45.91091" lon="4.7508">
        <ele>179</ele>
        <time>2017-04-22T09:15:48Z</time>
      </trkpt>
      <trkpt lat="45.91086" lon="4.75078">
        <ele>180</ele>
        <time>2017-04-22T09:15:49Z</time>
      </trkpt>
      <trkpt lat="45.9108" lon="4.75076">
        <ele>180</ele>
        <time>2017-04-22T09:15:50Z</time>
      </trkpt>
      <trkpt lat="45.91075" lon="4.75074">
        <ele>179</ele>
        <time>2017-04-22T09:15:51Z</time>
      </trkpt>
      <trkpt lat="45.91071" lon="4.75072">
        <ele>179</ele>
        <time>2017-04-22T09:15:52Z</time>
      </trkpt>
      <trkpt lat="45.91066" lon="4.7507">
        <ele>179</ele>
        <time>2017-04-22T09:15:53Z</time>
      </trkpt>
      <trkpt lat="45.91062" lon="4.75068">
        <ele>179</ele>
        <time>2017-04-22T09:15:54Z</time>
      </trkpt>
      <trkpt lat="45.91057" lon="4.75066">
        <ele>179</ele>
        <time>2017-04-22T09:15:55Z</time>
      </trkpt>
      <trkpt lat="45.91052" lon="4.75064">
        <ele>179</ele>
        <time>2017-04-22T09:15:56Z</time>
      </trkpt>
      <trkpt lat="45.91048" lon="4.75062">
        <ele>179</ele>
        <time>2017-04-22T09:15:57Z</time>
      </trkpt>
      <trkpt lat="45.91043" lon="4.7506">
        <ele>179</ele>
        <time>2017-04-22T09:15:58Z</time>
      </trkpt>
      <trkpt lat="45.91038" lon="4.75058">
        <ele>179</ele>
        <time>2017-04-22T09:15:59Z</time>
      </trkpt>
      <trkpt lat="45.91032" lon="4.75056">
        <ele>179</ele>
        <time>2017-04-22T09:16:00Z</time>
      </trkpt>
      <trkpt lat="45.91027" lon="4.75054">
        <ele>179</ele>
        <time>2017-04-22T09:16:01Z</time>
      </trkpt>
      <trkpt lat="45.91022" lon="4.75053">
        <ele>179</ele>
        <time>2017-04-22T09:16:02Z</time>
      </trkpt>
      <trkpt lat="45.91016" lon="4.75051">
        <ele>178</ele>
        <time>2017-04-22T09:16:03Z</time>
      </trkpt>
      <trkpt lat="45.91011" lon="4.75049">
        <ele>178</ele>
        <time>2017-04-22T09:16:04Z</time>
      </trkpt>
      <trkpt lat="45.91006" lon="4.75047">
        <ele>178</ele>
        <time>2017-04-22T09:16:05Z</time>
      </trkpt>
      <trkpt lat="45.91001" lon="4.75044">
        <ele>178</ele>
        <time>2017-04-22T09:16:06Z</time>
      </trkpt>
      <trkpt lat="45.90995" lon="4.75043">
        <ele>178</ele>
        <time>2017-04-22T09:16:07Z</time>
      </trkpt>
      <trkpt lat="45.9099" lon="4.7504">
        <ele>178</ele>
        <time>2017-04-22T09:16:08Z</time>
      </trkpt>
      <trkpt lat="45.90985" lon="4.75038">
        <ele>178</ele>
        <time>2017-04-22T09:16:09Z</time>
      </trkpt>
      <trkpt lat="45.9098" lon="4.75036">
        <ele>178</ele>
        <time>2017-04-22T09:16:10Z</time>
      </trkpt>
      <trkpt lat="45.90974" lon="4.75034">
        <ele>178</ele>
        <time>2017-04-22T09:16:11Z</time>
      </trkpt>
      <trkpt lat="45.90969" lon="4.75031">
        <ele>179</ele>
        <time>2017-04-22T09:16:12Z</time>
      </trkpt>
      <trkpt lat="45.90964" lon="4.75029">
        <ele>179</ele>
        <time>2017-04-22T09:16:13Z</time>
      </trkpt>
      <trkpt lat="45.90958" lon="4.75027">
        <ele>179</ele>
        <time>2017-04-22T09:16:14Z</time>
      </trkpt>
      <trkpt lat="45.90953" lon="4.75024">
        <ele>179</ele>
        <time>2017-04-22T09:16:15Z</time>
      </trkpt>
      <trkpt lat="45.90947" lon="4.75022">
        <ele>179</ele>
        <time>2017-04-22T09:16:16Z</time>
      </trkpt>
      <trkpt lat="45.90942" lon="4.7502">
        <ele>179</ele>
        <time>2017-04-22T09:16:17Z</time>
      </trkpt>
      <trkpt lat="45.90936" lon="4.75017">
        <ele>178</ele>
        <time>2017-04-22T09:16:18Z</time>
      </trkpt>
      <trkpt lat="45.90931" lon="4.75015">
        <ele>178</ele>
        <time>2017-04-22T09:16:19Z</time>
      </trkpt>
      <trkpt lat="45.90925" lon="4.75013">
        <ele>178</ele>
        <time>2017-04-22T09:16:20Z</time>
      </trkpt>
      <trkpt lat="45.90919" lon="4.7501">
        <ele>178</ele>
        <time>2017-04-22T09:16:21Z</time>
      </trkpt>
      <trkpt lat="45.90914" lon="4.75008">
        <ele>179</ele>
        <time>2017-04-22T09:16:22Z</time>
      </trkpt>
      <trkpt lat="45.90908" lon="4.75006">
        <ele>179</ele>
        <time>2017-04-22T09:16:23Z</time>
      </trkpt>
      <trkpt lat="45.90903" lon="4.75003">
        <ele>179</ele>
        <time>2017-04-22T09:16:24Z</time>
      </trkpt>
      <trkpt lat="45.90897" lon="4.75001">
        <ele>179</ele>
        <time>2017-04-22T09:16:25Z</time>
      </trkpt>
      <trkpt lat="45.90892" lon="4.74998">
        <ele>178</ele>
        <time>2017-04-22T09:16:26Z</time>
      </trkpt>
      <trkpt lat="45.90886" lon="4.74996">
        <ele>178</ele>
        <time>2017-04-22T09:16:27Z</time>
      </trkpt>
      <trkpt lat="45.90881" lon="4.74994">
        <ele>178</ele>
        <time>2017-04-22T09:16:28Z</time>
      </trkpt>
      <trkpt lat="45.90875" lon="4.74992">
        <ele>179</ele>
        <time>2017-04-22T09:16:29Z</time>
      </trkpt>
      <trkpt lat="45.90869" lon="4.74989">
        <ele>179</ele>
        <time>2017-04-22T09:16:30Z</time>
      </trkpt>
      <trkpt lat="45.90863" lon="4.74986">
        <ele>179</ele>
        <time>2017-04-22T09:16:31Z</time>
      </trkpt>
      <trkpt lat="45.90856" lon="4.74984">
        <ele>179</ele>
        <time>2017-04-22T09:16:32Z</time>
      </trkpt>
      <trkpt lat="45.9085" lon="4.74982">
        <ele>179</ele>
        <time>2017-04-22T09:16:33Z</time>
      </trkpt>
      <trkpt lat="45.90844" lon="4.74979">
        <ele>179</ele>
        <time>2017-04-22T09:16:34Z</time>
      </trkpt>
      <trkpt lat="45.90839" lon="4.74977">
        <ele>179</ele>
        <time>2017-04-22T09:16:35Z</time>
      </trkpt>
      <trkpt lat="45.90833" lon="4.74974">
        <ele>179</ele>
        <time>2017-04-22T09:16:36Z</time>
      </trkpt>
      <trkpt lat="45.90827" lon="4.74972">
        <ele>179</ele>
        <time>2017-04-22T09:16:37Z</time>
      </trkpt>
      <trkpt lat="45.90822" lon="4.7497">
        <ele>179</ele>
        <time>2017-04-22T09:16:38Z</time>
      </trkpt>
      <trkpt lat="45.90816" lon="4.74968">
        <ele>179</ele>
        <time>2017-04-22T09:16:39Z</time>
      </trkpt>
      <trkpt lat="45.90811" lon="4.74966">
        <ele>179</ele>
        <time>2017-04-22T09:16:40Z</time>
      </trkpt>
      <trkpt lat="45.90805" lon="4.74964">
        <ele>179</ele>
        <time>2017-04-22T09:16:41Z</time>
      </trkpt>
      <trkpt lat="45.908" lon="4.74962">
        <ele>179</ele>
        <time>2017-04-22T09:16:42Z</time>
      </trkpt>
      <trkpt lat="45.90795" lon="4.7496">
        <ele>179</ele>
        <time>2017-04-22T09:16:43Z</time>
      </trkpt>
      <trkpt lat="45.90789" lon="4.74959">
        <ele>180</ele>
        <time>2017-04-22T09:16:44Z</time>
      </trkpt>
      <trkpt lat="45.90784" lon="4.74957">
        <ele>180</ele>
        <time>2017-04-22T09:16:45Z</time>
      </trkpt>
      <trkpt lat="45.90779" lon="4.74955">
        <ele>180</ele>
        <time>2017-04-22T09:16:46Z</time>
      </trkpt>
      <trkpt lat="45.90774" lon="4.74953">
        <ele>180</ele>
        <time>2017-04-22T09:16:47Z</time>
      </trkpt>
      <trkpt lat="45.90769" lon="4.74951">
        <ele>180</ele>
        <time>2017-04-22T09:16:48Z</time>
      </trkpt>
      <trkpt lat="45.90764" lon="4.74949">
        <ele>180</ele>
        <time>2017-04-22T09:16:49Z</time>
      </trkpt>
      <trkpt lat="45.90758" lon="4.74948">
        <ele>180</ele>
        <time>2017-04-22T09:16:50Z</time>
      </trkpt>
      <trkpt lat="45.90753" lon="4.74946">
        <ele>180</ele>
        <time>2017-04-22T09:16:51Z</time>
      </trkpt>
      <trkpt lat="45.90748" lon="4.74944">
        <ele>181</ele>
        <time>2017-04-22T09:16:52Z</time>
      </trkpt>
      <trkpt lat="45.90743" lon="4.74942">
        <ele>181</ele>
        <time>2017-04-22T09:16:53Z</time>
      </trkpt>
      <trkpt lat="45.90737" lon="4.7494">
        <ele>181</ele>
        <time>2017-04-22T09:16:54Z</time>
      </trkpt>
      <trkpt lat="45.90732" lon="4.74938">
        <ele>181</ele>
        <time>2017-04-22T09:16:55Z</time>
      </trkpt>
      <trkpt lat="45.90727" lon="4.74936">
        <ele>181</ele>
        <time>2017-04-22T09:16:56Z</time>
      </trkpt>
      <trkpt lat="45.90722" lon="4.74934">
        <ele>181</ele>
        <time>2017-04-22T09:16:57Z</time>
      </trkpt>
      <trkpt lat="45.90717" lon="4.74934">
        <ele>181</ele>
        <time>2017-04-22T09:16:58Z</time>
      </trkpt>
      <trkpt lat="45.90712" lon="4.74935">
        <ele>181</ele>
        <time>2017-04-22T09:16:59Z</time>
      </trkpt>
      <trkpt lat="45.90707" lon="4.74936">
        <ele>181</ele>
        <time>2017-04-22T09:17:00Z</time>
      </trkpt>
      <trkpt lat="45.90702" lon="4.74939">
        <ele>181</ele>
        <time>2017-04-22T09:17:01Z</time>
      </trkpt>
      <trkpt lat="45.90697" lon="4.74942">
        <ele>181</ele>
        <time>2017-04-22T09:17:02Z</time>
      </trkpt>
      <trkpt lat="45.90691" lon="4.74944">
        <ele>181</ele>
        <time>2017-04-22T09:17:03Z</time>
      </trkpt>
      <trkpt lat="45.90686" lon="4.74946">
        <ele>181</ele>
        <time>2017-04-22T09:17:04Z</time>
      </trkpt>
      <trkpt lat="45.90681" lon="4.74948">
        <ele>181</ele>
        <time>2017-04-22T09:17:05Z</time>
      </trkpt>
      <trkpt lat="45.90676" lon="4.7495">
        <ele>181</ele>
        <time>2017-04-22T09:17:06Z</time>
      </trkpt>
      <trkpt lat="45.9067" lon="4.74953">
        <ele>182</ele>
        <time>2017-04-22T09:17:07Z</time>
      </trkpt>
      <trkpt lat="45.90665" lon="4.74954">
        <ele>183</ele>
        <time>2017-04-22T09:17:08Z</time>
      </trkpt>
      <trkpt lat="45.9066" lon="4.74956">
        <ele>183</ele>
        <time>2017-04-22T09:17:09Z</time>
      </trkpt>
      <trkpt lat="45.90655" lon="4.74958">
        <ele>183</ele>
        <time>2017-04-22T09:17:10Z</time>
      </trkpt>
      <trkpt lat="45.9065" lon="4.74961">
        <ele>183</ele>
        <time>2017-04-22T09:17:11Z</time>
      </trkpt>
      <trkpt lat="45.90646" lon="4.74963">
        <ele>183</ele>
        <time>2017-04-22T09:17:12Z</time>
      </trkpt>
      <trkpt lat="45.90641" lon="4.74965">
        <ele>183</ele>
        <time>2017-04-22T09:17:13Z</time>
      </trkpt>
      <trkpt lat="45.90636" lon="4.74966">
        <ele>183</ele>
        <time>2017-04-22T09:17:14Z</time>
      </trkpt>
      <trkpt lat="45.90631" lon="4.74968">
        <ele>183</ele>
        <time>2017-04-22T09:17:15Z</time>
      </trkpt>
      <trkpt lat="45.90626" lon="4.74969">
        <ele>183</ele>
        <time>2017-04-22T09:17:16Z</time>
      </trkpt>
      <trkpt lat="45.90622" lon="4.7497">
        <ele>183</ele>
        <time>2017-04-22T09:17:17Z</time>
      </trkpt>
      <trkpt lat="45.90617" lon="4.74971">
        <ele>184</ele>
        <time>2017-04-22T09:17:18Z</time>
      </trkpt>
      <trkpt lat="45.90612" lon="4.74972">
        <ele>184</ele>
        <time>2017-04-22T09:17:19Z</time>
      </trkpt>
      <trkpt lat="45.90607" lon="4.74973">
        <ele>184</ele>
        <time>2017-04-22T09:17:20Z</time>
      </trkpt>
      <trkpt lat="45.90602" lon="4.74973">
        <ele>184</ele>
        <time>2017-04-22T09:17:21Z</time>
      </trkpt>
      <trkpt lat="45.90598" lon="4.74974">
        <ele>184</ele>
        <time>2017-04-22T09:17:22Z</time>
      </trkpt>
      <trkpt lat="45.90593" lon="4.74975">
        <ele>184</ele>
        <time>2017-04-22T09:17:23Z</time>
      </trkpt>
      <trkpt lat="45.90588" lon="4.74975">
        <ele>184</ele>
        <time>2017-04-22T09:17:24Z</time>
      </trkpt>
      <trkpt lat="45.90584" lon="4.74976">
        <ele>184</ele>
        <time>2017-04-22T09:17:25Z</time>
      </trkpt>
      <trkpt lat="45.90579" lon="4.74977">
        <ele>184</ele>
        <time>2017-04-22T09:17:26Z</time>
      </trkpt>
      <trkpt lat="45.90575" lon="4.74978">
        <ele>185</ele>
        <time>2017-04-22T09:17:27Z</time>
      </trkpt>
      <trkpt lat="45.9057" lon="4.74979">
        <ele>185</ele>
        <time>2017-04-22T09:17:28Z</time>
      </trkpt>
      <trkpt lat="45.90565" lon="4.74981">
        <ele>185</ele>
        <time>2017-04-22T09:17:29Z</time>
      </trkpt>
      <trkpt lat="45.9056" lon="4.74981">
        <ele>185</ele>
        <time>2017-04-22T09:17:30Z</time>
      </trkpt>
      <trkpt lat="45.90555" lon="4.74982">
        <ele>185</ele>
        <time>2017-04-22T09:17:31Z</time>
      </trkpt>
      <trkpt lat="45.9055" lon="4.74983">
        <ele>185</ele>
        <time>2017-04-22T09:17:32Z</time>
      </trkpt>
      <trkpt lat="45.90545" lon="4.74984">
        <ele>185</ele>
        <time>2017-04-22T09:17:33Z</time>
      </trkpt>
      <trkpt lat="45.9054" lon="4.74984">
        <ele>185</ele>
        <time>2017-04-22T09:17:34Z</time>
      </trkpt>
      <trkpt lat="45.90535" lon="4.74985">
        <ele>185</ele>
        <time>2017-04-22T09:17:35Z</time>
      </trkpt>
      <trkpt lat="45.9053" lon="4.74986">
        <ele>185</ele>
        <time>2017-04-22T09:17:36Z</time>
      </trkpt>
      <trkpt lat="45.90525" lon="4.74987">
        <ele>185</ele>
        <time>2017-04-22T09:17:37Z</time>
      </trkpt>
      <trkpt lat="45.90521" lon="4.74987">
        <ele>185</ele>
        <time>2017-04-22T09:17:38Z</time>
      </trkpt>
      <trkpt lat="45.90516" lon="4.74988">
        <ele>185</ele>
        <time>2017-04-22T09:17:39Z</time>
      </trkpt>
      <trkpt lat="45.90511" lon="4.74989">
        <ele>185</ele>
        <time>2017-04-22T09:17:40Z</time>
      </trkpt>
      <trkpt lat="45.90506" lon="4.7499">
        <ele>185</ele>
        <time>2017-04-22T09:17:41Z</time>
      </trkpt>
      <trkpt lat="45.90501" lon="4.74991">
        <ele>185</ele>
        <time>2017-04-22T09:17:42Z</time>
      </trkpt>
      <trkpt lat="45.90497" lon="4.74991">
        <ele>186</ele>
        <time>2017-04-22T09:17:43Z</time>
      </trkpt>
      <trkpt lat="45.90492" lon="4.74991">
        <ele>186</ele>
        <time>2017-04-22T09:17:44Z</time>
      </trkpt>
      <trkpt lat="45.90487" lon="4.74991">
        <ele>186</ele>
        <time>2017-04-22T09:17:45Z</time>
      </trkpt>
      <trkpt lat="45.90482" lon="4.74991">
        <ele>186</ele>
        <time>2017-04-22T09:17:46Z</time>
      </trkpt>
      <trkpt lat="45.90477" lon="4.74992">
        <ele>186</ele>
        <time>2017-04-22T09:17:47Z</time>
      </trkpt>
      <trkpt lat="45.90473" lon="4.74992">
        <ele>186</ele>
        <time>2017-04-22T09:17:48Z</time>
      </trkpt>
      <trkpt lat="45.90468" lon="4.74993">
        <ele>186</ele>
        <time>2017-04-22T09:17:49Z</time>
      </trkpt>
      <trkpt lat="45.90463" lon="4.74994">
        <ele>186</ele>
        <time>2017-04-22T09:17:50Z</time>
      </trkpt>
      <trkpt lat="45.90458" lon="4.74995">
        <ele>186</ele>
        <time>2017-04-22T09:17:51Z</time>
      </trkpt>
      <trkpt lat="45.90453" lon="4.74996">
        <ele>186</ele>
        <time>2017-04-22T09:17:52Z</time>
      </trkpt>
      <trkpt lat="45.90448" lon="4.74997">
        <ele>186</ele>
        <time>2017-04-22T09:17:53Z</time>
      </trkpt>
      <trkpt lat="45.90443" lon="4.74998">
        <ele>186</ele>
        <time>2017-04-22T09:17:54Z</time>
      </trkpt>
      <trkpt lat="45.90438" lon="4.74998">
        <ele>187</ele>
        <time>2017-04-22T09:17:55Z</time>
      </trkpt>
      <trkpt lat="45.90432" lon="4.74999">
        <ele>187</ele>
        <time>2017-04-22T09:17:56Z</time>
      </trkpt>
      <trkpt lat="45.90427" lon="4.75001">
        <ele>188</ele>
        <time>2017-04-22T09:17:57Z</time>
      </trkpt>
      <trkpt lat="45.90422" lon="4.75003">
        <ele>188</ele>
        <time>2017-04-22T09:17:58Z</time>
      </trkpt>
      <trkpt lat="45.90417" lon="4.75004">
        <ele>188</ele>
        <time>2017-04-22T09:17:59Z</time>
      </trkpt>
      <trkpt lat="45.90411" lon="4.75006">
        <ele>188</ele>
        <time>2017-04-22T09:18:00Z</time>
      </trkpt>
      <trkpt lat="45.90406" lon="4.75007">
        <ele>188</ele>
        <time>2017-04-22T09:18:01Z</time>
      </trkpt>
      <trkpt lat="45.90401" lon="4.75008">
        <ele>188</ele>
        <time>2017-04-22T09:18:02Z</time>
      </trkpt>
      <trkpt lat="45.90396" lon="4.7501">
        <ele>188</ele>
        <time>2017-04-22T09:18:03Z</time>
      </trkpt>
      <trkpt lat="45.90391" lon="4.75011">
        <ele>188</ele>
        <time>2017-04-22T09:18:04Z</time>
      </trkpt>
      <trkpt lat="45.90386" lon="4.75012">
        <ele>188</ele>
        <time>2017-04-22T09:18:05Z</time>
      </trkpt>
      <trkpt lat="45.90381" lon="4.75013">
        <ele>188</ele>
        <time>2017-04-22T09:18:06Z</time>
      </trkpt>
      <trkpt lat="45.90376" lon="4.75014">
        <ele>188</ele>
        <time>2017-04-22T09:18:07Z</time>
      </trkpt>
      <trkpt lat="45.90371" lon="4.75016">
        <ele>188</ele>
        <time>2017-04-22T09:18:08Z</time>
      </trkpt>
      <trkpt lat="45.90365" lon="4.75017">
        <ele>188</ele>
        <time>2017-04-22T09:18:09Z</time>
      </trkpt>
      <trkpt lat="45.9036" lon="4.75019">
        <ele>188</ele>
        <time>2017-04-22T09:18:10Z</time>
      </trkpt>
      <trkpt lat="45.90354" lon="4.75021">
        <ele>188</ele>
        <time>2017-04-22T09:18:11Z</time>
      </trkpt>
      <trkpt lat="45.9035" lon="4.75023">
        <ele>188</ele>
        <time>2017-04-22T09:18:12Z</time>
      </trkpt>
      <trkpt lat="45.90344" lon="4.75025">
        <ele>188</ele>
        <time>2017-04-22T09:18:13Z</time>
      </trkpt>
      <trkpt lat="45.90339" lon="4.75026">
        <ele>188</ele>
        <time>2017-04-22T09:18:14Z</time>
      </trkpt>
      <trkpt lat="45.90334" lon="4.75027">
        <ele>188</ele>
        <time>2017-04-22T09:18:15Z</time>
      </trkpt>
      <trkpt lat="45.90329" lon="4.75029">
        <ele>189</ele>
        <time>2017-04-22T09:18:16Z</time>
      </trkpt>
      <trkpt lat="45.90324" lon="4.75031">
        <ele>189</ele>
        <time>2017-04-22T09:18:17Z</time>
      </trkpt>
      <trkpt lat="45.9032" lon="4.75032">
        <ele>189</ele>
        <time>2017-04-22T09:18:18Z</time>
      </trkpt>
      <trkpt lat="45.90315" lon="4.75033">
        <ele>189</ele>
        <time>2017-04-22T09:18:19Z</time>
      </trkpt>
      <trkpt lat="45.9031" lon="4.75034">
        <ele>189</ele>
        <time>2017-04-22T09:18:20Z</time>
      </trkpt>
      <trkpt lat="45.90305" lon="4.75036">
        <ele>189</ele>
        <time>2017-04-22T09:18:21Z</time>
      </trkpt>
      <trkpt lat="45.90301" lon="4.75038">
        <ele>189</ele>
        <time>2017-04-22T09:18:22Z</time>
      </trkpt>
      <trkpt lat="45.90296" lon="4.75039">
        <ele>189</ele>
        <time>2017-04-22T09:18:23Z</time>
      </trkpt>
      <trkpt lat="45.90291" lon="4.7504">
        <ele>189</ele>
        <time>2017-04-22T09:18:24Z</time>
      </trkpt>
      <trkpt lat="45.90286" lon="4.75041">
        <ele>190</ele>
        <time>2017-04-22T09:18:25Z</time>
      </trkpt>
      <trkpt lat="45.90282" lon="4.75042">
        <ele>190</ele>
        <time>2017-04-22T09:18:26Z</time>
      </trkpt>
      <trkpt lat="45.90277" lon="4.75044">
        <ele>190</ele>
        <time>2017-04-22T09:18:27Z</time>
      </trkpt>
      <trkpt lat="45.90272" lon="4.75045">
        <ele>190</ele>
        <time>2017-04-22T09:18:28Z</time>
      </trkpt>
      <trkpt lat="45.90267" lon="4.75047">
        <ele>190</ele>
        <time>2017-04-22T09:18:29Z</time>
      </trkpt>
      <trkpt lat="45.90262" lon="4.75048">
        <ele>190</ele>
        <time>2017-04-22T09:18:30Z</time>
      </trkpt>
      <trkpt lat="45.90257" lon="4.75048">
        <ele>190</ele>
        <time>2017-04-22T09:18:31Z</time>
      </trkpt>
      <trkpt lat="45.90253" lon="4.75049">
        <ele>190</ele>
        <time>2017-04-22T09:18:32Z</time>
      </trkpt>
      <trkpt lat="45.90248" lon="4.75051">
        <ele>191</ele>
        <time>2017-04-22T09:18:33Z</time>
      </trkpt>
      <trkpt lat="45.90243" lon="4.75052">
        <ele>191</ele>
        <time>2017-04-22T09:18:34Z</time>
      </trkpt>
      <trkpt lat="45.90238" lon="4.75053">
        <ele>191</ele>
        <time>2017-04-22T09:18:35Z</time>
      </trkpt>
      <trkpt lat="45.90233" lon="4.75054">
        <ele>191</ele>
        <time>2017-04-22T09:18:36Z</time>
      </trkpt>
      <trkpt lat="45.90229" lon="4.75055">
        <ele>191</ele>
        <time>2017-04-22T09:18:37Z</time>
      </trkpt>
      <trkpt lat="45.90224" lon="4.75056">
        <ele>191</ele>
        <time>2017-04-22T09:18:38Z</time>
      </trkpt>
      <trkpt lat="45.90219" lon="4.75058">
        <ele>191</ele>
        <time>2017-04-22T09:18:39Z</time>
      </trkpt>
      <trkpt lat="45.90211" lon="4.75062">
        <ele>191</ele>
        <time>2017-04-22T09:18:41Z</time>
      </trkpt>
      <trkpt lat="45.90207" lon="4.75063">
        <ele>191</ele>
        <time>2017-04-22T09:18:42Z</time>
      </trkpt>
      <trkpt lat="45.90199" lon="4.75065">
        <ele>191</ele>
        <time>2017-04-22T09:18:44Z</time>
      </trkpt>
      <trkpt lat="45.90195" lon="4.75067">
        <ele>191</ele>
        <time>2017-04-22T09:18:45Z</time>
      </trkpt>
      <trkpt lat="45.90187" lon="4.75072">
        <ele>191</ele>
        <time>2017-04-22T09:18:47Z</time>
      </trkpt>
      <trkpt lat="45.90184" lon="4.75075">
        <ele>191</ele>
        <time>2017-04-22T09:18:48Z</time>
      </trkpt>
      <trkpt lat="45.90178" lon="4.75079">
        <ele>191</ele>
        <time>2017-04-22T09:18:50Z</time>
      </trkpt>
      <trkpt lat="45.90175" lon="4.75081">
        <ele>191</ele>
        <time>2017-04-22T09:18:51Z</time>
      </trkpt>
      <trkpt lat="45.90167" lon="4.75082">
        <ele>191</ele>
        <time>2017-04-22T09:18:53Z</time>
      </trkpt>
      <trkpt lat="45.90163" lon="4.7508">
        <ele>191</ele>
        <time>2017-04-22T09:18:54Z</time>
      </trkpt>
      <trkpt lat="45.90159" lon="4.75077">
        <ele>191</ele>
        <time>2017-04-22T09:18:55Z</time>
      </trkpt>
      <trkpt lat="45.90155" lon="4.75073">
        <ele>191</ele>
        <time>2017-04-22T09:18:56Z</time>
      </trkpt>
      <trkpt lat="45.90151" lon="4.75069">
        <ele>191</ele>
        <time>2017-04-22T09:18:57Z</time>
      </trkpt>
      <trkpt lat="45.90147" lon="4.75066">
        <ele>192</ele>
        <time>2017-04-22T09:18:58Z</time>
      </trkpt>
      <trkpt lat="45.90142" lon="4.75062">
        <ele>192</ele>
        <time>2017-04-22T09:18:59Z</time>
      </trkpt>
      <trkpt lat="45.90138" lon="4.75059">
        <ele>192</ele>
        <time>2017-04-22T09:19:00Z</time>
      </trkpt>
      <trkpt lat="45.90134" lon="4.75056">
        <ele>192</ele>
        <time>2017-04-22T09:19:01Z</time>
      </trkpt>
      <trkpt lat="45.9013" lon="4.75053">
        <ele>192</ele>
        <time>2017-04-22T09:19:02Z</time>
      </trkpt>
      <trkpt lat="45.90126" lon="4.7505">
        <ele>192</ele>
        <time>2017-04-22T09:19:03Z</time>
      </trkpt>
      <trkpt lat="45.90121" lon="4.75048">
        <ele>192</ele>
        <time>2017-04-22T09:19:04Z</time>
      </trkpt>
      <trkpt lat="45.90117" lon="4.75046">
        <ele>192</ele>
        <time>2017-04-22T09:19:05Z</time>
      </trkpt>
      <trkpt lat="45.90112" lon="4.75044">
        <ele>192</ele>
        <time>2017-04-22T09:19:06Z</time>
      </trkpt>
      <trkpt lat="45.90104" lon="4.7504">
        <ele>192</ele>
        <time>2017-04-22T09:19:08Z</time>
      </trkpt>
      <trkpt lat="45.90099" lon="4.75038">
        <ele>192</ele>
        <time>2017-04-22T09:19:09Z</time>
      </trkpt>
      <trkpt lat="45.90094" lon="4.75036">
        <ele>192</ele>
        <time>2017-04-22T09:19:10Z</time>
      </trkpt>
      <trkpt lat="45.90089" lon="4.75033">
        <ele>192</ele>
        <time>2017-04-22T09:19:11Z</time>
      </trkpt>
      <trkpt lat="45.90083" lon="4.75031">
        <ele>193</ele>
        <time>2017-04-22T09:19:12Z</time>
      </trkpt>
      <trkpt lat="45.90078" lon="4.75029">
        <ele>193</ele>
        <time>2017-04-22T09:19:13Z</time>
      </trkpt>
      <trkpt lat="45.90073" lon="4.75027">
        <ele>193</ele>
        <time>2017-04-22T09:19:14Z</time>
      </trkpt>
      <trkpt lat="45.90068" lon="4.75024">
        <ele>193</ele>
        <time>2017-04-22T09:19:15Z</time>
      </trkpt>
      <trkpt lat="45.90064" lon="4.75023">
        <ele>193</ele>
        <time>2017-04-22T09:19:16Z</time>
      </trkpt>
      <trkpt lat="45.90059" lon="4.75021">
        <ele>193</ele>
        <time>2017-04-22T09:19:17Z</time>
      </trkpt>
      <trkpt lat="45.90054" lon="4.75019">
        <ele>193</ele>
        <time>2017-04-22T09:19:18Z</time>
      </trkpt>
      <trkpt lat="45.9005" lon="4.75017">
        <ele>193</ele>
        <time>2017-04-22T09:19:19Z</time>
      </trkpt>
      <trkpt lat="45.90045" lon="4.75016">
        <ele>193</ele>
        <time>2017-04-22T09:19:20Z</time>
      </trkpt>
      <trkpt lat="45.90041" lon="4.75014">
        <ele>193</ele>
        <time>2017-04-22T09:19:21Z</time>
      </trkpt>
      <trkpt lat="45.90036" lon="4.75013">
        <ele>193</ele>
        <time>2017-04-22T09:19:22Z</time>
      </trkpt>
      <trkpt lat="45.90031" lon="4.75011">
        <ele>193</ele>
        <time>2017-04-22T09:19:23Z</time>
      </trkpt>
      <trkpt lat="45.90026" lon="4.75009">
        <ele>193</ele>
        <time>2017-04-22T09:19:24Z</time>
      </trkpt>
      <trkpt lat="45.90021" lon="4.75008">
        <ele>193</ele>
        <time>2017-04-22T09:19:25Z</time>
      </trkpt>
      <trkpt lat="45.90016" lon="4.75006">
        <ele>193</ele>
        <time>2017-04-22T09:19:26Z</time>
      </trkpt>
      <trkpt lat="45.90011" lon="4.75004">
        <ele>192</ele>
        <time>2017-04-22T09:19:27Z</time>
      </trkpt>
      <trkpt lat="45.90006" lon="4.75002">
        <ele>192</ele>
        <time>2017-04-22T09:19:28Z</time>
      </trkpt>
      <trkpt lat="45.90001" lon="4.75001">
        <ele>192</ele>
        <time>2017-04-22T09:19:29Z</time>
      </trkpt>
      <trkpt lat="45.89996" lon="4.75">
        <ele>192</ele>
        <time>2017-04-22T09:19:30Z</time>
      </trkpt>
      <trkpt lat="45.89991" lon="4.74998">
        <ele>192</ele>
        <time>2017-04-22T09:19:31Z</time>
      </trkpt>
      <trkpt lat="45.89985" lon="4.74997">
        <ele>192</ele>
        <time>2017-04-22T09:19:32Z</time>
      </trkpt>
      <trkpt lat="45.89979" lon="4.74995">
        <ele>192</ele>
        <time>2017-04-22T09:19:33Z</time>
      </trkpt>
      <trkpt lat="45.89974" lon="4.74994">
        <ele>193</ele>
        <time>2017-04-22T09:19:34Z</time>
      </trkpt>
      <trkpt lat="45.89968" lon="4.74992">
        <ele>193</ele>
        <time>2017-04-22T09:19:35Z</time>
      </trkpt>
      <trkpt lat="45.89962" lon="4.74991">
        <ele>193</ele>
        <time>2017-04-22T09:19:36Z</time>
      </trkpt>
      <trkpt lat="45.89957" lon="4.7499">
        <ele>193</ele>
        <time>2017-04-22T09:19:37Z</time>
      </trkpt>
      <trkpt lat="45.89951" lon="4.74989">
        <ele>193</ele>
        <time>2017-04-22T09:19:38Z</time>
      </trkpt>
      <trkpt lat="45.89946" lon="4.74988">
        <ele>193</ele>
        <time>2017-04-22T09:19:39Z</time>
      </trkpt>
      <trkpt lat="45.89941" lon="4.74986">
        <ele>193</ele>
        <time>2017-04-22T09:19:40Z</time>
      </trkpt>
      <trkpt lat="45.89935" lon="4.74985">
        <ele>193</ele>
        <time>2017-04-22T09:19:41Z</time>
      </trkpt>
      <trkpt lat="45.8993" lon="4.74984">
        <ele>193</ele>
        <time>2017-04-22T09:19:42Z</time>
      </trkpt>
      <trkpt lat="45.89924" lon="4.74983">
        <ele>193</ele>
        <time>2017-04-22T09:19:43Z</time>
      </trkpt>
      <trkpt lat="45.89919" lon="4.74981">
        <ele>193</ele>
        <time>2017-04-22T09:19:44Z</time>
      </trkpt>
      <trkpt lat="45.89914" lon="4.7498">
        <ele>194</ele>
        <time>2017-04-22T09:19:45Z</time>
      </trkpt>
      <trkpt lat="45.89908" lon="4.74979">
        <ele>194</ele>
        <time>2017-04-22T09:19:46Z</time>
      </trkpt>
      <trkpt lat="45.89903" lon="4.74977">
        <ele>194</ele>
        <time>2017-04-22T09:19:47Z</time>
      </trkpt>
      <trkpt lat="45.89898" lon="4.74976">
        <ele>194</ele>
        <time>2017-04-22T09:19:48Z</time>
      </trkpt>
      <trkpt lat="45.89892" lon="4.74974">
        <ele>194</ele>
        <time>2017-04-22T09:19:49Z</time>
      </trkpt>
      <trkpt lat="45.89886" lon="4.74973">
        <ele>194</ele>
        <time>2017-04-22T09:19:50Z</time>
      </trkpt>
      <trkpt lat="45.89881" lon="4.74971">
        <ele>194</ele>
        <time>2017-04-22T09:19:51Z</time>
      </trkpt>
      <trkpt lat="45.89875" lon="4.7497">
        <ele>194</ele>
        <time>2017-04-22T09:19:52Z</time>
      </trkpt>
      <trkpt lat="45.89869" lon="4.74968">
        <ele>194</ele>
        <time>2017-04-22T09:19:53Z</time>
      </trkpt>
      <trkpt lat="45.89863" lon="4.74967">
        <ele>194</ele>
        <time>2017-04-22T09:19:54Z</time>
      </trkpt>
      <trkpt lat="45.89858" lon="4.74966">
        <ele>194</ele>
        <time>2017-04-22T09:19:55Z</time>
      </trkpt>
      <trkpt lat="45.89852" lon="4.74965">
        <ele>194</ele>
        <time>2017-04-22T09:19:56Z</time>
      </trkpt>
      <trkpt lat="45.89846" lon="4.74963">
        <ele>194</ele>
        <time>2017-04-22T09:19:57Z</time>
      </trkpt>
      <trkpt lat="45.89841" lon="4.74962">
        <ele>194</ele>
        <time>2017-04-22T09:19:58Z</time>
      </trkpt>
      <trkpt lat="45.89836" lon="4.7496">
        <ele>194</ele>
        <time>2017-04-22T09:19:59Z</time>
      </trkpt>
      <trkpt lat="45.8983" lon="4.7496">
        <ele>194</ele>
        <time>2017-04-22T09:20:00Z</time>
      </trkpt>
      <trkpt lat="45.89825" lon="4.74958">
        <ele>194</ele>
        <time>2017-04-22T09:20:01Z</time>
      </trkpt>
      <trkpt lat="45.89819" lon="4.74956">
        <ele>195</ele>
        <time>2017-04-22T09:20:02Z</time>
      </trkpt>
      <trkpt lat="45.89814" lon="4.74954">
        <ele>195</ele>
        <time>2017-04-22T09:20:03Z</time>
      </trkpt>
      <trkpt lat="45.89808" lon="4.74952">
        <ele>195</ele>
        <time>2017-04-22T09:20:04Z</time>
      </trkpt>
      <trkpt lat="45.89803" lon="4.7495">
        <ele>195</ele>
        <time>2017-04-22T09:20:05Z</time>
      </trkpt>
      <trkpt lat="45.89797" lon="4.74948">
        <ele>195</ele>
        <time>2017-04-22T09:20:06Z</time>
      </trkpt>
      <trkpt lat="45.89791" lon="4.74945">
        <ele>195</ele>
        <time>2017-04-22T09:20:07Z</time>
      </trkpt>
      <trkpt lat="45.89786" lon="4.74942">
        <ele>195</ele>
        <time>2017-04-22T09:20:08Z</time>
      </trkpt>
      <trkpt lat="45.8978" lon="4.7494">
        <ele>195</ele>
        <time>2017-04-22T09:20:09Z</time>
      </trkpt>
      <trkpt lat="45.89774" lon="4.74937">
        <ele>195</ele>
        <time>2017-04-22T09:20:10Z</time>
      </trkpt>
      <trkpt lat="45.89768" lon="4.74934">
        <ele>195</ele>
        <time>2017-04-22T09:20:11Z</time>
      </trkpt>
      <trkpt lat="45.89762" lon="4.74932">
        <ele>195</ele>
        <time>2017-04-22T09:20:12Z</time>
      </trkpt>
      <trkpt lat="45.89757" lon="4.74929">
        <ele>195</ele>
        <time>2017-04-22T09:20:13Z</time>
      </trkpt>
      <trkpt lat="45.89751" lon="4.74926">
        <ele>195</ele>
        <time>2017-04-22T09:20:14Z</time>
      </trkpt>
      <trkpt lat="45.89745" lon="4.74924">
        <ele>195</ele>
        <time>2017-04-22T09:20:15Z</time>
      </trkpt>
      <trkpt lat="45.89739" lon="4.7492">
        <ele>195</ele>
        <time>2017-04-22T09:20:16Z</time>
      </trkpt>
      <trkpt lat="45.89733" lon="4.74917">
        <ele>196</ele>
        <time>2017-04-22T09:20:17Z</time>
      </trkpt>
      <trkpt lat="45.89727" lon="4.74915">
        <ele>195</ele>
        <time>2017-04-22T09:20:18Z</time>
      </trkpt>
      <trkpt lat="45.89722" lon="4.74913">
        <ele>195</ele>
        <time>2017-04-22T09:20:19Z</time>
      </trkpt>
      <trkpt lat="45.89715" lon="4.74911">
        <ele>195</ele>
        <time>2017-04-22T09:20:20Z</time>
      </trkpt>
      <trkpt lat="45.89709" lon="4.7491">
        <ele>195</ele>
        <time>2017-04-22T09:20:21Z</time>
      </trkpt>
      <trkpt lat="45.89704" lon="4.7491">
        <ele>195</ele>
        <time>2017-04-22T09:20:22Z</time>
      </trkpt>
      <trkpt lat="45.89698" lon="4.7491">
        <ele>195</ele>
        <time>2017-04-22T09:20:23Z</time>
      </trkpt>
      <trkpt lat="45.89693" lon="4.74911">
        <ele>195</ele>
        <time>2017-04-22T09:20:24Z</time>
      </trkpt>
      <trkpt lat="45.89688" lon="4.74911">
        <ele>195</ele>
        <time>2017-04-22T09:20:25Z</time>
      </trkpt>
      <trkpt lat="45.89682" lon="4.74911">
        <ele>195</ele>
        <time>2017-04-22T09:20:26Z</time>
      </trkpt>
      <trkpt lat="45.89676" lon="4.74911">
        <ele>196</ele>
        <time>2017-04-22T09:20:27Z</time>
      </trkpt>
      <trkpt lat="45.89671" lon="4.7491">
        <ele>196</ele>
        <time>2017-04-22T09:20:28Z</time>
      </trkpt>
      <trkpt lat="45.89666" lon="4.7491">
        <ele>196</ele>
        <time>2017-04-22T09:20:29Z</time>
      </trkpt>
      <trkpt lat="45.8966" lon="4.7491">
        <ele>196</ele>
        <time>2017-04-22T09:20:30Z</time>
      </trkpt>
      <trkpt lat="45.89655" lon="4.7491">
        <ele>196</ele>
        <time>2017-04-22T09:20:31Z</time>
      </trkpt>
      <trkpt lat="45.8965" lon="4.7491">
        <ele>196</ele>
        <time>2017-04-22T09:20:32Z</time>
      </trkpt>
      <trkpt lat="45.89644" lon="4.7491">
        <ele>196</ele>
        <time>2017-04-22T09:20:33Z</time>
      </trkpt>
      <trkpt lat="45.89638" lon="4.74909">
        <ele>196</ele>
        <time>2017-04-22T09:20:34Z</time>
      </trkpt>
      <trkpt lat="45.89633" lon="4.74909">
        <ele>196</ele>
        <time>2017-04-22T09:20:35Z</time>
      </trkpt>
      <trkpt lat="45.89628" lon="4.74909">
        <ele>196</ele>
        <time>2017-04-22T09:20:36Z</time>
      </trkpt>
      <trkpt lat="45.89622" lon="4.74909">
        <ele>197</ele>
        <time>2017-04-22T09:20:37Z</time>
      </trkpt>
      <trkpt lat="45.89617" lon="4.74908">
        <ele>197</ele>
        <time>2017-04-22T09:20:38Z</time>
      </trkpt>
      <trkpt lat="45.89612" lon="4.74907">
        <ele>197</ele>
        <time>2017-04-22T09:20:39Z</time>
      </trkpt>
      <trkpt lat="45.89607" lon="4.74907">
        <ele>197</ele>
        <time>2017-04-22T09:20:40Z</time>
      </trkpt>
      <trkpt lat="45.89601" lon="4.74906">
        <ele>197</ele>
        <time>2017-04-22T09:20:41Z</time>
      </trkpt>
      <trkpt lat="45.89597" lon="4.74905">
        <ele>197</ele>
        <time>2017-04-22T09:20:42Z</time>
      </trkpt>
      <trkpt lat="45.89591" lon="4.74905">
        <ele>197</ele>
        <time>2017-04-22T09:20:43Z</time>
      </trkpt>
      <trkpt lat="45.89586" lon="4.74905">
        <ele>197</ele>
        <time>2017-04-22T09:20:44Z</time>
      </trkpt>
      <trkpt lat="45.89581" lon="4.74904">
        <ele>198</ele>
        <time>2017-04-22T09:20:45Z</time>
      </trkpt>
      <trkpt lat="45.89575" lon="4.74902">
        <ele>198</ele>
        <time>2017-04-22T09:20:46Z</time>
      </trkpt>
      <trkpt lat="45.8957" lon="4.74901">
        <ele>198</ele>
        <time>2017-04-22T09:20:47Z</time>
      </trkpt>
      <trkpt lat="45.89564" lon="4.74899">
        <ele>198</ele>
        <time>2017-04-22T09:20:48Z</time>
      </trkpt>
      <trkpt lat="45.89558" lon="4.74898">
        <ele>198</ele>
        <time>2017-04-22T09:20:49Z</time>
      </trkpt>
      <trkpt lat="45.89552" lon="4.74896">
        <ele>198</ele>
        <time>2017-04-22T09:20:50Z</time>
      </trkpt>
      <trkpt lat="45.89546" lon="4.74895">
        <ele>198</ele>
        <time>2017-04-22T09:20:51Z</time>
      </trkpt>
      <trkpt lat="45.89541" lon="4.74894">
        <ele>198</ele>
        <time>2017-04-22T09:20:52Z</time>
      </trkpt>
      <trkpt lat="45.89535" lon="4.74893">
        <ele>198</ele>
        <time>2017-04-22T09:20:53Z</time>
      </trkpt>
      <trkpt lat="45.89529" lon="4.74892">
        <ele>198</ele>
        <time>2017-04-22T09:20:54Z</time>
      </trkpt>
      <trkpt lat="45.89524" lon="4.74891">
        <ele>198</ele>
        <time>2017-04-22T09:20:55Z</time>
      </trkpt>
      <trkpt lat="45.89519" lon="4.7489">
        <ele>198</ele>
        <time>2017-04-22T09:20:56Z</time>
      </trkpt>
      <trkpt lat="45.89515" lon="4.74889">
        <ele>198</ele>
        <time>2017-04-22T09:20:57Z</time>
      </trkpt>
      <trkpt lat="45.8951" lon="4.74888">
        <ele>198</ele>
        <time>2017-04-22T09:20:58Z</time>
      </trkpt>
      <trkpt lat="45.89505" lon="4.74887">
        <ele>198</ele>
        <time>2017-04-22T09:20:59Z</time>
      </trkpt>
      <trkpt lat="45.895" lon="4.74886">
        <ele>198</ele>
        <time>2017-04-22T09:21:00Z</time>
      </trkpt>
      <trkpt lat="45.89495" lon="4.74885">
        <ele>198</ele>
        <time>2017-04-22T09:21:01Z</time>
      </trkpt>
      <trkpt lat="45.89491" lon="4.74884">
        <ele>198</ele>
        <time>2017-04-22T09:21:02Z</time>
      </trkpt>
      <trkpt lat="45.89486" lon="4.74883">
        <ele>198</ele>
        <time>2017-04-22T09:21:03Z</time>
      </trkpt>
      <trkpt lat="45.89481" lon="4.74883">
        <ele>198</ele>
        <time>2017-04-22T09:21:04Z</time>
      </trkpt>
      <trkpt lat="45.89475" lon="4.74882">
        <ele>198</ele>
        <time>2017-04-22T09:21:05Z</time>
      </trkpt>
      <trkpt lat="45.8947" lon="4.74882">
        <ele>198</ele>
        <time>2017-04-22T09:21:06Z</time>
      </trkpt>
      <trkpt lat="45.89464" lon="4.74882">
        <ele>199</ele>
        <time>2017-04-22T09:21:07Z</time>
      </trkpt>
      <trkpt lat="45.89459" lon="4.74881">
        <ele>199</ele>
        <time>2017-04-22T09:21:08Z</time>
      </trkpt>
      <trkpt lat="45.89455" lon="4.7488">
        <ele>199</ele>
        <time>2017-04-22T09:21:09Z</time>
      </trkpt>
      <trkpt lat="45.8945" lon="4.74879">
        <ele>199</ele>
        <time>2017-04-22T09:21:10Z</time>
      </trkpt>
      <trkpt lat="45.89445" lon="4.74878">
        <ele>199</ele>
        <time>2017-04-22T09:21:11Z</time>
      </trkpt>
      <trkpt lat="45.8944" lon="4.74876">
        <ele>199</ele>
        <time>2017-04-22T09:21:12Z</time>
      </trkpt>
      <trkpt lat="45.89436" lon="4.74875">
        <ele>199</ele>
        <time>2017-04-22T09:21:13Z</time>
      </trkpt>
      <trkpt lat="45.89427" lon="4.74874">
        <ele>199</ele>
        <time>2017-04-22T09:21:15Z</time>
      </trkpt>
      <trkpt lat="45.89422" lon="4.74872">
        <ele>199</ele>
        <time>2017-04-22T09:21:16Z</time>
      </trkpt>
      <trkpt lat="45.89416" lon="4.74873">
        <ele>199</ele>
        <time>2017-04-22T09:21:17Z</time>
      </trkpt>
      <trkpt lat="45.8941" lon="4.74873">
        <ele>199</ele>
        <time>2017-04-22T09:21:18Z</time>
      </trkpt>
      <trkpt lat="45.89404" lon="4.74873">
        <ele>199</ele>
        <time>2017-04-22T09:21:19Z</time>
      </trkpt>
      <trkpt lat="45.89398" lon="4.74872">
        <ele>199</ele>
        <time>2017-04-22T09:21:20Z</time>
      </trkpt>
      <trkpt lat="45.89391" lon="4.74872">
        <ele>199</ele>
        <time>2017-04-22T09:21:21Z</time>
      </trkpt>
      <trkpt lat="45.89385" lon="4.7487">
        <ele>199</ele>
        <time>2017-04-22T09:21:22Z</time>
      </trkpt>
      <trkpt lat="45.89379" lon="4.7487">
        <ele>199</ele>
        <time>2017-04-22T09:21:23Z</time>
      </trkpt>
      <trkpt lat="45.89374" lon="4.74869">
        <ele>199</ele>
        <time>2017-04-22T09:21:24Z</time>
      </trkpt>
      <trkpt lat="45.89368" lon="4.74869">
        <ele>199</ele>
        <time>2017-04-22T09:21:25Z</time>
      </trkpt>
      <trkpt lat="45.89362" lon="4.74868">
        <ele>199</ele>
        <time>2017-04-22T09:21:26Z</time>
      </trkpt>
      <trkpt lat="45.89357" lon="4.74867">
        <ele>199</ele>
        <time>2017-04-22T09:21:27Z</time>
      </trkpt>
      <trkpt lat="45.89351" lon="4.74867">
        <ele>199</ele>
        <time>2017-04-22T09:21:28Z</time>
      </trkpt>
      <trkpt lat="45.89346" lon="4.74867">
        <ele>199</ele>
        <time>2017-04-22T09:21:29Z</time>
      </trkpt>
      <trkpt lat="45.89341" lon="4.74867">
        <ele>199</ele>
        <time>2017-04-22T09:21:30Z</time>
      </trkpt>
      <trkpt lat="45.89334" lon="4.74866">
        <ele>199</ele>
        <time>2017-04-22T09:21:31Z</time>
      </trkpt>
      <trkpt lat="45.89328" lon="4.74864">
        <ele>198</ele>
        <time>2017-04-22T09:21:32Z</time>
      </trkpt>
      <trkpt lat="45.89324" lon="4.74864">
        <ele>198</ele>
        <time>2017-04-22T09:21:33Z</time>
      </trkpt>
      <trkpt lat="45.89318" lon="4.74864">
        <ele>198</ele>
        <time>2017-04-22T09:21:34Z</time>
      </trkpt>
      <trkpt lat="45.89314" lon="4.74863">
        <ele>198</ele>
        <time>2017-04-22T09:21:35Z</time>
      </trkpt>
      <trkpt lat="45.89309" lon="4.74862">
        <ele>198</ele>
        <time>2017-04-22T09:21:36Z</time>
      </trkpt>
      <trkpt lat="45.89303" lon="4.74862">
        <ele>198</ele>
        <time>2017-04-22T09:21:37Z</time>
      </trkpt>
      <trkpt lat="45.89297" lon="4.74862">
        <ele>198</ele>
        <time>2017-04-22T09:21:38Z</time>
      </trkpt>
      <trkpt lat="45.89291" lon="4.74861">
        <ele>198</ele>
        <time>2017-04-22T09:21:39Z</time>
      </trkpt>
      <trkpt lat="45.89286" lon="4.7486">
        <ele>198</ele>
        <time>2017-04-22T09:21:40Z</time>
      </trkpt>
      <trkpt lat="45.8928" lon="4.74859">
        <ele>198</ele>
        <time>2017-04-22T09:21:41Z</time>
      </trkpt>
      <trkpt lat="45.89273" lon="4.74858">
        <ele>198</ele>
        <time>2017-04-22T09:21:42Z</time>
      </trkpt>
      <trkpt lat="45.89267" lon="4.74856">
        <ele>198</ele>
        <time>2017-04-22T09:21:43Z</time>
      </trkpt>
      <trkpt lat="45.8926" lon="4.74855">
        <ele>198</ele>
        <time>2017-04-22T09:21:44Z</time>
      </trkpt>
      <trkpt lat="45.89254" lon="4.74854">
        <ele>198</ele>
        <time>2017-04-22T09:21:45Z</time>
      </trkpt>
      <trkpt lat="45.89248" lon="4.74854">
        <ele>198</ele>
        <time>2017-04-22T09:21:46Z</time>
      </trkpt>
      <trkpt lat="45.89242" lon="4.74854">
        <ele>198</ele>
        <time>2017-04-22T09:21:47Z</time>
      </trkpt>
      <trkpt lat="45.89236" lon="4.74853">
        <ele>198</ele>
        <time>2017-04-22T09:21:48Z</time>
      </trkpt>
      <trkpt lat="45.89227" lon="4.74855">
        <ele>198</ele>
        <time>2017-04-22T09:21:50Z</time>
      </trkpt>
      <trkpt lat="45.89222" lon="4.74855">
        <ele>198</ele>
        <time>2017-04-22T09:21:51Z</time>
      </trkpt>
      <trkpt lat="45.89216" lon="4.74856">
        <ele>198</ele>
        <time>2017-04-22T09:21:52Z</time>
      </trkpt>
      <trkpt lat="45.89211" lon="4.74855">
        <ele>198</ele>
        <time>2017-04-22T09:21:53Z</time>
      </trkpt>
      <trkpt lat="45.89207" lon="4.74855">
        <ele>198</ele>
        <time>2017-04-22T09:21:54Z</time>
      </trkpt>
      <trkpt lat="45.89201" lon="4.74856">
        <ele>198</ele>
        <time>2017-04-22T09:21:55Z</time>
      </trkpt>
      <trkpt lat="45.89196" lon="4.74856">
        <ele>198</ele>
        <time>2017-04-22T09:21:56Z</time>
      </trkpt>
      <trkpt lat="45.89192" lon="4.74857">
        <ele>198</ele>
        <time>2017-04-22T09:21:57Z</time>
      </trkpt>
      <trkpt lat="45.89184" lon="4.74857">
        <ele>198</ele>
        <time>2017-04-22T09:21:59Z</time>
      </trkpt>
      <trkpt lat="45.89179" lon="4.74857">
        <ele>198</ele>
        <time>2017-04-22T09:22:00Z</time>
      </trkpt>
      <trkpt lat="45.89174" lon="4.74857">
        <ele>198</ele>
        <time>2017-04-22T09:22:01Z</time>
      </trkpt>
      <trkpt lat="45.89169" lon="4.74856">
        <ele>198</ele>
        <time>2017-04-22T09:22:02Z</time>
      </trkpt>
      <trkpt lat="45.89164" lon="4.74856">
        <ele>198</ele>
        <time>2017-04-22T09:22:03Z</time>
      </trkpt>
      <trkpt lat="45.89159" lon="4.74855">
        <ele>198</ele>
        <time>2017-04-22T09:22:04Z</time>
      </trkpt>
      <trkpt lat="45.89153" lon="4.74854">
        <ele>198</ele>
        <time>2017-04-22T09:22:05Z</time>
      </trkpt>
      <trkpt lat="45.89148" lon="4.74854">
        <ele>199</ele>
        <time>2017-04-22T09:22:06Z</time>
      </trkpt>
      <trkpt lat="45.89144" lon="4.74854">
        <ele>199</ele>
        <time>2017-04-22T09:22:07Z</time>
      </trkpt>
      <trkpt lat="45.89139" lon="4.74853">
        <ele>199</ele>
        <time>2017-04-22T09:22:08Z</time>
      </trkpt>
      <trkpt lat="45.89134" lon="4.74854">
        <ele>199</ele>
        <time>2017-04-22T09:22:09Z</time>
      </trkpt>
      <trkpt lat="45.8913" lon="4.74855">
        <ele>199</ele>
        <time>2017-04-22T09:22:10Z</time>
      </trkpt>
      <trkpt lat="45.89121" lon="4.74856">
        <ele>199</ele>
        <time>2017-04-22T09:22:12Z</time>
      </trkpt>
      <trkpt lat="45.89117" lon="4.74856">
        <ele>199</ele>
        <time>2017-04-22T09:22:13Z</time>
      </trkpt>
      <trkpt lat="45.89109" lon="4.74857">
        <ele>199</ele>
        <time>2017-04-22T09:22:15Z</time>
      </trkpt>
      <trkpt lat="45.89105" lon="4.74857">
        <ele>199</ele>
        <time>2017-04-22T09:22:16Z</time>
      </trkpt>
      <trkpt lat="45.89101" lon="4.74858">
        <ele>199</ele>
        <time>2017-04-22T09:22:17Z</time>
      </trkpt>
      <trkpt lat="45.89096" lon="4.74859">
        <ele>199</ele>
        <time>2017-04-22T09:22:18Z</time>
      </trkpt>
      <trkpt lat="45.89091" lon="4.74861">
        <ele>199</ele>
        <time>2017-04-22T09:22:19Z</time>
      </trkpt>
      <trkpt lat="45.89086" lon="4.74862">
        <ele>199</ele>
        <time>2017-04-22T09:22:20Z</time>
      </trkpt>
      <trkpt lat="45.8908" lon="4.74863">
        <ele>199</ele>
        <time>2017-04-22T09:22:21Z</time>
      </trkpt>
      <trkpt lat="45.89075" lon="4.74864">
        <ele>199</ele>
        <time>2017-04-22T09:22:22Z</time>
      </trkpt>
      <trkpt lat="45.8907" lon="4.74865">
        <ele>199</ele>
        <time>2017-04-22T09:22:23Z</time>
      </trkpt>
      <trkpt lat="45.89064" lon="4.74866">
        <ele>199</ele>
        <time>2017-04-22T09:22:24Z</time>
      </trkpt>
      <trkpt lat="45.89059" lon="4.74867">
        <ele>199</ele>
        <time>2017-04-22T09:22:25Z</time>
      </trkpt>
      <trkpt lat="45.89055" lon="4.74869">
        <ele>199</ele>
        <time>2017-04-22T09:22:26Z</time>
      </trkpt>
      <trkpt lat="45.8905" lon="4.74871">
        <ele>199</ele>
        <time>2017-04-22T09:22:27Z</time>
      </trkpt>
      <trkpt lat="45.89046" lon="4.74874">
        <ele>199</ele>
        <time>2017-04-22T09:22:28Z</time>
      </trkpt>
      <trkpt lat="45.89042" lon="4.74877">
        <ele>199</ele>
        <time>2017-04-22T09:22:29Z</time>
      </trkpt>
      <trkpt lat="45.89038" lon="4.74881">
        <ele>199</ele>
        <time>2017-04-22T09:22:30Z</time>
      </trkpt>
      <trkpt lat="45.89031" lon="4.74887">
        <ele>199</ele>
        <time>2017-04-22T09:22:32Z</time>
      </trkpt>
      <trkpt lat="45.89027" lon="4.74891">
        <ele>199</ele>
        <time>2017-04-22T09:22:33Z</time>
      </trkpt>
      <trkpt lat="45.89021" lon="4.74897">
        <ele>199</ele>
        <time>2017-04-22T09:22:35Z</time>
      </trkpt>
      <trkpt lat="45.89016" lon="4.749">
        <ele>199</ele>
        <time>2017-04-22T09:22:36Z</time>
      </trkpt>
      <trkpt lat="45.89008" lon="4.74906">
        <ele>199</ele>
        <time>2017-04-22T09:22:38Z</time>
      </trkpt>
      <trkpt lat="45.89003" lon="4.74908">
        <ele>199</ele>
        <time>2017-04-22T09:22:39Z</time>
      </trkpt>
      <trkpt lat="45.88997" lon="4.74911">
        <ele>199</ele>
        <time>2017-04-22T09:22:40Z</time>
      </trkpt>
      <trkpt lat="45.88993" lon="4.74912">
        <ele>199</ele>
        <time>2017-04-22T09:22:41Z</time>
      </trkpt>
      <trkpt lat="45.88989" lon="4.74915">
        <ele>199</ele>
        <time>2017-04-22T09:22:42Z</time>
      </trkpt>
      <trkpt lat="45.88984" lon="4.74917">
        <ele>199</ele>
        <time>2017-04-22T09:22:43Z</time>
      </trkpt>
      <trkpt lat="45.88979" lon="4.74922">
        <ele>199</ele>
        <time>2017-04-22T09:22:44Z</time>
      </trkpt>
      <trkpt lat="45.88975" lon="4.74926">
        <ele>200</ele>
        <time>2017-04-22T09:22:45Z</time>
      </trkpt>
      <trkpt lat="45.8897" lon="4.74928">
        <ele>200</ele>
        <time>2017-04-22T09:22:46Z</time>
      </trkpt>
      <trkpt lat="45.88965" lon="4.74932">
        <ele>200</ele>
        <time>2017-04-22T09:22:47Z</time>
      </trkpt>
      <trkpt lat="45.8896" lon="4.74935">
        <ele>200</ele>
        <time>2017-04-22T09:22:48Z</time>
      </trkpt>
      <trkpt lat="45.88955" lon="4.74938">
        <ele>200</ele>
        <time>2017-04-22T09:22:49Z</time>
      </trkpt>
      <trkpt lat="45.8895" lon="4.74941">
        <ele>200</ele>
        <time>2017-04-22T09:22:50Z</time>
      </trkpt>
      <trkpt lat="45.88945" lon="4.74943">
        <ele>200</ele>
        <time>2017-04-22T09:22:51Z</time>
      </trkpt>
      <trkpt lat="45.88939" lon="4.74943">
        <ele>200</ele>
        <time>2017-04-22T09:22:52Z</time>
      </trkpt>
      <trkpt lat="45.88934" lon="4.74944">
        <ele>200</ele>
        <time>2017-04-22T09:22:53Z</time>
      </trkpt>
      <trkpt lat="45.88926" lon="4.74947">
        <ele>200</ele>
        <time>2017-04-22T09:22:55Z</time>
      </trkpt>
      <trkpt lat="45.88921" lon="4.7495">
        <ele>200</ele>
        <time>2017-04-22T09:22:56Z</time>
      </trkpt>
      <trkpt lat="45.88916" lon="4.74952">
        <ele>201</ele>
        <time>2017-04-22T09:22:57Z</time>
      </trkpt>
      <trkpt lat="45.88912" lon="4.74954">
        <ele>201</ele>
        <time>2017-04-22T09:22:58Z</time>
      </trkpt>
      <trkpt lat="45.88903" lon="4.74954">
        <ele>201</ele>
        <time>2017-04-22T09:23:00Z</time>
      </trkpt>
      <trkpt lat="45.88898" lon="4.74955">
        <ele>201</ele>
        <time>2017-04-22T09:23:01Z</time>
      </trkpt>
      <trkpt lat="45.88894" lon="4.74955">
        <ele>201</ele>
        <time>2017-04-22T09:23:02Z</time>
      </trkpt>
      <trkpt lat="45.88888" lon="4.74955">
        <ele>201</ele>
        <time>2017-04-22T09:23:03Z</time>
      </trkpt>
      <trkpt lat="45.88883" lon="4.74954">
        <ele>201</ele>
        <time>2017-04-22T09:23:04Z</time>
      </trkpt>
      <trkpt lat="45.88878" lon="4.74953">
        <ele>201</ele>
        <time>2017-04-22T09:23:05Z</time>
      </trkpt>
      <trkpt lat="45.88873" lon="4.74952">
        <ele>201</ele>
        <time>2017-04-22T09:23:06Z</time>
      </trkpt>
      <trkpt lat="45.88868" lon="4.74953">
        <ele>201</ele>
        <time>2017-04-22T09:23:07Z</time>
      </trkpt>
      <trkpt lat="45.88863" lon="4.74952">
        <ele>201</ele>
        <time>2017-04-22T09:23:08Z</time>
      </trkpt>
      <trkpt lat="45.88858" lon="4.74951">
        <ele>201</ele>
        <time>2017-04-22T09:23:09Z</time>
      </trkpt>
      <trkpt lat="45.88852" lon="4.74952">
        <ele>201</ele>
        <time>2017-04-22T09:23:10Z</time>
      </trkpt>
      <trkpt lat="45.88847" lon="4.74952">
        <ele>201</ele>
        <time>2017-04-22T09:23:11Z</time>
      </trkpt>
      <trkpt lat="45.88842" lon="4.74951">
        <ele>201</ele>
        <time>2017-04-22T09:23:12Z</time>
      </trkpt>
      <trkpt lat="45.88836" lon="4.7495">
        <ele>201</ele>
        <time>2017-04-22T09:23:13Z</time>
      </trkpt>
      <trkpt lat="45.88831" lon="4.74948">
        <ele>201</ele>
        <time>2017-04-22T09:23:14Z</time>
      </trkpt>
      <trkpt lat="45.88826" lon="4.74947">
        <ele>201</ele>
        <time>2017-04-22T09:23:15Z</time>
      </trkpt>
      <trkpt lat="45.88818" lon="4.74945">
        <ele>201</ele>
        <time>2017-04-22T09:23:17Z</time>
      </trkpt>
      <trkpt lat="45.88814" lon="4.74944">
        <ele>201</ele>
        <time>2017-04-22T09:23:18Z</time>
      </trkpt>
      <trkpt lat="45.88805" lon="4.74943">
        <ele>201</ele>
        <time>2017-04-22T09:23:20Z</time>
      </trkpt>
      <trkpt lat="45.88801" lon="4.74943">
        <ele>201</ele>
        <time>2017-04-22T09:23:21Z</time>
      </trkpt>
      <trkpt lat="45.88795" lon="4.74943">
        <ele>201</ele>
        <time>2017-04-22T09:23:22Z</time>
      </trkpt>
      <trkpt lat="45.88789" lon="4.74941">
        <ele>201</ele>
        <time>2017-04-22T09:23:23Z</time>
      </trkpt>
      <trkpt lat="45.88784" lon="4.7494">
        <ele>201</ele>
        <time>2017-04-22T09:23:24Z</time>
      </trkpt>
      <trkpt lat="45.88779" lon="4.7494">
        <ele>201</ele>
        <time>2017-04-22T09:23:25Z</time>
      </trkpt>
      <trkpt lat="45.88773" lon="4.74939">
        <ele>201</ele>
        <time>2017-04-22T09:23:26Z</time>
      </trkpt>
      <trkpt lat="45.88767" lon="4.74938">
        <ele>201</ele>
        <time>2017-04-22T09:23:27Z</time>
      </trkpt>
      <trkpt lat="45.88762" lon="4.74937">
        <ele>201</ele>
        <time>2017-04-22T09:23:28Z</time>
      </trkpt>
      <trkpt lat="45.88756" lon="4.74936">
        <ele>201</ele>
        <time>2017-04-22T09:23:29Z</time>
      </trkpt>
      <trkpt lat="45.88751" lon="4.74935">
        <ele>201</ele>
        <time>2017-04-22T09:23:30Z</time>
      </trkpt>
      <trkpt lat="45.88746" lon="4.74934">
        <ele>201</ele>
        <time>2017-04-22T09:23:31Z</time>
      </trkpt>
      <trkpt lat="45.88742" lon="4.74933">
        <ele>201</ele>
        <time>2017-04-22T09:23:32Z</time>
      </trkpt>
      <trkpt lat="45.88736" lon="4.74932">
        <ele>201</ele>
        <time>2017-04-22T09:23:33Z</time>
      </trkpt>
      <trkpt lat="45.88731" lon="4.74931">
        <ele>201</ele>
        <time>2017-04-22T09:23:34Z</time>
      </trkpt>
      <trkpt lat="45.88725" lon="4.7493">
        <ele>201</ele>
        <time>2017-04-22T09:23:35Z</time>
      </trkpt>
      <trkpt lat="45.88719" lon="4.7493">
        <ele>201</ele>
        <time>2017-04-22T09:23:36Z</time>
      </trkpt>
      <trkpt lat="45.88713" lon="4.74928">
        <ele>201</ele>
        <time>2017-04-22T09:23:37Z</time>
      </trkpt>
      <trkpt lat="45.88708" lon="4.74927">
        <ele>202</ele>
        <time>2017-04-22T09:23:38Z</time>
      </trkpt>
      <trkpt lat="45.88703" lon="4.74925">
        <ele>202</ele>
        <time>2017-04-22T09:23:39Z</time>
      </trkpt>
      <trkpt lat="45.88698" lon="4.74924">
        <ele>202</ele>
        <time>2017-04-22T09:23:40Z</time>
      </trkpt>
      <trkpt lat="45.88693" lon="4.74923">
        <ele>202</ele>
        <time>2017-04-22T09:23:41Z</time>
      </trkpt>
      <trkpt lat="45.88689" lon="4.74921">
        <ele>202</ele>
        <time>2017-04-22T09:23:42Z</time>
      </trkpt>
      <trkpt lat="45.88685" lon="4.74919">
        <ele>202</ele>
        <time>2017-04-22T09:23:43Z</time>
      </trkpt>
      <trkpt lat="45.88678" lon="4.74915">
        <ele>202</ele>
        <time>2017-04-22T09:23:45Z</time>
      </trkpt>
      <trkpt lat="45.88676" lon="4.74913">
        <ele>202</ele>
        <time>2017-04-22T09:23:46Z</time>
      </trkpt>
      <trkpt lat="45.8867" lon="4.7491">
        <ele>202</ele>
        <time>2017-04-22T09:23:48Z</time>
      </trkpt>
      <trkpt lat="45.88666" lon="4.74911">
        <ele>202</ele>
        <time>2017-04-22T09:23:49Z</time>
      </trkpt>
      <trkpt lat="45.8866" lon="4.74917">
        <ele>202</ele>
        <time>2017-04-22T09:23:51Z</time>
      </trkpt>
      <trkpt lat="45.88657" lon="4.7492">
        <ele>202</ele>
        <time>2017-04-22T09:23:52Z</time>
      </trkpt>
      <trkpt lat="45.88653" lon="4.74923">
        <ele>202</ele>
        <time>2017-04-22T09:23:53Z</time>
      </trkpt>
      <trkpt lat="45.88649" lon="4.74927">
        <ele>202</ele>
        <time>2017-04-22T09:23:54Z</time>
      </trkpt>
      <trkpt lat="45.88646" lon="4.74933">
        <ele>202</ele>
        <time>2017-04-22T09:23:55Z</time>
      </trkpt>
      <trkpt lat="45.88643" lon="4.74939">
        <ele>201</ele>
        <time>2017-04-22T09:23:56Z</time>
      </trkpt>
      <trkpt lat="45.88641" lon="4.74946">
        <ele>201</ele>
        <time>2017-04-22T09:23:57Z</time>
      </trkpt>
      <trkpt lat="45.88639" lon="4.74952">
        <ele>201</ele>
        <time>2017-04-22T09:23:58Z</time>
      </trkpt>
      <trkpt lat="45.88637" lon="4.74959">
        <ele>201</ele>
        <time>2017-04-22T09:23:59Z</time>
      </trkpt>
      <trkpt lat="45.88636" lon="4.74966">
        <ele>201</ele>
        <time>2017-04-22T09:24:00Z</time>
      </trkpt>
      <trkpt lat="45.88634" lon="4.74973">
        <ele>201</ele>
        <time>2017-04-22T09:24:01Z</time>
      </trkpt>
      <trkpt lat="45.88632" lon="4.74979">
        <ele>201</ele>
        <time>2017-04-22T09:24:02Z</time>
      </trkpt>
      <trkpt lat="45.8863" lon="4.74986">
        <ele>201</ele>
        <time>2017-04-22T09:24:03Z</time>
      </trkpt>
      <trkpt lat="45.88628" lon="4.74993">
        <ele>201</ele>
        <time>2017-04-22T09:24:04Z</time>
      </trkpt>
      <trkpt lat="45.88626" lon="4.75">
        <ele>201</ele>
        <time>2017-04-22T09:24:05Z</time>
      </trkpt>
      <trkpt lat="45.88625" lon="4.75007">
        <ele>201</ele>
        <time>2017-04-22T09:24:06Z</time>
      </trkpt>
      <trkpt lat="45.88623" lon="4.75015">
        <ele>202</ele>
        <time>2017-04-22T09:24:07Z</time>
      </trkpt>
      <trkpt lat="45.88622" lon="4.75022">
        <ele>202</ele>
        <time>2017-04-22T09:24:08Z</time>
      </trkpt>
      <trkpt lat="45.88621" lon="4.75029">
        <ele>202</ele>
        <time>2017-04-22T09:24:09Z</time>
      </trkpt>
      <trkpt lat="45.8862" lon="4.75036">
        <ele>202</ele>
        <time>2017-04-22T09:24:10Z</time>
      </trkpt>
      <trkpt lat="45.88618" lon="4.75043">
        <ele>202</ele>
        <time>2017-04-22T09:24:11Z</time>
      </trkpt>
      <trkpt lat="45.88617" lon="4.7505">
        <ele>202</ele>
        <time>2017-04-22T09:24:12Z</time>
      </trkpt>
      <trkpt lat="45.88616" lon="4.75057">
        <ele>202</ele>
        <time>2017-04-22T09:24:13Z</time>
      </trkpt>
      <trkpt lat="45.88614" lon="4.75064">
        <ele>202</ele>
        <time>2017-04-22T09:24:14Z</time>
      </trkpt>
      <trkpt lat="45.88612" lon="4.75071">
        <ele>202</ele>
        <time>2017-04-22T09:24:15Z</time>
      </trkpt>
      <trkpt lat="45.88609" lon="4.75077">
        <ele>202</ele>
        <time>2017-04-22T09:24:16Z</time>
      </trkpt>
      <trkpt lat="45.88606" lon="4.75083">
        <ele>202</ele>
        <time>2017-04-22T09:24:17Z</time>
      </trkpt>
      <trkpt lat="45.88602" lon="4.75089">
        <ele>202</ele>
        <time>2017-04-22T09:24:18Z</time>
      </trkpt>
      <trkpt lat="45.88598" lon="4.75094">
        <ele>202</ele>
        <time>2017-04-22T09:24:19Z</time>
      </trkpt>
      <trkpt lat="45.88594" lon="4.75099">
        <ele>202</ele>
        <time>2017-04-22T09:24:20Z</time>
      </trkpt>
      <trkpt lat="45.8859" lon="4.75103">
        <ele>202</ele>
        <time>2017-04-22T09:24:21Z</time>
      </trkpt>
      <trkpt lat="45.88586" lon="4.75107">
        <ele>202</ele>
        <time>2017-04-22T09:24:22Z</time>
      </trkpt>
      <trkpt lat="45.88579" lon="4.75115">
        <ele>201</ele>
        <time>2017-04-22T09:24:24Z</time>
      </trkpt>
      <trkpt lat="45.88575" lon="4.7512">
        <ele>201</ele>
        <time>2017-04-22T09:24:25Z</time>
      </trkpt>
      <trkpt lat="45.88572" lon="4.75124">
        <ele>201</ele>
        <time>2017-04-22T09:24:26Z</time>
      </trkpt>
      <trkpt lat="45.88568" lon="4.75128">
        <ele>201</ele>
        <time>2017-04-22T09:24:27Z</time>
      </trkpt>
      <trkpt lat="45.88565" lon="4.75133">
        <ele>201</ele>
        <time>2017-04-22T09:24:28Z</time>
      </trkpt>
      <trkpt lat="45.88562" lon="4.75138">
        <ele>201</ele>
        <time>2017-04-22T09:24:29Z</time>
      </trkpt>
      <trkpt lat="45.88559" lon="4.75143">
        <ele>201</ele>
        <time>2017-04-22T09:24:30Z</time>
      </trkpt>
      <trkpt lat="45.88556" lon="4.75148">
        <ele>201</ele>
        <time>2017-04-22T09:24:31Z</time>
      </trkpt>
      <trkpt lat="45.88552" lon="4.75154">
        <ele>201</ele>
        <time>2017-04-22T09:24:32Z</time>
      </trkpt>
      <trkpt lat="45.88549" lon="4.7516">
        <ele>201</ele>
        <time>2017-04-22T09:24:33Z</time>
      </trkpt>
      <trkpt lat="45.88545" lon="4.75167">
        <ele>201</ele>
        <time>2017-04-22T09:24:34Z</time>
      </trkpt>
      <trkpt lat="45.88542" lon="4.75173">
        <ele>201</ele>
        <time>2017-04-22T09:24:35Z</time>
      </trkpt>
      <trkpt lat="45.88539" lon="4.7518">
        <ele>201</ele>
        <time>2017-04-22T09:24:36Z</time>
      </trkpt>
      <trkpt lat="45.88536" lon="4.75187">
        <ele>201</ele>
        <time>2017-04-22T09:24:37Z</time>
      </trkpt>
      <trkpt lat="45.88533" lon="4.75193">
        <ele>201</ele>
        <time>2017-04-22T09:24:38Z</time>
      </trkpt>
      <trkpt lat="45.88531" lon="4.75199">
        <ele>201</ele>
        <time>2017-04-22T09:24:39Z</time>
      </trkpt>
      <trkpt lat="45.88528" lon="4.75205">
        <ele>201</ele>
        <time>2017-04-22T09:24:40Z</time>
      </trkpt>
      <trkpt lat="45.88526" lon="4.75211">
        <ele>201</ele>
        <time>2017-04-22T09:24:41Z</time>
      </trkpt>
      <trkpt lat="45.88523" lon="4.75216">
        <ele>201</ele>
        <time>2017-04-22T09:24:42Z</time>
      </trkpt>
      <trkpt lat="45.8852" lon="4.75222">
        <ele>201</ele>
        <time>2017-04-22T09:24:43Z</time>
      </trkpt>
      <trkpt lat="45.88517" lon="4.75227">
        <ele>201</ele>
        <time>2017-04-22T09:24:44Z</time>
      </trkpt>
      <trkpt lat="45.88514" lon="4.75232">
        <ele>201</ele>
        <time>2017-04-22T09:24:45Z</time>
      </trkpt>
      <trkpt lat="45.8851" lon="4.75236">
        <ele>201</ele>
        <time>2017-04-22T09:24:46Z</time>
      </trkpt>
      <trkpt lat="45.88506" lon="4.7524">
        <ele>201</ele>
        <time>2017-04-22T09:24:47Z</time>
      </trkpt>
      <trkpt lat="45.88501" lon="4.75243">
        <ele>201</ele>
        <time>2017-04-22T09:24:48Z</time>
      </trkpt>
      <trkpt lat="45.88496" lon="4.75246">
        <ele>201</ele>
        <time>2017-04-22T09:24:49Z</time>
      </trkpt>
      <trkpt lat="45.88491" lon="4.7525">
        <ele>201</ele>
        <time>2017-04-22T09:24:50Z</time>
      </trkpt>
      <trkpt lat="45.88486" lon="4.75253">
        <ele>201</ele>
        <time>2017-04-22T09:24:51Z</time>
      </trkpt>
      <trkpt lat="45.88481" lon="4.75256">
        <ele>201</ele>
        <time>2017-04-22T09:24:52Z</time>
      </trkpt>
      <trkpt lat="45.88476" lon="4.75259">
        <ele>201</ele>
        <time>2017-04-22T09:24:53Z</time>
      </trkpt>
      <trkpt lat="45.88471" lon="4.75263">
        <ele>201</ele>
        <time>2017-04-22T09:24:54Z</time>
      </trkpt>
      <trkpt lat="45.88466" lon="4.75266">
        <ele>201</ele>
        <time>2017-04-22T09:24:55Z</time>
      </trkpt>
      <trkpt lat="45.88462" lon="4.75269">
        <ele>201</ele>
        <time>2017-04-22T09:24:56Z</time>
      </trkpt>
      <trkpt lat="45.88457" lon="4.75272">
        <ele>201</ele>
        <time>2017-04-22T09:24:57Z</time>
      </trkpt>
      <trkpt lat="45.88452" lon="4.75275">
        <ele>201</ele>
        <time>2017-04-22T09:24:58Z</time>
      </trkpt>
      <trkpt lat="45.88447" lon="4.75278">
        <ele>201</ele>
        <time>2017-04-22T09:24:59Z</time>
      </trkpt>
      <trkpt lat="45.88441" lon="4.75281">
        <ele>201</ele>
        <time>2017-04-22T09:25:00Z</time>
      </trkpt>
      <trkpt lat="45.88436" lon="4.75285">
        <ele>201</ele>
        <time>2017-04-22T09:25:01Z</time>
      </trkpt>
      <trkpt lat="45.88431" lon="4.75289">
        <ele>201</ele>
        <time>2017-04-22T09:25:02Z</time>
      </trkpt>
      <trkpt lat="45.88426" lon="4.75294">
        <ele>201</ele>
        <time>2017-04-22T09:25:03Z</time>
      </trkpt>
      <trkpt lat="45.88421" lon="4.753">
        <ele>201</ele>
        <time>2017-04-22T09:25:04Z</time>
      </trkpt>
      <trkpt lat="45.88417" lon="4.75307">
        <ele>201</ele>
        <time>2017-04-22T09:25:05Z</time>
      </trkpt>
      <trkpt lat="45.88414" lon="4.75314">
        <ele>200</ele>
        <time>2017-04-22T09:25:06Z</time>
      </trkpt>
      <trkpt lat="45.88411" lon="4.75321">
        <ele>200</ele>
        <time>2017-04-22T09:25:07Z</time>
      </trkpt>
      <trkpt lat="45.88408" lon="4.75328">
        <ele>200</ele>
        <time>2017-04-22T09:25:08Z</time>
      </trkpt>
      <trkpt lat="45.88405" lon="4.75335">
        <ele>200</ele>
        <time>2017-04-22T09:25:09Z</time>
      </trkpt>
      <trkpt lat="45.88403" lon="4.75341">
        <ele>201</ele>
        <time>2017-04-22T09:25:10Z</time>
      </trkpt>
      <trkpt lat="45.88399" lon="4.75347">
        <ele>201</ele>
        <time>2017-04-22T09:25:11Z</time>
      </trkpt>
      <trkpt lat="45.88396" lon="4.75353">
        <ele>201</ele>
        <time>2017-04-22T09:25:12Z</time>
      </trkpt>
      <trkpt lat="45.88393" lon="4.75358">
        <ele>201</ele>
        <time>2017-04-22T09:25:13Z</time>
      </trkpt>
      <trkpt lat="45.8839" lon="4.75363">
        <ele>201</ele>
        <time>2017-04-22T09:25:14Z</time>
      </trkpt>
      <trkpt lat="45.88387" lon="4.75368">
        <ele>201</ele>
        <time>2017-04-22T09:25:15Z</time>
      </trkpt>
      <trkpt lat="45.88384" lon="4.75374">
        <ele>201</ele>
        <time>2017-04-22T09:25:16Z</time>
      </trkpt>
      <trkpt lat="45.88383" lon="4.7538">
        <ele>201</ele>
        <time>2017-04-22T09:25:17Z</time>
      </trkpt>
      <trkpt lat="45.88381" lon="4.75387">
        <ele>201</ele>
        <time>2017-04-22T09:25:18Z</time>
      </trkpt>
      <trkpt lat="45.88379" lon="4.75394">
        <ele>201</ele>
        <time>2017-04-22T09:25:19Z</time>
      </trkpt>
      <trkpt lat="45.88377" lon="4.75401">
        <ele>202</ele>
        <time>2017-04-22T09:25:20Z</time>
      </trkpt>
      <trkpt lat="45.88376" lon="4.75409">
        <ele>202</ele>
        <time>2017-04-22T09:25:21Z</time>
      </trkpt>
      <trkpt lat="45.88374" lon="4.75417">
        <ele>202</ele>
        <time>2017-04-22T09:25:22Z</time>
      </trkpt>
      <trkpt lat="45.88373" lon="4.75425">
        <ele>203</ele>
        <time>2017-04-22T09:25:23Z</time>
      </trkpt>
      <trkpt lat="45.88372" lon="4.75433">
        <ele>203</ele>
        <time>2017-04-22T09:25:24Z</time>
      </trkpt>
      <trkpt lat="45.8837" lon="4.75441">
        <ele>203</ele>
        <time>2017-04-22T09:25:25Z</time>
      </trkpt>
      <trkpt lat="45.88368" lon="4.75449">
        <ele>203</ele>
        <time>2017-04-22T09:25:26Z</time>
      </trkpt>
      <trkpt lat="45.88367" lon="4.75456">
        <ele>203</ele>
        <time>2017-04-22T09:25:27Z</time>
      </trkpt>
      <trkpt lat="45.88366" lon="4.75463">
        <ele>203</ele>
        <time>2017-04-22T09:25:28Z</time>
      </trkpt>
      <trkpt lat="45.88366" lon="4.7547">
        <ele>203</ele>
        <time>2017-04-22T09:25:29Z</time>
      </trkpt>
      <trkpt lat="45.88365" lon="4.75477">
        <ele>203</ele>
        <time>2017-04-22T09:25:30Z</time>
      </trkpt>
      <trkpt lat="45.88364" lon="4.75484">
        <ele>203</ele>
        <time>2017-04-22T09:25:31Z</time>
      </trkpt>
      <trkpt lat="45.88364" lon="4.75491">
        <ele>203</ele>
        <time>2017-04-22T09:25:32Z</time>
      </trkpt>
      <trkpt lat="45.88364" lon="4.75498">
        <ele>203</ele>
        <time>2017-04-22T09:25:33Z</time>
      </trkpt>
      <trkpt lat="45.88364" lon="4.75506">
        <ele>204</ele>
        <time>2017-04-22T09:25:34Z</time>
      </trkpt>
      <trkpt lat="45.88363" lon="4.75513">
        <ele>204</ele>
        <time>2017-04-22T09:25:35Z</time>
      </trkpt>
      <trkpt lat="45.88363" lon="4.75521">
        <ele>204</ele>
        <time>2017-04-22T09:25:36Z</time>
      </trkpt>
      <trkpt lat="45.88362" lon="4.75528">
        <ele>204</ele>
        <time>2017-04-22T09:25:37Z</time>
      </trkpt>
      <trkpt lat="45.88362" lon="4.75535">
        <ele>204</ele>
        <time>2017-04-22T09:25:38Z</time>
      </trkpt>
      <trkpt lat="45.88362" lon="4.75541">
        <ele>204</ele>
        <time>2017-04-22T09:25:39Z</time>
      </trkpt>
      <trkpt lat="45.88362" lon="4.75548">
        <ele>204</ele>
        <time>2017-04-22T09:25:40Z</time>
      </trkpt>
      <trkpt lat="45.88362" lon="4.75555">
        <ele>204</ele>
        <time>2017-04-22T09:25:41Z</time>
      </trkpt>
      <trkpt lat="45.88362" lon="4.75562">
        <ele>204</ele>
        <time>2017-04-22T09:25:42Z</time>
      </trkpt>
      <trkpt lat="45.88362" lon="4.75569">
        <ele>204</ele>
        <time>2017-04-22T09:25:43Z</time>
      </trkpt>
      <trkpt lat="45.88361" lon="4.75576">
        <ele>204</ele>
        <time>2017-04-22T09:25:44Z</time>
      </trkpt>
      <trkpt lat="45.88361" lon="4.75583">
        <ele>204</ele>
        <time>2017-04-22T09:25:45Z</time>
      </trkpt>
      <trkpt lat="45.88362" lon="4.7559">
        <ele>204</ele>
        <time>2017-04-22T09:25:46Z</time>
      </trkpt>
      <trkpt lat="45.88361" lon="4.75598">
        <ele>204</ele>
        <time>2017-04-22T09:25:47Z</time>
      </trkpt>
      <trkpt lat="45.88361" lon="4.75605">
        <ele>204</ele>
        <time>2017-04-22T09:25:48Z</time>
      </trkpt>
      <trkpt lat="45.88361" lon="4.75612">
        <ele>204</ele>
        <time>2017-04-22T09:25:49Z</time>
      </trkpt>
      <trkpt lat="45.88361" lon="4.75619">
        <ele>204</ele>
        <time>2017-04-22T09:25:50Z</time>
      </trkpt>
      <trkpt lat="45.88361" lon="4.75627">
        <ele>204</ele>
        <time>2017-04-22T09:25:51Z</time>
      </trkpt>
      <trkpt lat="45.8836" lon="4.75634">
        <ele>204</ele>
        <time>2017-04-22T09:25:52Z</time>
      </trkpt>
      <trkpt lat="45.8836" lon="4.75641">
        <ele>204</ele>
        <time>2017-04-22T09:25:53Z</time>
      </trkpt>
      <trkpt lat="45.8836" lon="4.75648">
        <ele>204</ele>
        <time>2017-04-22T09:25:54Z</time>
      </trkpt>
      <trkpt lat="45.8836" lon="4.75655">
        <ele>204</ele>
        <time>2017-04-22T09:25:55Z</time>
      </trkpt>
      <trkpt lat="45.8836" lon="4.75663">
        <ele>204</ele>
        <time>2017-04-22T09:25:56Z</time>
      </trkpt>
      <trkpt lat="45.88359" lon="4.75671">
        <ele>203</ele>
        <time>2017-04-22T09:25:57Z</time>
      </trkpt>
      <trkpt lat="45.88359" lon="4.75679">
        <ele>204</ele>
        <time>2017-04-22T09:25:58Z</time>
      </trkpt>
      <trkpt lat="45.88358" lon="4.75686">
        <ele>204</ele>
        <time>2017-04-22T09:25:59Z</time>
      </trkpt>
      <trkpt lat="45.88357" lon="4.75692">
        <ele>204</ele>
        <time>2017-04-22T09:26:00Z</time>
      </trkpt>
      <trkpt lat="45.88355" lon="4.75699">
        <ele>204</ele>
        <time>2017-04-22T09:26:01Z</time>
      </trkpt>
      <trkpt lat="45.88353" lon="4.7571">
        <ele>204</ele>
        <time>2017-04-22T09:26:03Z</time>
      </trkpt>
      <trkpt lat="45.88352" lon="4.75716">
        <ele>204</ele>
        <time>2017-04-22T09:26:04Z</time>
      </trkpt>
      <trkpt lat="45.8835" lon="4.75728">
        <ele>204</ele>
        <time>2017-04-22T09:26:06Z</time>
      </trkpt>
      <trkpt lat="45.88348" lon="4.75735">
        <ele>203</ele>
        <time>2017-04-22T09:26:07Z</time>
      </trkpt>
      <trkpt lat="45.88346" lon="4.75741">
        <ele>203</ele>
        <time>2017-04-22T09:26:08Z</time>
      </trkpt>
      <trkpt lat="45.88345" lon="4.75748">
        <ele>203</ele>
        <time>2017-04-22T09:26:09Z</time>
      </trkpt>
      <trkpt lat="45.88344" lon="4.75755">
        <ele>203</ele>
        <time>2017-04-22T09:26:10Z</time>
      </trkpt>
      <trkpt lat="45.88343" lon="4.75762">
        <ele>203</ele>
        <time>2017-04-22T09:26:11Z</time>
      </trkpt>
      <trkpt lat="45.88342" lon="4.75768">
        <ele>203</ele>
        <time>2017-04-22T09:26:12Z</time>
      </trkpt>
      <trkpt lat="45.88341" lon="4.75775">
        <ele>203</ele>
        <time>2017-04-22T09:26:13Z</time>
      </trkpt>
      <trkpt lat="45.8834" lon="4.75781">
        <ele>203</ele>
        <time>2017-04-22T09:26:14Z</time>
      </trkpt>
      <trkpt lat="45.8834" lon="4.75788">
        <ele>203</ele>
        <time>2017-04-22T09:26:15Z</time>
      </trkpt>
      <trkpt lat="45.88339" lon="4.75795">
        <ele>203</ele>
        <time>2017-04-22T09:26:16Z</time>
      </trkpt>
      <trkpt lat="45.88339" lon="4.75802">
        <ele>203</ele>
        <time>2017-04-22T09:26:17Z</time>
      </trkpt>
      <trkpt lat="45.88338" lon="4.75808">
        <ele>203</ele>
        <time>2017-04-22T09:26:18Z</time>
      </trkpt>
      <trkpt lat="45.88338" lon="4.75815">
        <ele>203</ele>
        <time>2017-04-22T09:26:19Z</time>
      </trkpt>
      <trkpt lat="45.88337" lon="4.75823">
        <ele>203</ele>
        <time>2017-04-22T09:26:20Z</time>
      </trkpt>
      <trkpt lat="45.88337" lon="4.7583">
        <ele>203</ele>
        <time>2017-04-22T09:26:21Z</time>
      </trkpt>
      <trkpt lat="45.88337" lon="4.75837">
        <ele>203</ele>
        <time>2017-04-22T09:26:22Z</time>
      </trkpt>
      <trkpt lat="45.88336" lon="4.75844">
        <ele>203</ele>
        <time>2017-04-22T09:26:23Z</time>
      </trkpt>
      <trkpt lat="45.88336" lon="4.75851">
        <ele>204</ele>
        <time>2017-04-22T09:26:24Z</time>
      </trkpt>
      <trkpt lat="45.88335" lon="4.75859">
        <ele>204</ele>
        <time>2017-04-22T09:26:25Z</time>
      </trkpt>
      <trkpt lat="45.88335" lon="4.75866">
        <ele>204</ele>
        <time>2017-04-22T09:26:26Z</time>
      </trkpt>
      <trkpt lat="45.88334" lon="4.75873">
        <ele>204</ele>
        <time>2017-04-22T09:26:27Z</time>
      </trkpt>
      <trkpt lat="45.88333" lon="4.75881">
        <ele>204</ele>
        <time>2017-04-22T09:26:28Z</time>
      </trkpt>
      <trkpt lat="45.88332" lon="4.75887">
        <ele>205</ele>
        <time>2017-04-22T09:26:29Z</time>
      </trkpt>
      <trkpt lat="45.8833" lon="4.75899">
        <ele>205</ele>
        <time>2017-04-22T09:26:31Z</time>
      </trkpt>
      <trkpt lat="45.88329" lon="4.75905">
        <ele>205</ele>
        <time>2017-04-22T09:26:32Z</time>
      </trkpt>
      <trkpt lat="45.88326" lon="4.75917">
        <ele>205</ele>
        <time>2017-04-22T09:26:34Z</time>
      </trkpt>
      <trkpt lat="45.88325" lon="4.75923">
        <ele>205</ele>
        <time>2017-04-22T09:26:35Z</time>
      </trkpt>
      <trkpt lat="45.88323" lon="4.75929">
        <ele>205</ele>
        <time>2017-04-22T09:26:36Z</time>
      </trkpt>
      <trkpt lat="45.88321" lon="4.75935">
        <ele>206</ele>
        <time>2017-04-22T09:26:37Z</time>
      </trkpt>
      <trkpt lat="45.88319" lon="4.75941">
        <ele>206</ele>
        <time>2017-04-22T09:26:38Z</time>
      </trkpt>
      <trkpt lat="45.88317" lon="4.75948">
        <ele>206</ele>
        <time>2017-04-22T09:26:39Z</time>
      </trkpt>
      <trkpt lat="45.88315" lon="4.75954">
        <ele>206</ele>
        <time>2017-04-22T09:26:40Z</time>
      </trkpt>
      <trkpt lat="45.88313" lon="4.75959">
        <ele>206</ele>
        <time>2017-04-22T09:26:41Z</time>
      </trkpt>
      <trkpt lat="45.88311" lon="4.75965">
        <ele>206</ele>
        <time>2017-04-22T09:26:42Z</time>
      </trkpt>
      <trkpt lat="45.88309" lon="4.75971">
        <ele>206</ele>
        <time>2017-04-22T09:26:43Z</time>
      </trkpt>
      <trkpt lat="45.88306" lon="4.75983">
        <ele>206</ele>
        <time>2017-04-22T09:26:45Z</time>
      </trkpt>
      <trkpt lat="45.88304" lon="4.75989">
        <ele>206</ele>
        <time>2017-04-22T09:26:46Z</time>
      </trkpt>
      <trkpt lat="45.883" lon="4.75999">
        <ele>206</ele>
        <time>2017-04-22T09:26:48Z</time>
      </trkpt>
      <trkpt lat="45.88299" lon="4.76005">
        <ele>207</ele>
        <time>2017-04-22T09:26:49Z</time>
      </trkpt>
      <trkpt lat="45.88296" lon="4.76016">
        <ele>207</ele>
        <time>2017-04-22T09:26:51Z</time>
      </trkpt>
      <trkpt lat="45.88295" lon="4.76022">
        <ele>207</ele>
        <time>2017-04-22T09:26:52Z</time>
      </trkpt>
      <trkpt lat="45.88293" lon="4.76034">
        <ele>207</ele>
        <time>2017-04-22T09:26:54Z</time>
      </trkpt>
      <trkpt lat="45.88293" lon="4.7604">
        <ele>207</ele>
        <time>2017-04-22T09:26:55Z</time>
      </trkpt>
      <trkpt lat="45.88292" lon="4.76052">
        <ele>208</ele>
        <time>2017-04-22T09:26:57Z</time>
      </trkpt>
      <trkpt lat="45.88291" lon="4.76058">
        <ele>208</ele>
        <time>2017-04-22T09:26:58Z</time>
      </trkpt>
      <trkpt lat="45.8829" lon="4.76071">
        <ele>208</ele>
        <time>2017-04-22T09:27:00Z</time>
      </trkpt>
      <trkpt lat="45.88289" lon="4.76077">
        <ele>208</ele>
        <time>2017-04-22T09:27:01Z</time>
      </trkpt>
      <trkpt lat="45.88289" lon="4.76083">
        <ele>208</ele>
        <time>2017-04-22T09:27:02Z</time>
      </trkpt>
      <trkpt lat="45.88288" lon="4.7609">
        <ele>210</ele>
        <time>2017-04-22T09:27:03Z</time>
      </trkpt>
      <trkpt lat="45.88288" lon="4.76102">
        <ele>210</ele>
        <time>2017-04-22T09:27:05Z</time>
      </trkpt>
      <trkpt lat="45.88288" lon="4.76109">
        <ele>210</ele>
        <time>2017-04-22T09:27:06Z</time>
      </trkpt>
      <trkpt lat="45.88287" lon="4.76121">
        <ele>210</ele>
        <time>2017-04-22T09:27:08Z</time>
      </trkpt>
      <trkpt lat="45.88287" lon="4.76128">
        <ele>210</ele>
        <time>2017-04-22T09:27:09Z</time>
      </trkpt>
      <trkpt lat="45.88287" lon="4.7614">
        <ele>210</ele>
        <time>2017-04-22T09:27:11Z</time>
      </trkpt>
      <trkpt lat="45.88287" lon="4.76146">
        <ele>211</ele>
        <time>2017-04-22T09:27:12Z</time>
      </trkpt>
      <trkpt lat="45.88287" lon="4.76158">
        <ele>211</ele>
        <time>2017-04-22T09:27:14Z</time>
      </trkpt>
      <trkpt lat="45.88286" lon="4.76164">
        <ele>211</ele>
        <time>2017-04-22T09:27:15Z</time>
      </trkpt>
      <trkpt lat="45.88286" lon="4.76176">
        <ele>212</ele>
        <time>2017-04-22T09:27:17Z</time>
      </trkpt>
      <trkpt lat="45.88285" lon="4.76182">
        <ele>212</ele>
        <time>2017-04-22T09:27:18Z</time>
      </trkpt>
      <trkpt lat="45.88285" lon="4.76193">
        <ele>213</ele>
        <time>2017-04-22T09:27:20Z</time>
      </trkpt>
      <trkpt lat="45.88285" lon="4.76199">
        <ele>213</ele>
        <time>2017-04-22T09:27:21Z</time>
      </trkpt>
      <trkpt lat="45.88284" lon="4.7621">
        <ele>213</ele>
        <time>2017-04-22T09:27:23Z</time>
      </trkpt>
      <trkpt lat="45.88283" lon="4.76216">
        <ele>213</ele>
        <time>2017-04-22T09:27:24Z</time>
      </trkpt>
      <trkpt lat="45.88282" lon="4.76227">
        <ele>213</ele>
        <time>2017-04-22T09:27:26Z</time>
      </trkpt>
      <trkpt lat="45.88281" lon="4.76233">
        <ele>213</ele>
        <time>2017-04-22T09:27:27Z</time>
      </trkpt>
      <trkpt lat="45.8828" lon="4.76245">
        <ele>213</ele>
        <time>2017-04-22T09:27:29Z</time>
      </trkpt>
      <trkpt lat="45.8828" lon="4.76252">
        <ele>214</ele>
        <time>2017-04-22T09:27:30Z</time>
      </trkpt>
      <trkpt lat="45.88279" lon="4.76258">
        <ele>214</ele>
        <time>2017-04-22T09:27:31Z</time>
      </trkpt>
      <trkpt lat="45.88278" lon="4.76264">
        <ele>214</ele>
        <time>2017-04-22T09:27:32Z</time>
      </trkpt>
      <trkpt lat="45.88276" lon="4.76276">
        <ele>214</ele>
        <time>2017-04-22T09:27:34Z</time>
      </trkpt>
      <trkpt lat="45.88275" lon="4.76281">
        <ele>214</ele>
        <time>2017-04-22T09:27:35Z</time>
      </trkpt>
      <trkpt lat="45.88273" lon="4.76293">
        <ele>214</ele>
        <time>2017-04-22T09:27:37Z</time>
      </trkpt>
      <trkpt lat="45.88272" lon="4.76299">
        <ele>214</ele>
        <time>2017-04-22T09:27:38Z</time>
      </trkpt>
      <trkpt lat="45.88269" lon="4.7631">
        <ele>214</ele>
        <time>2017-04-22T09:27:40Z</time>
      </trkpt>
      <trkpt lat="45.88268" lon="4.76316">
        <ele>214</ele>
        <time>2017-04-22T09:27:41Z</time>
      </trkpt>
      <trkpt lat="45.88265" lon="4.76326">
        <ele>214</ele>
        <time>2017-04-22T09:27:43Z</time>
      </trkpt>
      <trkpt lat="45.88263" lon="4.76332">
        <ele>214</ele>
        <time>2017-04-22T09:27:44Z</time>
      </trkpt>
      <trkpt lat="45.88259" lon="4.76342">
        <ele>214</ele>
        <time>2017-04-22T09:27:46Z</time>
      </trkpt>
      <trkpt lat="45.88257" lon="4.76347">
        <ele>214</ele>
        <time>2017-04-22T09:27:47Z</time>
      </trkpt>
      <trkpt lat="45.88254" lon="4.76358">
        <ele>214</ele>
        <time>2017-04-22T09:27:49Z</time>
      </trkpt>
      <trkpt lat="45.88252" lon="4.76363">
        <ele>214</ele>
        <time>2017-04-22T09:27:50Z</time>
      </trkpt>
      <trkpt lat="45.88249" lon="4.76369">
        <ele>215</ele>
        <time>2017-04-22T09:27:51Z</time>
      </trkpt>
      <trkpt lat="45.88247" lon="4.76374">
        <ele>215</ele>
        <time>2017-04-22T09:27:52Z</time>
      </trkpt>
      <trkpt lat="45.88243" lon="4.76385">
        <ele>215</ele>
        <time>2017-04-22T09:27:54Z</time>
      </trkpt>
      <trkpt lat="45.8824" lon="4.76391">
        <ele>215</ele>
        <time>2017-04-22T09:27:55Z</time>
      </trkpt>
      <trkpt lat="45.88238" lon="4.76397">
        <ele>215</ele>
        <time>2017-04-22T09:27:56Z</time>
      </trkpt>
      <trkpt lat="45.88236" lon="4.76403">
        <ele>215</ele>
        <time>2017-04-22T09:27:57Z</time>
      </trkpt>
      <trkpt lat="45.88234" lon="4.76409">
        <ele>215</ele>
        <time>2017-04-22T09:27:58Z</time>
      </trkpt>
      <trkpt lat="45.88232" lon="4.76415">
        <ele>215</ele>
        <time>2017-04-22T09:27:59Z</time>
      </trkpt>
      <trkpt lat="45.8823" lon="4.76422">
        <ele>214</ele>
        <time>2017-04-22T09:28:00Z</time>
      </trkpt>
      <trkpt lat="45.88228" lon="4.76428">
        <ele>214</ele>
        <time>2017-04-22T09:28:01Z</time>
      </trkpt>
      <trkpt lat="45.88226" lon="4.76433">
        <ele>214</ele>
        <time>2017-04-22T09:28:02Z</time>
      </trkpt>
      <trkpt lat="45.88224" lon="4.76439">
        <ele>214</ele>
        <time>2017-04-22T09:28:03Z</time>
      </trkpt>
      <trkpt lat="45.8822" lon="4.7645">
        <ele>214</ele>
        <time>2017-04-22T09:28:05Z</time>
      </trkpt>
      <trkpt lat="45.88218" lon="4.76456">
        <ele>214</ele>
        <time>2017-04-22T09:28:06Z</time>
      </trkpt>
      <trkpt lat="45.88216" lon="4.76461">
        <ele>214</ele>
        <time>2017-04-22T09:28:07Z</time>
      </trkpt>
      <trkpt lat="45.88214" lon="4.76467">
        <ele>214</ele>
        <time>2017-04-22T09:28:08Z</time>
      </trkpt>
      <trkpt lat="45.88212" lon="4.76474">
        <ele>214</ele>
        <time>2017-04-22T09:28:09Z</time>
      </trkpt>
      <trkpt lat="45.88209" lon="4.76481">
        <ele>214</ele>
        <time>2017-04-22T09:28:10Z</time>
      </trkpt>
      <trkpt lat="45.88207" lon="4.76488">
        <ele>214</ele>
        <time>2017-04-22T09:28:11Z</time>
      </trkpt>
      <trkpt lat="45.88205" lon="4.76496">
        <ele>214</ele>
        <time>2017-04-22T09:28:12Z</time>
      </trkpt>
      <trkpt lat="45.88202" lon="4.76503">
        <ele>214</ele>
        <time>2017-04-22T09:28:13Z</time>
      </trkpt>
      <trkpt lat="45.882" lon="4.7651">
        <ele>214</ele>
        <time>2017-04-22T09:28:14Z</time>
      </trkpt>
      <trkpt lat="45.88198" lon="4.76518">
        <ele>214</ele>
        <time>2017-04-22T09:28:15Z</time>
      </trkpt>
      <trkpt lat="45.88195" lon="4.76525">
        <ele>214</ele>
        <time>2017-04-22T09:28:16Z</time>
      </trkpt>
      <trkpt lat="45.88193" lon="4.76533">
        <ele>214</ele>
        <time>2017-04-22T09:28:17Z</time>
      </trkpt>
      <trkpt lat="45.88191" lon="4.7654">
        <ele>214</ele>
        <time>2017-04-22T09:28:18Z</time>
      </trkpt>
      <trkpt lat="45.88189" lon="4.76548">
        <ele>214</ele>
        <time>2017-04-22T09:28:19Z</time>
      </trkpt>
      <trkpt lat="45.88187" lon="4.76555">
        <ele>214</ele>
        <time>2017-04-22T09:28:20Z</time>
      </trkpt>
      <trkpt lat="45.88185" lon="4.76562">
        <ele>214</ele>
        <time>2017-04-22T09:28:21Z</time>
      </trkpt>
      <trkpt lat="45.88183" lon="4.76569">
        <ele>214</ele>
        <time>2017-04-22T09:28:22Z</time>
      </trkpt>
      <trkpt lat="45.88181" lon="4.76576">
        <ele>214</ele>
        <time>2017-04-22T09:28:23Z</time>
      </trkpt>
      <trkpt lat="45.88179" lon="4.76583">
        <ele>215</ele>
        <time>2017-04-22T09:28:24Z</time>
      </trkpt>
      <trkpt lat="45.88177" lon="4.76589">
        <ele>214</ele>
        <time>2017-04-22T09:28:25Z</time>
      </trkpt>
      <trkpt lat="45.88175" lon="4.76595">
        <ele>214</ele>
        <time>2017-04-22T09:28:26Z</time>
      </trkpt>
      <trkpt lat="45.88171" lon="4.76606">
        <ele>214</ele>
        <time>2017-04-22T09:28:28Z</time>
      </trkpt>
      <trkpt lat="45.88169" lon="4.76612">
        <ele>214</ele>
        <time>2017-04-22T09:28:29Z</time>
      </trkpt>
      <trkpt lat="45.88167" lon="4.76617">
        <ele>214</ele>
        <time>2017-04-22T09:28:30Z</time>
      </trkpt>
      <trkpt lat="45.88165" lon="4.76624">
        <ele>215</ele>
        <time>2017-04-22T09:28:31Z</time>
      </trkpt>
      <trkpt lat="45.88163" lon="4.7663">
        <ele>215</ele>
        <time>2017-04-22T09:28:32Z</time>
      </trkpt>
      <trkpt lat="45.8816" lon="4.76637">
        <ele>215</ele>
        <time>2017-04-22T09:28:33Z</time>
      </trkpt>
      <trkpt lat="45.88157" lon="4.76644">
        <ele>215</ele>
        <time>2017-04-22T09:28:34Z</time>
      </trkpt>
      <trkpt lat="45.88154" lon="4.7665">
        <ele>214</ele>
        <time>2017-04-22T09:28:35Z</time>
      </trkpt>
      <trkpt lat="45.88152" lon="4.76657">
        <ele>214</ele>
        <time>2017-04-22T09:28:36Z</time>
      </trkpt>
      <trkpt lat="45.88149" lon="4.76664">
        <ele>214</ele>
        <time>2017-04-22T09:28:37Z</time>
      </trkpt>
      <trkpt lat="45.88146" lon="4.7667">
        <ele>214</ele>
        <time>2017-04-22T09:28:38Z</time>
      </trkpt>
      <trkpt lat="45.88144" lon="4.76677">
        <ele>214</ele>
        <time>2017-04-22T09:28:39Z</time>
      </trkpt>
      <trkpt lat="45.88141" lon="4.76684">
        <ele>214</ele>
        <time>2017-04-22T09:28:40Z</time>
      </trkpt>
      <trkpt lat="45.88138" lon="4.7669">
        <ele>214</ele>
        <time>2017-04-22T09:28:41Z</time>
      </trkpt>
      <trkpt lat="45.88136" lon="4.76697">
        <ele>214</ele>
        <time>2017-04-22T09:28:42Z</time>
      </trkpt>
      <trkpt lat="45.88133" lon="4.76703">
        <ele>214</ele>
        <time>2017-04-22T09:28:43Z</time>
      </trkpt>
      <trkpt lat="45.88129" lon="4.76709">
        <ele>214</ele>
        <time>2017-04-22T09:28:44Z</time>
      </trkpt>
      <trkpt lat="45.88125" lon="4.76715">
        <ele>214</ele>
        <time>2017-04-22T09:28:45Z</time>
      </trkpt>
      <trkpt lat="45.88122" lon="4.76722">
        <ele>214</ele>
        <time>2017-04-22T09:28:46Z</time>
      </trkpt>
      <trkpt lat="45.88119" lon="4.76728">
        <ele>214</ele>
        <time>2017-04-22T09:28:47Z</time>
      </trkpt>
      <trkpt lat="45.88116" lon="4.76735">
        <ele>214</ele>
        <time>2017-04-22T09:28:48Z</time>
      </trkpt>
      <trkpt lat="45.88115" lon="4.76742">
        <ele>214</ele>
        <time>2017-04-22T09:28:49Z</time>
      </trkpt>
      <trkpt lat="45.88113" lon="4.7675">
        <ele>214</ele>
        <time>2017-04-22T09:28:50Z</time>
      </trkpt>
      <trkpt lat="45.88112" lon="4.76757">
        <ele>213</ele>
        <time>2017-04-22T09:28:51Z</time>
      </trkpt>
      <trkpt lat="45.88111" lon="4.76765">
        <ele>213</ele>
        <time>2017-04-22T09:28:52Z</time>
      </trkpt>
      <trkpt lat="45.8811" lon="4.76772">
        <ele>213</ele>
        <time>2017-04-22T09:28:53Z</time>
      </trkpt>
      <trkpt lat="45.88109" lon="4.76779">
        <ele>213</ele>
        <time>2017-04-22T09:28:54Z</time>
      </trkpt>
      <trkpt lat="45.88108" lon="4.76787">
        <ele>213</ele>
        <time>2017-04-22T09:28:55Z</time>
      </trkpt>
      <trkpt lat="45.88107" lon="4.76795">
        <ele>213</ele>
        <time>2017-04-22T09:28:56Z</time>
      </trkpt>
      <trkpt lat="45.88107" lon="4.76803">
        <ele>213</ele>
        <time>2017-04-22T09:28:57Z</time>
      </trkpt>
      <trkpt lat="45.88106" lon="4.76811">
        <ele>213</ele>
        <time>2017-04-22T09:28:58Z</time>
      </trkpt>
      <trkpt lat="45.88105" lon="4.7682">
        <ele>213</ele>
        <time>2017-04-22T09:28:59Z</time>
      </trkpt>
      <trkpt lat="45.88104" lon="4.76829">
        <ele>213</ele>
        <time>2017-04-22T09:29:00Z</time>
      </trkpt>
      <trkpt lat="45.88102" lon="4.76837">
        <ele>212</ele>
        <time>2017-04-22T09:29:01Z</time>
      </trkpt>
      <trkpt lat="45.88101" lon="4.76846">
        <ele>212</ele>
        <time>2017-04-22T09:29:02Z</time>
      </trkpt>
      <trkpt lat="45.88099" lon="4.76854">
        <ele>212</ele>
        <time>2017-04-22T09:29:03Z</time>
      </trkpt>
      <trkpt lat="45.88098" lon="4.76862">
        <ele>212</ele>
        <time>2017-04-22T09:29:04Z</time>
      </trkpt>
      <trkpt lat="45.88097" lon="4.76871">
        <ele>212</ele>
        <time>2017-04-22T09:29:05Z</time>
      </trkpt>
      <trkpt lat="45.88096" lon="4.76878">
        <ele>212</ele>
        <time>2017-04-22T09:29:06Z</time>
      </trkpt>
      <trkpt lat="45.88095" lon="4.76886">
        <ele>212</ele>
        <time>2017-04-22T09:29:07Z</time>
      </trkpt>
      <trkpt lat="45.88093" lon="4.76893">
        <ele>212</ele>
        <time>2017-04-22T09:29:08Z</time>
      </trkpt>
      <trkpt lat="45.88093" lon="4.769">
        <ele>212</ele>
        <time>2017-04-22T09:29:09Z</time>
      </trkpt>
      <trkpt lat="45.88092" lon="4.76906">
        <ele>212</ele>
        <time>2017-04-22T09:29:10Z</time>
      </trkpt>
      <trkpt lat="45.8809" lon="4.76913">
        <ele>213</ele>
        <time>2017-04-22T09:29:11Z</time>
      </trkpt>
      <trkpt lat="45.88088" lon="4.76925">
        <ele>213</ele>
        <time>2017-04-22T09:29:13Z</time>
      </trkpt>
      <trkpt lat="45.88087" lon="4.76931">
        <ele>212</ele>
        <time>2017-04-22T09:29:14Z</time>
      </trkpt>
      <trkpt lat="45.88086" lon="4.76937">
        <ele>212</ele>
        <time>2017-04-22T09:29:15Z</time>
      </trkpt>
      <trkpt lat="45.88084" lon="4.76944">
        <ele>212</ele>
        <time>2017-04-22T09:29:16Z</time>
      </trkpt>
      <trkpt lat="45.88083" lon="4.7695">
        <ele>213</ele>
        <time>2017-04-22T09:29:17Z</time>
      </trkpt>
      <trkpt lat="45.88081" lon="4.76957">
        <ele>213</ele>
        <time>2017-04-22T09:29:18Z</time>
      </trkpt>
      <trkpt lat="45.8808" lon="4.76964">
        <ele>213</ele>
        <time>2017-04-22T09:29:19Z</time>
      </trkpt>
      <trkpt lat="45.88078" lon="4.76972">
        <ele>213</ele>
        <time>2017-04-22T09:29:20Z</time>
      </trkpt>
      <trkpt lat="45.88077" lon="4.76979">
        <ele>213</ele>
        <time>2017-04-22T09:29:21Z</time>
      </trkpt>
      <trkpt lat="45.88075" lon="4.76987">
        <ele>213</ele>
        <time>2017-04-22T09:29:22Z</time>
      </trkpt>
      <trkpt lat="45.88074" lon="4.76994">
        <ele>213</ele>
        <time>2017-04-22T09:29:23Z</time>
      </trkpt>
      <trkpt lat="45.88072" lon="4.77001">
        <ele>213</ele>
        <time>2017-04-22T09:29:24Z</time>
      </trkpt>
      <trkpt lat="45.88069" lon="4.77013">
        <ele>214</ele>
        <time>2017-04-22T09:29:26Z</time>
      </trkpt>
      <trkpt lat="45.88068" lon="4.77019">
        <ele>214</ele>
        <time>2017-04-22T09:29:27Z</time>
      </trkpt>
      <trkpt lat="45.88066" lon="4.77025">
        <ele>214</ele>
        <time>2017-04-22T09:29:28Z</time>
      </trkpt>
      <trkpt lat="45.88065" lon="4.77031">
        <ele>214</ele>
        <time>2017-04-22T09:29:29Z</time>
      </trkpt>
      <trkpt lat="45.88063" lon="4.77037">
        <ele>214</ele>
        <time>2017-04-22T09:29:30Z</time>
      </trkpt>
      <trkpt lat="45.88062" lon="4.77043">
        <ele>214</ele>
        <time>2017-04-22T09:29:31Z</time>
      </trkpt>
      <trkpt lat="45.8806" lon="4.7705">
        <ele>214</ele>
        <time>2017-04-22T09:29:32Z</time>
      </trkpt>
      <trkpt lat="45.88059" lon="4.77056">
        <ele>214</ele>
        <time>2017-04-22T09:29:33Z</time>
      </trkpt>
      <trkpt lat="45.88057" lon="4.77062">
        <ele>214</ele>
        <time>2017-04-22T09:29:34Z</time>
      </trkpt>
      <trkpt lat="45.88055" lon="4.77069">
        <ele>214</ele>
        <time>2017-04-22T09:29:35Z</time>
      </trkpt>
      <trkpt lat="45.88053" lon="4.77075">
        <ele>214</ele>
        <time>2017-04-22T09:29:36Z</time>
      </trkpt>
      <trkpt lat="45.88052" lon="4.77081">
        <ele>214</ele>
        <time>2017-04-22T09:29:37Z</time>
      </trkpt>
      <trkpt lat="45.88048" lon="4.77093">
        <ele>215</ele>
        <time>2017-04-22T09:29:39Z</time>
      </trkpt>
      <trkpt lat="45.88047" lon="4.77099">
        <ele>215</ele>
        <time>2017-04-22T09:29:40Z</time>
      </trkpt>
      <trkpt lat="45.88046" lon="4.77106">
        <ele>215</ele>
        <time>2017-04-22T09:29:41Z</time>
      </trkpt>
      <trkpt lat="45.88045" lon="4.77112">
        <ele>215</ele>
        <time>2017-04-22T09:29:42Z</time>
      </trkpt>
      <trkpt lat="45.88042" lon="4.77124">
        <ele>215</ele>
        <time>2017-04-22T09:29:44Z</time>
      </trkpt>
      <trkpt lat="45.88041" lon="4.7713">
        <ele>215</ele>
        <time>2017-04-22T09:29:45Z</time>
      </trkpt>
      <trkpt lat="45.8804" lon="4.77142">
        <ele>215</ele>
        <time>2017-04-22T09:29:47Z</time>
      </trkpt>
      <trkpt lat="45.8804" lon="4.77149">
        <ele>215</ele>
        <time>2017-04-22T09:29:48Z</time>
      </trkpt>
      <trkpt lat="45.88039" lon="4.77155">
        <ele>215</ele>
        <time>2017-04-22T09:29:49Z</time>
      </trkpt>
      <trkpt lat="45.88038" lon="4.77162">
        <ele>215</ele>
        <time>2017-04-22T09:29:50Z</time>
      </trkpt>
      <trkpt lat="45.88037" lon="4.77169">
        <ele>216</ele>
        <time>2017-04-22T09:29:51Z</time>
      </trkpt>
      <trkpt lat="45.88036" lon="4.77177">
        <ele>216</ele>
        <time>2017-04-22T09:29:52Z</time>
      </trkpt>
      <trkpt lat="45.88035" lon="4.77184">
        <ele>216</ele>
        <time>2017-04-22T09:29:53Z</time>
      </trkpt>
      <trkpt lat="45.88035" lon="4.77191">
        <ele>216</ele>
        <time>2017-04-22T09:29:54Z</time>
      </trkpt>
      <trkpt lat="45.88035" lon="4.77198">
        <ele>216</ele>
        <time>2017-04-22T09:29:55Z</time>
      </trkpt>
      <trkpt lat="45.88034" lon="4.77205">
        <ele>216</ele>
        <time>2017-04-22T09:29:56Z</time>
      </trkpt>
      <trkpt lat="45.88034" lon="4.77212">
        <ele>216</ele>
        <time>2017-04-22T09:29:57Z</time>
      </trkpt>
      <trkpt lat="45.88033" lon="4.77218">
        <ele>216</ele>
        <time>2017-04-22T09:29:58Z</time>
      </trkpt>
      <trkpt lat="45.88032" lon="4.7723">
        <ele>216</ele>
        <time>2017-04-22T09:30:00Z</time>
      </trkpt>
      <trkpt lat="45.88031" lon="4.77236">
        <ele>216</ele>
        <time>2017-04-22T09:30:01Z</time>
      </trkpt>
      <trkpt lat="45.88031" lon="4.77243">
        <ele>216</ele>
        <time>2017-04-22T09:30:02Z</time>
      </trkpt>
      <trkpt lat="45.8803" lon="4.7725">
        <ele>216</ele>
        <time>2017-04-22T09:30:03Z</time>
      </trkpt>
      <trkpt lat="45.88029" lon="4.77258">
        <ele>216</ele>
        <time>2017-04-22T09:30:04Z</time>
      </trkpt>
      <trkpt lat="45.88027" lon="4.77265">
        <ele>216</ele>
        <time>2017-04-22T09:30:05Z</time>
      </trkpt>
      <trkpt lat="45.88026" lon="4.77273">
        <ele>215</ele>
        <time>2017-04-22T09:30:06Z</time>
      </trkpt>
      <trkpt lat="45.88025" lon="4.77282">
        <ele>215</ele>
        <time>2017-04-22T09:30:07Z</time>
      </trkpt>
      <trkpt lat="45.88024" lon="4.77289">
        <ele>215</ele>
        <time>2017-04-22T09:30:08Z</time>
      </trkpt>
      <trkpt lat="45.88023" lon="4.77296">
        <ele>215</ele>
        <time>2017-04-22T09:30:09Z</time>
      </trkpt>
      <trkpt lat="45.88022" lon="4.77302">
        <ele>215</ele>
        <time>2017-04-22T09:30:10Z</time>
      </trkpt>
      <trkpt lat="45.88021" lon="4.77309">
        <ele>215</ele>
        <time>2017-04-22T09:30:11Z</time>
      </trkpt>
      <trkpt lat="45.8802" lon="4.77316">
        <ele>215</ele>
        <time>2017-04-22T09:30:12Z</time>
      </trkpt>
      <trkpt lat="45.88019" lon="4.77323">
        <ele>215</ele>
        <time>2017-04-22T09:30:13Z</time>
      </trkpt>
      <trkpt lat="45.88018" lon="4.7733">
        <ele>215</ele>
        <time>2017-04-22T09:30:14Z</time>
      </trkpt>
      <trkpt lat="45.88016" lon="4.77336">
        <ele>215</ele>
        <time>2017-04-22T09:30:15Z</time>
      </trkpt>
      <trkpt lat="45.88015" lon="4.77343">
        <ele>215</ele>
        <time>2017-04-22T09:30:16Z</time>
      </trkpt>
      <trkpt lat="45.88014" lon="4.7735">
        <ele>215</ele>
        <time>2017-04-22T09:30:17Z</time>
      </trkpt>
      <trkpt lat="45.88013" lon="4.77357">
        <ele>215</ele>
        <time>2017-04-22T09:30:18Z</time>
      </trkpt>
      <trkpt lat="45.88012" lon="4.77364">
        <ele>215</ele>
        <time>2017-04-22T09:30:19Z</time>
      </trkpt>
      <trkpt lat="45.8801" lon="4.77371">
        <ele>215</ele>
        <time>2017-04-22T09:30:20Z</time>
      </trkpt>
      <trkpt lat="45.88009" lon="4.77379">
        <ele>215</ele>
        <time>2017-04-22T09:30:21Z</time>
      </trkpt>
      <trkpt lat="45.88008" lon="4.77386">
        <ele>215</ele>
        <time>2017-04-22T09:30:22Z</time>
      </trkpt>
      <trkpt lat="45.88006" lon="4.77393">
        <ele>215</ele>
        <time>2017-04-22T09:30:23Z</time>
      </trkpt>
      <trkpt lat="45.88005" lon="4.77401">
        <ele>215</ele>
        <time>2017-04-22T09:30:24Z</time>
      </trkpt>
      <trkpt lat="45.88003" lon="4.77408">
        <ele>215</ele>
        <time>2017-04-22T09:30:25Z</time>
      </trkpt>
      <trkpt lat="45.88002" lon="4.77416">
        <ele>215</ele>
        <time>2017-04-22T09:30:26Z</time>
      </trkpt>
      <trkpt lat="45.88001" lon="4.77422">
        <ele>215</ele>
        <time>2017-04-22T09:30:27Z</time>
      </trkpt>
      <trkpt lat="45.88" lon="4.77429">
        <ele>216</ele>
        <time>2017-04-22T09:30:28Z</time>
      </trkpt>
      <trkpt lat="45.87999" lon="4.77436">
        <ele>216</ele>
        <time>2017-04-22T09:30:29Z</time>
      </trkpt>
      <trkpt lat="45.87997" lon="4.77448">
        <ele>216</ele>
        <time>2017-04-22T09:30:31Z</time>
      </trkpt>
      <trkpt lat="45.87996" lon="4.77455">
        <ele>217</ele>
        <time>2017-04-22T09:30:32Z</time>
      </trkpt>
      <trkpt lat="45.87996" lon="4.77462">
        <ele>217</ele>
        <time>2017-04-22T09:30:33Z</time>
      </trkpt>
      <trkpt lat="45.87995" lon="4.77469">
        <ele>217</ele>
        <time>2017-04-22T09:30:34Z</time>
      </trkpt>
      <trkpt lat="45.87994" lon="4.77476">
        <ele>217</ele>
        <time>2017-04-22T09:30:35Z</time>
      </trkpt>
      <trkpt lat="45.87993" lon="4.77484">
        <ele>217</ele>
        <time>2017-04-22T09:30:36Z</time>
      </trkpt>
      <trkpt lat="45.87992" lon="4.77491">
        <ele>216</ele>
        <time>2017-04-22T09:30:37Z</time>
      </trkpt>
      <trkpt lat="45.87992" lon="4.77499">
        <ele>216</ele>
        <time>2017-04-22T09:30:38Z</time>
      </trkpt>
      <trkpt lat="45.87991" lon="4.77506">
        <ele>217</ele>
        <time>2017-04-22T09:30:39Z</time>
      </trkpt>
      <trkpt lat="45.8799" lon="4.77513">
        <ele>217</ele>
        <time>2017-04-22T09:30:40Z</time>
      </trkpt>
      <trkpt lat="45.8799" lon="4.7752">
        <ele>217</ele>
        <time>2017-04-22T09:30:41Z</time>
      </trkpt>
      <trkpt lat="45.87989" lon="4.77527">
        <ele>217</ele>
        <time>2017-04-22T09:30:42Z</time>
      </trkpt>
      <trkpt lat="45.87988" lon="4.77534">
        <ele>217</ele>
        <time>2017-04-22T09:30:43Z</time>
      </trkpt>
      <trkpt lat="45.87987" lon="4.77541">
        <ele>217</ele>
        <time>2017-04-22T09:30:44Z</time>
      </trkpt>
      <trkpt lat="45.87987" lon="4.77547">
        <ele>217</ele>
        <time>2017-04-22T09:30:45Z</time>
      </trkpt>
      <trkpt lat="45.87986" lon="4.77554">
        <ele>217</ele>
        <time>2017-04-22T09:30:46Z</time>
      </trkpt>
      <trkpt lat="45.87985" lon="4.77561">
        <ele>217</ele>
        <time>2017-04-22T09:30:47Z</time>
      </trkpt>
      <trkpt lat="45.87984" lon="4.77568">
        <ele>217</ele>
        <time>2017-04-22T09:30:48Z</time>
      </trkpt>
      <trkpt lat="45.87983" lon="4.77575">
        <ele>217</ele>
        <time>2017-04-22T09:30:49Z</time>
      </trkpt>
      <trkpt lat="45.87981" lon="4.77582">
        <ele>217</ele>
        <time>2017-04-22T09:30:50Z</time>
      </trkpt>
      <trkpt lat="45.8798" lon="4.77589">
        <ele>218</ele>
        <time>2017-04-22T09:30:51Z</time>
      </trkpt>
      <trkpt lat="45.87979" lon="4.77596">
        <ele>218</ele>
        <time>2017-04-22T09:30:52Z</time>
      </trkpt>
      <trkpt lat="45.87977" lon="4.77603">
        <ele>218</ele>
        <time>2017-04-22T09:30:53Z</time>
      </trkpt>
      <trkpt lat="45.87975" lon="4.77611">
        <ele>218</ele>
        <time>2017-04-22T09:30:54Z</time>
      </trkpt>
      <trkpt lat="45.87973" lon="4.77618">
        <ele>218</ele>
        <time>2017-04-22T09:30:55Z</time>
      </trkpt>
      <trkpt lat="45.87972" lon="4.77625">
        <ele>218</ele>
        <time>2017-04-22T09:30:56Z</time>
      </trkpt>
      <trkpt lat="45.8797" lon="4.77631">
        <ele>218</ele>
        <time>2017-04-22T09:30:57Z</time>
      </trkpt>
      <trkpt lat="45.87969" lon="4.77637">
        <ele>218</ele>
        <time>2017-04-22T09:30:58Z</time>
      </trkpt>
      <trkpt lat="45.87967" lon="4.77643">
        <ele>218</ele>
        <time>2017-04-22T09:30:59Z</time>
      </trkpt>
      <trkpt lat="45.87965" lon="4.7765">
        <ele>218</ele>
        <time>2017-04-22T09:31:00Z</time>
      </trkpt>
      <trkpt lat="45.87964" lon="4.77656">
        <ele>218</ele>
        <time>2017-04-22T09:31:01Z</time>
      </trkpt>
      <trkpt lat="45.87961" lon="4.77662">
        <ele>218</ele>
        <time>2017-04-22T09:31:02Z</time>
      </trkpt>
      <trkpt lat="45.87959" lon="4.77668">
        <ele>218</ele>
        <time>2017-04-22T09:31:03Z</time>
      </trkpt>
      <trkpt lat="45.87957" lon="4.77674">
        <ele>218</ele>
        <time>2017-04-22T09:31:04Z</time>
      </trkpt>
      <trkpt lat="45.87954" lon="4.7768">
        <ele>218</ele>
        <time>2017-04-22T09:31:05Z</time>
      </trkpt>
      <trkpt lat="45.87953" lon="4.77688">
        <ele>218</ele>
        <time>2017-04-22T09:31:06Z</time>
      </trkpt>
      <trkpt lat="45.87952" lon="4.77695">
        <ele>218</ele>
        <time>2017-04-22T09:31:07Z</time>
      </trkpt>
      <trkpt lat="45.87951" lon="4.77703">
        <ele>218</ele>
        <time>2017-04-22T09:31:08Z</time>
      </trkpt>
      <trkpt lat="45.87951" lon="4.7771">
        <ele>218</ele>
        <time>2017-04-22T09:31:09Z</time>
      </trkpt>
      <trkpt lat="45.87952" lon="4.77717">
        <ele>218</ele>
        <time>2017-04-22T09:31:10Z</time>
      </trkpt>
      <trkpt lat="45.87952" lon="4.77724">
        <ele>218</ele>
        <time>2017-04-22T09:31:11Z</time>
      </trkpt>
      <trkpt lat="45.87953" lon="4.77731">
        <ele>219</ele>
        <time>2017-04-22T09:31:12Z</time>
      </trkpt>
      <trkpt lat="45.87954" lon="4.77738">
        <ele>219</ele>
        <time>2017-04-22T09:31:13Z</time>
      </trkpt>
      <trkpt lat="45.87954" lon="4.77745">
        <ele>219</ele>
        <time>2017-04-22T09:31:14Z</time>
      </trkpt>
      <trkpt lat="45.87955" lon="4.77752">
        <ele>219</ele>
        <time>2017-04-22T09:31:15Z</time>
      </trkpt>
      <trkpt lat="45.87955" lon="4.7776">
        <ele>219</ele>
        <time>2017-04-22T09:31:16Z</time>
      </trkpt>
      <trkpt lat="45.87956" lon="4.77767">
        <ele>219</ele>
        <time>2017-04-22T09:31:17Z</time>
      </trkpt>
      <trkpt lat="45.87957" lon="4.77775">
        <ele>219</ele>
        <time>2017-04-22T09:31:18Z</time>
      </trkpt>
      <trkpt lat="45.87958" lon="4.77782">
        <ele>219</ele>
        <time>2017-04-22T09:31:19Z</time>
      </trkpt>
      <trkpt lat="45.87959" lon="4.77789">
        <ele>219</ele>
        <time>2017-04-22T09:31:20Z</time>
      </trkpt>
      <trkpt lat="45.87961" lon="4.77796">
        <ele>219</ele>
        <time>2017-04-22T09:31:21Z</time>
      </trkpt>
      <trkpt lat="45.87962" lon="4.77803">
        <ele>219</ele>
        <time>2017-04-22T09:31:22Z</time>
      </trkpt>
      <trkpt lat="45.87963" lon="4.7781">
        <ele>219</ele>
        <time>2017-04-22T09:31:23Z</time>
      </trkpt>
      <trkpt lat="45.87963" lon="4.77817">
        <ele>219</ele>
        <time>2017-04-22T09:31:24Z</time>
      </trkpt>
      <trkpt lat="45.87964" lon="4.77824">
        <ele>219</ele>
        <time>2017-04-22T09:31:25Z</time>
      </trkpt>
      <trkpt lat="45.87964" lon="4.77831">
        <ele>219</ele>
        <time>2017-04-22T09:31:26Z</time>
      </trkpt>
      <trkpt lat="45.87964" lon="4.77838">
        <ele>219</ele>
        <time>2017-04-22T09:31:27Z</time>
      </trkpt>
      <trkpt lat="45.87964" lon="4.77844">
        <ele>219</ele>
        <time>2017-04-22T09:31:28Z</time>
      </trkpt>
      <trkpt lat="45.87965" lon="4.77857">
        <ele>219</ele>
        <time>2017-04-22T09:31:30Z</time>
      </trkpt>
      <trkpt lat="45.87965" lon="4.77864">
        <ele>219</ele>
        <time>2017-04-22T09:31:31Z</time>
      </trkpt>
      <trkpt lat="45.87966" lon="4.7787">
        <ele>219</ele>
        <time>2017-04-22T09:31:32Z</time>
      </trkpt>
      <trkpt lat="45.87966" lon="4.77878">
        <ele>219</ele>
        <time>2017-04-22T09:31:33Z</time>
      </trkpt>
      <trkpt lat="45.87966" lon="4.77885">
        <ele>220</ele>
        <time>2017-04-22T09:31:34Z</time>
      </trkpt>
      <trkpt lat="45.87966" lon="4.77893">
        <ele>220</ele>
        <time>2017-04-22T09:31:35Z</time>
      </trkpt>
      <trkpt lat="45.87966" lon="4.77901">
        <ele>220</ele>
        <time>2017-04-22T09:31:36Z</time>
      </trkpt>
      <trkpt lat="45.87967" lon="4.77909">
        <ele>220</ele>
        <time>2017-04-22T09:31:37Z</time>
      </trkpt>
      <trkpt lat="45.87967" lon="4.77917">
        <ele>219</ele>
        <time>2017-04-22T09:31:38Z</time>
      </trkpt>
      <trkpt lat="45.87968" lon="4.77923">
        <ele>220</ele>
        <time>2017-04-22T09:31:39Z</time>
      </trkpt>
      <trkpt lat="45.8797" lon="4.77934">
        <ele>220</ele>
        <time>2017-04-22T09:31:41Z</time>
      </trkpt>
      <trkpt lat="45.87971" lon="4.7794">
        <ele>220</ele>
        <time>2017-04-22T09:31:42Z</time>
      </trkpt>
      <trkpt lat="45.87974" lon="4.77951">
        <ele>219</ele>
        <time>2017-04-22T09:31:44Z</time>
      </trkpt>
      <trkpt lat="45.87975" lon="4.77958">
        <ele>219</ele>
        <time>2017-04-22T09:31:45Z</time>
      </trkpt>
      <trkpt lat="45.87976" lon="4.77964">
        <ele>219</ele>
        <time>2017-04-22T09:31:46Z</time>
      </trkpt>
      <trkpt lat="45.87977" lon="4.77971">
        <ele>219</ele>
        <time>2017-04-22T09:31:47Z</time>
      </trkpt>
      <trkpt lat="45.87978" lon="4.77979">
        <ele>219</ele>
        <time>2017-04-22T09:31:48Z</time>
      </trkpt>
      <trkpt lat="45.8798" lon="4.77987">
        <ele>219</ele>
        <time>2017-04-22T09:31:49Z</time>
      </trkpt>
      <trkpt lat="45.87981" lon="4.77994">
        <ele>219</ele>
        <time>2017-04-22T09:31:50Z</time>
      </trkpt>
      <trkpt lat="45.87982" lon="4.78002">
        <ele>218</ele>
        <time>2017-04-22T09:31:51Z</time>
      </trkpt>
      <trkpt lat="45.87982" lon="4.7801">
        <ele>218</ele>
        <time>2017-04-22T09:31:52Z</time>
      </trkpt>
      <trkpt lat="45.87984" lon="4.78018">
        <ele>218</ele>
        <time>2017-04-22T09:31:53Z</time>
      </trkpt>
      <trkpt lat="45.87985" lon="4.78025">
        <ele>218</ele>
        <time>2017-04-22T09:31:54Z</time>
      </trkpt>
      <trkpt lat="45.87986" lon="4.78033">
        <ele>218</ele>
        <time>2017-04-22T09:31:55Z</time>
      </trkpt>
      <trkpt lat="45.87987" lon="4.7804">
        <ele>217</ele>
        <time>2017-04-22T09:31:56Z</time>
      </trkpt>
      <trkpt lat="45.87988" lon="4.78048">
        <ele>217</ele>
        <time>2017-04-22T09:31:57Z</time>
      </trkpt>
      <trkpt lat="45.87989" lon="4.78056">
        <ele>217</ele>
        <time>2017-04-22T09:31:58Z</time>
      </trkpt>
      <trkpt lat="45.8799" lon="4.78064">
        <ele>217</ele>
        <time>2017-04-22T09:31:59Z</time>
      </trkpt>
      <trkpt lat="45.87991" lon="4.78073">
        <ele>216</ele>
        <time>2017-04-22T09:32:00Z</time>
      </trkpt>
      <trkpt lat="45.87993" lon="4.78081">
        <ele>216</ele>
        <time>2017-04-22T09:32:01Z</time>
      </trkpt>
      <trkpt lat="45.87994" lon="4.7809">
        <ele>215</ele>
        <time>2017-04-22T09:32:02Z</time>
      </trkpt>
      <trkpt lat="45.87995" lon="4.78098">
        <ele>216</ele>
        <time>2017-04-22T09:32:03Z</time>
      </trkpt>
      <trkpt lat="45.87996" lon="4.78106">
        <ele>216</ele>
        <time>2017-04-22T09:32:04Z</time>
      </trkpt>
      <trkpt lat="45.87998" lon="4.78115">
        <ele>216</ele>
        <time>2017-04-22T09:32:05Z</time>
      </trkpt>
      <trkpt lat="45.87999" lon="4.78123">
        <ele>216</ele>
        <time>2017-04-22T09:32:06Z</time>
      </trkpt>
      <trkpt lat="45.88" lon="4.78131">
        <ele>216</ele>
        <time>2017-04-22T09:32:07Z</time>
      </trkpt>
      <trkpt lat="45.88001" lon="4.7814">
        <ele>214</ele>
        <time>2017-04-22T09:32:08Z</time>
      </trkpt>
      <trkpt lat="45.88002" lon="4.78148">
        <ele>214</ele>
        <time>2017-04-22T09:32:09Z</time>
      </trkpt>
      <trkpt lat="45.88003" lon="4.78157">
        <ele>215</ele>
        <time>2017-04-22T09:32:10Z</time>
      </trkpt>
      <trkpt lat="45.88004" lon="4.78166">
        <ele>215</ele>
        <time>2017-04-22T09:32:11Z</time>
      </trkpt>
      <trkpt lat="45.88004" lon="4.78176">
        <ele>214</ele>
        <time>2017-04-22T09:32:12Z</time>
      </trkpt>
      <trkpt lat="45.88004" lon="4.78186">
        <ele>214</ele>
        <time>2017-04-22T09:32:13Z</time>
      </trkpt>
      <trkpt lat="45.88004" lon="4.78195">
        <ele>214</ele>
        <time>2017-04-22T09:32:14Z</time>
      </trkpt>
      <trkpt lat="45.88004" lon="4.78204">
        <ele>214</ele>
        <time>2017-04-22T09:32:15Z</time>
      </trkpt>
      <trkpt lat="45.88003" lon="4.78213">
        <ele>214</ele>
        <time>2017-04-22T09:32:16Z</time>
      </trkpt>
      <trkpt lat="45.88002" lon="4.78222">
        <ele>214</ele>
        <time>2017-04-22T09:32:17Z</time>
      </trkpt>
      <trkpt lat="45.88001" lon="4.78231">
        <ele>214</ele>
        <time>2017-04-22T09:32:18Z</time>
      </trkpt>
      <trkpt lat="45.88" lon="4.7824">
        <ele>215</ele>
        <time>2017-04-22T09:32:19Z</time>
      </trkpt>
      <trkpt lat="45.87999" lon="4.78249">
        <ele>214</ele>
        <time>2017-04-22T09:32:20Z</time>
      </trkpt>
      <trkpt lat="45.87998" lon="4.78257">
        <ele>214</ele>
        <time>2017-04-22T09:32:21Z</time>
      </trkpt>
      <trkpt lat="45.87997" lon="4.78266">
        <ele>215</ele>
        <time>2017-04-22T09:32:22Z</time>
      </trkpt>
      <trkpt lat="45.87996" lon="4.78274">
        <ele>215</ele>
        <time>2017-04-22T09:32:23Z</time>
      </trkpt>
      <trkpt lat="45.87995" lon="4.78283">
        <ele>215</ele>
        <time>2017-04-22T09:32:24Z</time>
      </trkpt>
      <trkpt lat="45.87993" lon="4.78292">
        <ele>215</ele>
        <time>2017-04-22T09:32:25Z</time>
      </trkpt>
      <trkpt lat="45.87992" lon="4.783">
        <ele>215</ele>
        <time>2017-04-22T09:32:26Z</time>
      </trkpt>
      <trkpt lat="45.87991" lon="4.78308">
        <ele>215</ele>
        <time>2017-04-22T09:32:27Z</time>
      </trkpt>
      <trkpt lat="45.8799" lon="4.78316">
        <ele>215</ele>
        <time>2017-04-22T09:32:28Z</time>
      </trkpt>
      <trkpt lat="45.87989" lon="4.78324">
        <ele>215</ele>
        <time>2017-04-22T09:32:29Z</time>
      </trkpt>
      <trkpt lat="45.87988" lon="4.78332">
        <ele>215</ele>
        <time>2017-04-22T09:32:30Z</time>
      </trkpt>
      <trkpt lat="45.87987" lon="4.7834">
        <ele>215</ele>
        <time>2017-04-22T09:32:31Z</time>
      </trkpt>
      <trkpt lat="45.87986" lon="4.78348">
        <ele>215</ele>
        <time>2017-04-22T09:32:32Z</time>
      </trkpt>
      <trkpt lat="45.87985" lon="4.78354">
        <ele>215</ele>
        <time>2017-04-22T09:32:33Z</time>
      </trkpt>
      <trkpt lat="45.87985" lon="4.78362">
        <ele>215</ele>
        <time>2017-04-22T09:32:34Z</time>
      </trkpt>
      <trkpt lat="45.87984" lon="4.78369">
        <ele>215</ele>
        <time>2017-04-22T09:32:35Z</time>
      </trkpt>
      <trkpt lat="45.87984" lon="4.78376">
        <ele>215</ele>
        <time>2017-04-22T09:32:36Z</time>
      </trkpt>
      <trkpt lat="45.87985" lon="4.78383">
        <ele>215</ele>
        <time>2017-04-22T09:32:37Z</time>
      </trkpt>
      <trkpt lat="45.87985" lon="4.7839">
        <ele>215</ele>
        <time>2017-04-22T09:32:38Z</time>
      </trkpt>
      <trkpt lat="45.87986" lon="4.78396">
        <ele>214</ele>
        <time>2017-04-22T09:32:39Z</time>
      </trkpt>
      <trkpt lat="45.87986" lon="4.78408">
        <ele>214</ele>
        <time>2017-04-22T09:32:41Z</time>
      </trkpt>
      <trkpt lat="45.87986" lon="4.78413">
        <ele>214</ele>
        <time>2017-04-22T09:32:42Z</time>
      </trkpt>
      <trkpt lat="45.87978" lon="4.7842">
        <ele>215</ele>
        <time>2017-04-22T09:32:45Z</time>
      </trkpt>
      <trkpt lat="45.87975" lon="4.7842">
        <ele>215</ele>
        <time>2017-04-22T09:32:46Z</time>
      </trkpt>
      <trkpt lat="45.87966" lon="4.78422">
        <ele>215</ele>
        <time>2017-04-22T09:32:49Z</time>
      </trkpt>
      <trkpt lat="45.87963" lon="4.78423">
        <ele>215</ele>
        <time>2017-04-22T09:32:50Z</time>
      </trkpt>
      <trkpt lat="45.87957" lon="4.78424">
        <ele>216</ele>
        <time>2017-04-22T09:32:52Z</time>
      </trkpt>
      <trkpt lat="45.87954" lon="4.78424">
        <ele>216</ele>
        <time>2017-04-22T09:32:53Z</time>
      </trkpt>
      <trkpt lat="45.87948" lon="4.78424">
        <ele>216</ele>
        <time>2017-04-22T09:32:55Z</time>
      </trkpt>
      <trkpt lat="45.87945" lon="4.78425">
        <ele>216</ele>
        <time>2017-04-22T09:32:56Z</time>
      </trkpt>
      <trkpt lat="45.87938" lon="4.78427">
        <ele>216</ele>
        <time>2017-04-22T09:32:58Z</time>
      </trkpt>
      <trkpt lat="45.87934" lon="4.78427">
        <ele>216</ele>
        <time>2017-04-22T09:32:59Z</time>
      </trkpt>
      <trkpt lat="45.87927" lon="4.78428">
        <ele>216</ele>
        <time>2017-04-22T09:33:01Z</time>
      </trkpt>
      <trkpt lat="45.87924" lon="4.7843">
        <ele>217</ele>
        <time>2017-04-22T09:33:02Z</time>
      </trkpt>
      <trkpt lat="45.87917" lon="4.78432">
        <ele>217</ele>
        <time>2017-04-22T09:33:04Z</time>
      </trkpt>
      <trkpt lat="45.87914" lon="4.78433">
        <ele>219</ele>
        <time>2017-04-22T09:33:05Z</time>
      </trkpt>
      <trkpt lat="45.87908" lon="4.78435">
        <ele>219</ele>
        <time>2017-04-22T09:33:07Z</time>
      </trkpt>
      <trkpt lat="45.87904" lon="4.78437">
        <ele>220</ele>
        <time>2017-04-22T09:33:08Z</time>
      </trkpt>
      <trkpt lat="45.87897" lon="4.78438">
        <ele>220</ele>
        <time>2017-04-22T09:33:10Z</time>
      </trkpt>
      <trkpt lat="45.87894" lon="4.78438">
        <ele>220</ele>
        <time>2017-04-22T09:33:11Z</time>
      </trkpt>
      <trkpt lat="45.87888" lon="4.78441">
        <ele>220</ele>
        <time>2017-04-22T09:33:13Z</time>
      </trkpt>
      <trkpt lat="45.87885" lon="4.78441">
        <ele>221</ele>
        <time>2017-04-22T09:33:14Z</time>
      </trkpt>
      <trkpt lat="45.87876" lon="4.78443">
        <ele>221</ele>
        <time>2017-04-22T09:33:17Z</time>
      </trkpt>
      <trkpt lat="45.87873" lon="4.78444">
        <ele>221</ele>
        <time>2017-04-22T09:33:18Z</time>
      </trkpt>
      <trkpt lat="45.87866" lon="4.78447">
        <ele>221</ele>
        <time>2017-04-22T09:33:20Z</time>
      </trkpt>
      <trkpt lat="45.87863" lon="4.78448">
        <ele>222</ele>
        <time>2017-04-22T09:33:21Z</time>
      </trkpt>
      <trkpt lat="45.87856" lon="4.78451">
        <ele>222</ele>
        <time>2017-04-22T09:33:23Z</time>
      </trkpt>
      <trkpt lat="45.87852" lon="4.78452">
        <ele>222</ele>
        <time>2017-04-22T09:33:24Z</time>
      </trkpt>
      <trkpt lat="45.87845" lon="4.78453">
        <ele>222</ele>
        <time>2017-04-22T09:33:26Z</time>
      </trkpt>
      <trkpt lat="45.87841" lon="4.78453">
        <ele>222</ele>
        <time>2017-04-22T09:33:27Z</time>
      </trkpt>
      <trkpt lat="45.87835" lon="4.78452">
        <ele>222</ele>
        <time>2017-04-22T09:33:29Z</time>
      </trkpt>
      <trkpt lat="45.87831" lon="4.78451">
        <ele>225</ele>
        <time>2017-04-22T09:33:30Z</time>
      </trkpt>
      <trkpt lat="45.87822" lon="4.78454">
        <ele>225</ele>
        <time>2017-04-22T09:33:33Z</time>
      </trkpt>
      <trkpt lat="45.87819" lon="4.78457">
        <ele>226</ele>
        <time>2017-04-22T09:33:34Z</time>
      </trkpt>
      <trkpt lat="45.87816" lon="4.78467">
        <ele>226</ele>
        <time>2017-04-22T09:33:36Z</time>
      </trkpt>
      <trkpt lat="45.87816" lon="4.78473">
        <ele>226</ele>
        <time>2017-04-22T09:33:37Z</time>
      </trkpt>
      <trkpt lat="45.87816" lon="4.78484">
        <ele>226</ele>
        <time>2017-04-22T09:33:39Z</time>
      </trkpt>
      <trkpt lat="45.87817" lon="4.7849">
        <ele>226</ele>
        <time>2017-04-22T09:33:40Z</time>
      </trkpt>
      <trkpt lat="45.87816" lon="4.78502">
        <ele>227</ele>
        <time>2017-04-22T09:33:42Z</time>
      </trkpt>
      <trkpt lat="45.87817" lon="4.78507">
        <ele>227</ele>
        <time>2017-04-22T09:33:43Z</time>
      </trkpt>
      <trkpt lat="45.87818" lon="4.78517">
        <ele>228</ele>
        <time>2017-04-22T09:33:45Z</time>
      </trkpt>
      <trkpt lat="45.87819" lon="4.78523">
        <ele>228</ele>
        <time>2017-04-22T09:33:46Z</time>
      </trkpt>
      <trkpt lat="45.87819" lon="4.78529">
        <ele>228</ele>
        <time>2017-04-22T09:33:47Z</time>
      </trkpt>
      <trkpt lat="45.87819" lon="4.78536">
        <ele>228</ele>
        <time>2017-04-22T09:33:48Z</time>
      </trkpt>
      <trkpt lat="45.87821" lon="4.78542">
        <ele>228</ele>
        <time>2017-04-22T09:33:49Z</time>
      </trkpt>
      <trkpt lat="45.87822" lon="4.78549">
        <ele>228</ele>
        <time>2017-04-22T09:33:50Z</time>
      </trkpt>
      <trkpt lat="45.87824" lon="4.78559">
        <ele>228</ele>
        <time>2017-04-22T09:33:52Z</time>
      </trkpt>
      <trkpt lat="45.87824" lon="4.78565">
        <ele>228</ele>
        <time>2017-04-22T09:33:53Z</time>
      </trkpt>
      <trkpt lat="45.87826" lon="4.78577">
        <ele>228</ele>
        <time>2017-04-22T09:33:55Z</time>
      </trkpt>
      <trkpt lat="45.87827" lon="4.78583">
        <ele>228</ele>
        <time>2017-04-22T09:33:56Z</time>
      </trkpt>
      <trkpt lat="45.87829" lon="4.78594">
        <ele>229</ele>
        <time>2017-04-22T09:33:58Z</time>
      </trkpt>
      <trkpt lat="45.8783" lon="4.78599">
        <ele>229</ele>
        <time>2017-04-22T09:33:59Z</time>
      </trkpt>
      <trkpt lat="45.87832" lon="4.7861">
        <ele>229</ele>
        <time>2017-04-22T09:34:01Z</time>
      </trkpt>
      <trkpt lat="45.87832" lon="4.78616">
        <ele>229</ele>
        <time>2017-04-22T09:34:02Z</time>
      </trkpt>
      <trkpt lat="45.87835" lon="4.78627">
        <ele>226</ele>
        <time>2017-04-22T09:34:04Z</time>
      </trkpt>
      <trkpt lat="45.87835" lon="4.78633">
        <ele>226</ele>
        <time>2017-04-22T09:34:05Z</time>
      </trkpt>
      <trkpt lat="45.87837" lon="4.78645">
        <ele>226</ele>
        <time>2017-04-22T09:34:07Z</time>
      </trkpt>
      <trkpt lat="45.87838" lon="4.7865">
        <ele>226</ele>
        <time>2017-04-22T09:34:08Z</time>
      </trkpt>
      <trkpt lat="45.8784" lon="4.78661">
        <ele>227</ele>
        <time>2017-04-22T09:34:10Z</time>
      </trkpt>
      <trkpt lat="45.8784" lon="4.78666">
        <ele>227</ele>
        <time>2017-04-22T09:34:11Z</time>
      </trkpt>
      <trkpt lat="45.87841" lon="4.78677">
        <ele>227</ele>
        <time>2017-04-22T09:34:13Z</time>
      </trkpt>
      <trkpt lat="45.87843" lon="4.78683">
        <ele>226</ele>
        <time>2017-04-22T09:34:14Z</time>
      </trkpt>
      <trkpt lat="45.87844" lon="4.78695">
        <ele>226</ele>
        <time>2017-04-22T09:34:16Z</time>
      </trkpt>
      <trkpt lat="45.87845" lon="4.78701">
        <ele>226</ele>
        <time>2017-04-22T09:34:17Z</time>
      </trkpt>
      <trkpt lat="45.87846" lon="4.78708">
        <ele>226</ele>
        <time>2017-04-22T09:34:18Z</time>
      </trkpt>
      <trkpt lat="45.87846" lon="4.78715">
        <ele>226</ele>
        <time>2017-04-22T09:34:19Z</time>
      </trkpt>
      <trkpt lat="45.87847" lon="4.78721">
        <ele>226</ele>
        <time>2017-04-22T09:34:20Z</time>
      </trkpt>
      <trkpt lat="45.87847" lon="4.78728">
        <ele>226</ele>
        <time>2017-04-22T09:34:21Z</time>
      </trkpt>
      <trkpt lat="45.87848" lon="4.78735">
        <ele>226</ele>
        <time>2017-04-22T09:34:22Z</time>
      </trkpt>
      <trkpt lat="45.87849" lon="4.78741">
        <ele>226</ele>
        <time>2017-04-22T09:34:23Z</time>
      </trkpt>
      <trkpt lat="45.8785" lon="4.78747">
        <ele>226</ele>
        <time>2017-04-22T09:34:24Z</time>
      </trkpt>
      <trkpt lat="45.8785" lon="4.78754">
        <ele>226</ele>
        <time>2017-04-22T09:34:25Z</time>
      </trkpt>
      <trkpt lat="45.8785" lon="4.78761">
        <ele>226</ele>
        <time>2017-04-22T09:34:26Z</time>
      </trkpt>
      <trkpt lat="45.8785" lon="4.78767">
        <ele>226</ele>
        <time>2017-04-22T09:34:27Z</time>
      </trkpt>
      <trkpt lat="45.8785" lon="4.78774">
        <ele>226</ele>
        <time>2017-04-22T09:34:28Z</time>
      </trkpt>
      <trkpt lat="45.8785" lon="4.7878">
        <ele>226</ele>
        <time>2017-04-22T09:34:29Z</time>
      </trkpt>
      <trkpt lat="45.8785" lon="4.78787">
        <ele>226</ele>
        <time>2017-04-22T09:34:30Z</time>
      </trkpt>
      <trkpt lat="45.8785" lon="4.78794">
        <ele>226</ele>
        <time>2017-04-22T09:34:31Z</time>
      </trkpt>
      <trkpt lat="45.8785" lon="4.78801">
        <ele>226</ele>
        <time>2017-04-22T09:34:32Z</time>
      </trkpt>
      <trkpt lat="45.8785" lon="4.78807">
        <ele>226</ele>
        <time>2017-04-22T09:34:33Z</time>
      </trkpt>
      <trkpt lat="45.87849" lon="4.78819">
        <ele>227</ele>
        <time>2017-04-22T09:34:35Z</time>
      </trkpt>
      <trkpt lat="45.87848" lon="4.78824">
        <ele>227</ele>
        <time>2017-04-22T09:34:36Z</time>
      </trkpt>
      <trkpt lat="45.87848" lon="4.78836">
        <ele>227</ele>
        <time>2017-04-22T09:34:38Z</time>
      </trkpt>
      <trkpt lat="45.87847" lon="4.78842">
        <ele>227</ele>
        <time>2017-04-22T09:34:39Z</time>
      </trkpt>
      <trkpt lat="45.87847" lon="4.78848">
        <ele>226</ele>
        <time>2017-04-22T09:34:40Z</time>
      </trkpt>
      <trkpt lat="45.87846" lon="4.78855">
        <ele>226</ele>
        <time>2017-04-22T09:34:41Z</time>
      </trkpt>
      <trkpt lat="45.87845" lon="4.78862">
        <ele>226</ele>
        <time>2017-04-22T09:34:42Z</time>
      </trkpt>
      <trkpt lat="45.87845" lon="4.78869">
        <ele>226</ele>
        <time>2017-04-22T09:34:43Z</time>
      </trkpt>
      <trkpt lat="45.87844" lon="4.78881">
        <ele>225</ele>
        <time>2017-04-22T09:34:45Z</time>
      </trkpt>
      <trkpt lat="45.87843" lon="4.78887">
        <ele>225</ele>
        <time>2017-04-22T09:34:46Z</time>
      </trkpt>
      <trkpt lat="45.87842" lon="4.78897">
        <ele>226</ele>
        <time>2017-04-22T09:34:48Z</time>
      </trkpt>
      <trkpt lat="45.87841" lon="4.78903">
        <ele>226</ele>
        <time>2017-04-22T09:34:49Z</time>
      </trkpt>
      <trkpt lat="45.8784" lon="4.78914">
        <ele>226</ele>
        <time>2017-04-22T09:34:51Z</time>
      </trkpt>
      <trkpt lat="45.8784" lon="4.78919">
        <ele>226</ele>
        <time>2017-04-22T09:34:52Z</time>
      </trkpt>
      <trkpt lat="45.8784" lon="4.78926">
        <ele>226</ele>
        <time>2017-04-22T09:34:53Z</time>
      </trkpt>
      <trkpt lat="45.87838" lon="4.78932">
        <ele>226</ele>
        <time>2017-04-22T09:34:54Z</time>
      </trkpt>
      <trkpt lat="45.87837" lon="4.78944">
        <ele>225</ele>
        <time>2017-04-22T09:34:56Z</time>
      </trkpt>
      <trkpt lat="45.87836" lon="4.7895">
        <ele>225</ele>
        <time>2017-04-22T09:34:57Z</time>
      </trkpt>
      <trkpt lat="45.87837" lon="4.78962">
        <ele>226</ele>
        <time>2017-04-22T09:34:59Z</time>
      </trkpt>
      <trkpt lat="45.87838" lon="4.78967">
        <ele>226</ele>
        <time>2017-04-22T09:35:00Z</time>
      </trkpt>
      <trkpt lat="45.87839" lon="4.78978">
        <ele>226</ele>
        <time>2017-04-22T09:35:02Z</time>
      </trkpt>
      <trkpt lat="45.87839" lon="4.78984">
        <ele>227</ele>
        <time>2017-04-22T09:35:03Z</time>
      </trkpt>
      <trkpt lat="45.8784" lon="4.78995">
        <ele>228</ele>
        <time>2017-04-22T09:35:05Z</time>
      </trkpt>
      <trkpt lat="45.8784" lon="4.79">
        <ele>228</ele>
        <time>2017-04-22T09:35:06Z</time>
      </trkpt>
      <trkpt lat="45.87841" lon="4.7901">
        <ele>228</ele>
        <time>2017-04-22T09:35:08Z</time>
      </trkpt>
      <trkpt lat="45.87842" lon="4.79015">
        <ele>228</ele>
        <time>2017-04-22T09:35:09Z</time>
      </trkpt>
      <trkpt lat="45.87844" lon="4.79025">
        <ele>228</ele>
        <time>2017-04-22T09:35:11Z</time>
      </trkpt>
      <trkpt lat="45.87845" lon="4.79031">
        <ele>228</ele>
        <time>2017-04-22T09:35:12Z</time>
      </trkpt>
      <trkpt lat="45.87845" lon="4.79037">
        <ele>228</ele>
        <time>2017-04-22T09:35:13Z</time>
      </trkpt>
      <trkpt lat="45.87846" lon="4.79044">
        <ele>228</ele>
        <time>2017-04-22T09:35:14Z</time>
      </trkpt>
      <trkpt lat="45.87847" lon="4.7905">
        <ele>228</ele>
        <time>2017-04-22T09:35:15Z</time>
      </trkpt>
      <trkpt lat="45.87847" lon="4.79057">
        <ele>228</ele>
        <time>2017-04-22T09:35:16Z</time>
      </trkpt>
      <trkpt lat="45.87849" lon="4.79068">
        <ele>229</ele>
        <time>2017-04-22T09:35:18Z</time>
      </trkpt>
      <trkpt lat="45.87849" lon="4.79074">
        <ele>229</ele>
        <time>2017-04-22T09:35:19Z</time>
      </trkpt>
      <trkpt lat="45.87851" lon="4.79086">
        <ele>230</ele>
        <time>2017-04-22T09:35:21Z</time>
      </trkpt>
      <trkpt lat="45.87852" lon="4.79091">
        <ele>230</ele>
        <time>2017-04-22T09:35:22Z</time>
      </trkpt>
      <trkpt lat="45.87853" lon="4.79103">
        <ele>230</ele>
        <time>2017-04-22T09:35:24Z</time>
      </trkpt>
      <trkpt lat="45.87853" lon="4.79109">
        <ele>230</ele>
        <time>2017-04-22T09:35:25Z</time>
      </trkpt>
      <trkpt lat="45.87855" lon="4.7912">
        <ele>230</ele>
        <time>2017-04-22T09:35:27Z</time>
      </trkpt>
      <trkpt lat="45.87856" lon="4.79125">
        <ele>230</ele>
        <time>2017-04-22T09:35:28Z</time>
      </trkpt>
      <trkpt lat="45.87857" lon="4.79137">
        <ele>230</ele>
        <time>2017-04-22T09:35:30Z</time>
      </trkpt>
      <trkpt lat="45.87858" lon="4.79142">
        <ele>231</ele>
        <time>2017-04-22T09:35:31Z</time>
      </trkpt>
      <trkpt lat="45.87859" lon="4.79153">
        <ele>231</ele>
        <time>2017-04-22T09:35:33Z</time>
      </trkpt>
      <trkpt lat="45.8786" lon="4.79158">
        <ele>231</ele>
        <time>2017-04-22T09:35:34Z</time>
      </trkpt>
      <trkpt lat="45.87862" lon="4.79169">
        <ele>233</ele>
        <time>2017-04-22T09:35:36Z</time>
      </trkpt>
      <trkpt lat="45.87862" lon="4.79175">
        <ele>233</ele>
        <time>2017-04-22T09:35:37Z</time>
      </trkpt>
      <trkpt lat="45.87863" lon="4.79186">
        <ele>233</ele>
        <time>2017-04-22T09:35:39Z</time>
      </trkpt>
      <trkpt lat="45.87864" lon="4.79191">
        <ele>233</ele>
        <time>2017-04-22T09:35:40Z</time>
      </trkpt>
      <trkpt lat="45.87866" lon="4.79202">
        <ele>233</ele>
        <time>2017-04-22T09:35:42Z</time>
      </trkpt>
      <trkpt lat="45.87867" lon="4.79208">
        <ele>233</ele>
        <time>2017-04-22T09:35:43Z</time>
      </trkpt>
      <trkpt lat="45.87869" lon="4.79218">
        <ele>233</ele>
        <time>2017-04-22T09:35:45Z</time>
      </trkpt>
      <trkpt lat="45.87869" lon="4.79224">
        <ele>233</ele>
        <time>2017-04-22T09:35:46Z</time>
      </trkpt>
      <trkpt lat="45.87871" lon="4.79234">
        <ele>233</ele>
        <time>2017-04-22T09:35:48Z</time>
      </trkpt>
      <trkpt lat="45.87871" lon="4.79239">
        <ele>233</ele>
        <time>2017-04-22T09:35:49Z</time>
      </trkpt>
      <trkpt lat="45.87872" lon="4.79248">
        <ele>234</ele>
        <time>2017-04-22T09:35:51Z</time>
      </trkpt>
      <trkpt lat="45.87873" lon="4.79253">
        <ele>236</ele>
        <time>2017-04-22T09:35:52Z</time>
      </trkpt>
      <trkpt lat="45.87874" lon="4.79264">
        <ele>236</ele>
        <time>2017-04-22T09:35:54Z</time>
      </trkpt>
      <trkpt lat="45.87874" lon="4.79269">
        <ele>236</ele>
        <time>2017-04-22T09:35:55Z</time>
      </trkpt>
      <trkpt lat="45.87876" lon="4.79279">
        <ele>237</ele>
        <time>2017-04-22T09:35:57Z</time>
      </trkpt>
      <trkpt lat="45.87876" lon="4.79285">
        <ele>237</ele>
        <time>2017-04-22T09:35:58Z</time>
      </trkpt>
      <trkpt lat="45.87878" lon="4.79295">
        <ele>237</ele>
        <time>2017-04-22T09:36:00Z</time>
      </trkpt>
      <trkpt lat="45.87879" lon="4.793">
        <ele>237</ele>
        <time>2017-04-22T09:36:01Z</time>
      </trkpt>
      <trkpt lat="45.87881" lon="4.7931">
        <ele>237</ele>
        <time>2017-04-22T09:36:03Z</time>
      </trkpt>
      <trkpt lat="45.87882" lon="4.79315">
        <ele>237</ele>
        <time>2017-04-22T09:36:04Z</time>
      </trkpt>
      <trkpt lat="45.87883" lon="4.79324">
        <ele>237</ele>
        <time>2017-04-22T09:36:06Z</time>
      </trkpt>
      <trkpt lat="45.87883" lon="4.79328">
        <ele>237</ele>
        <time>2017-04-22T09:36:07Z</time>
      </trkpt>
      <trkpt lat="45.87885" lon="4.79337">
        <ele>240</ele>
        <time>2017-04-22T09:36:09Z</time>
      </trkpt>
      <trkpt lat="45.87886" lon="4.79341">
        <ele>240</ele>
        <time>2017-04-22T09:36:10Z</time>
      </trkpt>
      <trkpt lat="45.87888" lon="4.7935">
        <ele>240</ele>
        <time>2017-04-22T09:36:12Z</time>
      </trkpt>
      <trkpt lat="45.87888" lon="4.79355">
        <ele>240</ele>
        <time>2017-04-22T09:36:13Z</time>
      </trkpt>
      <trkpt lat="45.87889" lon="4.79364">
        <ele>241</ele>
        <time>2017-04-22T09:36:15Z</time>
      </trkpt>
      <trkpt lat="45.8789" lon="4.79368">
        <ele>241</ele>
        <time>2017-04-22T09:36:16Z</time>
      </trkpt>
      <trkpt lat="45.87891" lon="4.79376">
        <ele>241</ele>
        <time>2017-04-22T09:36:18Z</time>
      </trkpt>
      <trkpt lat="45.87892" lon="4.7938">
        <ele>241</ele>
        <time>2017-04-22T09:36:19Z</time>
      </trkpt>
      <trkpt lat="45.87894" lon="4.79389">
        <ele>241</ele>
        <time>2017-04-22T09:36:21Z</time>
      </trkpt>
      <trkpt lat="45.87895" lon="4.79394">
        <ele>241</ele>
        <time>2017-04-22T09:36:22Z</time>
      </trkpt>
      <trkpt lat="45.87896" lon="4.79403">
        <ele>241</ele>
        <time>2017-04-22T09:36:24Z</time>
      </trkpt>
      <trkpt lat="45.87897" lon="4.79407">
        <ele>241</ele>
        <time>2017-04-22T09:36:25Z</time>
      </trkpt>
      <trkpt lat="45.87898" lon="4.79416">
        <ele>241</ele>
        <time>2017-04-22T09:36:27Z</time>
      </trkpt>
      <trkpt lat="45.87899" lon="4.79421">
        <ele>243</ele>
        <time>2017-04-22T09:36:28Z</time>
      </trkpt>
      <trkpt lat="45.87901" lon="4.7943">
        <ele>244</ele>
        <time>2017-04-22T09:36:30Z</time>
      </trkpt>
      <trkpt lat="45.87902" lon="4.79435">
        <ele>244</ele>
        <time>2017-04-22T09:36:31Z</time>
      </trkpt>
      <trkpt lat="45.87904" lon="4.79445">
        <ele>245</ele>
        <time>2017-04-22T09:36:33Z</time>
      </trkpt>
      <trkpt lat="45.87906" lon="4.79451">
        <ele>245</ele>
        <time>2017-04-22T09:36:34Z</time>
      </trkpt>
      <trkpt lat="45.87908" lon="4.79461">
        <ele>246</ele>
        <time>2017-04-22T09:36:36Z</time>
      </trkpt>
      <trkpt lat="45.8791" lon="4.79466">
        <ele>246</ele>
        <time>2017-04-22T09:36:37Z</time>
      </trkpt>
      <trkpt lat="45.87913" lon="4.79476">
        <ele>246</ele>
        <time>2017-04-22T09:36:39Z</time>
      </trkpt>
      <trkpt lat="45.87915" lon="4.79481">
        <ele>246</ele>
        <time>2017-04-22T09:36:40Z</time>
      </trkpt>
      <trkpt lat="45.87919" lon="4.79492">
        <ele>242</ele>
        <time>2017-04-22T09:36:42Z</time>
      </trkpt>
      <trkpt lat="45.8792" lon="4.79498">
        <ele>244</ele>
        <time>2017-04-22T09:36:43Z</time>
      </trkpt>
      <trkpt lat="45.87922" lon="4.79504">
        <ele>244</ele>
        <time>2017-04-22T09:36:44Z</time>
      </trkpt>
      <trkpt lat="45.87924" lon="4.7951">
        <ele>243</ele>
        <time>2017-04-22T09:36:45Z</time>
      </trkpt>
      <trkpt lat="45.87925" lon="4.79516">
        <ele>242</ele>
        <time>2017-04-22T09:36:46Z</time>
      </trkpt>
      <trkpt lat="45.87927" lon="4.79522">
        <ele>241</ele>
        <time>2017-04-22T09:36:47Z</time>
      </trkpt>
      <trkpt lat="45.87929" lon="4.79529">
        <ele>241</ele>
        <time>2017-04-22T09:36:48Z</time>
      </trkpt>
      <trkpt lat="45.87931" lon="4.79536">
        <ele>241</ele>
        <time>2017-04-22T09:36:49Z</time>
      </trkpt>
      <trkpt lat="45.87933" lon="4.79542">
        <ele>241</ele>
        <time>2017-04-22T09:36:50Z</time>
      </trkpt>
      <trkpt lat="45.87935" lon="4.79549">
        <ele>241</ele>
        <time>2017-04-22T09:36:51Z</time>
      </trkpt>
      <trkpt lat="45.87938" lon="4.79557">
        <ele>241</ele>
        <time>2017-04-22T09:36:52Z</time>
      </trkpt>
      <trkpt lat="45.87941" lon="4.79565">
        <ele>241</ele>
        <time>2017-04-22T09:36:53Z</time>
      </trkpt>
      <trkpt lat="45.87944" lon="4.79574">
        <ele>241</ele>
        <time>2017-04-22T09:36:54Z</time>
      </trkpt>
      <trkpt lat="45.87947" lon="4.79583">
        <ele>240</ele>
        <time>2017-04-22T09:36:55Z</time>
      </trkpt>
      <trkpt lat="45.8795" lon="4.79591">
        <ele>241</ele>
        <time>2017-04-22T09:36:56Z</time>
      </trkpt>
      <trkpt lat="45.87953" lon="4.79601">
        <ele>240</ele>
        <time>2017-04-22T09:36:57Z</time>
      </trkpt>
      <trkpt lat="45.87958" lon="4.7961">
        <ele>240</ele>
        <time>2017-04-22T09:36:58Z</time>
      </trkpt>
      <trkpt lat="45.87961" lon="4.7962">
        <ele>240</ele>
        <time>2017-04-22T09:36:59Z</time>
      </trkpt>
      <trkpt lat="45.87964" lon="4.7963">
        <ele>239</ele>
        <time>2017-04-22T09:37:00Z</time>
      </trkpt>
      <trkpt lat="45.87967" lon="4.7964">
        <ele>239</ele>
        <time>2017-04-22T09:37:01Z</time>
      </trkpt>
      <trkpt lat="45.87971" lon="4.79649">
        <ele>239</ele>
        <time>2017-04-22T09:37:02Z</time>
      </trkpt>
      <trkpt lat="45.87974" lon="4.79659">
        <ele>238</ele>
        <time>2017-04-22T09:37:03Z</time>
      </trkpt>
      <trkpt lat="45.87978" lon="4.79668">
        <ele>240</ele>
        <time>2017-04-22T09:37:04Z</time>
      </trkpt>
      <trkpt lat="45.87981" lon="4.79677">
        <ele>240</ele>
        <time>2017-04-22T09:37:05Z</time>
      </trkpt>
      <trkpt lat="45.87985" lon="4.79685">
        <ele>240</ele>
        <time>2017-04-22T09:37:06Z</time>
      </trkpt>
      <trkpt lat="45.87988" lon="4.79693">
        <ele>241</ele>
        <time>2017-04-22T09:37:07Z</time>
      </trkpt>
      <trkpt lat="45.87992" lon="4.797">
        <ele>241</ele>
        <time>2017-04-22T09:37:08Z</time>
      </trkpt>
      <trkpt lat="45.87994" lon="4.79707">
        <ele>241</ele>
        <time>2017-04-22T09:37:09Z</time>
      </trkpt>
      <trkpt lat="45.87997" lon="4.79714">
        <ele>242</ele>
        <time>2017-04-22T09:37:10Z</time>
      </trkpt>
      <trkpt lat="45.87999" lon="4.79719">
        <ele>242</ele>
        <time>2017-04-22T09:37:11Z</time>
      </trkpt>
      <trkpt lat="45.88004" lon="4.7973">
        <ele>238</ele>
        <time>2017-04-22T09:37:13Z</time>
      </trkpt>
      <trkpt lat="45.88006" lon="4.79734">
        <ele>238</ele>
        <time>2017-04-22T09:37:14Z</time>
      </trkpt>
      <trkpt lat="45.8801" lon="4.79743">
        <ele>239</ele>
        <time>2017-04-22T09:37:16Z</time>
      </trkpt>
      <trkpt lat="45.88012" lon="4.79748">
        <ele>239</ele>
        <time>2017-04-22T09:37:17Z</time>
      </trkpt>
      <trkpt lat="45.88016" lon="4.79758">
        <ele>242</ele>
        <time>2017-04-22T09:37:19Z</time>
      </trkpt>
      <trkpt lat="45.88017" lon="4.79763">
        <ele>242</ele>
        <time>2017-04-22T09:37:20Z</time>
      </trkpt>
      <trkpt lat="45.8802" lon="4.79773">
        <ele>242</ele>
        <time>2017-04-22T09:37:22Z</time>
      </trkpt>
      <trkpt lat="45.88021" lon="4.79778">
        <ele>242</ele>
        <time>2017-04-22T09:37:23Z</time>
      </trkpt>
      <trkpt lat="45.88023" lon="4.79788">
        <ele>242</ele>
        <time>2017-04-22T09:37:25Z</time>
      </trkpt>
      <trkpt lat="45.88024" lon="4.79793">
        <ele>242</ele>
        <time>2017-04-22T09:37:26Z</time>
      </trkpt>
      <trkpt lat="45.88025" lon="4.79803">
        <ele>243</ele>
        <time>2017-04-22T09:37:28Z</time>
      </trkpt>
      <trkpt lat="45.88026" lon="4.79807">
        <ele>243</ele>
        <time>2017-04-22T09:37:29Z</time>
      </trkpt>
      <trkpt lat="45.88027" lon="4.79818">
        <ele>243</ele>
        <time>2017-04-22T09:37:32Z</time>
      </trkpt>
      <trkpt lat="45.88028" lon="4.79821">
        <ele>243</ele>
        <time>2017-04-22T09:37:33Z</time>
      </trkpt>
      <trkpt lat="45.88029" lon="4.79832">
        <ele>244</ele>
        <time>2017-04-22T09:37:36Z</time>
      </trkpt>
      <trkpt lat="45.88029" lon="4.79836">
        <ele>247</ele>
        <time>2017-04-22T09:37:37Z</time>
      </trkpt>
      <trkpt lat="45.8803" lon="4.79849">
        <ele>247</ele>
        <time>2017-04-22T09:37:40Z</time>
      </trkpt>
      <trkpt lat="45.8803" lon="4.79852">
        <ele>247</ele>
        <time>2017-04-22T09:37:41Z</time>
      </trkpt>
      <trkpt lat="45.88031" lon="4.79863">
        <ele>247</ele>
        <time>2017-04-22T09:37:44Z</time>
      </trkpt>
      <trkpt lat="45.8803" lon="4.79867">
        <ele>247</ele>
        <time>2017-04-22T09:37:45Z</time>
      </trkpt>
      <trkpt lat="45.88028" lon="4.79877">
        <ele>247</ele>
        <time>2017-04-22T09:37:48Z</time>
      </trkpt>
      <trkpt lat="45.88028" lon="4.7988">
        <ele>247</ele>
        <time>2017-04-22T09:37:49Z</time>
      </trkpt>
      <trkpt lat="45.88026" lon="4.79889">
        <ele>248</ele>
        <time>2017-04-22T09:37:51Z</time>
      </trkpt>
      <trkpt lat="45.88026" lon="4.79894">
        <ele>248</ele>
        <time>2017-04-22T09:37:52Z</time>
      </trkpt>
      <trkpt lat="45.88023" lon="4.79904">
        <ele>248</ele>
        <time>2017-04-22T09:37:55Z</time>
      </trkpt>
      <trkpt lat="45.88022" lon="4.79907">
        <ele>248</ele>
        <time>2017-04-22T09:37:56Z</time>
      </trkpt>
      <trkpt lat="45.88019" lon="4.79919">
        <ele>250</ele>
        <time>2017-04-22T09:37:59Z</time>
      </trkpt>
      <trkpt lat="45.88018" lon="4.79922">
        <ele>250</ele>
        <time>2017-04-22T09:38:00Z</time>
      </trkpt>
      <trkpt lat="45.88015" lon="4.79934">
        <ele>250</ele>
        <time>2017-04-22T09:38:03Z</time>
      </trkpt>
      <trkpt lat="45.88014" lon="4.79938">
        <ele>250</ele>
        <time>2017-04-22T09:38:04Z</time>
      </trkpt>
      <trkpt lat="45.88011" lon="4.79949">
        <ele>250</ele>
        <time>2017-04-22T09:38:07Z</time>
      </trkpt>
      <trkpt lat="45.88009" lon="4.79952">
        <ele>250</ele>
        <time>2017-04-22T09:38:08Z</time>
      </trkpt>
      <trkpt lat="45.88008" lon="4.79961">
        <ele>250</ele>
        <time>2017-04-22T09:38:10Z</time>
      </trkpt>
      <trkpt lat="45.88007" lon="4.79965">
        <ele>250</ele>
        <time>2017-04-22T09:38:11Z</time>
      </trkpt>
      <trkpt lat="45.88005" lon="4.79974">
        <ele>250</ele>
        <time>2017-04-22T09:38:13Z</time>
      </trkpt>
      <trkpt lat="45.88004" lon="4.79978">
        <ele>250</ele>
        <time>2017-04-22T09:38:14Z</time>
      </trkpt>
      <trkpt lat="45.88002" lon="4.79986">
        <ele>250</ele>
        <time>2017-04-22T09:38:16Z</time>
      </trkpt>
      <trkpt lat="45.88001" lon="4.7999">
        <ele>250</ele>
        <time>2017-04-22T09:38:17Z</time>
      </trkpt>
      <trkpt lat="45.88" lon="4.79999">
        <ele>251</ele>
        <time>2017-04-22T09:38:19Z</time>
      </trkpt>
      <trkpt lat="45.87998" lon="4.80004">
        <ele>252</ele>
        <time>2017-04-22T09:38:20Z</time>
      </trkpt>
      <trkpt lat="45.87994" lon="4.80011">
        <ele>253</ele>
        <time>2017-04-22T09:38:22Z</time>
      </trkpt>
      <trkpt lat="45.87993" lon="4.80014">
        <ele>254</ele>
        <time>2017-04-22T09:38:23Z</time>
      </trkpt>
      <trkpt lat="45.87988" lon="4.80024">
        <ele>255</ele>
        <time>2017-04-22T09:38:26Z</time>
      </trkpt>
      <trkpt lat="45.87985" lon="4.80027">
        <ele>255</ele>
        <time>2017-04-22T09:38:27Z</time>
      </trkpt>
      <trkpt lat="45.87979" lon="4.80035">
        <ele>256</ele>
        <time>2017-04-22T09:38:30Z</time>
      </trkpt>
      <trkpt lat="45.87977" lon="4.80038">
        <ele>256</ele>
        <time>2017-04-22T09:38:31Z</time>
      </trkpt>
      <trkpt lat="45.8797" lon="4.80047">
        <ele>256</ele>
        <time>2017-04-22T09:38:34Z</time>
      </trkpt>
      <trkpt lat="45.87968" lon="4.80049">
        <ele>257</ele>
        <time>2017-04-22T09:38:35Z</time>
      </trkpt>
      <trkpt lat="45.87963" lon="4.80056">
        <ele>257</ele>
        <time>2017-04-22T09:38:37Z</time>
      </trkpt>
      <trkpt lat="45.87961" lon="4.80059">
        <ele>257</ele>
        <time>2017-04-22T09:38:38Z</time>
      </trkpt>
      <trkpt lat="45.87953" lon="4.80065">
        <ele>258</ele>
        <time>2017-04-22T09:38:41Z</time>
      </trkpt>
      <trkpt lat="45.87951" lon="4.80066">
        <ele>258</ele>
        <time>2017-04-22T09:38:42Z</time>
      </trkpt>
      <trkpt lat="45.87943" lon="4.80071">
        <ele>258</ele>
        <time>2017-04-22T09:38:45Z</time>
      </trkpt>
      <trkpt lat="45.8794" lon="4.80072">
        <ele>259</ele>
        <time>2017-04-22T09:38:46Z</time>
      </trkpt>
      <trkpt lat="45.87934" lon="4.80077">
        <ele>259</ele>
        <time>2017-04-22T09:38:48Z</time>
      </trkpt>
      <trkpt lat="45.8793" lon="4.80079">
        <ele>260</ele>
        <time>2017-04-22T09:38:49Z</time>
      </trkpt>
      <trkpt lat="45.87926" lon="4.80081">
        <ele>260</ele>
        <time>2017-04-22T09:38:50Z</time>
      </trkpt>
      <trkpt lat="45.87922" lon="4.80085">
        <ele>261</ele>
        <time>2017-04-22T09:38:51Z</time>
      </trkpt>
      <trkpt lat="45.87915" lon="4.8009">
        <ele>262</ele>
        <time>2017-04-22T09:38:53Z</time>
      </trkpt>
      <trkpt lat="45.87912" lon="4.80093">
        <ele>262</ele>
        <time>2017-04-22T09:38:54Z</time>
      </trkpt>
      <trkpt lat="45.87904" lon="4.80099">
        <ele>262</ele>
        <time>2017-04-22T09:38:57Z</time>
      </trkpt>
      <trkpt lat="45.87902" lon="4.80101">
        <ele>262</ele>
        <time>2017-04-22T09:38:58Z</time>
      </trkpt>
      <trkpt lat="45.879" lon="4.80108">
        <ele>262</ele>
        <time>2017-04-22T09:39:00Z</time>
      </trkpt>
      <trkpt lat="45.87902" lon="4.80114">
        <ele>262</ele>
        <time>2017-04-22T09:39:01Z</time>
      </trkpt>
      <trkpt lat="45.87903" lon="4.80123">
        <ele>262</ele>
        <time>2017-04-22T09:39:03Z</time>
      </trkpt>
      <trkpt lat="45.87902" lon="4.80128">
        <ele>262</ele>
        <time>2017-04-22T09:39:04Z</time>
      </trkpt>
      <trkpt lat="45.87902" lon="4.80135">
        <ele>262</ele>
        <time>2017-04-22T09:39:05Z</time>
      </trkpt>
      <trkpt lat="45.87901" lon="4.80142">
        <ele>261</ele>
        <time>2017-04-22T09:39:06Z</time>
      </trkpt>
      <trkpt lat="45.879" lon="4.80149">
        <ele>261</ele>
        <time>2017-04-22T09:39:07Z</time>
      </trkpt>
      <trkpt lat="45.87898" lon="4.80159">
        <ele>261</ele>
        <time>2017-04-22T09:39:08Z</time>
      </trkpt>
      <trkpt lat="45.87896" lon="4.80167">
        <ele>258</ele>
        <time>2017-04-22T09:39:09Z</time>
      </trkpt>
      <trkpt lat="45.87895" lon="4.80178">
        <ele>257</ele>
        <time>2017-04-22T09:39:10Z</time>
      </trkpt>
      <trkpt lat="45.87894" lon="4.80188">
        <ele>257</ele>
        <time>2017-04-22T09:39:11Z</time>
      </trkpt>
      <trkpt lat="45.87893" lon="4.802">
        <ele>257</ele>
        <time>2017-04-22T09:39:12Z</time>
      </trkpt>
      <trkpt lat="45.87892" lon="4.80211">
        <ele>256</ele>
        <time>2017-04-22T09:39:13Z</time>
      </trkpt>
      <trkpt lat="45.87891" lon="4.80223">
        <ele>256</ele>
        <time>2017-04-22T09:39:14Z</time>
      </trkpt>
      <trkpt lat="45.8789" lon="4.80234">
        <ele>255</ele>
        <time>2017-04-22T09:39:15Z</time>
      </trkpt>
      <trkpt lat="45.8789" lon="4.80244">
        <ele>255</ele>
        <time>2017-04-22T09:39:16Z</time>
      </trkpt>
      <trkpt lat="45.87889" lon="4.80254">
        <ele>252</ele>
        <time>2017-04-22T09:39:17Z</time>
      </trkpt>
      <trkpt lat="45.87888" lon="4.80263">
        <ele>252</ele>
        <time>2017-04-22T09:39:18Z</time>
      </trkpt>
      <trkpt lat="45.87887" lon="4.80271">
        <ele>252</ele>
        <time>2017-04-22T09:39:19Z</time>
      </trkpt>
      <trkpt lat="45.87887" lon="4.80278">
        <ele>252</ele>
        <time>2017-04-22T09:39:20Z</time>
      </trkpt>
      <trkpt lat="45.87887" lon="4.80285">
        <ele>252</ele>
        <time>2017-04-22T09:39:21Z</time>
      </trkpt>
      <trkpt lat="45.87888" lon="4.80293">
        <ele>252</ele>
        <time>2017-04-22T09:39:22Z</time>
      </trkpt>
      <trkpt lat="45.87888" lon="4.80301">
        <ele>252</ele>
        <time>2017-04-22T09:39:23Z</time>
      </trkpt>
      <trkpt lat="45.87888" lon="4.80308">
        <ele>252</ele>
        <time>2017-04-22T09:39:24Z</time>
      </trkpt>
      <trkpt lat="45.87888" lon="4.80316">
        <ele>252</ele>
        <time>2017-04-22T09:39:25Z</time>
      </trkpt>
      <trkpt lat="45.87887" lon="4.80324">
        <ele>251</ele>
        <time>2017-04-22T09:39:26Z</time>
      </trkpt>
      <trkpt lat="45.87886" lon="4.80332">
        <ele>251</ele>
        <time>2017-04-22T09:39:27Z</time>
      </trkpt>
      <trkpt lat="45.87886" lon="4.80339">
        <ele>249</ele>
        <time>2017-04-22T09:39:28Z</time>
      </trkpt>
      <trkpt lat="45.87883" lon="4.80347">
        <ele>249</ele>
        <time>2017-04-22T09:39:29Z</time>
      </trkpt>
      <trkpt lat="45.87882" lon="4.80355">
        <ele>249</ele>
        <time>2017-04-22T09:39:30Z</time>
      </trkpt>
      <trkpt lat="45.8788" lon="4.80363">
        <ele>249</ele>
        <time>2017-04-22T09:39:31Z</time>
      </trkpt>
      <trkpt lat="45.87879" lon="4.80372">
        <ele>249</ele>
        <time>2017-04-22T09:39:32Z</time>
      </trkpt>
      <trkpt lat="45.87877" lon="4.80381">
        <ele>249</ele>
        <time>2017-04-22T09:39:33Z</time>
      </trkpt>
      <trkpt lat="45.87876" lon="4.80391">
        <ele>248</ele>
        <time>2017-04-22T09:39:34Z</time>
      </trkpt>
      <trkpt lat="45.87875" lon="4.804">
        <ele>248</ele>
        <time>2017-04-22T09:39:35Z</time>
      </trkpt>
      <trkpt lat="45.87874" lon="4.80409">
        <ele>248</ele>
        <time>2017-04-22T09:39:36Z</time>
      </trkpt>
      <trkpt lat="45.87873" lon="4.80417">
        <ele>247</ele>
        <time>2017-04-22T09:39:37Z</time>
      </trkpt>
      <trkpt lat="45.87872" lon="4.80425">
        <ele>248</ele>
        <time>2017-04-22T09:39:38Z</time>
      </trkpt>
      <trkpt lat="45.87871" lon="4.80432">
        <ele>248</ele>
        <time>2017-04-22T09:39:39Z</time>
      </trkpt>
      <trkpt lat="45.87871" lon="4.80439">
        <ele>248</ele>
        <time>2017-04-22T09:39:40Z</time>
      </trkpt>
      <trkpt lat="45.8787" lon="4.80446">
        <ele>248</ele>
        <time>2017-04-22T09:39:41Z</time>
      </trkpt>
      <trkpt lat="45.8787" lon="4.80452">
        <ele>248</ele>
        <time>2017-04-22T09:39:42Z</time>
      </trkpt>
      <trkpt lat="45.8787" lon="4.80464">
        <ele>248</ele>
        <time>2017-04-22T09:39:44Z</time>
      </trkpt>
      <trkpt lat="45.8787" lon="4.8047">
        <ele>248</ele>
        <time>2017-04-22T09:39:45Z</time>
      </trkpt>
      <trkpt lat="45.87871" lon="4.80481">
        <ele>248</ele>
        <time>2017-04-22T09:39:47Z</time>
      </trkpt>
      <trkpt lat="45.87871" lon="4.80486">
        <ele>248</ele>
        <time>2017-04-22T09:39:48Z</time>
      </trkpt>
      <trkpt lat="45.87871" lon="4.80497">
        <ele>248</ele>
        <time>2017-04-22T09:39:50Z</time>
      </trkpt>
      <trkpt lat="45.87871" lon="4.80502">
        <ele>250</ele>
        <time>2017-04-22T09:39:51Z</time>
      </trkpt>
      <trkpt lat="45.87868" lon="4.80513">
        <ele>251</ele>
        <time>2017-04-22T09:39:53Z</time>
      </trkpt>
      <trkpt lat="45.87866" lon="4.80519">
        <ele>251</ele>
        <time>2017-04-22T09:39:54Z</time>
      </trkpt>
      <trkpt lat="45.87864" lon="4.80529">
        <ele>251</ele>
        <time>2017-04-22T09:39:56Z</time>
      </trkpt>
      <trkpt lat="45.87863" lon="4.80534">
        <ele>251</ele>
        <time>2017-04-22T09:39:57Z</time>
      </trkpt>
      <trkpt lat="45.87863" lon="4.80543">
        <ele>251</ele>
        <time>2017-04-22T09:39:59Z</time>
      </trkpt>
      <trkpt lat="45.87863" lon="4.80548">
        <ele>251</ele>
        <time>2017-04-22T09:40:00Z</time>
      </trkpt>
      <trkpt lat="45.87864" lon="4.80559">
        <ele>251</ele>
        <time>2017-04-22T09:40:02Z</time>
      </trkpt>
      <trkpt lat="45.87864" lon="4.80564">
        <ele>252</ele>
        <time>2017-04-22T09:40:03Z</time>
      </trkpt>
      <trkpt lat="45.87864" lon="4.80573">
        <ele>252</ele>
        <time>2017-04-22T09:40:05Z</time>
      </trkpt>
      <trkpt lat="45.87864" lon="4.80578">
        <ele>252</ele>
        <time>2017-04-22T09:40:06Z</time>
      </trkpt>
      <trkpt lat="45.87863" lon="4.80587">
        <ele>254</ele>
        <time>2017-04-22T09:40:08Z</time>
      </trkpt>
      <trkpt lat="45.87864" lon="4.80591">
        <ele>254</ele>
        <time>2017-04-22T09:40:09Z</time>
      </trkpt>
      <trkpt lat="45.87864" lon="4.806">
        <ele>254</ele>
        <time>2017-04-22T09:40:11Z</time>
      </trkpt>
      <trkpt lat="45.87864" lon="4.80604">
        <ele>254</ele>
        <time>2017-04-22T09:40:12Z</time>
      </trkpt>
      <trkpt lat="45.87864" lon="4.80613">
        <ele>255</ele>
        <time>2017-04-22T09:40:14Z</time>
      </trkpt>
      <trkpt lat="45.87864" lon="4.80617">
        <ele>255</ele>
        <time>2017-04-22T09:40:15Z</time>
      </trkpt>
      <trkpt lat="45.87864" lon="4.80628">
        <ele>255</ele>
        <time>2017-04-22T09:40:17Z</time>
      </trkpt>
      <trkpt lat="45.87864" lon="4.80633">
        <ele>255</ele>
        <time>2017-04-22T09:40:18Z</time>
      </trkpt>
      <trkpt lat="45.87865" lon="4.80643">
        <ele>256</ele>
        <time>2017-04-22T09:40:20Z</time>
      </trkpt>
      <trkpt lat="45.87865" lon="4.80648">
        <ele>256</ele>
        <time>2017-04-22T09:40:21Z</time>
      </trkpt>
      <trkpt lat="45.87864" lon="4.80656">
        <ele>256</ele>
        <time>2017-04-22T09:40:23Z</time>
      </trkpt>
      <trkpt lat="45.87864" lon="4.80661">
        <ele>256</ele>
        <time>2017-04-22T09:40:24Z</time>
      </trkpt>
      <trkpt lat="45.87865" lon="4.8067">
        <ele>257</ele>
        <time>2017-04-22T09:40:26Z</time>
      </trkpt>
      <trkpt lat="45.87866" lon="4.80674">
        <ele>257</ele>
        <time>2017-04-22T09:40:27Z</time>
      </trkpt>
      <trkpt lat="45.87868" lon="4.80683">
        <ele>257</ele>
        <time>2017-04-22T09:40:29Z</time>
      </trkpt>
      <trkpt lat="45.87868" lon="4.80687">
        <ele>257</ele>
        <time>2017-04-22T09:40:30Z</time>
      </trkpt>
      <trkpt lat="45.87867" lon="4.80696">
        <ele>257</ele>
        <time>2017-04-22T09:40:32Z</time>
      </trkpt>
      <trkpt lat="45.87867" lon="4.80701">
        <ele>257</ele>
        <time>2017-04-22T09:40:33Z</time>
      </trkpt>
      <trkpt lat="45.87869" lon="4.80711">
        <ele>257</ele>
        <time>2017-04-22T09:40:35Z</time>
      </trkpt>
      <trkpt lat="45.87868" lon="4.80716">
        <ele>257</ele>
        <time>2017-04-22T09:40:36Z</time>
      </trkpt>
      <trkpt lat="45.87867" lon="4.80726">
        <ele>257</ele>
        <time>2017-04-22T09:40:38Z</time>
      </trkpt>
      <trkpt lat="45.87867" lon="4.8073">
        <ele>257</ele>
        <time>2017-04-22T09:40:39Z</time>
      </trkpt>
      <trkpt lat="45.87866" lon="4.80739">
        <ele>257</ele>
        <time>2017-04-22T09:40:41Z</time>
      </trkpt>
      <trkpt lat="45.87865" lon="4.80743">
        <ele>257</ele>
        <time>2017-04-22T09:40:42Z</time>
      </trkpt>
      <trkpt lat="45.87862" lon="4.80752">
        <ele>256</ele>
        <time>2017-04-22T09:40:44Z</time>
      </trkpt>
      <trkpt lat="45.87859" lon="4.80757">
        <ele>256</ele>
        <time>2017-04-22T09:40:45Z</time>
      </trkpt>
      <trkpt lat="45.87854" lon="4.80766">
        <ele>256</ele>
        <time>2017-04-22T09:40:47Z</time>
      </trkpt>
      <trkpt lat="45.87852" lon="4.8077">
        <ele>256</ele>
        <time>2017-04-22T09:40:48Z</time>
      </trkpt>
      <trkpt lat="45.87847" lon="4.80777">
        <ele>256</ele>
        <time>2017-04-22T09:40:50Z</time>
      </trkpt>
      <trkpt lat="45.87844" lon="4.80781">
        <ele>256</ele>
        <time>2017-04-22T09:40:51Z</time>
      </trkpt>
      <trkpt lat="45.8784" lon="4.8079">
        <ele>255</ele>
        <time>2017-04-22T09:40:53Z</time>
      </trkpt>
      <trkpt lat="45.87837" lon="4.80793">
        <ele>255</ele>
        <time>2017-04-22T09:40:54Z</time>
      </trkpt>
      <trkpt lat="45.87832" lon="4.80802">
        <ele>256</ele>
        <time>2017-04-22T09:40:56Z</time>
      </trkpt>
      <trkpt lat="45.87829" lon="4.80808">
        <ele>256</ele>
        <time>2017-04-22T09:40:57Z</time>
      </trkpt>
      <trkpt lat="45.87825" lon="4.80814">
        <ele>256</ele>
        <time>2017-04-22T09:40:58Z</time>
      </trkpt>
      <trkpt lat="45.87822" lon="4.80821">
        <ele>256</ele>
        <time>2017-04-22T09:40:59Z</time>
      </trkpt>
      <trkpt lat="45.87818" lon="4.80827">
        <ele>256</ele>
        <time>2017-04-22T09:41:00Z</time>
      </trkpt>
      <trkpt lat="45.87814" lon="4.80833">
        <ele>256</ele>
        <time>2017-04-22T09:41:01Z</time>
      </trkpt>
      <trkpt lat="45.87809" lon="4.80838">
        <ele>254</ele>
        <time>2017-04-22T09:41:02Z</time>
      </trkpt>
      <trkpt lat="45.87804" lon="4.80845">
        <ele>253</ele>
        <time>2017-04-22T09:41:03Z</time>
      </trkpt>
      <trkpt lat="45.878" lon="4.80851">
        <ele>253</ele>
        <time>2017-04-22T09:41:04Z</time>
      </trkpt>
      <trkpt lat="45.87795" lon="4.80859">
        <ele>253</ele>
        <time>2017-04-22T09:41:05Z</time>
      </trkpt>
      <trkpt lat="45.87791" lon="4.80867">
        <ele>253</ele>
        <time>2017-04-22T09:41:06Z</time>
      </trkpt>
      <trkpt lat="45.87787" lon="4.80875">
        <ele>253</ele>
        <time>2017-04-22T09:41:07Z</time>
      </trkpt>
      <trkpt lat="45.87782" lon="4.80885">
        <ele>252</ele>
        <time>2017-04-22T09:41:08Z</time>
      </trkpt>
      <trkpt lat="45.87777" lon="4.80895">
        <ele>252</ele>
        <time>2017-04-22T09:41:09Z</time>
      </trkpt>
      <trkpt lat="45.87772" lon="4.80905">
        <ele>252</ele>
        <time>2017-04-22T09:41:10Z</time>
      </trkpt>
      <trkpt lat="45.87768" lon="4.80916">
        <ele>251</ele>
        <time>2017-04-22T09:41:11Z</time>
      </trkpt>
      <trkpt lat="45.87763" lon="4.80927">
        <ele>249</ele>
        <time>2017-04-22T09:41:12Z</time>
      </trkpt>
      <trkpt lat="45.8776" lon="4.80938">
        <ele>249</ele>
        <time>2017-04-22T09:41:13Z</time>
      </trkpt>
      <trkpt lat="45.87758" lon="4.8095">
        <ele>249</ele>
        <time>2017-04-22T09:41:14Z</time>
      </trkpt>
      <trkpt lat="45.87757" lon="4.80962">
        <ele>249</ele>
        <time>2017-04-22T09:41:15Z</time>
      </trkpt>
      <trkpt lat="45.87757" lon="4.80973">
        <ele>249</ele>
        <time>2017-04-22T09:41:16Z</time>
      </trkpt>
      <trkpt lat="45.87756" lon="4.80985">
        <ele>249</ele>
        <time>2017-04-22T09:41:17Z</time>
      </trkpt>
      <trkpt lat="45.87756" lon="4.80996">
        <ele>249</ele>
        <time>2017-04-22T09:41:18Z</time>
      </trkpt>
      <trkpt lat="45.87756" lon="4.81007">
        <ele>248</ele>
        <time>2017-04-22T09:41:19Z</time>
      </trkpt>
      <trkpt lat="45.87756" lon="4.81019">
        <ele>247</ele>
        <time>2017-04-22T09:41:20Z</time>
      </trkpt>
      <trkpt lat="45.87755" lon="4.8103">
        <ele>246</ele>
        <time>2017-04-22T09:41:21Z</time>
      </trkpt>
      <trkpt lat="45.87754" lon="4.81041">
        <ele>246</ele>
        <time>2017-04-22T09:41:22Z</time>
      </trkpt>
      <trkpt lat="45.87753" lon="4.81052">
        <ele>246</ele>
        <time>2017-04-22T09:41:23Z</time>
      </trkpt>
      <trkpt lat="45.87751" lon="4.81063">
        <ele>246</ele>
        <time>2017-04-22T09:41:24Z</time>
      </trkpt>
      <trkpt lat="45.87749" lon="4.81074">
        <ele>247</ele>
        <time>2017-04-22T09:41:25Z</time>
      </trkpt>
      <trkpt lat="45.87746" lon="4.81084">
        <ele>246</ele>
        <time>2017-04-22T09:41:26Z</time>
      </trkpt>
      <trkpt lat="45.87742" lon="4.81094">
        <ele>246</ele>
        <time>2017-04-22T09:41:27Z</time>
      </trkpt>
      <trkpt lat="45.87737" lon="4.81102">
        <ele>246</ele>
        <time>2017-04-22T09:41:28Z</time>
      </trkpt>
      <trkpt lat="45.87732" lon="4.8111">
        <ele>246</ele>
        <time>2017-04-22T09:41:29Z</time>
      </trkpt>
      <trkpt lat="45.87727" lon="4.81117">
        <ele>246</ele>
        <time>2017-04-22T09:41:30Z</time>
      </trkpt>
      <trkpt lat="45.87722" lon="4.81123">
        <ele>246</ele>
        <time>2017-04-22T09:41:31Z</time>
      </trkpt>
      <trkpt lat="45.87718" lon="4.81127">
        <ele>246</ele>
        <time>2017-04-22T09:41:32Z</time>
      </trkpt>
      <trkpt lat="45.87713" lon="4.81132">
        <ele>246</ele>
        <time>2017-04-22T09:41:33Z</time>
      </trkpt>
      <trkpt lat="45.87708" lon="4.81136">
        <ele>246</ele>
        <time>2017-04-22T09:41:34Z</time>
      </trkpt>
      <trkpt lat="45.87703" lon="4.81141">
        <ele>246</ele>
        <time>2017-04-22T09:41:35Z</time>
      </trkpt>
      <trkpt lat="45.87699" lon="4.81145">
        <ele>246</ele>
        <time>2017-04-22T09:41:36Z</time>
      </trkpt>
      <trkpt lat="45.87694" lon="4.81148">
        <ele>246</ele>
        <time>2017-04-22T09:41:37Z</time>
      </trkpt>
      <trkpt lat="45.87689" lon="4.81151">
        <ele>246</ele>
        <time>2017-04-22T09:41:38Z</time>
      </trkpt>
      <trkpt lat="45.87684" lon="4.81154">
        <ele>246</ele>
        <time>2017-04-22T09:41:39Z</time>
      </trkpt>
      <trkpt lat="45.8768" lon="4.81157">
        <ele>246</ele>
        <time>2017-04-22T09:41:40Z</time>
      </trkpt>
      <trkpt lat="45.87676" lon="4.81161">
        <ele>247</ele>
        <time>2017-04-22T09:41:41Z</time>
      </trkpt>
      <trkpt lat="45.87672" lon="4.81166">
        <ele>247</ele>
        <time>2017-04-22T09:41:42Z</time>
      </trkpt>
      <trkpt lat="45.87667" lon="4.8117">
        <ele>246</ele>
        <time>2017-04-22T09:41:43Z</time>
      </trkpt>
      <trkpt lat="45.87662" lon="4.81174">
        <ele>247</ele>
        <time>2017-04-22T09:41:44Z</time>
      </trkpt>
      <trkpt lat="45.87658" lon="4.81178">
        <ele>247</ele>
        <time>2017-04-22T09:41:45Z</time>
      </trkpt>
      <trkpt lat="45.87653" lon="4.81181">
        <ele>247</ele>
        <time>2017-04-22T09:41:46Z</time>
      </trkpt>
      <trkpt lat="45.87648" lon="4.81185">
        <ele>247</ele>
        <time>2017-04-22T09:41:47Z</time>
      </trkpt>
      <trkpt lat="45.87644" lon="4.81189">
        <ele>247</ele>
        <time>2017-04-22T09:41:48Z</time>
      </trkpt>
      <trkpt lat="45.87639" lon="4.81192">
        <ele>247</ele>
        <time>2017-04-22T09:41:49Z</time>
      </trkpt>
      <trkpt lat="45.87635" lon="4.81194">
        <ele>247</ele>
        <time>2017-04-22T09:41:50Z</time>
      </trkpt>
      <trkpt lat="45.8763" lon="4.81197">
        <ele>247</ele>
        <time>2017-04-22T09:41:51Z</time>
      </trkpt>
      <trkpt lat="45.87623" lon="4.81202">
        <ele>247</ele>
        <time>2017-04-22T09:41:53Z</time>
      </trkpt>
      <trkpt lat="45.87619" lon="4.81205">
        <ele>247</ele>
        <time>2017-04-22T09:41:54Z</time>
      </trkpt>
      <trkpt lat="45.87615" lon="4.81207">
        <ele>247</ele>
        <time>2017-04-22T09:41:55Z</time>
      </trkpt>
      <trkpt lat="45.8761" lon="4.81208">
        <ele>247</ele>
        <time>2017-04-22T09:41:56Z</time>
      </trkpt>
      <trkpt lat="45.87605" lon="4.81209">
        <ele>247</ele>
        <time>2017-04-22T09:41:57Z</time>
      </trkpt>
      <trkpt lat="45.876" lon="4.81211">
        <ele>247</ele>
        <time>2017-04-22T09:41:58Z</time>
      </trkpt>
      <trkpt lat="45.87595" lon="4.81213">
        <ele>247</ele>
        <time>2017-04-22T09:41:59Z</time>
      </trkpt>
      <trkpt lat="45.87589" lon="4.81215">
        <ele>247</ele>
        <time>2017-04-22T09:42:00Z</time>
      </trkpt>
      <trkpt lat="45.87584" lon="4.81218">
        <ele>247</ele>
        <time>2017-04-22T09:42:01Z</time>
      </trkpt>
      <trkpt lat="45.87579" lon="4.81221">
        <ele>251</ele>
        <time>2017-04-22T09:42:02Z</time>
      </trkpt>
      <trkpt lat="45.87575" lon="4.81223">
        <ele>251</ele>
        <time>2017-04-22T09:42:03Z</time>
      </trkpt>
      <trkpt lat="45.8757" lon="4.81224">
        <ele>251</ele>
        <time>2017-04-22T09:42:04Z</time>
      </trkpt>
      <trkpt lat="45.87562" lon="4.81226">
        <ele>251</ele>
        <time>2017-04-22T09:42:06Z</time>
      </trkpt>
      <trkpt lat="45.87558" lon="4.81227">
        <ele>251</ele>
        <time>2017-04-22T09:42:07Z</time>
      </trkpt>
      <trkpt lat="45.87553" lon="4.81228">
        <ele>252</ele>
        <time>2017-04-22T09:42:08Z</time>
      </trkpt>
      <trkpt lat="45.87548" lon="4.8123">
        <ele>252</ele>
        <time>2017-04-22T09:42:09Z</time>
      </trkpt>
      <trkpt lat="45.87543" lon="4.8123">
        <ele>252</ele>
        <time>2017-04-22T09:42:10Z</time>
      </trkpt>
      <trkpt lat="45.87538" lon="4.81231">
        <ele>252</ele>
        <time>2017-04-22T09:42:11Z</time>
      </trkpt>
      <trkpt lat="45.87534" lon="4.81233">
        <ele>252</ele>
        <time>2017-04-22T09:42:12Z</time>
      </trkpt>
      <trkpt lat="45.87529" lon="4.81236">
        <ele>253</ele>
        <time>2017-04-22T09:42:13Z</time>
      </trkpt>
      <trkpt lat="45.87525" lon="4.8124">
        <ele>253</ele>
        <time>2017-04-22T09:42:14Z</time>
      </trkpt>
      <trkpt lat="45.87522" lon="4.81244">
        <ele>253</ele>
        <time>2017-04-22T09:42:15Z</time>
      </trkpt>
      <trkpt lat="45.87519" lon="4.81249">
        <ele>253</ele>
        <time>2017-04-22T09:42:16Z</time>
      </trkpt>
      <trkpt lat="45.87516" lon="4.81255">
        <ele>250</ele>
        <time>2017-04-22T09:42:17Z</time>
      </trkpt>
      <trkpt lat="45.87513" lon="4.81262">
        <ele>250</ele>
        <time>2017-04-22T09:42:18Z</time>
      </trkpt>
      <trkpt lat="45.87511" lon="4.81269">
        <ele>249</ele>
        <time>2017-04-22T09:42:19Z</time>
      </trkpt>
      <trkpt lat="45.87509" lon="4.81277">
        <ele>249</ele>
        <time>2017-04-22T09:42:20Z</time>
      </trkpt>
      <trkpt lat="45.87508" lon="4.81284">
        <ele>248</ele>
        <time>2017-04-22T09:42:21Z</time>
      </trkpt>
      <trkpt lat="45.87506" lon="4.81292">
        <ele>248</ele>
        <time>2017-04-22T09:42:22Z</time>
      </trkpt>
      <trkpt lat="45.87505" lon="4.81301">
        <ele>248</ele>
        <time>2017-04-22T09:42:23Z</time>
      </trkpt>
      <trkpt lat="45.87504" lon="4.8131">
        <ele>247</ele>
        <time>2017-04-22T09:42:24Z</time>
      </trkpt>
      <trkpt lat="45.87502" lon="4.81319">
        <ele>247</ele>
        <time>2017-04-22T09:42:25Z</time>
      </trkpt>
      <trkpt lat="45.87499" lon="4.8133">
        <ele>249</ele>
        <time>2017-04-22T09:42:26Z</time>
      </trkpt>
      <trkpt lat="45.87495" lon="4.8134">
        <ele>248</ele>
        <time>2017-04-22T09:42:27Z</time>
      </trkpt>
      <trkpt lat="45.87491" lon="4.81351">
        <ele>248</ele>
        <time>2017-04-22T09:42:28Z</time>
      </trkpt>
      <trkpt lat="45.87487" lon="4.81361">
        <ele>248</ele>
        <time>2017-04-22T09:42:29Z</time>
      </trkpt>
      <trkpt lat="45.87482" lon="4.8137">
        <ele>248</ele>
        <time>2017-04-22T09:42:30Z</time>
      </trkpt>
      <trkpt lat="45.87477" lon="4.81379">
        <ele>247</ele>
        <time>2017-04-22T09:42:31Z</time>
      </trkpt>
      <trkpt lat="45.8747" lon="4.81389">
        <ele>247</ele>
        <time>2017-04-22T09:42:32Z</time>
      </trkpt>
      <trkpt lat="45.87464" lon="4.81398">
        <ele>247</ele>
        <time>2017-04-22T09:42:33Z</time>
      </trkpt>
      <trkpt lat="45.87458" lon="4.81407">
        <ele>247</ele>
        <time>2017-04-22T09:42:34Z</time>
      </trkpt>
      <trkpt lat="45.87452" lon="4.81417">
        <ele>247</ele>
        <time>2017-04-22T09:42:35Z</time>
      </trkpt>
      <trkpt lat="45.87447" lon="4.81427">
        <ele>243</ele>
        <time>2017-04-22T09:42:36Z</time>
      </trkpt>
      <trkpt lat="45.87441" lon="4.81437">
        <ele>243</ele>
        <time>2017-04-22T09:42:37Z</time>
      </trkpt>
      <trkpt lat="45.87435" lon="4.81447">
        <ele>242</ele>
        <time>2017-04-22T09:42:38Z</time>
      </trkpt>
      <trkpt lat="45.8743" lon="4.81458">
        <ele>242</ele>
        <time>2017-04-22T09:42:39Z</time>
      </trkpt>
      <trkpt lat="45.87425" lon="4.81469">
        <ele>242</ele>
        <time>2017-04-22T09:42:40Z</time>
      </trkpt>
      <trkpt lat="45.87421" lon="4.81479">
        <ele>242</ele>
        <time>2017-04-22T09:42:41Z</time>
      </trkpt>
      <trkpt lat="45.87416" lon="4.8149">
        <ele>245</ele>
        <time>2017-04-22T09:42:42Z</time>
      </trkpt>
      <trkpt lat="45.87411" lon="4.815">
        <ele>243</ele>
        <time>2017-04-22T09:42:43Z</time>
      </trkpt>
      <trkpt lat="45.87406" lon="4.81511">
        <ele>243</ele>
        <time>2017-04-22T09:42:44Z</time>
      </trkpt>
      <trkpt lat="45.87401" lon="4.81521">
        <ele>244</ele>
        <time>2017-04-22T09:42:45Z</time>
      </trkpt>
      <trkpt lat="45.87398" lon="4.81531">
        <ele>244</ele>
        <time>2017-04-22T09:42:46Z</time>
      </trkpt>
      <trkpt lat="45.87395" lon="4.81542">
        <ele>244</ele>
        <time>2017-04-22T09:42:47Z</time>
      </trkpt>
      <trkpt lat="45.87392" lon="4.81553">
        <ele>243</ele>
        <time>2017-04-22T09:42:48Z</time>
      </trkpt>
      <trkpt lat="45.87389" lon="4.81564">
        <ele>243</ele>
        <time>2017-04-22T09:42:49Z</time>
      </trkpt>
      <trkpt lat="45.87387" lon="4.81575">
        <ele>243</ele>
        <time>2017-04-22T09:42:50Z</time>
      </trkpt>
      <trkpt lat="45.87384" lon="4.81587">
        <ele>239</ele>
        <time>2017-04-22T09:42:51Z</time>
      </trkpt>
      <trkpt lat="45.87382" lon="4.81598">
        <ele>239</ele>
        <time>2017-04-22T09:42:52Z</time>
      </trkpt>
      <trkpt lat="45.87379" lon="4.81609">
        <ele>239</ele>
        <time>2017-04-22T09:42:53Z</time>
      </trkpt>
      <trkpt lat="45.87376" lon="4.8162">
        <ele>239</ele>
        <time>2017-04-22T09:42:54Z</time>
      </trkpt>
      <trkpt lat="45.87372" lon="4.8163">
        <ele>239</ele>
        <time>2017-04-22T09:42:55Z</time>
      </trkpt>
      <trkpt lat="45.87369" lon="4.8164">
        <ele>239</ele>
        <time>2017-04-22T09:42:56Z</time>
      </trkpt>
      <trkpt lat="45.87364" lon="4.8165">
        <ele>239</ele>
        <time>2017-04-22T09:42:57Z</time>
      </trkpt>
      <trkpt lat="45.8736" lon="4.81659">
        <ele>240</ele>
        <time>2017-04-22T09:42:58Z</time>
      </trkpt>
      <trkpt lat="45.87355" lon="4.8167">
        <ele>237</ele>
        <time>2017-04-22T09:42:59Z</time>
      </trkpt>
      <trkpt lat="45.87351" lon="4.8168">
        <ele>237</ele>
        <time>2017-04-22T09:43:00Z</time>
      </trkpt>
      <trkpt lat="45.87348" lon="4.81691">
        <ele>237</ele>
        <time>2017-04-22T09:43:01Z</time>
      </trkpt>
      <trkpt lat="45.87346" lon="4.81702">
        <ele>236</ele>
        <time>2017-04-22T09:43:02Z</time>
      </trkpt>
      <trkpt lat="45.87343" lon="4.81712">
        <ele>236</ele>
        <time>2017-04-22T09:43:03Z</time>
      </trkpt>
      <trkpt lat="45.8734" lon="4.81722">
        <ele>236</ele>
        <time>2017-04-22T09:43:04Z</time>
      </trkpt>
      <trkpt lat="45.87338" lon="4.81733">
        <ele>236</ele>
        <time>2017-04-22T09:43:05Z</time>
      </trkpt>
      <trkpt lat="45.87336" lon="4.81743">
        <ele>237</ele>
        <time>2017-04-22T09:43:06Z</time>
      </trkpt>
      <trkpt lat="45.87333" lon="4.81753">
        <ele>238</ele>
        <time>2017-04-22T09:43:07Z</time>
      </trkpt>
      <trkpt lat="45.87329" lon="4.81761">
        <ele>238</ele>
        <time>2017-04-22T09:43:08Z</time>
      </trkpt>
      <trkpt lat="45.87326" lon="4.8177">
        <ele>239</ele>
        <time>2017-04-22T09:43:09Z</time>
      </trkpt>
      <trkpt lat="45.87323" lon="4.8178">
        <ele>239</ele>
        <time>2017-04-22T09:43:10Z</time>
      </trkpt>
      <trkpt lat="45.8732" lon="4.81789">
        <ele>238</ele>
        <time>2017-04-22T09:43:11Z</time>
      </trkpt>
      <trkpt lat="45.87318" lon="4.81799">
        <ele>238</ele>
        <time>2017-04-22T09:43:12Z</time>
      </trkpt>
      <trkpt lat="45.87315" lon="4.81808">
        <ele>238</ele>
        <time>2017-04-22T09:43:13Z</time>
      </trkpt>
      <trkpt lat="45.87313" lon="4.81816">
        <ele>238</ele>
        <time>2017-04-22T09:43:14Z</time>
      </trkpt>
      <trkpt lat="45.8731" lon="4.81826">
        <ele>238</ele>
        <time>2017-04-22T09:43:15Z</time>
      </trkpt>
      <trkpt lat="45.87307" lon="4.81835">
        <ele>236</ele>
        <time>2017-04-22T09:43:16Z</time>
      </trkpt>
      <trkpt lat="45.87305" lon="4.81845">
        <ele>236</ele>
        <time>2017-04-22T09:43:17Z</time>
      </trkpt>
      <trkpt lat="45.87302" lon="4.81855">
        <ele>236</ele>
        <time>2017-04-22T09:43:18Z</time>
      </trkpt>
      <trkpt lat="45.87301" lon="4.81865">
        <ele>235</ele>
        <time>2017-04-22T09:43:19Z</time>
      </trkpt>
      <trkpt lat="45.87299" lon="4.81875">
        <ele>235</ele>
        <time>2017-04-22T09:43:20Z</time>
      </trkpt>
      <trkpt lat="45.87297" lon="4.81885">
        <ele>235</ele>
        <time>2017-04-22T09:43:21Z</time>
      </trkpt>
      <trkpt lat="45.87296" lon="4.81893">
        <ele>235</ele>
        <time>2017-04-22T09:43:22Z</time>
      </trkpt>
      <trkpt lat="45.87293" lon="4.81901">
        <ele>235</ele>
        <time>2017-04-22T09:43:23Z</time>
      </trkpt>
      <trkpt lat="45.87289" lon="4.81908">
        <ele>235</ele>
        <time>2017-04-22T09:43:24Z</time>
      </trkpt>
      <trkpt lat="45.87283" lon="4.81911">
        <ele>235</ele>
        <time>2017-04-22T09:43:25Z</time>
      </trkpt>
      <trkpt lat="45.87278" lon="4.81915">
        <ele>235</ele>
        <time>2017-04-22T09:43:26Z</time>
      </trkpt>
      <trkpt lat="45.87273" lon="4.81919">
        <ele>231</ele>
        <time>2017-04-22T09:43:27Z</time>
      </trkpt>
      <trkpt lat="45.87269" lon="4.81923">
        <ele>231</ele>
        <time>2017-04-22T09:43:28Z</time>
      </trkpt>
      <trkpt lat="45.87264" lon="4.81928">
        <ele>231</ele>
        <time>2017-04-22T09:43:29Z</time>
      </trkpt>
      <trkpt lat="45.87259" lon="4.81931">
        <ele>231</ele>
        <time>2017-04-22T09:43:30Z</time>
      </trkpt>
      <trkpt lat="45.87253" lon="4.81933">
        <ele>231</ele>
        <time>2017-04-22T09:43:31Z</time>
      </trkpt>
      <trkpt lat="45.87248" lon="4.81935">
        <ele>232</ele>
        <time>2017-04-22T09:43:32Z</time>
      </trkpt>
      <trkpt lat="45.87242" lon="4.81937">
        <ele>232</ele>
        <time>2017-04-22T09:43:33Z</time>
      </trkpt>
      <trkpt lat="45.87237" lon="4.81939">
        <ele>232</ele>
        <time>2017-04-22T09:43:34Z</time>
      </trkpt>
      <trkpt lat="45.87233" lon="4.81941">
        <ele>232</ele>
        <time>2017-04-22T09:43:35Z</time>
      </trkpt>
      <trkpt lat="45.87229" lon="4.81945">
        <ele>232</ele>
        <time>2017-04-22T09:43:36Z</time>
      </trkpt>
      <trkpt lat="45.87224" lon="4.81948">
        <ele>231</ele>
        <time>2017-04-22T09:43:37Z</time>
      </trkpt>
      <trkpt lat="45.87219" lon="4.81951">
        <ele>231</ele>
        <time>2017-04-22T09:43:38Z</time>
      </trkpt>
      <trkpt lat="45.87214" lon="4.81954">
        <ele>231</ele>
        <time>2017-04-22T09:43:39Z</time>
      </trkpt>
      <trkpt lat="45.87209" lon="4.81956">
        <ele>231</ele>
        <time>2017-04-22T09:43:40Z</time>
      </trkpt>
      <trkpt lat="45.87204" lon="4.81958">
        <ele>231</ele>
        <time>2017-04-22T09:43:41Z</time>
      </trkpt>
      <trkpt lat="45.87198" lon="4.81961">
        <ele>231</ele>
        <time>2017-04-22T09:43:42Z</time>
      </trkpt>
      <trkpt lat="45.87191" lon="4.81963">
        <ele>231</ele>
        <time>2017-04-22T09:43:43Z</time>
      </trkpt>
      <trkpt lat="45.87184" lon="4.81964">
        <ele>231</ele>
        <time>2017-04-22T09:43:44Z</time>
      </trkpt>
      <trkpt lat="45.87175" lon="4.81966">
        <ele>231</ele>
        <time>2017-04-22T09:43:45Z</time>
      </trkpt>
      <trkpt lat="45.87167" lon="4.81966">
        <ele>231</ele>
        <time>2017-04-22T09:43:46Z</time>
      </trkpt>
      <trkpt lat="45.87159" lon="4.81965">
        <ele>231</ele>
        <time>2017-04-22T09:43:47Z</time>
      </trkpt>
      <trkpt lat="45.8715" lon="4.81965">
        <ele>231</ele>
        <time>2017-04-22T09:43:48Z</time>
      </trkpt>
      <trkpt lat="45.8714" lon="4.81966">
        <ele>231</ele>
        <time>2017-04-22T09:43:49Z</time>
      </trkpt>
      <trkpt lat="45.87131" lon="4.81968">
        <ele>231</ele>
        <time>2017-04-22T09:43:50Z</time>
      </trkpt>
      <trkpt lat="45.87121" lon="4.81968">
        <ele>231</ele>
        <time>2017-04-22T09:43:51Z</time>
      </trkpt>
      <trkpt lat="45.87111" lon="4.81968">
        <ele>231</ele>
        <time>2017-04-22T09:43:52Z</time>
      </trkpt>
      <trkpt lat="45.87102" lon="4.81967">
        <ele>231</ele>
        <time>2017-04-22T09:43:53Z</time>
      </trkpt>
      <trkpt lat="45.87093" lon="4.81965">
        <ele>231</ele>
        <time>2017-04-22T09:43:54Z</time>
      </trkpt>
      <trkpt lat="45.87084" lon="4.81963">
        <ele>231</ele>
        <time>2017-04-22T09:43:55Z</time>
      </trkpt>
      <trkpt lat="45.87075" lon="4.8196">
        <ele>229</ele>
        <time>2017-04-22T09:43:56Z</time>
      </trkpt>
      <trkpt lat="45.87065" lon="4.81957">
        <ele>229</ele>
        <time>2017-04-22T09:43:57Z</time>
      </trkpt>
      <trkpt lat="45.87056" lon="4.81955">
        <ele>229</ele>
        <time>2017-04-22T09:43:58Z</time>
      </trkpt>
      <trkpt lat="45.87047" lon="4.81952">
        <ele>229</ele>
        <time>2017-04-22T09:43:59Z</time>
      </trkpt>
      <trkpt lat="45.87038" lon="4.81949">
        <ele>229</ele>
        <time>2017-04-22T09:44:00Z</time>
      </trkpt>
      <trkpt lat="45.87029" lon="4.81947">
        <ele>229</ele>
        <time>2017-04-22T09:44:01Z</time>
      </trkpt>
      <trkpt lat="45.87022" lon="4.81946">
        <ele>229</ele>
        <time>2017-04-22T09:44:02Z</time>
      </trkpt>
      <trkpt lat="45.87014" lon="4.81945">
        <ele>229</ele>
        <time>2017-04-22T09:44:03Z</time>
      </trkpt>
      <trkpt lat="45.87004" lon="4.81947">
        <ele>229</ele>
        <time>2017-04-22T09:44:04Z</time>
      </trkpt>
      <trkpt lat="45.86995" lon="4.81952">
        <ele>227</ele>
        <time>2017-04-22T09:44:05Z</time>
      </trkpt>
      <trkpt lat="45.86989" lon="4.81958">
        <ele>226</ele>
        <time>2017-04-22T09:44:06Z</time>
      </trkpt>
      <trkpt lat="45.86985" lon="4.81963">
        <ele>225</ele>
        <time>2017-04-22T09:44:07Z</time>
      </trkpt>
      <trkpt lat="45.86984" lon="4.81975">
        <ele>224</ele>
        <time>2017-04-22T09:44:09Z</time>
      </trkpt>
      <trkpt lat="45.86984" lon="4.8198">
        <ele>224</ele>
        <time>2017-04-22T09:44:10Z</time>
      </trkpt>
      <trkpt lat="45.86983" lon="4.8199">
        <ele>223</ele>
        <time>2017-04-22T09:44:12Z</time>
      </trkpt>
      <trkpt lat="45.86981" lon="4.81994">
        <ele>223</ele>
        <time>2017-04-22T09:44:13Z</time>
      </trkpt>
      <trkpt lat="45.86977" lon="4.82004">
        <ele>223</ele>
        <time>2017-04-22T09:44:16Z</time>
      </trkpt>
      <trkpt lat="45.86977" lon="4.82007">
        <ele>223</ele>
        <time>2017-04-22T09:44:17Z</time>
      </trkpt>
      <trkpt lat="45.86977" lon="4.82007">
        <ele>223</ele>
        <time>2017-04-22T09:44:22Z</time>
      </trkpt>
      <trkpt lat="45.86977" lon="4.82009">
        <ele>223</ele>
        <time>2017-04-22T09:44:23Z</time>
      </trkpt>
      <trkpt lat="45.86978" lon="4.82013">
        <ele>223</ele>
        <time>2017-04-22T09:44:25Z</time>
      </trkpt>
      <trkpt lat="45.8698" lon="4.82016">
        <ele>223</ele>
        <time>2017-04-22T09:44:26Z</time>
      </trkpt>
      <trkpt lat="45.86985" lon="4.82023">
        <ele>223</ele>
        <time>2017-04-22T09:44:28Z</time>
      </trkpt>
      <trkpt lat="45.8699" lon="4.82026">
        <ele>223</ele>
        <time>2017-04-22T09:44:29Z</time>
      </trkpt>
      <trkpt lat="45.86995" lon="4.8203">
        <ele>223</ele>
        <time>2017-04-22T09:44:30Z</time>
      </trkpt>
      <trkpt lat="45.87" lon="4.82034">
        <ele>223</ele>
        <time>2017-04-22T09:44:31Z</time>
      </trkpt>
      <trkpt lat="45.87005" lon="4.82039">
        <ele>218</ele>
        <time>2017-04-22T09:44:32Z</time>
      </trkpt>
      <trkpt lat="45.87011" lon="4.82044">
        <ele>219</ele>
        <time>2017-04-22T09:44:33Z</time>
      </trkpt>
      <trkpt lat="45.87017" lon="4.82048">
        <ele>218</ele>
        <time>2017-04-22T09:44:34Z</time>
      </trkpt>
      <trkpt lat="45.87022" lon="4.82054">
        <ele>218</ele>
        <time>2017-04-22T09:44:35Z</time>
      </trkpt>
      <trkpt lat="45.87029" lon="4.82059">
        <ele>218</ele>
        <time>2017-04-22T09:44:36Z</time>
      </trkpt>
      <trkpt lat="45.87035" lon="4.82064">
        <ele>218</ele>
        <time>2017-04-22T09:44:37Z</time>
      </trkpt>
      <trkpt lat="45.87042" lon="4.82068">
        <ele>218</ele>
        <time>2017-04-22T09:44:38Z</time>
      </trkpt>
      <trkpt lat="45.87048" lon="4.82073">
        <ele>218</ele>
        <time>2017-04-22T09:44:39Z</time>
      </trkpt>
      <trkpt lat="45.87055" lon="4.82078">
        <ele>217</ele>
        <time>2017-04-22T09:44:40Z</time>
      </trkpt>
      <trkpt lat="45.87063" lon="4.82084">
        <ele>217</ele>
        <time>2017-04-22T09:44:41Z</time>
      </trkpt>
      <trkpt lat="45.8707" lon="4.82089">
        <ele>216</ele>
        <time>2017-04-22T09:44:42Z</time>
      </trkpt>
      <trkpt lat="45.87077" lon="4.82094">
        <ele>216</ele>
        <time>2017-04-22T09:44:43Z</time>
      </trkpt>
      <trkpt lat="45.87084" lon="4.82098">
        <ele>213</ele>
        <time>2017-04-22T09:44:44Z</time>
      </trkpt>
      <trkpt lat="45.87092" lon="4.82102">
        <ele>213</ele>
        <time>2017-04-22T09:44:45Z</time>
      </trkpt>
      <trkpt lat="45.87099" lon="4.82107">
        <ele>213</ele>
        <time>2017-04-22T09:44:46Z</time>
      </trkpt>
      <trkpt lat="45.87106" lon="4.82112">
        <ele>213</ele>
        <time>2017-04-22T09:44:47Z</time>
      </trkpt>
      <trkpt lat="45.87113" lon="4.82117">
        <ele>213</ele>
        <time>2017-04-22T09:44:48Z</time>
      </trkpt>
      <trkpt lat="45.8712" lon="4.82121">
        <ele>212</ele>
        <time>2017-04-22T09:44:49Z</time>
      </trkpt>
      <trkpt lat="45.87127" lon="4.82126">
        <ele>212</ele>
        <time>2017-04-22T09:44:50Z</time>
      </trkpt>
      <trkpt lat="45.87134" lon="4.82132">
        <ele>212</ele>
        <time>2017-04-22T09:44:51Z</time>
      </trkpt>
      <trkpt lat="45.8714" lon="4.82139">
        <ele>212</ele>
        <time>2017-04-22T09:44:52Z</time>
      </trkpt>
      <trkpt lat="45.87146" lon="4.82147">
        <ele>211</ele>
        <time>2017-04-22T09:44:53Z</time>
      </trkpt>
      <trkpt lat="45.87152" lon="4.82157">
        <ele>210</ele>
        <time>2017-04-22T09:44:54Z</time>
      </trkpt>
      <trkpt lat="45.87156" lon="4.82167">
        <ele>210</ele>
        <time>2017-04-22T09:44:55Z</time>
      </trkpt>
      <trkpt lat="45.87161" lon="4.82177">
        <ele>210</ele>
        <time>2017-04-22T09:44:56Z</time>
      </trkpt>
      <trkpt lat="45.87165" lon="4.82188">
        <ele>211</ele>
        <time>2017-04-22T09:44:57Z</time>
      </trkpt>
      <trkpt lat="45.87168" lon="4.82198">
        <ele>208</ele>
        <time>2017-04-22T09:44:58Z</time>
      </trkpt>
      <trkpt lat="45.87172" lon="4.82209">
        <ele>208</ele>
        <time>2017-04-22T09:44:59Z</time>
      </trkpt>
      <trkpt lat="45.87175" lon="4.8222">
        <ele>208</ele>
        <time>2017-04-22T09:45:00Z</time>
      </trkpt>
      <trkpt lat="45.87178" lon="4.8223">
        <ele>208</ele>
        <time>2017-04-22T09:45:01Z</time>
      </trkpt>
      <trkpt lat="45.87182" lon="4.82241">
        <ele>208</ele>
        <time>2017-04-22T09:45:02Z</time>
      </trkpt>
      <trkpt lat="45.87186" lon="4.82251">
        <ele>210</ele>
        <time>2017-04-22T09:45:03Z</time>
      </trkpt>
      <trkpt lat="45.8719" lon="4.8226">
        <ele>210</ele>
        <time>2017-04-22T09:45:04Z</time>
      </trkpt>
      <trkpt lat="45.87193" lon="4.82269">
        <ele>210</ele>
        <time>2017-04-22T09:45:05Z</time>
      </trkpt>
      <trkpt lat="45.87196" lon="4.82278">
        <ele>210</ele>
        <time>2017-04-22T09:45:06Z</time>
      </trkpt>
      <trkpt lat="45.87199" lon="4.82285">
        <ele>210</ele>
        <time>2017-04-22T09:45:07Z</time>
      </trkpt>
      <trkpt lat="45.87202" lon="4.82293">
        <ele>210</ele>
        <time>2017-04-22T09:45:08Z</time>
      </trkpt>
      <trkpt lat="45.87205" lon="4.82299">
        <ele>210</ele>
        <time>2017-04-22T09:45:09Z</time>
      </trkpt>
      <trkpt lat="45.87208" lon="4.82305">
        <ele>211</ele>
        <time>2017-04-22T09:45:10Z</time>
      </trkpt>
      <trkpt lat="45.8721" lon="4.8231">
        <ele>211</ele>
        <time>2017-04-22T09:45:11Z</time>
      </trkpt>
      <trkpt lat="45.87215" lon="4.8232">
        <ele>211</ele>
        <time>2017-04-22T09:45:13Z</time>
      </trkpt>
      <trkpt lat="45.87218" lon="4.82325">
        <ele>210</ele>
        <time>2017-04-22T09:45:14Z</time>
      </trkpt>
      <trkpt lat="45.87221" lon="4.82329">
        <ele>210</ele>
        <time>2017-04-22T09:45:15Z</time>
      </trkpt>
      <trkpt lat="45.87225" lon="4.82334">
        <ele>214</ele>
        <time>2017-04-22T09:45:16Z</time>
      </trkpt>
      <trkpt lat="45.87231" lon="4.82343">
        <ele>213</ele>
        <time>2017-04-22T09:45:18Z</time>
      </trkpt>
      <trkpt lat="45.87234" lon="4.82348">
        <ele>213</ele>
        <time>2017-04-22T09:45:19Z</time>
      </trkpt>
      <trkpt lat="45.87239" lon="4.82358">
        <ele>214</ele>
        <time>2017-04-22T09:45:21Z</time>
      </trkpt>
      <trkpt lat="45.87242" lon="4.82363">
        <ele>214</ele>
        <time>2017-04-22T09:45:22Z</time>
      </trkpt>
      <trkpt lat="45.87247" lon="4.82371">
        <ele>215</ele>
        <time>2017-04-22T09:45:24Z</time>
      </trkpt>
      <trkpt lat="45.8725" lon="4.82376">
        <ele>209</ele>
        <time>2017-04-22T09:45:25Z</time>
      </trkpt>
      <trkpt lat="45.87255" lon="4.82385">
        <ele>210</ele>
        <time>2017-04-22T09:45:27Z</time>
      </trkpt>
      <trkpt lat="45.87257" lon="4.82389">
        <ele>210</ele>
        <time>2017-04-22T09:45:28Z</time>
      </trkpt>
      <trkpt lat="45.87262" lon="4.82397">
        <ele>211</ele>
        <time>2017-04-22T09:45:30Z</time>
      </trkpt>
      <trkpt lat="45.87264" lon="4.82401">
        <ele>211</ele>
        <time>2017-04-22T09:45:31Z</time>
      </trkpt>
      <trkpt lat="45.87268" lon="4.82409">
        <ele>211</ele>
        <time>2017-04-22T09:45:33Z</time>
      </trkpt>
      <trkpt lat="45.8727" lon="4.82413">
        <ele>211</ele>
        <time>2017-04-22T09:45:34Z</time>
      </trkpt>
      <trkpt lat="45.87275" lon="4.82421">
        <ele>214</ele>
        <time>2017-04-22T09:45:36Z</time>
      </trkpt>
      <trkpt lat="45.87278" lon="4.82426">
        <ele>213</ele>
        <time>2017-04-22T09:45:37Z</time>
      </trkpt>
      <trkpt lat="45.87285" lon="4.82434">
        <ele>213</ele>
        <time>2017-04-22T09:45:39Z</time>
      </trkpt>
      <trkpt lat="45.87288" lon="4.82438">
        <ele>213</ele>
        <time>2017-04-22T09:45:40Z</time>
      </trkpt>
      <trkpt lat="45.87293" lon="4.82445">
        <ele>212</ele>
        <time>2017-04-22T09:45:42Z</time>
      </trkpt>
      <trkpt lat="45.87296" lon="4.82449">
        <ele>212</ele>
        <time>2017-04-22T09:45:43Z</time>
      </trkpt>
      <trkpt lat="45.87301" lon="4.82457">
        <ele>212</ele>
        <time>2017-04-22T09:45:45Z</time>
      </trkpt>
      <trkpt lat="45.87303" lon="4.82461">
        <ele>212</ele>
        <time>2017-04-22T09:45:46Z</time>
      </trkpt>
      <trkpt lat="45.87306" lon="4.8247">
        <ele>212</ele>
        <time>2017-04-22T09:45:48Z</time>
      </trkpt>
      <trkpt lat="45.87309" lon="4.82474">
        <ele>212</ele>
        <time>2017-04-22T09:45:49Z</time>
      </trkpt>
      <trkpt lat="45.87313" lon="4.82483">
        <ele>212</ele>
        <time>2017-04-22T09:45:51Z</time>
      </trkpt>
      <trkpt lat="45.87315" lon="4.82488">
        <ele>212</ele>
        <time>2017-04-22T09:45:52Z</time>
      </trkpt>
      <trkpt lat="45.8732" lon="4.82498">
        <ele>211</ele>
        <time>2017-04-22T09:45:54Z</time>
      </trkpt>
      <trkpt lat="45.87322" lon="4.82504">
        <ele>213</ele>
        <time>2017-04-22T09:45:55Z</time>
      </trkpt>
      <trkpt lat="45.87327" lon="4.82515">
        <ele>213</ele>
        <time>2017-04-22T09:45:57Z</time>
      </trkpt>
      <trkpt lat="45.87329" lon="4.8252">
        <ele>214</ele>
        <time>2017-04-22T09:45:58Z</time>
      </trkpt>
      <trkpt lat="45.87332" lon="4.82526">
        <ele>215</ele>
        <time>2017-04-22T09:45:59Z</time>
      </trkpt>
      <trkpt lat="45.87335" lon="4.82532">
        <ele>209</ele>
        <time>2017-04-22T09:46:00Z</time>
      </trkpt>
      <trkpt lat="45.87337" lon="4.82538">
        <ele>209</ele>
        <time>2017-04-22T09:46:01Z</time>
      </trkpt>
      <trkpt lat="45.8734" lon="4.82545">
        <ele>209</ele>
        <time>2017-04-22T09:46:02Z</time>
      </trkpt>
      <trkpt lat="45.87342" lon="4.82552">
        <ele>210</ele>
        <time>2017-04-22T09:46:03Z</time>
      </trkpt>
      <trkpt lat="45.87344" lon="4.82558">
        <ele>210</ele>
        <time>2017-04-22T09:46:04Z</time>
      </trkpt>
      <trkpt lat="45.87347" lon="4.82564">
        <ele>210</ele>
        <time>2017-04-22T09:46:05Z</time>
      </trkpt>
      <trkpt lat="45.8735" lon="4.82571">
        <ele>211</ele>
        <time>2017-04-22T09:46:06Z</time>
      </trkpt>
      <trkpt lat="45.87353" lon="4.82577">
        <ele>211</ele>
        <time>2017-04-22T09:46:07Z</time>
      </trkpt>
      <trkpt lat="45.87355" lon="4.82585">
        <ele>214</ele>
        <time>2017-04-22T09:46:08Z</time>
      </trkpt>
      <trkpt lat="45.87358" lon="4.82591">
        <ele>214</ele>
        <time>2017-04-22T09:46:09Z</time>
      </trkpt>
      <trkpt lat="45.87361" lon="4.82598">
        <ele>213</ele>
        <time>2017-04-22T09:46:10Z</time>
      </trkpt>
      <trkpt lat="45.87364" lon="4.82604">
        <ele>213</ele>
        <time>2017-04-22T09:46:11Z</time>
      </trkpt>
      <trkpt lat="45.87366" lon="4.82611">
        <ele>213</ele>
        <time>2017-04-22T09:46:12Z</time>
      </trkpt>
      <trkpt lat="45.87369" lon="4.82617">
        <ele>213</ele>
        <time>2017-04-22T09:46:13Z</time>
      </trkpt>
      <trkpt lat="45.87371" lon="4.82623">
        <ele>213</ele>
        <time>2017-04-22T09:46:14Z</time>
      </trkpt>
      <trkpt lat="45.87374" lon="4.82629">
        <ele>213</ele>
        <time>2017-04-22T09:46:15Z</time>
      </trkpt>
      <trkpt lat="45.87377" lon="4.82636">
        <ele>213</ele>
        <time>2017-04-22T09:46:16Z</time>
      </trkpt>
      <trkpt lat="45.87379" lon="4.82642">
        <ele>213</ele>
        <time>2017-04-22T09:46:17Z</time>
      </trkpt>
      <trkpt lat="45.87382" lon="4.82648">
        <ele>213</ele>
        <time>2017-04-22T09:46:18Z</time>
      </trkpt>
      <trkpt lat="45.87386" lon="4.82654">
        <ele>213</ele>
        <time>2017-04-22T09:46:19Z</time>
      </trkpt>
      <trkpt lat="45.87389" lon="4.82661">
        <ele>213</ele>
        <time>2017-04-22T09:46:20Z</time>
      </trkpt>
      <trkpt lat="45.87392" lon="4.82667">
        <ele>215</ele>
        <time>2017-04-22T09:46:21Z</time>
      </trkpt>
      <trkpt lat="45.87396" lon="4.82674">
        <ele>215</ele>
        <time>2017-04-22T09:46:22Z</time>
      </trkpt>
      <trkpt lat="45.874" lon="4.8268">
        <ele>214</ele>
        <time>2017-04-22T09:46:23Z</time>
      </trkpt>
      <trkpt lat="45.87404" lon="4.82686">
        <ele>215</ele>
        <time>2017-04-22T09:46:24Z</time>
      </trkpt>
      <trkpt lat="45.87408" lon="4.82693">
        <ele>215</ele>
        <time>2017-04-22T09:46:25Z</time>
      </trkpt>
      <trkpt lat="45.87412" lon="4.827">
        <ele>215</ele>
        <time>2017-04-22T09:46:26Z</time>
      </trkpt>
      <trkpt lat="45.87415" lon="4.82706">
        <ele>215</ele>
        <time>2017-04-22T09:46:27Z</time>
      </trkpt>
      <trkpt lat="45.87419" lon="4.82713">
        <ele>209</ele>
        <time>2017-04-22T09:46:28Z</time>
      </trkpt>
      <trkpt lat="45.87423" lon="4.82721">
        <ele>209</ele>
        <time>2017-04-22T09:46:29Z</time>
      </trkpt>
      <trkpt lat="45.87427" lon="4.82728">
        <ele>210</ele>
        <time>2017-04-22T09:46:30Z</time>
      </trkpt>
      <trkpt lat="45.8743" lon="4.82735">
        <ele>210</ele>
        <time>2017-04-22T09:46:31Z</time>
      </trkpt>
      <trkpt lat="45.87434" lon="4.82743">
        <ele>210</ele>
        <time>2017-04-22T09:46:32Z</time>
      </trkpt>
      <trkpt lat="45.87437" lon="4.8275">
        <ele>212</ele>
        <time>2017-04-22T09:46:33Z</time>
      </trkpt>
      <trkpt lat="45.87441" lon="4.82758">
        <ele>211</ele>
        <time>2017-04-22T09:46:34Z</time>
      </trkpt>
      <trkpt lat="45.87444" lon="4.82765">
        <ele>211</ele>
        <time>2017-04-22T09:46:35Z</time>
      </trkpt>
      <trkpt lat="45.87447" lon="4.82772">
        <ele>210</ele>
        <time>2017-04-22T09:46:36Z</time>
      </trkpt>
      <trkpt lat="45.8745" lon="4.8278">
        <ele>210</ele>
        <time>2017-04-22T09:46:37Z</time>
      </trkpt>
      <trkpt lat="45.87454" lon="4.82786">
        <ele>210</ele>
        <time>2017-04-22T09:46:38Z</time>
      </trkpt>
      <trkpt lat="45.87458" lon="4.82794">
        <ele>210</ele>
        <time>2017-04-22T09:46:39Z</time>
      </trkpt>
      <trkpt lat="45.87462" lon="4.82802">
        <ele>209</ele>
        <time>2017-04-22T09:46:40Z</time>
      </trkpt>
      <trkpt lat="45.87465" lon="4.8281">
        <ele>209</ele>
        <time>2017-04-22T09:46:41Z</time>
      </trkpt>
      <trkpt lat="45.87468" lon="4.82817">
        <ele>209</ele>
        <time>2017-04-22T09:46:42Z</time>
      </trkpt>
      <trkpt lat="45.87471" lon="4.82824">
        <ele>209</ele>
        <time>2017-04-22T09:46:43Z</time>
      </trkpt>
      <trkpt lat="45.87475" lon="4.82831">
        <ele>209</ele>
        <time>2017-04-22T09:46:44Z</time>
      </trkpt>
      <trkpt lat="45.87479" lon="4.82838">
        <ele>210</ele>
        <time>2017-04-22T09:46:45Z</time>
      </trkpt>
      <trkpt lat="45.87483" lon="4.82845">
        <ele>210</ele>
        <time>2017-04-22T09:46:46Z</time>
      </trkpt>
      <trkpt lat="45.87486" lon="4.82854">
        <ele>210</ele>
        <time>2017-04-22T09:46:47Z</time>
      </trkpt>
      <trkpt lat="45.87489" lon="4.82863">
        <ele>210</ele>
        <time>2017-04-22T09:46:48Z</time>
      </trkpt>
      <trkpt lat="45.87493" lon="4.82872">
        <ele>210</ele>
        <time>2017-04-22T09:46:49Z</time>
      </trkpt>
      <trkpt lat="45.87496" lon="4.82883">
        <ele>210</ele>
        <time>2017-04-22T09:46:50Z</time>
      </trkpt>
      <trkpt lat="45.875" lon="4.82894">
        <ele>210</ele>
        <time>2017-04-22T09:46:51Z</time>
      </trkpt>
      <trkpt lat="45.87504" lon="4.82905">
        <ele>208</ele>
        <time>2017-04-22T09:46:52Z</time>
      </trkpt>
      <trkpt lat="45.87508" lon="4.82916">
        <ele>208</ele>
        <time>2017-04-22T09:46:53Z</time>
      </trkpt>
      <trkpt lat="45.87512" lon="4.82928">
        <ele>208</ele>
        <time>2017-04-22T09:46:54Z</time>
      </trkpt>
      <trkpt lat="45.87516" lon="4.82941">
        <ele>207</ele>
        <time>2017-04-22T09:46:55Z</time>
      </trkpt>
      <trkpt lat="45.8752" lon="4.82953">
        <ele>206</ele>
        <time>2017-04-22T09:46:56Z</time>
      </trkpt>
      <trkpt lat="45.87524" lon="4.82966">
        <ele>206</ele>
        <time>2017-04-22T09:46:57Z</time>
      </trkpt>
      <trkpt lat="45.87527" lon="4.82978">
        <ele>206</ele>
        <time>2017-04-22T09:46:58Z</time>
      </trkpt>
      <trkpt lat="45.87529" lon="4.8299">
        <ele>206</ele>
        <time>2017-04-22T09:46:59Z</time>
      </trkpt>
      <trkpt lat="45.87531" lon="4.83002">
        <ele>203</ele>
        <time>2017-04-22T09:47:00Z</time>
      </trkpt>
      <trkpt lat="45.87531" lon="4.83013">
        <ele>202</ele>
        <time>2017-04-22T09:47:01Z</time>
      </trkpt>
      <trkpt lat="45.87531" lon="4.83024">
        <ele>202</ele>
        <time>2017-04-22T09:47:02Z</time>
      </trkpt>
      <trkpt lat="45.8753" lon="4.83035">
        <ele>201</ele>
        <time>2017-04-22T09:47:03Z</time>
      </trkpt>
      <trkpt lat="45.87529" lon="4.83046">
        <ele>201</ele>
        <time>2017-04-22T09:47:04Z</time>
      </trkpt>
      <trkpt lat="45.87527" lon="4.83057">
        <ele>200</ele>
        <time>2017-04-22T09:47:05Z</time>
      </trkpt>
      <trkpt lat="45.87523" lon="4.83068">
        <ele>200</ele>
        <time>2017-04-22T09:47:06Z</time>
      </trkpt>
      <trkpt lat="45.87518" lon="4.83078">
        <ele>199</ele>
        <time>2017-04-22T09:47:07Z</time>
      </trkpt>
      <trkpt lat="45.87513" lon="4.83088">
        <ele>196</ele>
        <time>2017-04-22T09:47:08Z</time>
      </trkpt>
      <trkpt lat="45.87506" lon="4.83097">
        <ele>195</ele>
        <time>2017-04-22T09:47:09Z</time>
      </trkpt>
      <trkpt lat="45.87499" lon="4.83105">
        <ele>196</ele>
        <time>2017-04-22T09:47:10Z</time>
      </trkpt>
      <trkpt lat="45.87493" lon="4.83112">
        <ele>196</ele>
        <time>2017-04-22T09:47:11Z</time>
      </trkpt>
      <trkpt lat="45.87487" lon="4.83119">
        <ele>195</ele>
        <time>2017-04-22T09:47:12Z</time>
      </trkpt>
      <trkpt lat="45.87484" lon="4.83126">
        <ele>195</ele>
        <time>2017-04-22T09:47:13Z</time>
      </trkpt>
      <trkpt lat="45.87484" lon="4.83136">
        <ele>194</ele>
        <time>2017-04-22T09:47:14Z</time>
      </trkpt>
      <trkpt lat="45.87484" lon="4.83146">
        <ele>193</ele>
        <time>2017-04-22T09:47:15Z</time>
      </trkpt>
      <trkpt lat="45.87487" lon="4.83154">
        <ele>193</ele>
        <time>2017-04-22T09:47:16Z</time>
      </trkpt>
      <trkpt lat="45.8749" lon="4.83161">
        <ele>192</ele>
        <time>2017-04-22T09:47:17Z</time>
      </trkpt>
      <trkpt lat="45.87497" lon="4.83166">
        <ele>191</ele>
        <time>2017-04-22T09:47:18Z</time>
      </trkpt>
      <trkpt lat="45.87503" lon="4.83168">
        <ele>189</ele>
        <time>2017-04-22T09:47:19Z</time>
      </trkpt>
      <trkpt lat="45.87511" lon="4.83164">
        <ele>190</ele>
        <time>2017-04-22T09:47:20Z</time>
      </trkpt>
      <trkpt lat="45.87518" lon="4.83162">
        <ele>190</ele>
        <time>2017-04-22T09:47:21Z</time>
      </trkpt>
      <trkpt lat="45.87525" lon="4.8316">
        <ele>190</ele>
        <time>2017-04-22T09:47:22Z</time>
      </trkpt>
      <trkpt lat="45.87531" lon="4.8316">
        <ele>190</ele>
        <time>2017-04-22T09:47:23Z</time>
      </trkpt>
      <trkpt lat="45.87537" lon="4.83164">
        <ele>189</ele>
        <time>2017-04-22T09:47:24Z</time>
      </trkpt>
      <trkpt lat="45.87541" lon="4.83169">
        <ele>184</ele>
        <time>2017-04-22T09:47:25Z</time>
      </trkpt>
      <trkpt lat="45.87545" lon="4.83176">
        <ele>183</ele>
        <time>2017-04-22T09:47:26Z</time>
      </trkpt>
      <trkpt lat="45.8755" lon="4.83183">
        <ele>183</ele>
        <time>2017-04-22T09:47:27Z</time>
      </trkpt>
      <trkpt lat="45.87554" lon="4.83193">
        <ele>183</ele>
        <time>2017-04-22T09:47:28Z</time>
      </trkpt>
      <trkpt lat="45.87558" lon="4.83202">
        <ele>182</ele>
        <time>2017-04-22T09:47:29Z</time>
      </trkpt>
      <trkpt lat="45.87562" lon="4.83211">
        <ele>182</ele>
        <time>2017-04-22T09:47:30Z</time>
      </trkpt>
      <trkpt lat="45.87565" lon="4.8322">
        <ele>181</ele>
        <time>2017-04-22T09:47:31Z</time>
      </trkpt>
      <trkpt lat="45.87567" lon="4.83228">
        <ele>181</ele>
        <time>2017-04-22T09:47:32Z</time>
      </trkpt>
      <trkpt lat="45.87565" lon="4.83236">
        <ele>181</ele>
        <time>2017-04-22T09:47:33Z</time>
      </trkpt>
      <trkpt lat="45.87562" lon="4.83242">
        <ele>180</ele>
        <time>2017-04-22T09:47:34Z</time>
      </trkpt>
      <trkpt lat="45.87558" lon="4.83247">
        <ele>181</ele>
        <time>2017-04-22T09:47:35Z</time>
      </trkpt>
      <trkpt lat="45.87554" lon="4.83251">
        <ele>178</ele>
        <time>2017-04-22T09:47:36Z</time>
      </trkpt>
      <trkpt lat="45.87549" lon="4.83256">
        <ele>178</ele>
        <time>2017-04-22T09:47:37Z</time>
      </trkpt>
      <trkpt lat="45.87544" lon="4.83262">
        <ele>178</ele>
        <time>2017-04-22T09:47:38Z</time>
      </trkpt>
      <trkpt lat="45.8754" lon="4.83268">
        <ele>178</ele>
        <time>2017-04-22T09:47:39Z</time>
      </trkpt>
      <trkpt lat="45.87536" lon="4.83275">
        <ele>178</ele>
        <time>2017-04-22T09:47:40Z</time>
      </trkpt>
      <trkpt lat="45.87535" lon="4.83282">
        <ele>178</ele>
        <time>2017-04-22T09:47:41Z</time>
      </trkpt>
      <trkpt lat="45.87535" lon="4.83291">
        <ele>178</ele>
        <time>2017-04-22T09:47:42Z</time>
      </trkpt>
      <trkpt lat="45.87537" lon="4.83299">
        <ele>177</ele>
        <time>2017-04-22T09:47:43Z</time>
      </trkpt>
      <trkpt lat="45.87541" lon="4.83306">
        <ele>177</ele>
        <time>2017-04-22T09:47:44Z</time>
      </trkpt>
      <trkpt lat="45.87545" lon="4.83313">
        <ele>177</ele>
        <time>2017-04-22T09:47:45Z</time>
      </trkpt>
      <trkpt lat="45.87549" lon="4.8332">
        <ele>177</ele>
        <time>2017-04-22T09:47:46Z</time>
      </trkpt>
      <trkpt lat="45.87553" lon="4.83328">
        <ele>177</ele>
        <time>2017-04-22T09:47:47Z</time>
      </trkpt>
      <trkpt lat="45.87556" lon="4.83337">
        <ele>176</ele>
        <time>2017-04-22T09:47:48Z</time>
      </trkpt>
      <trkpt lat="45.87561" lon="4.83345">
        <ele>176</ele>
        <time>2017-04-22T09:47:49Z</time>
      </trkpt>
      <trkpt lat="45.87565" lon="4.83354">
        <ele>175</ele>
        <time>2017-04-22T09:47:50Z</time>
      </trkpt>
      <trkpt lat="45.8757" lon="4.83363">
        <ele>175</ele>
        <time>2017-04-22T09:47:51Z</time>
      </trkpt>
      <trkpt lat="45.87576" lon="4.83371">
        <ele>175</ele>
        <time>2017-04-22T09:47:52Z</time>
      </trkpt>
      <trkpt lat="45.87582" lon="4.83378">
        <ele>175</ele>
        <time>2017-04-22T09:47:53Z</time>
      </trkpt>
      <trkpt lat="45.87588" lon="4.83385">
        <ele>174</ele>
        <time>2017-04-22T09:47:54Z</time>
      </trkpt>
      <trkpt lat="45.87594" lon="4.83392">
        <ele>174</ele>
        <time>2017-04-22T09:47:55Z</time>
      </trkpt>
      <trkpt lat="45.87601" lon="4.83398">
        <ele>174</ele>
        <time>2017-04-22T09:47:56Z</time>
      </trkpt>
      <trkpt lat="45.87608" lon="4.83404">
        <ele>174</ele>
        <time>2017-04-22T09:47:57Z</time>
      </trkpt>
      <trkpt lat="45.87614" lon="4.83409">
        <ele>174</ele>
        <time>2017-04-22T09:47:58Z</time>
      </trkpt>
      <trkpt lat="45.87619" lon="4.83415">
        <ele>174</ele>
        <time>2017-04-22T09:47:59Z</time>
      </trkpt>
      <trkpt lat="45.87625" lon="4.8342">
        <ele>172</ele>
        <time>2017-04-22T09:48:00Z</time>
      </trkpt>
      <trkpt lat="45.8763" lon="4.83425">
        <ele>172</ele>
        <time>2017-04-22T09:48:01Z</time>
      </trkpt>
      <trkpt lat="45.87635" lon="4.83431">
        <ele>172</ele>
        <time>2017-04-22T09:48:02Z</time>
      </trkpt>
      <trkpt lat="45.8764" lon="4.83436">
        <ele>172</ele>
        <time>2017-04-22T09:48:03Z</time>
      </trkpt>
      <trkpt lat="45.87645" lon="4.83441">
        <ele>172</ele>
        <time>2017-04-22T09:48:04Z</time>
      </trkpt>
      <trkpt lat="45.8765" lon="4.83447">
        <ele>172</ele>
        <time>2017-04-22T09:48:05Z</time>
      </trkpt>
      <trkpt lat="45.87655" lon="4.83452">
        <ele>172</ele>
        <time>2017-04-22T09:48:06Z</time>
      </trkpt>
      <trkpt lat="45.87659" lon="4.83457">
        <ele>172</ele>
        <time>2017-04-22T09:48:07Z</time>
      </trkpt>
      <trkpt lat="45.87662" lon="4.83464">
        <ele>172</ele>
        <time>2017-04-22T09:48:08Z</time>
      </trkpt>
      <trkpt lat="45.87665" lon="4.83471">
        <ele>171</ele>
        <time>2017-04-22T09:48:09Z</time>
      </trkpt>
      <trkpt lat="45.87666" lon="4.83479">
        <ele>171</ele>
        <time>2017-04-22T09:48:10Z</time>
      </trkpt>
      <trkpt lat="45.87667" lon="4.83486">
        <ele>171</ele>
        <time>2017-04-22T09:48:11Z</time>
      </trkpt>
      <trkpt lat="45.87668" lon="4.83494">
        <ele>171</ele>
        <time>2017-04-22T09:48:12Z</time>
      </trkpt>
      <trkpt lat="45.87669" lon="4.83502">
        <ele>171</ele>
        <time>2017-04-22T09:48:13Z</time>
      </trkpt>
      <trkpt lat="45.8767" lon="4.83509">
        <ele>170</ele>
        <time>2017-04-22T09:48:14Z</time>
      </trkpt>
      <trkpt lat="45.87671" lon="4.83516">
        <ele>170</ele>
        <time>2017-04-22T09:48:15Z</time>
      </trkpt>
      <trkpt lat="45.87672" lon="4.83522">
        <ele>169</ele>
        <time>2017-04-22T09:48:16Z</time>
      </trkpt>
      <trkpt lat="45.87673" lon="4.83529">
        <ele>169</ele>
        <time>2017-04-22T09:48:17Z</time>
      </trkpt>
      <trkpt lat="45.87675" lon="4.83536">
        <ele>169</ele>
        <time>2017-04-22T09:48:18Z</time>
      </trkpt>
      <trkpt lat="45.87675" lon="4.83543">
        <ele>168</ele>
        <time>2017-04-22T09:48:19Z</time>
      </trkpt>
      <trkpt lat="45.87675" lon="4.8355">
        <ele>168</ele>
        <time>2017-04-22T09:48:20Z</time>
      </trkpt>
      <trkpt lat="45.87676" lon="4.83557">
        <ele>167</ele>
        <time>2017-04-22T09:48:21Z</time>
      </trkpt>
      <trkpt lat="45.87677" lon="4.83564">
        <ele>167</ele>
        <time>2017-04-22T09:48:22Z</time>
      </trkpt>
      <trkpt lat="45.87677" lon="4.83571">
        <ele>167</ele>
        <time>2017-04-22T09:48:23Z</time>
      </trkpt>
      <trkpt lat="45.87677" lon="4.83578">
        <ele>166</ele>
        <time>2017-04-22T09:48:24Z</time>
      </trkpt>
      <trkpt lat="45.87678" lon="4.83586">
        <ele>165</ele>
        <time>2017-04-22T09:48:25Z</time>
      </trkpt>
      <trkpt lat="45.87678" lon="4.83593">
        <ele>165</ele>
        <time>2017-04-22T09:48:26Z</time>
      </trkpt>
      <trkpt lat="45.87678" lon="4.836">
        <ele>165</ele>
        <time>2017-04-22T09:48:27Z</time>
      </trkpt>
      <trkpt lat="45.87678" lon="4.83607">
        <ele>165</ele>
        <time>2017-04-22T09:48:28Z</time>
      </trkpt>
      <trkpt lat="45.87679" lon="4.83614">
        <ele>165</ele>
        <time>2017-04-22T09:48:29Z</time>
      </trkpt>
      <trkpt lat="45.87679" lon="4.8362">
        <ele>165</ele>
        <time>2017-04-22T09:48:30Z</time>
      </trkpt>
      <trkpt lat="45.87679" lon="4.83627">
        <ele>165</ele>
        <time>2017-04-22T09:48:31Z</time>
      </trkpt>
      <trkpt lat="45.8768" lon="4.83634">
        <ele>165</ele>
        <time>2017-04-22T09:48:32Z</time>
      </trkpt>
      <trkpt lat="45.8768" lon="4.83641">
        <ele>165</ele>
        <time>2017-04-22T09:48:33Z</time>
      </trkpt>
      <trkpt lat="45.87681" lon="4.83647">
        <ele>165</ele>
        <time>2017-04-22T09:48:34Z</time>
      </trkpt>
      <trkpt lat="45.87682" lon="4.83654">
        <ele>165</ele>
        <time>2017-04-22T09:48:35Z</time>
      </trkpt>
      <trkpt lat="45.87683" lon="4.83661">
        <ele>165</ele>
        <time>2017-04-22T09:48:36Z</time>
      </trkpt>
      <trkpt lat="45.87683" lon="4.83668">
        <ele>165</ele>
        <time>2017-04-22T09:48:37Z</time>
      </trkpt>
      <trkpt lat="45.87684" lon="4.83676">
        <ele>165</ele>
        <time>2017-04-22T09:48:38Z</time>
      </trkpt>
      <trkpt lat="45.87685" lon="4.83683">
        <ele>165</ele>
        <time>2017-04-22T09:48:39Z</time>
      </trkpt>
      <trkpt lat="45.87685" lon="4.8369">
        <ele>165</ele>
        <time>2017-04-22T09:48:40Z</time>
      </trkpt>
      <trkpt lat="45.87686" lon="4.83697">
        <ele>165</ele>
        <time>2017-04-22T09:48:41Z</time>
      </trkpt>
      <trkpt lat="45.87687" lon="4.83705">
        <ele>165</ele>
        <time>2017-04-22T09:48:42Z</time>
      </trkpt>
      <trkpt lat="45.87688" lon="4.83712">
        <ele>165</ele>
        <time>2017-04-22T09:48:43Z</time>
      </trkpt>
      <trkpt lat="45.87689" lon="4.8372">
        <ele>165</ele>
        <time>2017-04-22T09:48:44Z</time>
      </trkpt>
      <trkpt lat="45.87689" lon="4.83728">
        <ele>165</ele>
        <time>2017-04-22T09:48:45Z</time>
      </trkpt>
      <trkpt lat="45.8769" lon="4.83736">
        <ele>165</ele>
        <time>2017-04-22T09:48:46Z</time>
      </trkpt>
      <trkpt lat="45.8769" lon="4.83746">
        <ele>165</ele>
        <time>2017-04-22T09:48:47Z</time>
      </trkpt>
      <trkpt lat="45.87689" lon="4.83755">
        <ele>167</ele>
        <time>2017-04-22T09:48:48Z</time>
      </trkpt>
      <trkpt lat="45.8769" lon="4.83764">
        <ele>167</ele>
        <time>2017-04-22T09:48:49Z</time>
      </trkpt>
      <trkpt lat="45.87691" lon="4.83774">
        <ele>167</ele>
        <time>2017-04-22T09:48:50Z</time>
      </trkpt>
      <trkpt lat="45.87691" lon="4.83783">
        <ele>168</ele>
        <time>2017-04-22T09:48:51Z</time>
      </trkpt>
      <trkpt lat="45.87692" lon="4.83791">
        <ele>168</ele>
        <time>2017-04-22T09:48:52Z</time>
      </trkpt>
      <trkpt lat="45.87693" lon="4.83799">
        <ele>169</ele>
        <time>2017-04-22T09:48:53Z</time>
      </trkpt>
      <trkpt lat="45.87694" lon="4.83807">
        <ele>169</ele>
        <time>2017-04-22T09:48:54Z</time>
      </trkpt>
      <trkpt lat="45.87694" lon="4.83814">
        <ele>169</ele>
        <time>2017-04-22T09:48:55Z</time>
      </trkpt>
      <trkpt lat="45.87695" lon="4.83821">
        <ele>169</ele>
        <time>2017-04-22T09:48:56Z</time>
      </trkpt>
      <trkpt lat="45.87695" lon="4.83828">
        <ele>170</ele>
        <time>2017-04-22T09:48:57Z</time>
      </trkpt>
      <trkpt lat="45.87695" lon="4.83835">
        <ele>172</ele>
        <time>2017-04-22T09:48:58Z</time>
      </trkpt>
      <trkpt lat="45.87696" lon="4.83842">
        <ele>172</ele>
        <time>2017-04-22T09:48:59Z</time>
      </trkpt>
      <trkpt lat="45.87697" lon="4.83848">
        <ele>172</ele>
        <time>2017-04-22T09:49:00Z</time>
      </trkpt>
      <trkpt lat="45.87701" lon="4.83854">
        <ele>172</ele>
        <time>2017-04-22T09:49:01Z</time>
      </trkpt>
      <trkpt lat="45.87705" lon="4.83858">
        <ele>172</ele>
        <time>2017-04-22T09:49:02Z</time>
      </trkpt>
      <trkpt lat="45.8771" lon="4.83859">
        <ele>172</ele>
        <time>2017-04-22T09:49:03Z</time>
      </trkpt>
      <trkpt lat="45.87718" lon="4.83858">
        <ele>172</ele>
        <time>2017-04-22T09:49:05Z</time>
      </trkpt>
      <trkpt lat="45.87722" lon="4.83857">
        <ele>172</ele>
        <time>2017-04-22T09:49:06Z</time>
      </trkpt>
      <trkpt lat="45.87727" lon="4.83856">
        <ele>172</ele>
        <time>2017-04-22T09:49:07Z</time>
      </trkpt>
      <trkpt lat="45.87731" lon="4.83855">
        <ele>172</ele>
        <time>2017-04-22T09:49:08Z</time>
      </trkpt>
      <trkpt lat="45.87736" lon="4.83853">
        <ele>172</ele>
        <time>2017-04-22T09:49:09Z</time>
      </trkpt>
      <trkpt lat="45.87741" lon="4.83852">
        <ele>172</ele>
        <time>2017-04-22T09:49:10Z</time>
      </trkpt>
      <trkpt lat="45.87745" lon="4.83849">
        <ele>172</ele>
        <time>2017-04-22T09:49:11Z</time>
      </trkpt>
      <trkpt lat="45.8775" lon="4.83847">
        <ele>171</ele>
        <time>2017-04-22T09:49:12Z</time>
      </trkpt>
      <trkpt lat="45.87756" lon="4.83844">
        <ele>171</ele>
        <time>2017-04-22T09:49:13Z</time>
      </trkpt>
      <trkpt lat="45.8776" lon="4.83841">
        <ele>171</ele>
        <time>2017-04-22T09:49:14Z</time>
      </trkpt>
      <trkpt lat="45.87765" lon="4.83838">
        <ele>172</ele>
        <time>2017-04-22T09:49:15Z</time>
      </trkpt>
      <trkpt lat="45.8777" lon="4.83834">
        <ele>172</ele>
        <time>2017-04-22T09:49:16Z</time>
      </trkpt>
      <trkpt lat="45.87774" lon="4.8383">
        <ele>170</ele>
        <time>2017-04-22T09:49:17Z</time>
      </trkpt>
      <trkpt lat="45.87779" lon="4.83827">
        <ele>170</ele>
        <time>2017-04-22T09:49:18Z</time>
      </trkpt>
      <trkpt lat="45.87784" lon="4.83822">
        <ele>170</ele>
        <time>2017-04-22T09:49:19Z</time>
      </trkpt>
      <trkpt lat="45.87788" lon="4.83818">
        <ele>169</ele>
        <time>2017-04-22T09:49:20Z</time>
      </trkpt>
      <trkpt lat="45.87793" lon="4.83813">
        <ele>169</ele>
        <time>2017-04-22T09:49:21Z</time>
      </trkpt>
      <trkpt lat="45.87797" lon="4.83808">
        <ele>169</ele>
        <time>2017-04-22T09:49:22Z</time>
      </trkpt>
      <trkpt lat="45.87802" lon="4.83804">
        <ele>169</ele>
        <time>2017-04-22T09:49:23Z</time>
      </trkpt>
      <trkpt lat="45.87806" lon="4.83799">
        <ele>169</ele>
        <time>2017-04-22T09:49:24Z</time>
      </trkpt>
      <trkpt lat="45.87811" lon="4.83795">
        <ele>169</ele>
        <time>2017-04-22T09:49:25Z</time>
      </trkpt>
      <trkpt lat="45.87815" lon="4.8379">
        <ele>169</ele>
        <time>2017-04-22T09:49:26Z</time>
      </trkpt>
      <trkpt lat="45.87819" lon="4.83786">
        <ele>168</ele>
        <time>2017-04-22T09:49:27Z</time>
      </trkpt>
      <trkpt lat="45.87823" lon="4.83781">
        <ele>168</ele>
        <time>2017-04-22T09:49:28Z</time>
      </trkpt>
      <trkpt lat="45.87827" lon="4.83776">
        <ele>168</ele>
        <time>2017-04-22T09:49:29Z</time>
      </trkpt>
      <trkpt lat="45.87831" lon="4.83772">
        <ele>167</ele>
        <time>2017-04-22T09:49:30Z</time>
      </trkpt>
      <trkpt lat="45.87835" lon="4.83768">
        <ele>168</ele>
        <time>2017-04-22T09:49:31Z</time>
      </trkpt>
      <trkpt lat="45.87839" lon="4.83763">
        <ele>168</ele>
        <time>2017-04-22T09:49:32Z</time>
      </trkpt>
      <trkpt lat="45.87844" lon="4.83759">
        <ele>168</ele>
        <time>2017-04-22T09:49:33Z</time>
      </trkpt>
      <trkpt lat="45.87849" lon="4.83755">
        <ele>168</ele>
        <time>2017-04-22T09:49:34Z</time>
      </trkpt>
      <trkpt lat="45.87853" lon="4.8375">
        <ele>168</ele>
        <time>2017-04-22T09:49:35Z</time>
      </trkpt>
      <trkpt lat="45.87858" lon="4.83746">
        <ele>167</ele>
        <time>2017-04-22T09:49:36Z</time>
      </trkpt>
      <trkpt lat="45.87862" lon="4.83741">
        <ele>168</ele>
        <time>2017-04-22T09:49:37Z</time>
      </trkpt>
      <trkpt lat="45.87867" lon="4.83736">
        <ele>168</ele>
        <time>2017-04-22T09:49:38Z</time>
      </trkpt>
      <trkpt lat="45.87871" lon="4.83731">
        <ele>168</ele>
        <time>2017-04-22T09:49:39Z</time>
      </trkpt>
      <trkpt lat="45.87876" lon="4.83727">
        <ele>169</ele>
        <time>2017-04-22T09:49:40Z</time>
      </trkpt>
      <trkpt lat="45.8788" lon="4.83723">
        <ele>169</ele>
        <time>2017-04-22T09:49:41Z</time>
      </trkpt>
      <trkpt lat="45.87884" lon="4.83719">
        <ele>169</ele>
        <time>2017-04-22T09:49:42Z</time>
      </trkpt>
      <trkpt lat="45.87888" lon="4.83715">
        <ele>169</ele>
        <time>2017-04-22T09:49:43Z</time>
      </trkpt>
      <trkpt lat="45.87892" lon="4.83711">
        <ele>169</ele>
        <time>2017-04-22T09:49:44Z</time>
      </trkpt>
      <trkpt lat="45.87896" lon="4.83708">
        <ele>169</ele>
        <time>2017-04-22T09:49:45Z</time>
      </trkpt>
      <trkpt lat="45.879" lon="4.83704">
        <ele>169</ele>
        <time>2017-04-22T09:49:46Z</time>
      </trkpt>
      <trkpt lat="45.87907" lon="4.83698">
        <ele>170</ele>
        <time>2017-04-22T09:49:48Z</time>
      </trkpt>
      <trkpt lat="45.8791" lon="4.83696">
        <ele>170</ele>
        <time>2017-04-22T09:49:49Z</time>
      </trkpt>
      <trkpt lat="45.87916" lon="4.83689">
        <ele>170</ele>
        <time>2017-04-22T09:49:51Z</time>
      </trkpt>
      <trkpt lat="45.8792" lon="4.83686">
        <ele>171</ele>
        <time>2017-04-22T09:49:52Z</time>
      </trkpt>
      <trkpt lat="45.87924" lon="4.83682">
        <ele>171</ele>
        <time>2017-04-22T09:49:53Z</time>
      </trkpt>
      <trkpt lat="45.87928" lon="4.83678">
        <ele>171</ele>
        <time>2017-04-22T09:49:54Z</time>
      </trkpt>
      <trkpt lat="45.87932" lon="4.83673">
        <ele>171</ele>
        <time>2017-04-22T09:49:55Z</time>
      </trkpt>
      <trkpt lat="45.87936" lon="4.83669">
        <ele>171</ele>
        <time>2017-04-22T09:49:56Z</time>
      </trkpt>
      <trkpt lat="45.87941" lon="4.83665">
        <ele>171</ele>
        <time>2017-04-22T09:49:57Z</time>
      </trkpt>
      <trkpt lat="45.87946" lon="4.83661">
        <ele>171</ele>
        <time>2017-04-22T09:49:58Z</time>
      </trkpt>
      <trkpt lat="45.8795" lon="4.83656">
        <ele>171</ele>
        <time>2017-04-22T09:49:59Z</time>
      </trkpt>
      <trkpt lat="45.87955" lon="4.83651">
        <ele>171</ele>
        <time>2017-04-22T09:50:00Z</time>
      </trkpt>
      <trkpt lat="45.87959" lon="4.83647">
        <ele>171</ele>
        <time>2017-04-22T09:50:01Z</time>
      </trkpt>
      <trkpt lat="45.87964" lon="4.83642">
        <ele>171</ele>
        <time>2017-04-22T09:50:02Z</time>
      </trkpt>
      <trkpt lat="45.87969" lon="4.83638">
        <ele>171</ele>
        <time>2017-04-22T09:50:03Z</time>
      </trkpt>
      <trkpt lat="45.87974" lon="4.83633">
        <ele>171</ele>
        <time>2017-04-22T09:50:04Z</time>
      </trkpt>
      <trkpt lat="45.87978" lon="4.83629">
        <ele>171</ele>
        <time>2017-04-22T09:50:05Z</time>
      </trkpt>
      <trkpt lat="45.87983" lon="4.83625">
        <ele>171</ele>
        <time>2017-04-22T09:50:06Z</time>
      </trkpt>
      <trkpt lat="45.87987" lon="4.8362">
        <ele>171</ele>
        <time>2017-04-22T09:50:07Z</time>
      </trkpt>
      <trkpt lat="45.87992" lon="4.83615">
        <ele>171</ele>
        <time>2017-04-22T09:50:08Z</time>
      </trkpt>
      <trkpt lat="45.87997" lon="4.83611">
        <ele>171</ele>
        <time>2017-04-22T09:50:09Z</time>
      </trkpt>
      <trkpt lat="45.88002" lon="4.83606">
        <ele>172</ele>
        <time>2017-04-22T09:50:10Z</time>
      </trkpt>
      <trkpt lat="45.88007" lon="4.83601">
        <ele>171</ele>
        <time>2017-04-22T09:50:11Z</time>
      </trkpt>
      <trkpt lat="45.88011" lon="4.83596">
        <ele>171</ele>
        <time>2017-04-22T09:50:12Z</time>
      </trkpt>
      <trkpt lat="45.88016" lon="4.83591">
        <ele>172</ele>
        <time>2017-04-22T09:50:13Z</time>
      </trkpt>
      <trkpt lat="45.88021" lon="4.83586">
        <ele>172</ele>
        <time>2017-04-22T09:50:14Z</time>
      </trkpt>
      <trkpt lat="45.88026" lon="4.83581">
        <ele>172</ele>
        <time>2017-04-22T09:50:15Z</time>
      </trkpt>
      <trkpt lat="45.88031" lon="4.83576">
        <ele>172</ele>
        <time>2017-04-22T09:50:16Z</time>
      </trkpt>
      <trkpt lat="45.88036" lon="4.83571">
        <ele>172</ele>
        <time>2017-04-22T09:50:17Z</time>
      </trkpt>
      <trkpt lat="45.88041" lon="4.83567">
        <ele>172</ele>
        <time>2017-04-22T09:50:18Z</time>
      </trkpt>
      <trkpt lat="45.88045" lon="4.83562">
        <ele>172</ele>
        <time>2017-04-22T09:50:19Z</time>
      </trkpt>
      <trkpt lat="45.88051" lon="4.83557">
        <ele>172</ele>
        <time>2017-04-22T09:50:20Z</time>
      </trkpt>
      <trkpt lat="45.88055" lon="4.83551">
        <ele>173</ele>
        <time>2017-04-22T09:50:21Z</time>
      </trkpt>
      <trkpt lat="45.88058" lon="4.83545">
        <ele>173</ele>
        <time>2017-04-22T09:50:22Z</time>
      </trkpt>
      <trkpt lat="45.88062" lon="4.83539">
        <ele>173</ele>
        <time>2017-04-22T09:50:23Z</time>
      </trkpt>
      <trkpt lat="45.88067" lon="4.83533">
        <ele>173</ele>
        <time>2017-04-22T09:50:24Z</time>
      </trkpt>
      <trkpt lat="45.88072" lon="4.83528">
        <ele>173</ele>
        <time>2017-04-22T09:50:25Z</time>
      </trkpt>
      <trkpt lat="45.88077" lon="4.83524">
        <ele>173</ele>
        <time>2017-04-22T09:50:26Z</time>
      </trkpt>
      <trkpt lat="45.88082" lon="4.8352">
        <ele>173</ele>
        <time>2017-04-22T09:50:27Z</time>
      </trkpt>
      <trkpt lat="45.88086" lon="4.83515">
        <ele>173</ele>
        <time>2017-04-22T09:50:28Z</time>
      </trkpt>
      <trkpt lat="45.8809" lon="4.83511">
        <ele>173</ele>
        <time>2017-04-22T09:50:29Z</time>
      </trkpt>
      <trkpt lat="45.88094" lon="4.83507">
        <ele>173</ele>
        <time>2017-04-22T09:50:30Z</time>
      </trkpt>
      <trkpt lat="45.88098" lon="4.83504">
        <ele>173</ele>
        <time>2017-04-22T09:50:31Z</time>
      </trkpt>
      <trkpt lat="45.88102" lon="4.835">
        <ele>173</ele>
        <time>2017-04-22T09:50:32Z</time>
      </trkpt>
      <trkpt lat="45.88106" lon="4.83496">
        <ele>172</ele>
        <time>2017-04-22T09:50:33Z</time>
      </trkpt>
      <trkpt lat="45.88111" lon="4.83493">
        <ele>172</ele>
        <time>2017-04-22T09:50:34Z</time>
      </trkpt>
      <trkpt lat="45.88115" lon="4.83489">
        <ele>172</ele>
        <time>2017-04-22T09:50:35Z</time>
      </trkpt>
      <trkpt lat="45.8812" lon="4.83486">
        <ele>172</ele>
        <time>2017-04-22T09:50:36Z</time>
      </trkpt>
      <trkpt lat="45.88125" lon="4.83482">
        <ele>172</ele>
        <time>2017-04-22T09:50:37Z</time>
      </trkpt>
      <trkpt lat="45.8813" lon="4.83478">
        <ele>172</ele>
        <time>2017-04-22T09:50:38Z</time>
      </trkpt>
      <trkpt lat="45.88135" lon="4.83474">
        <ele>172</ele>
        <time>2017-04-22T09:50:39Z</time>
      </trkpt>
      <trkpt lat="45.8814" lon="4.8347">
        <ele>172</ele>
        <time>2017-04-22T09:50:40Z</time>
      </trkpt>
      <trkpt lat="45.88145" lon="4.83466">
        <ele>171</ele>
        <time>2017-04-22T09:50:41Z</time>
      </trkpt>
      <trkpt lat="45.88149" lon="4.83462">
        <ele>171</ele>
        <time>2017-04-22T09:50:42Z</time>
      </trkpt>
      <trkpt lat="45.88154" lon="4.83459">
        <ele>171</ele>
        <time>2017-04-22T09:50:43Z</time>
      </trkpt>
      <trkpt lat="45.88159" lon="4.83455">
        <ele>171</ele>
        <time>2017-04-22T09:50:44Z</time>
      </trkpt>
      <trkpt lat="45.88163" lon="4.83452">
        <ele>171</ele>
        <time>2017-04-22T09:50:45Z</time>
      </trkpt>
      <trkpt lat="45.88168" lon="4.8345">
        <ele>171</ele>
        <time>2017-04-22T09:50:46Z</time>
      </trkpt>
      <trkpt lat="45.88173" lon="4.83446">
        <ele>171</ele>
        <time>2017-04-22T09:50:47Z</time>
      </trkpt>
      <trkpt lat="45.88178" lon="4.83443">
        <ele>171</ele>
        <time>2017-04-22T09:50:48Z</time>
      </trkpt>
      <trkpt lat="45.88183" lon="4.83439">
        <ele>171</ele>
        <time>2017-04-22T09:50:49Z</time>
      </trkpt>
      <trkpt lat="45.88187" lon="4.83436">
        <ele>171</ele>
        <time>2017-04-22T09:50:50Z</time>
      </trkpt>
      <trkpt lat="45.88193" lon="4.83433">
        <ele>171</ele>
        <time>2017-04-22T09:50:51Z</time>
      </trkpt>
      <trkpt lat="45.88198" lon="4.8343">
        <ele>171</ele>
        <time>2017-04-22T09:50:52Z</time>
      </trkpt>
      <trkpt lat="45.88203" lon="4.83428">
        <ele>171</ele>
        <time>2017-04-22T09:50:53Z</time>
      </trkpt>
      <trkpt lat="45.88209" lon="4.83426">
        <ele>172</ele>
        <time>2017-04-22T09:50:54Z</time>
      </trkpt>
      <trkpt lat="45.88214" lon="4.83425">
        <ele>172</ele>
        <time>2017-04-22T09:50:55Z</time>
      </trkpt>
      <trkpt lat="45.88219" lon="4.83423">
        <ele>172</ele>
        <time>2017-04-22T09:50:56Z</time>
      </trkpt>
      <trkpt lat="45.88224" lon="4.83421">
        <ele>172</ele>
        <time>2017-04-22T09:50:57Z</time>
      </trkpt>
      <trkpt lat="45.88229" lon="4.83419">
        <ele>172</ele>
        <time>2017-04-22T09:50:58Z</time>
      </trkpt>
      <trkpt lat="45.88234" lon="4.83417">
        <ele>172</ele>
        <time>2017-04-22T09:50:59Z</time>
      </trkpt>
      <trkpt lat="45.88239" lon="4.83415">
        <ele>172</ele>
        <time>2017-04-22T09:51:00Z</time>
      </trkpt>
      <trkpt lat="45.88245" lon="4.83412">
        <ele>172</ele>
        <time>2017-04-22T09:51:01Z</time>
      </trkpt>
      <trkpt lat="45.8825" lon="4.83411">
        <ele>172</ele>
        <time>2017-04-22T09:51:02Z</time>
      </trkpt>
      <trkpt lat="45.88256" lon="4.83409">
        <ele>172</ele>
        <time>2017-04-22T09:51:03Z</time>
      </trkpt>
      <trkpt lat="45.88261" lon="4.83407">
        <ele>172</ele>
        <time>2017-04-22T09:51:04Z</time>
      </trkpt>
      <trkpt lat="45.88267" lon="4.83405">
        <ele>172</ele>
        <time>2017-04-22T09:51:05Z</time>
      </trkpt>
      <trkpt lat="45.88273" lon="4.83402">
        <ele>172</ele>
        <time>2017-04-22T09:51:06Z</time>
      </trkpt>
      <trkpt lat="45.88278" lon="4.834">
        <ele>172</ele>
        <time>2017-04-22T09:51:07Z</time>
      </trkpt>
      <trkpt lat="45.88284" lon="4.83398">
        <ele>172</ele>
        <time>2017-04-22T09:51:08Z</time>
      </trkpt>
      <trkpt lat="45.8829" lon="4.83396">
        <ele>172</ele>
        <time>2017-04-22T09:51:09Z</time>
      </trkpt>
      <trkpt lat="45.88295" lon="4.83394">
        <ele>172</ele>
        <time>2017-04-22T09:51:10Z</time>
      </trkpt>
      <trkpt lat="45.883" lon="4.83392">
        <ele>172</ele>
        <time>2017-04-22T09:51:11Z</time>
      </trkpt>
      <trkpt lat="45.88305" lon="4.83389">
        <ele>172</ele>
        <time>2017-04-22T09:51:12Z</time>
      </trkpt>
      <trkpt lat="45.8831" lon="4.83387">
        <ele>172</ele>
        <time>2017-04-22T09:51:13Z</time>
      </trkpt>
      <trkpt lat="45.88315" lon="4.83385">
        <ele>172</ele>
        <time>2017-04-22T09:51:14Z</time>
      </trkpt>
      <trkpt lat="45.8832" lon="4.83384">
        <ele>172</ele>
        <time>2017-04-22T09:51:15Z</time>
      </trkpt>
      <trkpt lat="45.88325" lon="4.83382">
        <ele>172</ele>
        <time>2017-04-22T09:51:16Z</time>
      </trkpt>
      <trkpt lat="45.8833" lon="4.8338">
        <ele>172</ele>
        <time>2017-04-22T09:51:17Z</time>
      </trkpt>
      <trkpt lat="45.88335" lon="4.83378">
        <ele>172</ele>
        <time>2017-04-22T09:51:18Z</time>
      </trkpt>
      <trkpt lat="45.88341" lon="4.83376">
        <ele>172</ele>
        <time>2017-04-22T09:51:19Z</time>
      </trkpt>
      <trkpt lat="45.88346" lon="4.83374">
        <ele>172</ele>
        <time>2017-04-22T09:51:20Z</time>
      </trkpt>
      <trkpt lat="45.88352" lon="4.83372">
        <ele>172</ele>
        <time>2017-04-22T09:51:21Z</time>
      </trkpt>
      <trkpt lat="45.88357" lon="4.83371">
        <ele>172</ele>
        <time>2017-04-22T09:51:22Z</time>
      </trkpt>
      <trkpt lat="45.88363" lon="4.83368">
        <ele>172</ele>
        <time>2017-04-22T09:51:23Z</time>
      </trkpt>
      <trkpt lat="45.88368" lon="4.83366">
        <ele>172</ele>
        <time>2017-04-22T09:51:24Z</time>
      </trkpt>
      <trkpt lat="45.88374" lon="4.83363">
        <ele>172</ele>
        <time>2017-04-22T09:51:25Z</time>
      </trkpt>
      <trkpt lat="45.8838" lon="4.8336">
        <ele>172</ele>
        <time>2017-04-22T09:51:26Z</time>
      </trkpt>
      <trkpt lat="45.88385" lon="4.83358">
        <ele>172</ele>
        <time>2017-04-22T09:51:27Z</time>
      </trkpt>
      <trkpt lat="45.8839" lon="4.83356">
        <ele>172</ele>
        <time>2017-04-22T09:51:28Z</time>
      </trkpt>
      <trkpt lat="45.88395" lon="4.83353">
        <ele>172</ele>
        <time>2017-04-22T09:51:29Z</time>
      </trkpt>
      <trkpt lat="45.884" lon="4.83352">
        <ele>172</ele>
        <time>2017-04-22T09:51:30Z</time>
      </trkpt>
      <trkpt lat="45.88405" lon="4.83349">
        <ele>172</ele>
        <time>2017-04-22T09:51:31Z</time>
      </trkpt>
      <trkpt lat="45.8841" lon="4.83348">
        <ele>172</ele>
        <time>2017-04-22T09:51:32Z</time>
      </trkpt>
      <trkpt lat="45.88415" lon="4.83346">
        <ele>172</ele>
        <time>2017-04-22T09:51:33Z</time>
      </trkpt>
      <trkpt lat="45.8842" lon="4.83344">
        <ele>172</ele>
        <time>2017-04-22T09:51:34Z</time>
      </trkpt>
      <trkpt lat="45.88424" lon="4.83342">
        <ele>172</ele>
        <time>2017-04-22T09:51:35Z</time>
      </trkpt>
      <trkpt lat="45.8843" lon="4.83339">
        <ele>172</ele>
        <time>2017-04-22T09:51:36Z</time>
      </trkpt>
      <trkpt lat="45.88436" lon="4.83336">
        <ele>172</ele>
        <time>2017-04-22T09:51:37Z</time>
      </trkpt>
      <trkpt lat="45.88442" lon="4.83333">
        <ele>172</ele>
        <time>2017-04-22T09:51:38Z</time>
      </trkpt>
      <trkpt lat="45.88447" lon="4.8333">
        <ele>172</ele>
        <time>2017-04-22T09:51:39Z</time>
      </trkpt>
      <trkpt lat="45.88453" lon="4.83327">
        <ele>172</ele>
        <time>2017-04-22T09:51:40Z</time>
      </trkpt>
      <trkpt lat="45.88458" lon="4.83324">
        <ele>172</ele>
        <time>2017-04-22T09:51:41Z</time>
      </trkpt>
      <trkpt lat="45.88463" lon="4.83321">
        <ele>172</ele>
        <time>2017-04-22T09:51:42Z</time>
      </trkpt>
      <trkpt lat="45.88468" lon="4.83318">
        <ele>172</ele>
        <time>2017-04-22T09:51:43Z</time>
      </trkpt>
      <trkpt lat="45.88473" lon="4.83316">
        <ele>172</ele>
        <time>2017-04-22T09:51:44Z</time>
      </trkpt>
      <trkpt lat="45.88477" lon="4.83313">
        <ele>172</ele>
        <time>2017-04-22T09:51:45Z</time>
      </trkpt>
      <trkpt lat="45.88482" lon="4.8331">
        <ele>172</ele>
        <time>2017-04-22T09:51:46Z</time>
      </trkpt>
      <trkpt lat="45.88486" lon="4.83307">
        <ele>172</ele>
        <time>2017-04-22T09:51:47Z</time>
      </trkpt>
      <trkpt lat="45.88491" lon="4.83305">
        <ele>172</ele>
        <time>2017-04-22T09:51:48Z</time>
      </trkpt>
      <trkpt lat="45.88495" lon="4.83302">
        <ele>172</ele>
        <time>2017-04-22T09:51:49Z</time>
      </trkpt>
      <trkpt lat="45.885" lon="4.83299">
        <ele>172</ele>
        <time>2017-04-22T09:51:50Z</time>
      </trkpt>
      <trkpt lat="45.88505" lon="4.83296">
        <ele>172</ele>
        <time>2017-04-22T09:51:51Z</time>
      </trkpt>
      <trkpt lat="45.8851" lon="4.83293">
        <ele>172</ele>
        <time>2017-04-22T09:51:52Z</time>
      </trkpt>
      <trkpt lat="45.88514" lon="4.83291">
        <ele>172</ele>
        <time>2017-04-22T09:51:53Z</time>
      </trkpt>
      <trkpt lat="45.88519" lon="4.83288">
        <ele>172</ele>
        <time>2017-04-22T09:51:54Z</time>
      </trkpt>
      <trkpt lat="45.88523" lon="4.83284">
        <ele>172</ele>
        <time>2017-04-22T09:51:55Z</time>
      </trkpt>
      <trkpt lat="45.88527" lon="4.83281">
        <ele>172</ele>
        <time>2017-04-22T09:51:56Z</time>
      </trkpt>
      <trkpt lat="45.88532" lon="4.83278">
        <ele>172</ele>
        <time>2017-04-22T09:51:57Z</time>
      </trkpt>
      <trkpt lat="45.88537" lon="4.83275">
        <ele>172</ele>
        <time>2017-04-22T09:51:58Z</time>
      </trkpt>
      <trkpt lat="45.88541" lon="4.83272">
        <ele>172</ele>
        <time>2017-04-22T09:51:59Z</time>
      </trkpt>
      <trkpt lat="45.88546" lon="4.83268">
        <ele>172</ele>
        <time>2017-04-22T09:52:00Z</time>
      </trkpt>
      <trkpt lat="45.8855" lon="4.83264">
        <ele>172</ele>
        <time>2017-04-22T09:52:01Z</time>
      </trkpt>
      <trkpt lat="45.88554" lon="4.83259">
        <ele>172</ele>
        <time>2017-04-22T09:52:02Z</time>
      </trkpt>
      <trkpt lat="45.88557" lon="4.83253">
        <ele>172</ele>
        <time>2017-04-22T09:52:03Z</time>
      </trkpt>
      <trkpt lat="45.88561" lon="4.83248">
        <ele>172</ele>
        <time>2017-04-22T09:52:04Z</time>
      </trkpt>
      <trkpt lat="45.88564" lon="4.83243">
        <ele>172</ele>
        <time>2017-04-22T09:52:05Z</time>
      </trkpt>
      <trkpt lat="45.88568" lon="4.83238">
        <ele>172</ele>
        <time>2017-04-22T09:52:06Z</time>
      </trkpt>
      <trkpt lat="45.88572" lon="4.83233">
        <ele>172</ele>
        <time>2017-04-22T09:52:07Z</time>
      </trkpt>
      <trkpt lat="45.88575" lon="4.83228">
        <ele>172</ele>
        <time>2017-04-22T09:52:08Z</time>
      </trkpt>
      <trkpt lat="45.88579" lon="4.83222">
        <ele>172</ele>
        <time>2017-04-22T09:52:09Z</time>
      </trkpt>
      <trkpt lat="45.88583" lon="4.83217">
        <ele>172</ele>
        <time>2017-04-22T09:52:10Z</time>
      </trkpt>
      <trkpt lat="45.88586" lon="4.83212">
        <ele>172</ele>
        <time>2017-04-22T09:52:11Z</time>
      </trkpt>
      <trkpt lat="45.88589" lon="4.83207">
        <ele>172</ele>
        <time>2017-04-22T09:52:12Z</time>
      </trkpt>
      <trkpt lat="45.88593" lon="4.83202">
        <ele>172</ele>
        <time>2017-04-22T09:52:13Z</time>
      </trkpt>
      <trkpt lat="45.88597" lon="4.83198">
        <ele>172</ele>
        <time>2017-04-22T09:52:14Z</time>
      </trkpt>
      <trkpt lat="45.88601" lon="4.83193">
        <ele>172</ele>
        <time>2017-04-22T09:52:15Z</time>
      </trkpt>
      <trkpt lat="45.88605" lon="4.83189">
        <ele>172</ele>
        <time>2017-04-22T09:52:16Z</time>
      </trkpt>
      <trkpt lat="45.8861" lon="4.83184">
        <ele>172</ele>
        <time>2017-04-22T09:52:17Z</time>
      </trkpt>
      <trkpt lat="45.88614" lon="4.83179">
        <ele>172</ele>
        <time>2017-04-22T09:52:18Z</time>
      </trkpt>
      <trkpt lat="45.88618" lon="4.83175">
        <ele>172</ele>
        <time>2017-04-22T09:52:19Z</time>
      </trkpt>
      <trkpt lat="45.88622" lon="4.83169">
        <ele>172</ele>
        <time>2017-04-22T09:52:20Z</time>
      </trkpt>
      <trkpt lat="45.88626" lon="4.83164">
        <ele>172</ele>
        <time>2017-04-22T09:52:21Z</time>
      </trkpt>
      <trkpt lat="45.8863" lon="4.83159">
        <ele>173</ele>
        <time>2017-04-22T09:52:22Z</time>
      </trkpt>
      <trkpt lat="45.88634" lon="4.83154">
        <ele>173</ele>
        <time>2017-04-22T09:52:23Z</time>
      </trkpt>
      <trkpt lat="45.88638" lon="4.83149">
        <ele>173</ele>
        <time>2017-04-22T09:52:24Z</time>
      </trkpt>
      <trkpt lat="45.88643" lon="4.83144">
        <ele>173</ele>
        <time>2017-04-22T09:52:25Z</time>
      </trkpt>
      <trkpt lat="45.88647" lon="4.83139">
        <ele>173</ele>
        <time>2017-04-22T09:52:26Z</time>
      </trkpt>
      <trkpt lat="45.88651" lon="4.83134">
        <ele>173</ele>
        <time>2017-04-22T09:52:27Z</time>
      </trkpt>
      <trkpt lat="45.88655" lon="4.83128">
        <ele>173</ele>
        <time>2017-04-22T09:52:28Z</time>
      </trkpt>
      <trkpt lat="45.88659" lon="4.83123">
        <ele>173</ele>
        <time>2017-04-22T09:52:29Z</time>
      </trkpt>
      <trkpt lat="45.88664" lon="4.83118">
        <ele>173</ele>
        <time>2017-04-22T09:52:30Z</time>
      </trkpt>
      <trkpt lat="45.88667" lon="4.83112">
        <ele>174</ele>
        <time>2017-04-22T09:52:31Z</time>
      </trkpt>
      <trkpt lat="45.88672" lon="4.83107">
        <ele>174</ele>
        <time>2017-04-22T09:52:32Z</time>
      </trkpt>
      <trkpt lat="45.88675" lon="4.83102">
        <ele>174</ele>
        <time>2017-04-22T09:52:33Z</time>
      </trkpt>
      <trkpt lat="45.88679" lon="4.83097">
        <ele>174</ele>
        <time>2017-04-22T09:52:34Z</time>
      </trkpt>
      <trkpt lat="45.88683" lon="4.83093">
        <ele>174</ele>
        <time>2017-04-22T09:52:35Z</time>
      </trkpt>
      <trkpt lat="45.88687" lon="4.83088">
        <ele>174</ele>
        <time>2017-04-22T09:52:36Z</time>
      </trkpt>
      <trkpt lat="45.88692" lon="4.83083">
        <ele>174</ele>
        <time>2017-04-22T09:52:37Z</time>
      </trkpt>
      <trkpt lat="45.88696" lon="4.83078">
        <ele>174</ele>
        <time>2017-04-22T09:52:38Z</time>
      </trkpt>
      <trkpt lat="45.88699" lon="4.83074">
        <ele>174</ele>
        <time>2017-04-22T09:52:39Z</time>
      </trkpt>
      <trkpt lat="45.88703" lon="4.83069">
        <ele>174</ele>
        <time>2017-04-22T09:52:40Z</time>
      </trkpt>
      <trkpt lat="45.88706" lon="4.83065">
        <ele>174</ele>
        <time>2017-04-22T09:52:41Z</time>
      </trkpt>
      <trkpt lat="45.88711" lon="4.8306">
        <ele>174</ele>
        <time>2017-04-22T09:52:42Z</time>
      </trkpt>
      <trkpt lat="45.88715" lon="4.83056">
        <ele>174</ele>
        <time>2017-04-22T09:52:43Z</time>
      </trkpt>
      <trkpt lat="45.88719" lon="4.83051">
        <ele>174</ele>
        <time>2017-04-22T09:52:44Z</time>
      </trkpt>
      <trkpt lat="45.88723" lon="4.83046">
        <ele>174</ele>
        <time>2017-04-22T09:52:45Z</time>
      </trkpt>
      <trkpt lat="45.88727" lon="4.83041">
        <ele>173</ele>
        <time>2017-04-22T09:52:46Z</time>
      </trkpt>
      <trkpt lat="45.8873" lon="4.83037">
        <ele>173</ele>
        <time>2017-04-22T09:52:47Z</time>
      </trkpt>
      <trkpt lat="45.88733" lon="4.83033">
        <ele>173</ele>
        <time>2017-04-22T09:52:48Z</time>
      </trkpt>
      <trkpt lat="45.88737" lon="4.83028">
        <ele>173</ele>
        <time>2017-04-22T09:52:49Z</time>
      </trkpt>
      <trkpt lat="45.8874" lon="4.83023">
        <ele>173</ele>
        <time>2017-04-22T09:52:50Z</time>
      </trkpt>
      <trkpt lat="45.88743" lon="4.83019">
        <ele>173</ele>
        <time>2017-04-22T09:52:51Z</time>
      </trkpt>
      <trkpt lat="45.88747" lon="4.83015">
        <ele>173</ele>
        <time>2017-04-22T09:52:52Z</time>
      </trkpt>
      <trkpt lat="45.88751" lon="4.83011">
        <ele>173</ele>
        <time>2017-04-22T09:52:53Z</time>
      </trkpt>
      <trkpt lat="45.88755" lon="4.83006">
        <ele>172</ele>
        <time>2017-04-22T09:52:54Z</time>
      </trkpt>
      <trkpt lat="45.88759" lon="4.83001">
        <ele>172</ele>
        <time>2017-04-22T09:52:55Z</time>
      </trkpt>
      <trkpt lat="45.88762" lon="4.82996">
        <ele>172</ele>
        <time>2017-04-22T09:52:56Z</time>
      </trkpt>
      <trkpt lat="45.88765" lon="4.82991">
        <ele>172</ele>
        <time>2017-04-22T09:52:57Z</time>
      </trkpt>
      <trkpt lat="45.88769" lon="4.82986">
        <ele>172</ele>
        <time>2017-04-22T09:52:58Z</time>
      </trkpt>
      <trkpt lat="45.88773" lon="4.82982">
        <ele>172</ele>
        <time>2017-04-22T09:52:59Z</time>
      </trkpt>
      <trkpt lat="45.88776" lon="4.82978">
        <ele>172</ele>
        <time>2017-04-22T09:53:00Z</time>
      </trkpt>
      <trkpt lat="45.88779" lon="4.82973">
        <ele>172</ele>
        <time>2017-04-22T09:53:01Z</time>
      </trkpt>
      <trkpt lat="45.88783" lon="4.82968">
        <ele>172</ele>
        <time>2017-04-22T09:53:02Z</time>
      </trkpt>
      <trkpt lat="45.88788" lon="4.82963">
        <ele>172</ele>
        <time>2017-04-22T09:53:03Z</time>
      </trkpt>
      <trkpt lat="45.88791" lon="4.82959">
        <ele>172</ele>
        <time>2017-04-22T09:53:04Z</time>
      </trkpt>
      <trkpt lat="45.88796" lon="4.82954">
        <ele>172</ele>
        <time>2017-04-22T09:53:05Z</time>
      </trkpt>
      <trkpt lat="45.88799" lon="4.82949">
        <ele>172</ele>
        <time>2017-04-22T09:53:06Z</time>
      </trkpt>
      <trkpt lat="45.88803" lon="4.82944">
        <ele>172</ele>
        <time>2017-04-22T09:53:07Z</time>
      </trkpt>
      <trkpt lat="45.88807" lon="4.82939">
        <ele>172</ele>
        <time>2017-04-22T09:53:08Z</time>
      </trkpt>
      <trkpt lat="45.88811" lon="4.82935">
        <ele>172</ele>
        <time>2017-04-22T09:53:09Z</time>
      </trkpt>
      <trkpt lat="45.88815" lon="4.8293">
        <ele>172</ele>
        <time>2017-04-22T09:53:10Z</time>
      </trkpt>
      <trkpt lat="45.88818" lon="4.82925">
        <ele>172</ele>
        <time>2017-04-22T09:53:11Z</time>
      </trkpt>
      <trkpt lat="45.88822" lon="4.8292">
        <ele>172</ele>
        <time>2017-04-22T09:53:12Z</time>
      </trkpt>
      <trkpt lat="45.88826" lon="4.82915">
        <ele>172</ele>
        <time>2017-04-22T09:53:13Z</time>
      </trkpt>
      <trkpt lat="45.8883" lon="4.8291">
        <ele>172</ele>
        <time>2017-04-22T09:53:14Z</time>
      </trkpt>
      <trkpt lat="45.88833" lon="4.82906">
        <ele>172</ele>
        <time>2017-04-22T09:53:15Z</time>
      </trkpt>
      <trkpt lat="45.88837" lon="4.82902">
        <ele>172</ele>
        <time>2017-04-22T09:53:16Z</time>
      </trkpt>
      <trkpt lat="45.8884" lon="4.82897">
        <ele>172</ele>
        <time>2017-04-22T09:53:17Z</time>
      </trkpt>
      <trkpt lat="45.88844" lon="4.82893">
        <ele>172</ele>
        <time>2017-04-22T09:53:18Z</time>
      </trkpt>
      <trkpt lat="45.88847" lon="4.82888">
        <ele>172</ele>
        <time>2017-04-22T09:53:19Z</time>
      </trkpt>
      <trkpt lat="45.88851" lon="4.82883">
        <ele>172</ele>
        <time>2017-04-22T09:53:20Z</time>
      </trkpt>
      <trkpt lat="45.88855" lon="4.82878">
        <ele>172</ele>
        <time>2017-04-22T09:53:21Z</time>
      </trkpt>
      <trkpt lat="45.88859" lon="4.82873">
        <ele>172</ele>
        <time>2017-04-22T09:53:22Z</time>
      </trkpt>
      <trkpt lat="45.88863" lon="4.82869">
        <ele>172</ele>
        <time>2017-04-22T09:53:23Z</time>
      </trkpt>
      <trkpt lat="45.88868" lon="4.82865">
        <ele>172</ele>
        <time>2017-04-22T09:53:24Z</time>
      </trkpt>
      <trkpt lat="45.88872" lon="4.82861">
        <ele>172</ele>
        <time>2017-04-22T09:53:25Z</time>
      </trkpt>
      <trkpt lat="45.88876" lon="4.82857">
        <ele>172</ele>
        <time>2017-04-22T09:53:26Z</time>
      </trkpt>
      <trkpt lat="45.8888" lon="4.82852">
        <ele>172</ele>
        <time>2017-04-22T09:53:27Z</time>
      </trkpt>
      <trkpt lat="45.88884" lon="4.82848">
        <ele>172</ele>
        <time>2017-04-22T09:53:28Z</time>
      </trkpt>
      <trkpt lat="45.88888" lon="4.82843">
        <ele>172</ele>
        <time>2017-04-22T09:53:29Z</time>
      </trkpt>
      <trkpt lat="45.88892" lon="4.82838">
        <ele>172</ele>
        <time>2017-04-22T09:53:30Z</time>
      </trkpt>
      <trkpt lat="45.88896" lon="4.82833">
        <ele>172</ele>
        <time>2017-04-22T09:53:31Z</time>
      </trkpt>
      <trkpt lat="45.889" lon="4.82828">
        <ele>172</ele>
        <time>2017-04-22T09:53:32Z</time>
      </trkpt>
      <trkpt lat="45.88904" lon="4.82823">
        <ele>172</ele>
        <time>2017-04-22T09:53:33Z</time>
      </trkpt>
      <trkpt lat="45.88908" lon="4.82819">
        <ele>172</ele>
        <time>2017-04-22T09:53:34Z</time>
      </trkpt>
      <trkpt lat="45.88912" lon="4.82814">
        <ele>172</ele>
        <time>2017-04-22T09:53:35Z</time>
      </trkpt>
      <trkpt lat="45.88916" lon="4.82809">
        <ele>172</ele>
        <time>2017-04-22T09:53:36Z</time>
      </trkpt>
      <trkpt lat="45.8892" lon="4.82804">
        <ele>172</ele>
        <time>2017-04-22T09:53:37Z</time>
      </trkpt>
      <trkpt lat="45.88924" lon="4.82799">
        <ele>172</ele>
        <time>2017-04-22T09:53:38Z</time>
      </trkpt>
      <trkpt lat="45.88928" lon="4.82795">
        <ele>172</ele>
        <time>2017-04-22T09:53:39Z</time>
      </trkpt>
      <trkpt lat="45.88932" lon="4.8279">
        <ele>172</ele>
        <time>2017-04-22T09:53:40Z</time>
      </trkpt>
      <trkpt lat="45.88936" lon="4.82786">
        <ele>172</ele>
        <time>2017-04-22T09:53:41Z</time>
      </trkpt>
      <trkpt lat="45.8894" lon="4.82781">
        <ele>172</ele>
        <time>2017-04-22T09:53:42Z</time>
      </trkpt>
      <trkpt lat="45.88944" lon="4.82777">
        <ele>172</ele>
        <time>2017-04-22T09:53:43Z</time>
      </trkpt>
      <trkpt lat="45.88947" lon="4.82773">
        <ele>172</ele>
        <time>2017-04-22T09:53:44Z</time>
      </trkpt>
      <trkpt lat="45.88951" lon="4.82768">
        <ele>172</ele>
        <time>2017-04-22T09:53:45Z</time>
      </trkpt>
      <trkpt lat="45.88954" lon="4.82763">
        <ele>172</ele>
        <time>2017-04-22T09:53:46Z</time>
      </trkpt>
      <trkpt lat="45.88958" lon="4.82758">
        <ele>172</ele>
        <time>2017-04-22T09:53:47Z</time>
      </trkpt>
      <trkpt lat="45.88961" lon="4.82753">
        <ele>172</ele>
        <time>2017-04-22T09:53:48Z</time>
      </trkpt>
      <trkpt lat="45.88964" lon="4.82749">
        <ele>172</ele>
        <time>2017-04-22T09:53:49Z</time>
      </trkpt>
      <trkpt lat="45.88968" lon="4.82744">
        <ele>172</ele>
        <time>2017-04-22T09:53:50Z</time>
      </trkpt>
      <trkpt lat="45.88971" lon="4.82739">
        <ele>173</ele>
        <time>2017-04-22T09:53:51Z</time>
      </trkpt>
      <trkpt lat="45.88974" lon="4.82733">
        <ele>173</ele>
        <time>2017-04-22T09:53:52Z</time>
      </trkpt>
      <trkpt lat="45.88978" lon="4.82728">
        <ele>173</ele>
        <time>2017-04-22T09:53:53Z</time>
      </trkpt>
      <trkpt lat="45.88981" lon="4.82723">
        <ele>173</ele>
        <time>2017-04-22T09:53:54Z</time>
      </trkpt>
      <trkpt lat="45.88984" lon="4.82718">
        <ele>173</ele>
        <time>2017-04-22T09:53:55Z</time>
      </trkpt>
      <trkpt lat="45.88987" lon="4.82713">
        <ele>173</ele>
        <time>2017-04-22T09:53:56Z</time>
      </trkpt>
      <trkpt lat="45.8899" lon="4.82707">
        <ele>173</ele>
        <time>2017-04-22T09:53:57Z</time>
      </trkpt>
      <trkpt lat="45.88993" lon="4.82701">
        <ele>173</ele>
        <time>2017-04-22T09:53:58Z</time>
      </trkpt>
      <trkpt lat="45.88996" lon="4.82695">
        <ele>173</ele>
        <time>2017-04-22T09:53:59Z</time>
      </trkpt>
      <trkpt lat="45.88999" lon="4.82689">
        <ele>173</ele>
        <time>2017-04-22T09:54:00Z</time>
      </trkpt>
      <trkpt lat="45.89002" lon="4.82682">
        <ele>173</ele>
        <time>2017-04-22T09:54:01Z</time>
      </trkpt>
      <trkpt lat="45.89005" lon="4.82676">
        <ele>173</ele>
        <time>2017-04-22T09:54:02Z</time>
      </trkpt>
      <trkpt lat="45.89009" lon="4.8267">
        <ele>173</ele>
        <time>2017-04-22T09:54:03Z</time>
      </trkpt>
      <trkpt lat="45.89012" lon="4.82664">
        <ele>173</ele>
        <time>2017-04-22T09:54:04Z</time>
      </trkpt>
      <trkpt lat="45.89015" lon="4.82659">
        <ele>173</ele>
        <time>2017-04-22T09:54:05Z</time>
      </trkpt>
      <trkpt lat="45.89018" lon="4.82653">
        <ele>173</ele>
        <time>2017-04-22T09:54:06Z</time>
      </trkpt>
      <trkpt lat="45.89021" lon="4.82648">
        <ele>174</ele>
        <time>2017-04-22T09:54:07Z</time>
      </trkpt>
      <trkpt lat="45.89023" lon="4.82643">
        <ele>174</ele>
        <time>2017-04-22T09:54:08Z</time>
      </trkpt>
      <trkpt lat="45.89026" lon="4.82637">
        <ele>174</ele>
        <time>2017-04-22T09:54:09Z</time>
      </trkpt>
      <trkpt lat="45.89028" lon="4.82631">
        <ele>174</ele>
        <time>2017-04-22T09:54:10Z</time>
      </trkpt>
      <trkpt lat="45.89031" lon="4.82625">
        <ele>174</ele>
        <time>2017-04-22T09:54:11Z</time>
      </trkpt>
      <trkpt lat="45.89034" lon="4.82619">
        <ele>174</ele>
        <time>2017-04-22T09:54:12Z</time>
      </trkpt>
      <trkpt lat="45.89037" lon="4.82613">
        <ele>174</ele>
        <time>2017-04-22T09:54:13Z</time>
      </trkpt>
      <trkpt lat="45.8904" lon="4.82607">
        <ele>174</ele>
        <time>2017-04-22T09:54:14Z</time>
      </trkpt>
      <trkpt lat="45.89042" lon="4.82601">
        <ele>174</ele>
        <time>2017-04-22T09:54:15Z</time>
      </trkpt>
      <trkpt lat="45.89045" lon="4.82596">
        <ele>174</ele>
        <time>2017-04-22T09:54:16Z</time>
      </trkpt>
      <trkpt lat="45.89051" lon="4.82586">
        <ele>174</ele>
        <time>2017-04-22T09:54:18Z</time>
      </trkpt>
      <trkpt lat="45.89054" lon="4.82582">
        <ele>174</ele>
        <time>2017-04-22T09:54:19Z</time>
      </trkpt>
      <trkpt lat="45.89061" lon="4.82574">
        <ele>174</ele>
        <time>2017-04-22T09:54:22Z</time>
      </trkpt>
      <trkpt lat="45.89063" lon="4.82574">
        <ele>174</ele>
        <time>2017-04-22T09:54:23Z</time>
      </trkpt>
      <trkpt lat="45.8907" lon="4.82578">
        <ele>174</ele>
        <time>2017-04-22T09:54:26Z</time>
      </trkpt>
      <trkpt lat="45.89073" lon="4.82581">
        <ele>174</ele>
        <time>2017-04-22T09:54:27Z</time>
      </trkpt>
      <trkpt lat="45.89076" lon="4.8259">
        <ele>174</ele>
        <time>2017-04-22T09:54:29Z</time>
      </trkpt>
      <trkpt lat="45.89079" lon="4.82595">
        <ele>174</ele>
        <time>2017-04-22T09:54:30Z</time>
      </trkpt>
      <trkpt lat="45.89083" lon="4.826">
        <ele>174</ele>
        <time>2017-04-22T09:54:31Z</time>
      </trkpt>
      <trkpt lat="45.89087" lon="4.82604">
        <ele>174</ele>
        <time>2017-04-22T09:54:32Z</time>
      </trkpt>
      <trkpt lat="45.89092" lon="4.82607">
        <ele>174</ele>
        <time>2017-04-22T09:54:33Z</time>
      </trkpt>
      <trkpt lat="45.89098" lon="4.82609">
        <ele>174</ele>
        <time>2017-04-22T09:54:34Z</time>
      </trkpt>
      <trkpt lat="45.89103" lon="4.82609">
        <ele>174</ele>
        <time>2017-04-22T09:54:35Z</time>
      </trkpt>
      <trkpt lat="45.89108" lon="4.82608">
        <ele>174</ele>
        <time>2017-04-22T09:54:36Z</time>
      </trkpt>
      <trkpt lat="45.89112" lon="4.82606">
        <ele>174</ele>
        <time>2017-04-22T09:54:37Z</time>
      </trkpt>
      <trkpt lat="45.89117" lon="4.82605">
        <ele>174</ele>
        <time>2017-04-22T09:54:38Z</time>
      </trkpt>
      <trkpt lat="45.89122" lon="4.82602">
        <ele>174</ele>
        <time>2017-04-22T09:54:39Z</time>
      </trkpt>
      <trkpt lat="45.89126" lon="4.82599">
        <ele>174</ele>
        <time>2017-04-22T09:54:40Z</time>
      </trkpt>
      <trkpt lat="45.89129" lon="4.82594">
        <ele>174</ele>
        <time>2017-04-22T09:54:41Z</time>
      </trkpt>
      <trkpt lat="45.89132" lon="4.82588">
        <ele>174</ele>
        <time>2017-04-22T09:54:42Z</time>
      </trkpt>
      <trkpt lat="45.89133" lon="4.82581">
        <ele>173</ele>
        <time>2017-04-22T09:54:43Z</time>
      </trkpt>
      <trkpt lat="45.89135" lon="4.82574">
        <ele>173</ele>
        <time>2017-04-22T09:54:44Z</time>
      </trkpt>
      <trkpt lat="45.89138" lon="4.82567">
        <ele>173</ele>
        <time>2017-04-22T09:54:45Z</time>
      </trkpt>
      <trkpt lat="45.8914" lon="4.82561">
        <ele>173</ele>
        <time>2017-04-22T09:54:46Z</time>
      </trkpt>
      <trkpt lat="45.89144" lon="4.82555">
        <ele>173</ele>
        <time>2017-04-22T09:54:47Z</time>
      </trkpt>
      <trkpt lat="45.89148" lon="4.8255">
        <ele>173</ele>
        <time>2017-04-22T09:54:48Z</time>
      </trkpt>
      <trkpt lat="45.89152" lon="4.82545">
        <ele>173</ele>
        <time>2017-04-22T09:54:49Z</time>
      </trkpt>
      <trkpt lat="45.89156" lon="4.82541">
        <ele>173</ele>
        <time>2017-04-22T09:54:50Z</time>
      </trkpt>
      <trkpt lat="45.89161" lon="4.82536">
        <ele>173</ele>
        <time>2017-04-22T09:54:51Z</time>
      </trkpt>
      <trkpt lat="45.89165" lon="4.82532">
        <ele>173</ele>
        <time>2017-04-22T09:54:52Z</time>
      </trkpt>
      <trkpt lat="45.89169" lon="4.82528">
        <ele>172</ele>
        <time>2017-04-22T09:54:53Z</time>
      </trkpt>
      <trkpt lat="45.89174" lon="4.82524">
        <ele>172</ele>
        <time>2017-04-22T09:54:54Z</time>
      </trkpt>
      <trkpt lat="45.89178" lon="4.8252">
        <ele>172</ele>
        <time>2017-04-22T09:54:55Z</time>
      </trkpt>
      <trkpt lat="45.89182" lon="4.82516">
        <ele>172</ele>
        <time>2017-04-22T09:54:56Z</time>
      </trkpt>
      <trkpt lat="45.89186" lon="4.82512">
        <ele>172</ele>
        <time>2017-04-22T09:54:57Z</time>
      </trkpt>
      <trkpt lat="45.89191" lon="4.82507">
        <ele>172</ele>
        <time>2017-04-22T09:54:58Z</time>
      </trkpt>
      <trkpt lat="45.89196" lon="4.82503">
        <ele>172</ele>
        <time>2017-04-22T09:54:59Z</time>
      </trkpt>
      <trkpt lat="45.892" lon="4.82498">
        <ele>172</ele>
        <time>2017-04-22T09:55:00Z</time>
      </trkpt>
      <trkpt lat="45.89204" lon="4.82493">
        <ele>172</ele>
        <time>2017-04-22T09:55:01Z</time>
      </trkpt>
      <trkpt lat="45.89209" lon="4.82488">
        <ele>173</ele>
        <time>2017-04-22T09:55:02Z</time>
      </trkpt>
      <trkpt lat="45.89213" lon="4.82484">
        <ele>173</ele>
        <time>2017-04-22T09:55:03Z</time>
      </trkpt>
      <trkpt lat="45.89218" lon="4.82479">
        <ele>173</ele>
        <time>2017-04-22T09:55:04Z</time>
      </trkpt>
      <trkpt lat="45.89222" lon="4.82474">
        <ele>173</ele>
        <time>2017-04-22T09:55:05Z</time>
      </trkpt>
      <trkpt lat="45.89226" lon="4.82469">
        <ele>173</ele>
        <time>2017-04-22T09:55:06Z</time>
      </trkpt>
      <trkpt lat="45.8923" lon="4.82464">
        <ele>173</ele>
        <time>2017-04-22T09:55:07Z</time>
      </trkpt>
      <trkpt lat="45.89235" lon="4.82459">
        <ele>173</ele>
        <time>2017-04-22T09:55:08Z</time>
      </trkpt>
      <trkpt lat="45.89239" lon="4.82454">
        <ele>173</ele>
        <time>2017-04-22T09:55:09Z</time>
      </trkpt>
      <trkpt lat="45.89243" lon="4.82449">
        <ele>173</ele>
        <time>2017-04-22T09:55:10Z</time>
      </trkpt>
      <trkpt lat="45.89247" lon="4.82444">
        <ele>173</ele>
        <time>2017-04-22T09:55:11Z</time>
      </trkpt>
      <trkpt lat="45.89252" lon="4.82439">
        <ele>173</ele>
        <time>2017-04-22T09:55:12Z</time>
      </trkpt>
      <trkpt lat="45.89256" lon="4.82434">
        <ele>173</ele>
        <time>2017-04-22T09:55:13Z</time>
      </trkpt>
      <trkpt lat="45.8926" lon="4.82429">
        <ele>173</ele>
        <time>2017-04-22T09:55:14Z</time>
      </trkpt>
      <trkpt lat="45.89264" lon="4.82424">
        <ele>173</ele>
        <time>2017-04-22T09:55:15Z</time>
      </trkpt>
      <trkpt lat="45.89268" lon="4.82419">
        <ele>173</ele>
        <time>2017-04-22T09:55:16Z</time>
      </trkpt>
      <trkpt lat="45.89272" lon="4.82414">
        <ele>173</ele>
        <time>2017-04-22T09:55:17Z</time>
      </trkpt>
      <trkpt lat="45.89276" lon="4.82409">
        <ele>173</ele>
        <time>2017-04-22T09:55:18Z</time>
      </trkpt>
      <trkpt lat="45.8928" lon="4.82405">
        <ele>173</ele>
        <time>2017-04-22T09:55:19Z</time>
      </trkpt>
      <trkpt lat="45.89284" lon="4.824">
        <ele>173</ele>
        <time>2017-04-22T09:55:20Z</time>
      </trkpt>
      <trkpt lat="45.89288" lon="4.82395">
        <ele>173</ele>
        <time>2017-04-22T09:55:21Z</time>
      </trkpt>
      <trkpt lat="45.89292" lon="4.82389">
        <ele>173</ele>
        <time>2017-04-22T09:55:22Z</time>
      </trkpt>
      <trkpt lat="45.89296" lon="4.82384">
        <ele>173</ele>
        <time>2017-04-22T09:55:23Z</time>
      </trkpt>
      <trkpt lat="45.893" lon="4.82379">
        <ele>173</ele>
        <time>2017-04-22T09:55:24Z</time>
      </trkpt>
      <trkpt lat="45.89304" lon="4.82374">
        <ele>173</ele>
        <time>2017-04-22T09:55:25Z</time>
      </trkpt>
      <trkpt lat="45.89308" lon="4.82369">
        <ele>173</ele>
        <time>2017-04-22T09:55:26Z</time>
      </trkpt>
      <trkpt lat="45.89312" lon="4.82364">
        <ele>173</ele>
        <time>2017-04-22T09:55:27Z</time>
      </trkpt>
      <trkpt lat="45.89316" lon="4.82359">
        <ele>173</ele>
        <time>2017-04-22T09:55:28Z</time>
      </trkpt>
      <trkpt lat="45.8932" lon="4.82355">
        <ele>173</ele>
        <time>2017-04-22T09:55:29Z</time>
      </trkpt>
      <trkpt lat="45.89324" lon="4.8235">
        <ele>173</ele>
        <time>2017-04-22T09:55:30Z</time>
      </trkpt>
      <trkpt lat="45.89328" lon="4.82345">
        <ele>172</ele>
        <time>2017-04-22T09:55:31Z</time>
      </trkpt>
      <trkpt lat="45.89332" lon="4.8234">
        <ele>172</ele>
        <time>2017-04-22T09:55:32Z</time>
      </trkpt>
      <trkpt lat="45.89336" lon="4.82335">
        <ele>172</ele>
        <time>2017-04-22T09:55:33Z</time>
      </trkpt>
      <trkpt lat="45.8934" lon="4.8233">
        <ele>172</ele>
        <time>2017-04-22T09:55:34Z</time>
      </trkpt>
      <trkpt lat="45.89345" lon="4.82325">
        <ele>172</ele>
        <time>2017-04-22T09:55:35Z</time>
      </trkpt>
      <trkpt lat="45.89349" lon="4.8232">
        <ele>172</ele>
        <time>2017-04-22T09:55:36Z</time>
      </trkpt>
      <trkpt lat="45.89353" lon="4.82315">
        <ele>172</ele>
        <time>2017-04-22T09:55:37Z</time>
      </trkpt>
      <trkpt lat="45.89357" lon="4.8231">
        <ele>172</ele>
        <time>2017-04-22T09:55:38Z</time>
      </trkpt>
      <trkpt lat="45.89361" lon="4.82305">
        <ele>172</ele>
        <time>2017-04-22T09:55:39Z</time>
      </trkpt>
      <trkpt lat="45.89365" lon="4.823">
        <ele>172</ele>
        <time>2017-04-22T09:55:40Z</time>
      </trkpt>
      <trkpt lat="45.89369" lon="4.82295">
        <ele>172</ele>
        <time>2017-04-22T09:55:41Z</time>
      </trkpt>
      <trkpt lat="45.89373" lon="4.82289">
        <ele>172</ele>
        <time>2017-04-22T09:55:42Z</time>
      </trkpt>
      <trkpt lat="45.89377" lon="4.82284">
        <ele>172</ele>
        <time>2017-04-22T09:55:43Z</time>
      </trkpt>
      <trkpt lat="45.89381" lon="4.82279">
        <ele>172</ele>
        <time>2017-04-22T09:55:44Z</time>
      </trkpt>
      <trkpt lat="45.89386" lon="4.82273">
        <ele>172</ele>
        <time>2017-04-22T09:55:45Z</time>
      </trkpt>
      <trkpt lat="45.8939" lon="4.82268">
        <ele>172</ele>
        <time>2017-04-22T09:55:46Z</time>
      </trkpt>
      <trkpt lat="45.89394" lon="4.82263">
        <ele>172</ele>
        <time>2017-04-22T09:55:47Z</time>
      </trkpt>
      <trkpt lat="45.89398" lon="4.82258">
        <ele>172</ele>
        <time>2017-04-22T09:55:48Z</time>
      </trkpt>
      <trkpt lat="45.89402" lon="4.82253">
        <ele>171</ele>
        <time>2017-04-22T09:55:49Z</time>
      </trkpt>
      <trkpt lat="45.89406" lon="4.82248">
        <ele>171</ele>
        <time>2017-04-22T09:55:50Z</time>
      </trkpt>
      <trkpt lat="45.89411" lon="4.82242">
        <ele>171</ele>
        <time>2017-04-22T09:55:51Z</time>
      </trkpt>
      <trkpt lat="45.89415" lon="4.82237">
        <ele>171</ele>
        <time>2017-04-22T09:55:52Z</time>
      </trkpt>
      <trkpt lat="45.89419" lon="4.82232">
        <ele>171</ele>
        <time>2017-04-22T09:55:53Z</time>
      </trkpt>
      <trkpt lat="45.89423" lon="4.82227">
        <ele>171</ele>
        <time>2017-04-22T09:55:54Z</time>
      </trkpt>
      <trkpt lat="45.89427" lon="4.82222">
        <ele>171</ele>
        <time>2017-04-22T09:55:55Z</time>
      </trkpt>
      <trkpt lat="45.89431" lon="4.82217">
        <ele>171</ele>
        <time>2017-04-22T09:55:56Z</time>
      </trkpt>
      <trkpt lat="45.89435" lon="4.82212">
        <ele>171</ele>
        <time>2017-04-22T09:55:57Z</time>
      </trkpt>
      <trkpt lat="45.89439" lon="4.82207">
        <ele>171</ele>
        <time>2017-04-22T09:55:58Z</time>
      </trkpt>
      <trkpt lat="45.89443" lon="4.82202">
        <ele>171</ele>
        <time>2017-04-22T09:55:59Z</time>
      </trkpt>
      <trkpt lat="45.89447" lon="4.82197">
        <ele>171</ele>
        <time>2017-04-22T09:56:00Z</time>
      </trkpt>
      <trkpt lat="45.89451" lon="4.82193">
        <ele>171</ele>
        <time>2017-04-22T09:56:01Z</time>
      </trkpt>
      <trkpt lat="45.89456" lon="4.82189">
        <ele>171</ele>
        <time>2017-04-22T09:56:02Z</time>
      </trkpt>
      <trkpt lat="45.89461" lon="4.82186">
        <ele>171</ele>
        <time>2017-04-22T09:56:03Z</time>
      </trkpt>
      <trkpt lat="45.89466" lon="4.82182">
        <ele>171</ele>
        <time>2017-04-22T09:56:04Z</time>
      </trkpt>
      <trkpt lat="45.8947" lon="4.82179">
        <ele>171</ele>
        <time>2017-04-22T09:56:05Z</time>
      </trkpt>
      <trkpt lat="45.89475" lon="4.82175">
        <ele>171</ele>
        <time>2017-04-22T09:56:06Z</time>
      </trkpt>
      <trkpt lat="45.8948" lon="4.82172">
        <ele>171</ele>
        <time>2017-04-22T09:56:07Z</time>
      </trkpt>
      <trkpt lat="45.89484" lon="4.82168">
        <ele>171</ele>
        <time>2017-04-22T09:56:08Z</time>
      </trkpt>
      <trkpt lat="45.89488" lon="4.82164">
        <ele>171</ele>
        <time>2017-04-22T09:56:09Z</time>
      </trkpt>
      <trkpt lat="45.89492" lon="4.82161">
        <ele>171</ele>
        <time>2017-04-22T09:56:10Z</time>
      </trkpt>
      <trkpt lat="45.89496" lon="4.82157">
        <ele>171</ele>
        <time>2017-04-22T09:56:11Z</time>
      </trkpt>
      <trkpt lat="45.89501" lon="4.82153">
        <ele>172</ele>
        <time>2017-04-22T09:56:12Z</time>
      </trkpt>
      <trkpt lat="45.89505" lon="4.82149">
        <ele>172</ele>
        <time>2017-04-22T09:56:13Z</time>
      </trkpt>
      <trkpt lat="45.8951" lon="4.82145">
        <ele>172</ele>
        <time>2017-04-22T09:56:14Z</time>
      </trkpt>
      <trkpt lat="45.89515" lon="4.82141">
        <ele>172</ele>
        <time>2017-04-22T09:56:15Z</time>
      </trkpt>
      <trkpt lat="45.8952" lon="4.82138">
        <ele>172</ele>
        <time>2017-04-22T09:56:16Z</time>
      </trkpt>
      <trkpt lat="45.89525" lon="4.82136">
        <ele>172</ele>
        <time>2017-04-22T09:56:17Z</time>
      </trkpt>
      <trkpt lat="45.8953" lon="4.82134">
        <ele>172</ele>
        <time>2017-04-22T09:56:18Z</time>
      </trkpt>
      <trkpt lat="45.89534" lon="4.82133">
        <ele>172</ele>
        <time>2017-04-22T09:56:19Z</time>
      </trkpt>
      <trkpt lat="45.89539" lon="4.8213">
        <ele>172</ele>
        <time>2017-04-22T09:56:20Z</time>
      </trkpt>
      <trkpt lat="45.89543" lon="4.82127">
        <ele>173</ele>
        <time>2017-04-22T09:56:21Z</time>
      </trkpt>
      <trkpt lat="45.89547" lon="4.82123">
        <ele>173</ele>
        <time>2017-04-22T09:56:22Z</time>
      </trkpt>
      <trkpt lat="45.89549" lon="4.82117">
        <ele>173</ele>
        <time>2017-04-22T09:56:23Z</time>
      </trkpt>
      <trkpt lat="45.89552" lon="4.82111">
        <ele>173</ele>
        <time>2017-04-22T09:56:24Z</time>
      </trkpt>
      <trkpt lat="45.89555" lon="4.82104">
        <ele>173</ele>
        <time>2017-04-22T09:56:25Z</time>
      </trkpt>
      <trkpt lat="45.89558" lon="4.82098">
        <ele>173</ele>
        <time>2017-04-22T09:56:26Z</time>
      </trkpt>
      <trkpt lat="45.89561" lon="4.82092">
        <ele>173</ele>
        <time>2017-04-22T09:56:27Z</time>
      </trkpt>
      <trkpt lat="45.89565" lon="4.82087">
        <ele>173</ele>
        <time>2017-04-22T09:56:28Z</time>
      </trkpt>
      <trkpt lat="45.89569" lon="4.82082">
        <ele>172</ele>
        <time>2017-04-22T09:56:29Z</time>
      </trkpt>
      <trkpt lat="45.89574" lon="4.82077">
        <ele>173</ele>
        <time>2017-04-22T09:56:30Z</time>
      </trkpt>
      <trkpt lat="45.89579" lon="4.82073">
        <ele>173</ele>
        <time>2017-04-22T09:56:31Z</time>
      </trkpt>
      <trkpt lat="45.89583" lon="4.8207">
        <ele>172</ele>
        <time>2017-04-22T09:56:32Z</time>
      </trkpt>
      <trkpt lat="45.89588" lon="4.82065">
        <ele>173</ele>
        <time>2017-04-22T09:56:33Z</time>
      </trkpt>
      <trkpt lat="45.89593" lon="4.82061">
        <ele>173</ele>
        <time>2017-04-22T09:56:34Z</time>
      </trkpt>
      <trkpt lat="45.89598" lon="4.82056">
        <ele>173</ele>
        <time>2017-04-22T09:56:35Z</time>
      </trkpt>
      <trkpt lat="45.89602" lon="4.82053">
        <ele>173</ele>
        <time>2017-04-22T09:56:36Z</time>
      </trkpt>
      <trkpt lat="45.89606" lon="4.82049">
        <ele>173</ele>
        <time>2017-04-22T09:56:37Z</time>
      </trkpt>
      <trkpt lat="45.89611" lon="4.82044">
        <ele>173</ele>
        <time>2017-04-22T09:56:38Z</time>
      </trkpt>
      <trkpt lat="45.89615" lon="4.8204">
        <ele>173</ele>
        <time>2017-04-22T09:56:39Z</time>
      </trkpt>
      <trkpt lat="45.8962" lon="4.82036">
        <ele>173</ele>
        <time>2017-04-22T09:56:40Z</time>
      </trkpt>
      <trkpt lat="45.89624" lon="4.82032">
        <ele>173</ele>
        <time>2017-04-22T09:56:41Z</time>
      </trkpt>
      <trkpt lat="45.89628" lon="4.82027">
        <ele>173</ele>
        <time>2017-04-22T09:56:42Z</time>
      </trkpt>
      <trkpt lat="45.89632" lon="4.82023">
        <ele>173</ele>
        <time>2017-04-22T09:56:43Z</time>
      </trkpt>
      <trkpt lat="45.89637" lon="4.82019">
        <ele>173</ele>
        <time>2017-04-22T09:56:44Z</time>
      </trkpt>
      <trkpt lat="45.89641" lon="4.82014">
        <ele>173</ele>
        <time>2017-04-22T09:56:45Z</time>
      </trkpt>
      <trkpt lat="45.89646" lon="4.8201">
        <ele>173</ele>
        <time>2017-04-22T09:56:46Z</time>
      </trkpt>
      <trkpt lat="45.8965" lon="4.82006">
        <ele>174</ele>
        <time>2017-04-22T09:56:47Z</time>
      </trkpt>
      <trkpt lat="45.89655" lon="4.82001">
        <ele>174</ele>
        <time>2017-04-22T09:56:48Z</time>
      </trkpt>
      <trkpt lat="45.8966" lon="4.81997">
        <ele>173</ele>
        <time>2017-04-22T09:56:49Z</time>
      </trkpt>
      <trkpt lat="45.89665" lon="4.81994">
        <ele>173</ele>
        <time>2017-04-22T09:56:50Z</time>
      </trkpt>
      <trkpt lat="45.89669" lon="4.8199">
        <ele>174</ele>
        <time>2017-04-22T09:56:51Z</time>
      </trkpt>
      <trkpt lat="45.89674" lon="4.81986">
        <ele>174</ele>
        <time>2017-04-22T09:56:52Z</time>
      </trkpt>
      <trkpt lat="45.89678" lon="4.81982">
        <ele>173</ele>
        <time>2017-04-22T09:56:53Z</time>
      </trkpt>
      <trkpt lat="45.89683" lon="4.81979">
        <ele>173</ele>
        <time>2017-04-22T09:56:54Z</time>
      </trkpt>
      <trkpt lat="45.89687" lon="4.81975">
        <ele>173</ele>
        <time>2017-04-22T09:56:55Z</time>
      </trkpt>
      <trkpt lat="45.89691" lon="4.81971">
        <ele>173</ele>
        <time>2017-04-22T09:56:56Z</time>
      </trkpt>
      <trkpt lat="45.89696" lon="4.81967">
        <ele>173</ele>
        <time>2017-04-22T09:56:57Z</time>
      </trkpt>
      <trkpt lat="45.897" lon="4.81963">
        <ele>173</ele>
        <time>2017-04-22T09:56:58Z</time>
      </trkpt>
      <trkpt lat="45.89704" lon="4.8196">
        <ele>173</ele>
        <time>2017-04-22T09:56:59Z</time>
      </trkpt>
      <trkpt lat="45.89708" lon="4.81956">
        <ele>173</ele>
        <time>2017-04-22T09:57:00Z</time>
      </trkpt>
      <trkpt lat="45.89712" lon="4.81953">
        <ele>173</ele>
        <time>2017-04-22T09:57:01Z</time>
      </trkpt>
      <trkpt lat="45.89717" lon="4.81949">
        <ele>173</ele>
        <time>2017-04-22T09:57:02Z</time>
      </trkpt>
      <trkpt lat="45.89721" lon="4.81946">
        <ele>173</ele>
        <time>2017-04-22T09:57:03Z</time>
      </trkpt>
      <trkpt lat="45.89726" lon="4.81942">
        <ele>173</ele>
        <time>2017-04-22T09:57:04Z</time>
      </trkpt>
      <trkpt lat="45.8973" lon="4.81939">
        <ele>173</ele>
        <time>2017-04-22T09:57:05Z</time>
      </trkpt>
      <trkpt lat="45.89735" lon="4.81935">
        <ele>173</ele>
        <time>2017-04-22T09:57:06Z</time>
      </trkpt>
      <trkpt lat="45.89739" lon="4.81932">
        <ele>174</ele>
        <time>2017-04-22T09:57:07Z</time>
      </trkpt>
      <trkpt lat="45.89743" lon="4.81929">
        <ele>174</ele>
        <time>2017-04-22T09:57:08Z</time>
      </trkpt>
      <trkpt lat="45.89747" lon="4.81925">
        <ele>174</ele>
        <time>2017-04-22T09:57:09Z</time>
      </trkpt>
      <trkpt lat="45.89751" lon="4.81922">
        <ele>174</ele>
        <time>2017-04-22T09:57:10Z</time>
      </trkpt>
      <trkpt lat="45.89755" lon="4.81919">
        <ele>174</ele>
        <time>2017-04-22T09:57:11Z</time>
      </trkpt>
      <trkpt lat="45.89759" lon="4.81916">
        <ele>174</ele>
        <time>2017-04-22T09:57:12Z</time>
      </trkpt>
      <trkpt lat="45.89763" lon="4.81913">
        <ele>174</ele>
        <time>2017-04-22T09:57:13Z</time>
      </trkpt>
      <trkpt lat="45.89768" lon="4.8191">
        <ele>174</ele>
        <time>2017-04-22T09:57:14Z</time>
      </trkpt>
      <trkpt lat="45.89772" lon="4.81907">
        <ele>174</ele>
        <time>2017-04-22T09:57:15Z</time>
      </trkpt>
      <trkpt lat="45.89776" lon="4.81904">
        <ele>174</ele>
        <time>2017-04-22T09:57:16Z</time>
      </trkpt>
      <trkpt lat="45.8978" lon="4.81901">
        <ele>174</ele>
        <time>2017-04-22T09:57:17Z</time>
      </trkpt>
      <trkpt lat="45.89784" lon="4.81898">
        <ele>174</ele>
        <time>2017-04-22T09:57:18Z</time>
      </trkpt>
      <trkpt lat="45.89792" lon="4.81891">
        <ele>174</ele>
        <time>2017-04-22T09:57:20Z</time>
      </trkpt>
      <trkpt lat="45.89795" lon="4.81888">
        <ele>174</ele>
        <time>2017-04-22T09:57:21Z</time>
      </trkpt>
      <trkpt lat="45.89799" lon="4.81884">
        <ele>174</ele>
        <time>2017-04-22T09:57:22Z</time>
      </trkpt>
      <trkpt lat="45.89803" lon="4.81881">
        <ele>174</ele>
        <time>2017-04-22T09:57:23Z</time>
      </trkpt>
      <trkpt lat="45.89807" lon="4.81877">
        <ele>174</ele>
        <time>2017-04-22T09:57:24Z</time>
      </trkpt>
      <trkpt lat="45.89811" lon="4.81874">
        <ele>174</ele>
        <time>2017-04-22T09:57:25Z</time>
      </trkpt>
      <trkpt lat="45.89815" lon="4.8187">
        <ele>174</ele>
        <time>2017-04-22T09:57:26Z</time>
      </trkpt>
      <trkpt lat="45.89819" lon="4.81867">
        <ele>174</ele>
        <time>2017-04-22T09:57:27Z</time>
      </trkpt>
      <trkpt lat="45.89823" lon="4.81863">
        <ele>174</ele>
        <time>2017-04-22T09:57:28Z</time>
      </trkpt>
      <trkpt lat="45.89827" lon="4.81859">
        <ele>174</ele>
        <time>2017-04-22T09:57:29Z</time>
      </trkpt>
      <trkpt lat="45.89831" lon="4.81855">
        <ele>174</ele>
        <time>2017-04-22T09:57:30Z</time>
      </trkpt>
      <trkpt lat="45.89835" lon="4.81851">
        <ele>175</ele>
        <time>2017-04-22T09:57:31Z</time>
      </trkpt>
      <trkpt lat="45.89838" lon="4.81847">
        <ele>175</ele>
        <time>2017-04-22T09:57:32Z</time>
      </trkpt>
      <trkpt lat="45.89842" lon="4.81843">
        <ele>175</ele>
        <time>2017-04-22T09:57:33Z</time>
      </trkpt>
      <trkpt lat="45.89846" lon="4.81838">
        <ele>175</ele>
        <time>2017-04-22T09:57:34Z</time>
      </trkpt>
      <trkpt lat="45.8985" lon="4.81834">
        <ele>175</ele>
        <time>2017-04-22T09:57:35Z</time>
      </trkpt>
      <trkpt lat="45.89854" lon="4.81829">
        <ele>175</ele>
        <time>2017-04-22T09:57:36Z</time>
      </trkpt>
      <trkpt lat="45.89857" lon="4.81824">
        <ele>175</ele>
        <time>2017-04-22T09:57:37Z</time>
      </trkpt>
      <trkpt lat="45.89861" lon="4.8182">
        <ele>175</ele>
        <time>2017-04-22T09:57:38Z</time>
      </trkpt>
      <trkpt lat="45.89865" lon="4.81816">
        <ele>175</ele>
        <time>2017-04-22T09:57:39Z</time>
      </trkpt>
      <trkpt lat="45.89868" lon="4.81812">
        <ele>175</ele>
        <time>2017-04-22T09:57:40Z</time>
      </trkpt>
      <trkpt lat="45.89872" lon="4.81807">
        <ele>175</ele>
        <time>2017-04-22T09:57:41Z</time>
      </trkpt>
      <trkpt lat="45.89875" lon="4.81803">
        <ele>175</ele>
        <time>2017-04-22T09:57:42Z</time>
      </trkpt>
      <trkpt lat="45.89879" lon="4.81798">
        <ele>176</ele>
        <time>2017-04-22T09:57:43Z</time>
      </trkpt>
      <trkpt lat="45.89882" lon="4.81794">
        <ele>176</ele>
        <time>2017-04-22T09:57:44Z</time>
      </trkpt>
      <trkpt lat="45.89886" lon="4.8179">
        <ele>176</ele>
        <time>2017-04-22T09:57:45Z</time>
      </trkpt>
      <trkpt lat="45.8989" lon="4.81786">
        <ele>176</ele>
        <time>2017-04-22T09:57:46Z</time>
      </trkpt>
      <trkpt lat="45.89894" lon="4.81782">
        <ele>176</ele>
        <time>2017-04-22T09:57:47Z</time>
      </trkpt>
      <trkpt lat="45.89897" lon="4.81779">
        <ele>176</ele>
        <time>2017-04-22T09:57:48Z</time>
      </trkpt>
      <trkpt lat="45.89901" lon="4.81776">
        <ele>176</ele>
        <time>2017-04-22T09:57:49Z</time>
      </trkpt>
      <trkpt lat="45.8991" lon="4.8177">
        <ele>176</ele>
        <time>2017-04-22T09:57:51Z</time>
      </trkpt>
      <trkpt lat="45.89914" lon="4.81769">
        <ele>176</ele>
        <time>2017-04-22T09:57:52Z</time>
      </trkpt>
      <trkpt lat="45.89919" lon="4.8177">
        <ele>177</ele>
        <time>2017-04-22T09:57:53Z</time>
      </trkpt>
      <trkpt lat="45.89923" lon="4.81771">
        <ele>177</ele>
        <time>2017-04-22T09:57:54Z</time>
      </trkpt>
      <trkpt lat="45.89928" lon="4.81772">
        <ele>177</ele>
        <time>2017-04-22T09:57:55Z</time>
      </trkpt>
      <trkpt lat="45.89932" lon="4.81773">
        <ele>177</ele>
        <time>2017-04-22T09:57:56Z</time>
      </trkpt>
      <trkpt lat="45.89941" lon="4.8177">
        <ele>177</ele>
        <time>2017-04-22T09:57:58Z</time>
      </trkpt>
      <trkpt lat="45.89945" lon="4.81767">
        <ele>177</ele>
        <time>2017-04-22T09:57:59Z</time>
      </trkpt>
      <trkpt lat="45.89948" lon="4.81762">
        <ele>177</ele>
        <time>2017-04-22T09:58:00Z</time>
      </trkpt>
      <trkpt lat="45.89951" lon="4.81757">
        <ele>177</ele>
        <time>2017-04-22T09:58:01Z</time>
      </trkpt>
      <trkpt lat="45.89954" lon="4.81751">
        <ele>177</ele>
        <time>2017-04-22T09:58:02Z</time>
      </trkpt>
      <trkpt lat="45.89956" lon="4.81745">
        <ele>177</ele>
        <time>2017-04-22T09:58:03Z</time>
      </trkpt>
      <trkpt lat="45.89958" lon="4.81738">
        <ele>176</ele>
        <time>2017-04-22T09:58:04Z</time>
      </trkpt>
      <trkpt lat="45.89961" lon="4.81732">
        <ele>176</ele>
        <time>2017-04-22T09:58:05Z</time>
      </trkpt>
      <trkpt lat="45.89964" lon="4.81726">
        <ele>176</ele>
        <time>2017-04-22T09:58:06Z</time>
      </trkpt>
      <trkpt lat="45.89969" lon="4.81722">
        <ele>176</ele>
        <time>2017-04-22T09:58:07Z</time>
      </trkpt>
      <trkpt lat="45.89973" lon="4.81718">
        <ele>176</ele>
        <time>2017-04-22T09:58:08Z</time>
      </trkpt>
      <trkpt lat="45.89978" lon="4.81714">
        <ele>176</ele>
        <time>2017-04-22T09:58:09Z</time>
      </trkpt>
      <trkpt lat="45.89983" lon="4.81711">
        <ele>176</ele>
        <time>2017-04-22T09:58:10Z</time>
      </trkpt>
      <trkpt lat="45.89987" lon="4.81707">
        <ele>176</ele>
        <time>2017-04-22T09:58:11Z</time>
      </trkpt>
      <trkpt lat="45.89992" lon="4.81704">
        <ele>176</ele>
        <time>2017-04-22T09:58:12Z</time>
      </trkpt>
      <trkpt lat="45.89997" lon="4.81701">
        <ele>176</ele>
        <time>2017-04-22T09:58:13Z</time>
      </trkpt>
      <trkpt lat="45.90001" lon="4.81699">
        <ele>177</ele>
        <time>2017-04-22T09:58:14Z</time>
      </trkpt>
      <trkpt lat="45.90006" lon="4.81696">
        <ele>177</ele>
        <time>2017-04-22T09:58:15Z</time>
      </trkpt>
      <trkpt lat="45.9001" lon="4.81694">
        <ele>177</ele>
        <time>2017-04-22T09:58:16Z</time>
      </trkpt>
      <trkpt lat="45.90015" lon="4.81692">
        <ele>177</ele>
        <time>2017-04-22T09:58:17Z</time>
      </trkpt>
      <trkpt lat="45.9002" lon="4.81689">
        <ele>177</ele>
        <time>2017-04-22T09:58:18Z</time>
      </trkpt>
      <trkpt lat="45.90024" lon="4.81687">
        <ele>177</ele>
        <time>2017-04-22T09:58:19Z</time>
      </trkpt>
      <trkpt lat="45.90029" lon="4.81685">
        <ele>178</ele>
        <time>2017-04-22T09:58:20Z</time>
      </trkpt>
      <trkpt lat="45.90034" lon="4.81683">
        <ele>178</ele>
        <time>2017-04-22T09:58:21Z</time>
      </trkpt>
      <trkpt lat="45.90039" lon="4.81681">
        <ele>178</ele>
        <time>2017-04-22T09:58:22Z</time>
      </trkpt>
      <trkpt lat="45.90043" lon="4.81679">
        <ele>178</ele>
        <time>2017-04-22T09:58:23Z</time>
      </trkpt>
      <trkpt lat="45.90048" lon="4.81677">
        <ele>178</ele>
        <time>2017-04-22T09:58:24Z</time>
      </trkpt>
      <trkpt lat="45.90053" lon="4.81675">
        <ele>178</ele>
        <time>2017-04-22T09:58:25Z</time>
      </trkpt>
      <trkpt lat="45.90058" lon="4.81673">
        <ele>178</ele>
        <time>2017-04-22T09:58:26Z</time>
      </trkpt>
      <trkpt lat="45.90063" lon="4.81671">
        <ele>178</ele>
        <time>2017-04-22T09:58:27Z</time>
      </trkpt>
      <trkpt lat="45.90068" lon="4.8167">
        <ele>178</ele>
        <time>2017-04-22T09:58:28Z</time>
      </trkpt>
      <trkpt lat="45.90073" lon="4.81668">
        <ele>179</ele>
        <time>2017-04-22T09:58:29Z</time>
      </trkpt>
      <trkpt lat="45.90078" lon="4.81667">
        <ele>179</ele>
        <time>2017-04-22T09:58:30Z</time>
      </trkpt>
      <trkpt lat="45.90083" lon="4.81665">
        <ele>179</ele>
        <time>2017-04-22T09:58:31Z</time>
      </trkpt>
      <trkpt lat="45.90088" lon="4.81664">
        <ele>179</ele>
        <time>2017-04-22T09:58:32Z</time>
      </trkpt>
      <trkpt lat="45.90093" lon="4.81663">
        <ele>179</ele>
        <time>2017-04-22T09:58:33Z</time>
      </trkpt>
      <trkpt lat="45.90098" lon="4.81662">
        <ele>179</ele>
        <time>2017-04-22T09:58:34Z</time>
      </trkpt>
      <trkpt lat="45.90103" lon="4.8166">
        <ele>179</ele>
        <time>2017-04-22T09:58:35Z</time>
      </trkpt>
      <trkpt lat="45.90108" lon="4.8166">
        <ele>179</ele>
        <time>2017-04-22T09:58:36Z</time>
      </trkpt>
      <trkpt lat="45.90112" lon="4.81659">
        <ele>179</ele>
        <time>2017-04-22T09:58:37Z</time>
      </trkpt>
      <trkpt lat="45.90117" lon="4.81658">
        <ele>179</ele>
        <time>2017-04-22T09:58:38Z</time>
      </trkpt>
      <trkpt lat="45.90122" lon="4.81658">
        <ele>179</ele>
        <time>2017-04-22T09:58:39Z</time>
      </trkpt>
      <trkpt lat="45.90127" lon="4.81656">
        <ele>179</ele>
        <time>2017-04-22T09:58:40Z</time>
      </trkpt>
      <trkpt lat="45.90132" lon="4.81655">
        <ele>179</ele>
        <time>2017-04-22T09:58:41Z</time>
      </trkpt>
      <trkpt lat="45.90137" lon="4.81654">
        <ele>179</ele>
        <time>2017-04-22T09:58:42Z</time>
      </trkpt>
      <trkpt lat="45.90142" lon="4.81654">
        <ele>179</ele>
        <time>2017-04-22T09:58:43Z</time>
      </trkpt>
      <trkpt lat="45.90147" lon="4.81653">
        <ele>179</ele>
        <time>2017-04-22T09:58:44Z</time>
      </trkpt>
      <trkpt lat="45.90152" lon="4.81652">
        <ele>179</ele>
        <time>2017-04-22T09:58:45Z</time>
      </trkpt>
      <trkpt lat="45.90157" lon="4.81652">
        <ele>179</ele>
        <time>2017-04-22T09:58:46Z</time>
      </trkpt>
      <trkpt lat="45.90162" lon="4.81651">
        <ele>179</ele>
        <time>2017-04-22T09:58:47Z</time>
      </trkpt>
      <trkpt lat="45.90168" lon="4.81651">
        <ele>180</ele>
        <time>2017-04-22T09:58:48Z</time>
      </trkpt>
      <trkpt lat="45.90173" lon="4.8165">
        <ele>180</ele>
        <time>2017-04-22T09:58:49Z</time>
      </trkpt>
      <trkpt lat="45.90178" lon="4.8165">
        <ele>180</ele>
        <time>2017-04-22T09:58:50Z</time>
      </trkpt>
      <trkpt lat="45.90183" lon="4.81649">
        <ele>180</ele>
        <time>2017-04-22T09:58:51Z</time>
      </trkpt>
      <trkpt lat="45.90188" lon="4.81649">
        <ele>180</ele>
        <time>2017-04-22T09:58:52Z</time>
      </trkpt>
      <trkpt lat="45.90193" lon="4.81648">
        <ele>180</ele>
        <time>2017-04-22T09:58:53Z</time>
      </trkpt>
      <trkpt lat="45.90198" lon="4.81646">
        <ele>180</ele>
        <time>2017-04-22T09:58:54Z</time>
      </trkpt>
      <trkpt lat="45.90203" lon="4.81644">
        <ele>180</ele>
        <time>2017-04-22T09:58:55Z</time>
      </trkpt>
      <trkpt lat="45.90208" lon="4.81643">
        <ele>180</ele>
        <time>2017-04-22T09:58:56Z</time>
      </trkpt>
      <trkpt lat="45.90214" lon="4.81641">
        <ele>180</ele>
        <time>2017-04-22T09:58:57Z</time>
      </trkpt>
      <trkpt lat="45.90222" lon="4.8164">
        <ele>180</ele>
        <time>2017-04-22T09:58:58Z</time>
      </trkpt>
      <trkpt lat="45.90228" lon="4.8164">
        <ele>180</ele>
        <time>2017-04-22T09:58:59Z</time>
      </trkpt>
      <trkpt lat="45.90233" lon="4.8164">
        <ele>181</ele>
        <time>2017-04-22T09:59:00Z</time>
      </trkpt>
      <trkpt lat="45.90238" lon="4.81639">
        <ele>181</ele>
        <time>2017-04-22T09:59:01Z</time>
      </trkpt>
      <trkpt lat="45.90243" lon="4.81639">
        <ele>181</ele>
        <time>2017-04-22T09:59:02Z</time>
      </trkpt>
      <trkpt lat="45.90247" lon="4.8164">
        <ele>181</ele>
        <time>2017-04-22T09:59:03Z</time>
      </trkpt>
      <trkpt lat="45.90252" lon="4.81641">
        <ele>182</ele>
        <time>2017-04-22T09:59:04Z</time>
      </trkpt>
      <trkpt lat="45.90257" lon="4.81642">
        <ele>182</ele>
        <time>2017-04-22T09:59:05Z</time>
      </trkpt>
      <trkpt lat="45.90262" lon="4.81645">
        <ele>182</ele>
        <time>2017-04-22T09:59:06Z</time>
      </trkpt>
      <trkpt lat="45.90267" lon="4.81649">
        <ele>182</ele>
        <time>2017-04-22T09:59:07Z</time>
      </trkpt>
      <trkpt lat="45.9027" lon="4.81653">
        <ele>182</ele>
        <time>2017-04-22T09:59:08Z</time>
      </trkpt>
      <trkpt lat="45.90274" lon="4.81658">
        <ele>182</ele>
        <time>2017-04-22T09:59:09Z</time>
      </trkpt>
      <trkpt lat="45.90279" lon="4.81661">
        <ele>182</ele>
        <time>2017-04-22T09:59:10Z</time>
      </trkpt>
      <trkpt lat="45.90284" lon="4.81662">
        <ele>182</ele>
        <time>2017-04-22T09:59:11Z</time>
      </trkpt>
      <trkpt lat="45.90288" lon="4.81661">
        <ele>182</ele>
        <time>2017-04-22T09:59:12Z</time>
      </trkpt>
      <trkpt lat="45.90293" lon="4.81658">
        <ele>182</ele>
        <time>2017-04-22T09:59:13Z</time>
      </trkpt>
      <trkpt lat="45.90297" lon="4.81654">
        <ele>182</ele>
        <time>2017-04-22T09:59:14Z</time>
      </trkpt>
      <trkpt lat="45.90301" lon="4.81649">
        <ele>182</ele>
        <time>2017-04-22T09:59:15Z</time>
      </trkpt>
      <trkpt lat="45.90304" lon="4.81644">
        <ele>182</ele>
        <time>2017-04-22T09:59:16Z</time>
      </trkpt>
      <trkpt lat="45.90308" lon="4.81639">
        <ele>182</ele>
        <time>2017-04-22T09:59:17Z</time>
      </trkpt>
      <trkpt lat="45.90313" lon="4.81635">
        <ele>182</ele>
        <time>2017-04-22T09:59:18Z</time>
      </trkpt>
      <trkpt lat="45.90317" lon="4.81632">
        <ele>182</ele>
        <time>2017-04-22T09:59:19Z</time>
      </trkpt>
      <trkpt lat="45.90322" lon="4.81631">
        <ele>182</ele>
        <time>2017-04-22T09:59:20Z</time>
      </trkpt>
      <trkpt lat="45.90327" lon="4.8163">
        <ele>182</ele>
        <time>2017-04-22T09:59:21Z</time>
      </trkpt>
      <trkpt lat="45.90332" lon="4.81629">
        <ele>182</ele>
        <time>2017-04-22T09:59:22Z</time>
      </trkpt>
      <trkpt lat="45.90337" lon="4.81628">
        <ele>183</ele>
        <time>2017-04-22T09:59:23Z</time>
      </trkpt>
      <trkpt lat="45.90342" lon="4.81627">
        <ele>183</ele>
        <time>2017-04-22T09:59:24Z</time>
      </trkpt>
      <trkpt lat="45.90347" lon="4.81626">
        <ele>183</ele>
        <time>2017-04-22T09:59:25Z</time>
      </trkpt>
      <trkpt lat="45.90352" lon="4.81624">
        <ele>182</ele>
        <time>2017-04-22T09:59:26Z</time>
      </trkpt>
      <trkpt lat="45.90358" lon="4.81622">
        <ele>182</ele>
        <time>2017-04-22T09:59:27Z</time>
      </trkpt>
      <trkpt lat="45.90363" lon="4.8162">
        <ele>182</ele>
        <time>2017-04-22T09:59:28Z</time>
      </trkpt>
      <trkpt lat="45.90368" lon="4.81619">
        <ele>182</ele>
        <time>2017-04-22T09:59:29Z</time>
      </trkpt>
      <trkpt lat="45.90373" lon="4.81617">
        <ele>182</ele>
        <time>2017-04-22T09:59:30Z</time>
      </trkpt>
      <trkpt lat="45.90378" lon="4.81616">
        <ele>182</ele>
        <time>2017-04-22T09:59:31Z</time>
      </trkpt>
      <trkpt lat="45.90384" lon="4.81614">
        <ele>182</ele>
        <time>2017-04-22T09:59:32Z</time>
      </trkpt>
      <trkpt lat="45.90389" lon="4.81613">
        <ele>182</ele>
        <time>2017-04-22T09:59:33Z</time>
      </trkpt>
      <trkpt lat="45.90394" lon="4.81611">
        <ele>182</ele>
        <time>2017-04-22T09:59:34Z</time>
      </trkpt>
      <trkpt lat="45.904" lon="4.8161">
        <ele>182</ele>
        <time>2017-04-22T09:59:35Z</time>
      </trkpt>
      <trkpt lat="45.90405" lon="4.8161">
        <ele>182</ele>
        <time>2017-04-22T09:59:36Z</time>
      </trkpt>
      <trkpt lat="45.90411" lon="4.81609">
        <ele>182</ele>
        <time>2017-04-22T09:59:37Z</time>
      </trkpt>
      <trkpt lat="45.90416" lon="4.81608">
        <ele>182</ele>
        <time>2017-04-22T09:59:38Z</time>
      </trkpt>
      <trkpt lat="45.90421" lon="4.81607">
        <ele>182</ele>
        <time>2017-04-22T09:59:39Z</time>
      </trkpt>
      <trkpt lat="45.90426" lon="4.81607">
        <ele>182</ele>
        <time>2017-04-22T09:59:40Z</time>
      </trkpt>
      <trkpt lat="45.90432" lon="4.81607">
        <ele>182</ele>
        <time>2017-04-22T09:59:41Z</time>
      </trkpt>
      <trkpt lat="45.90437" lon="4.81607">
        <ele>182</ele>
        <time>2017-04-22T09:59:42Z</time>
      </trkpt>
      <trkpt lat="45.90442" lon="4.81606">
        <ele>182</ele>
        <time>2017-04-22T09:59:43Z</time>
      </trkpt>
      <trkpt lat="45.90446" lon="4.81606">
        <ele>182</ele>
        <time>2017-04-22T09:59:44Z</time>
      </trkpt>
      <trkpt lat="45.90451" lon="4.81606">
        <ele>182</ele>
        <time>2017-04-22T09:59:45Z</time>
      </trkpt>
      <trkpt lat="45.90459" lon="4.81605">
        <ele>182</ele>
        <time>2017-04-22T09:59:47Z</time>
      </trkpt>
      <trkpt lat="45.90463" lon="4.81605">
        <ele>182</ele>
        <time>2017-04-22T09:59:48Z</time>
      </trkpt>
      <trkpt lat="45.9047" lon="4.81605">
        <ele>182</ele>
        <time>2017-04-22T09:59:50Z</time>
      </trkpt>
      <trkpt lat="45.90474" lon="4.81605">
        <ele>182</ele>
        <time>2017-04-22T09:59:51Z</time>
      </trkpt>
      <trkpt lat="45.90481" lon="4.81604">
        <ele>182</ele>
        <time>2017-04-22T09:59:53Z</time>
      </trkpt>
      <trkpt lat="45.90485" lon="4.81604">
        <ele>182</ele>
        <time>2017-04-22T09:59:54Z</time>
      </trkpt>
      <trkpt lat="45.9049" lon="4.81604">
        <ele>182</ele>
        <time>2017-04-22T09:59:55Z</time>
      </trkpt>
      <trkpt lat="45.90494" lon="4.81603">
        <ele>182</ele>
        <time>2017-04-22T09:59:56Z</time>
      </trkpt>
      <trkpt lat="45.90499" lon="4.81603">
        <ele>182</ele>
        <time>2017-04-22T09:59:57Z</time>
      </trkpt>
      <trkpt lat="45.90504" lon="4.81602">
        <ele>182</ele>
        <time>2017-04-22T09:59:58Z</time>
      </trkpt>
      <trkpt lat="45.90509" lon="4.81602">
        <ele>182</ele>
        <time>2017-04-22T09:59:59Z</time>
      </trkpt>
      <trkpt lat="45.90514" lon="4.81601">
        <ele>182</ele>
        <time>2017-04-22T10:00:00Z</time>
      </trkpt>
      <trkpt lat="45.90519" lon="4.81601">
        <ele>182</ele>
        <time>2017-04-22T10:00:01Z</time>
      </trkpt>
      <trkpt lat="45.90524" lon="4.816">
        <ele>182</ele>
        <time>2017-04-22T10:00:02Z</time>
      </trkpt>
      <trkpt lat="45.90529" lon="4.816">
        <ele>182</ele>
        <time>2017-04-22T10:00:03Z</time>
      </trkpt>
      <trkpt lat="45.90534" lon="4.816">
        <ele>182</ele>
        <time>2017-04-22T10:00:04Z</time>
      </trkpt>
      <trkpt lat="45.90539" lon="4.81599">
        <ele>182</ele>
        <time>2017-04-22T10:00:05Z</time>
      </trkpt>
      <trkpt lat="45.90544" lon="4.81599">
        <ele>182</ele>
        <time>2017-04-22T10:00:06Z</time>
      </trkpt>
      <trkpt lat="45.9055" lon="4.81598">
        <ele>182</ele>
        <time>2017-04-22T10:00:07Z</time>
      </trkpt>
      <trkpt lat="45.90555" lon="4.81598">
        <ele>182</ele>
        <time>2017-04-22T10:00:08Z</time>
      </trkpt>
      <trkpt lat="45.90561" lon="4.81597">
        <ele>182</ele>
        <time>2017-04-22T10:00:09Z</time>
      </trkpt>
      <trkpt lat="45.90567" lon="4.81597">
        <ele>182</ele>
        <time>2017-04-22T10:00:10Z</time>
      </trkpt>
      <trkpt lat="45.90573" lon="4.81596">
        <ele>182</ele>
        <time>2017-04-22T10:00:11Z</time>
      </trkpt>
      <trkpt lat="45.90578" lon="4.81596">
        <ele>182</ele>
        <time>2017-04-22T10:00:12Z</time>
      </trkpt>
      <trkpt lat="45.90584" lon="4.81596">
        <ele>182</ele>
        <time>2017-04-22T10:00:13Z</time>
      </trkpt>
      <trkpt lat="45.9059" lon="4.81596">
        <ele>182</ele>
        <time>2017-04-22T10:00:14Z</time>
      </trkpt>
      <trkpt lat="45.90596" lon="4.81596">
        <ele>182</ele>
        <time>2017-04-22T10:00:15Z</time>
      </trkpt>
      <trkpt lat="45.90602" lon="4.81595">
        <ele>182</ele>
        <time>2017-04-22T10:00:16Z</time>
      </trkpt>
      <trkpt lat="45.90608" lon="4.81595">
        <ele>182</ele>
        <time>2017-04-22T10:00:17Z</time>
      </trkpt>
      <trkpt lat="45.90615" lon="4.81595">
        <ele>182</ele>
        <time>2017-04-22T10:00:18Z</time>
      </trkpt>
      <trkpt lat="45.90622" lon="4.81594">
        <ele>181</ele>
        <time>2017-04-22T10:00:19Z</time>
      </trkpt>
      <trkpt lat="45.90628" lon="4.81594">
        <ele>181</ele>
        <time>2017-04-22T10:00:20Z</time>
      </trkpt>
      <trkpt lat="45.90635" lon="4.81593">
        <ele>181</ele>
        <time>2017-04-22T10:00:21Z</time>
      </trkpt>
      <trkpt lat="45.90643" lon="4.81593">
        <ele>181</ele>
        <time>2017-04-22T10:00:22Z</time>
      </trkpt>
      <trkpt lat="45.9065" lon="4.81593">
        <ele>180</ele>
        <time>2017-04-22T10:00:23Z</time>
      </trkpt>
      <trkpt lat="45.90657" lon="4.81593">
        <ele>180</ele>
        <time>2017-04-22T10:00:24Z</time>
      </trkpt>
      <trkpt lat="45.90665" lon="4.81592">
        <ele>180</ele>
        <time>2017-04-22T10:00:25Z</time>
      </trkpt>
      <trkpt lat="45.90673" lon="4.81591">
        <ele>179</ele>
        <time>2017-04-22T10:00:26Z</time>
      </trkpt>
      <trkpt lat="45.90682" lon="4.81591">
        <ele>179</ele>
        <time>2017-04-22T10:00:27Z</time>
      </trkpt>
      <trkpt lat="45.9069" lon="4.81591">
        <ele>178</ele>
        <time>2017-04-22T10:00:28Z</time>
      </trkpt>
      <trkpt lat="45.90699" lon="4.81591">
        <ele>178</ele>
        <time>2017-04-22T10:00:29Z</time>
      </trkpt>
      <trkpt lat="45.90707" lon="4.81591">
        <ele>178</ele>
        <time>2017-04-22T10:00:30Z</time>
      </trkpt>
      <trkpt lat="45.90716" lon="4.81591">
        <ele>177</ele>
        <time>2017-04-22T10:00:31Z</time>
      </trkpt>
      <trkpt lat="45.90725" lon="4.8159">
        <ele>177</ele>
        <time>2017-04-22T10:00:32Z</time>
      </trkpt>
      <trkpt lat="45.90734" lon="4.8159">
        <ele>176</ele>
        <time>2017-04-22T10:00:33Z</time>
      </trkpt>
      <trkpt lat="45.90743" lon="4.81589">
        <ele>175</ele>
        <time>2017-04-22T10:00:34Z</time>
      </trkpt>
      <trkpt lat="45.90752" lon="4.81589">
        <ele>174</ele>
        <time>2017-04-22T10:00:35Z</time>
      </trkpt>
      <trkpt lat="45.90762" lon="4.81589">
        <ele>175</ele>
        <time>2017-04-22T10:00:36Z</time>
      </trkpt>
      <trkpt lat="45.90771" lon="4.81588">
        <ele>175</ele>
        <time>2017-04-22T10:00:37Z</time>
      </trkpt>
      <trkpt lat="45.9078" lon="4.81588">
        <ele>175</ele>
        <time>2017-04-22T10:00:38Z</time>
      </trkpt>
      <trkpt lat="45.9079" lon="4.81588">
        <ele>175</ele>
        <time>2017-04-22T10:00:39Z</time>
      </trkpt>
      <trkpt lat="45.90799" lon="4.81588">
        <ele>175</ele>
        <time>2017-04-22T10:00:40Z</time>
      </trkpt>
      <trkpt lat="45.90808" lon="4.81588">
        <ele>174</ele>
        <time>2017-04-22T10:00:41Z</time>
      </trkpt>
      <trkpt lat="45.90816" lon="4.81588">
        <ele>174</ele>
        <time>2017-04-22T10:00:42Z</time>
      </trkpt>
      <trkpt lat="45.90825" lon="4.81588">
        <ele>174</ele>
        <time>2017-04-22T10:00:43Z</time>
      </trkpt>
      <trkpt lat="45.90834" lon="4.81588">
        <ele>173</ele>
        <time>2017-04-22T10:00:44Z</time>
      </trkpt>
      <trkpt lat="45.90842" lon="4.81587">
        <ele>173</ele>
        <time>2017-04-22T10:00:45Z</time>
      </trkpt>
      <trkpt lat="45.90851" lon="4.81587">
        <ele>172</ele>
        <time>2017-04-22T10:00:46Z</time>
      </trkpt>
      <trkpt lat="45.90858" lon="4.81587">
        <ele>172</ele>
        <time>2017-04-22T10:00:47Z</time>
      </trkpt>
      <trkpt lat="45.90866" lon="4.81587">
        <ele>172</ele>
        <time>2017-04-22T10:00:48Z</time>
      </trkpt>
      <trkpt lat="45.90874" lon="4.81586">
        <ele>172</ele>
        <time>2017-04-22T10:00:49Z</time>
      </trkpt>
      <trkpt lat="45.90881" lon="4.81587">
        <ele>172</ele>
        <time>2017-04-22T10:00:50Z</time>
      </trkpt>
      <trkpt lat="45.90888" lon="4.81587">
        <ele>171</ele>
        <time>2017-04-22T10:00:51Z</time>
      </trkpt>
      <trkpt lat="45.90895" lon="4.81588">
        <ele>171</ele>
        <time>2017-04-22T10:00:52Z</time>
      </trkpt>
      <trkpt lat="45.90901" lon="4.81589">
        <ele>171</ele>
        <time>2017-04-22T10:00:53Z</time>
      </trkpt>
      <trkpt lat="45.90908" lon="4.81589">
        <ele>171</ele>
        <time>2017-04-22T10:00:54Z</time>
      </trkpt>
      <trkpt lat="45.90914" lon="4.8159">
        <ele>170</ele>
        <time>2017-04-22T10:00:55Z</time>
      </trkpt>
      <trkpt lat="45.90921" lon="4.81591">
        <ele>170</ele>
        <time>2017-04-22T10:00:56Z</time>
      </trkpt>
      <trkpt lat="45.90927" lon="4.81592">
        <ele>170</ele>
        <time>2017-04-22T10:00:57Z</time>
      </trkpt>
      <trkpt lat="45.90934" lon="4.81593">
        <ele>170</ele>
        <time>2017-04-22T10:00:58Z</time>
      </trkpt>
      <trkpt lat="45.9094" lon="4.81594">
        <ele>170</ele>
        <time>2017-04-22T10:00:59Z</time>
      </trkpt>
      <trkpt lat="45.90947" lon="4.81595">
        <ele>169</ele>
        <time>2017-04-22T10:01:00Z</time>
      </trkpt>
      <trkpt lat="45.90954" lon="4.81596">
        <ele>169</ele>
        <time>2017-04-22T10:01:01Z</time>
      </trkpt>
      <trkpt lat="45.9096" lon="4.81597">
        <ele>169</ele>
        <time>2017-04-22T10:01:02Z</time>
      </trkpt>
      <trkpt lat="45.90966" lon="4.81598">
        <ele>169</ele>
        <time>2017-04-22T10:01:03Z</time>
      </trkpt>
      <trkpt lat="45.90973" lon="4.81599">
        <ele>169</ele>
        <time>2017-04-22T10:01:04Z</time>
      </trkpt>
      <trkpt lat="45.90979" lon="4.816">
        <ele>169</ele>
        <time>2017-04-22T10:01:05Z</time>
      </trkpt>
      <trkpt lat="45.90986" lon="4.81602">
        <ele>169</ele>
        <time>2017-04-22T10:01:06Z</time>
      </trkpt>
      <trkpt lat="45.90992" lon="4.81603">
        <ele>169</ele>
        <time>2017-04-22T10:01:07Z</time>
      </trkpt>
      <trkpt lat="45.90999" lon="4.81604">
        <ele>169</ele>
        <time>2017-04-22T10:01:08Z</time>
      </trkpt>
      <trkpt lat="45.91006" lon="4.81605">
        <ele>169</ele>
        <time>2017-04-22T10:01:09Z</time>
      </trkpt>
      <trkpt lat="45.91012" lon="4.81607">
        <ele>169</ele>
        <time>2017-04-22T10:01:10Z</time>
      </trkpt>
      <trkpt lat="45.91019" lon="4.81608">
        <ele>169</ele>
        <time>2017-04-22T10:01:11Z</time>
      </trkpt>
      <trkpt lat="45.91025" lon="4.81609">
        <ele>169</ele>
        <time>2017-04-22T10:01:12Z</time>
      </trkpt>
      <trkpt lat="45.91031" lon="4.8161">
        <ele>169</ele>
        <time>2017-04-22T10:01:13Z</time>
      </trkpt>
      <trkpt lat="45.91038" lon="4.81611">
        <ele>169</ele>
        <time>2017-04-22T10:01:14Z</time>
      </trkpt>
      <trkpt lat="45.91043" lon="4.81612">
        <ele>169</ele>
        <time>2017-04-22T10:01:15Z</time>
      </trkpt>
      <trkpt lat="45.91049" lon="4.81612">
        <ele>169</ele>
        <time>2017-04-22T10:01:16Z</time>
      </trkpt>
      <trkpt lat="45.91056" lon="4.81613">
        <ele>169</ele>
        <time>2017-04-22T10:01:17Z</time>
      </trkpt>
      <trkpt lat="45.91062" lon="4.81613">
        <ele>169</ele>
        <time>2017-04-22T10:01:18Z</time>
      </trkpt>
      <trkpt lat="45.91069" lon="4.81614">
        <ele>169</ele>
        <time>2017-04-22T10:01:19Z</time>
      </trkpt>
      <trkpt lat="45.91075" lon="4.81614">
        <ele>169</ele>
        <time>2017-04-22T10:01:20Z</time>
      </trkpt>
      <trkpt lat="45.91082" lon="4.81614">
        <ele>169</ele>
        <time>2017-04-22T10:01:21Z</time>
      </trkpt>
      <trkpt lat="45.91089" lon="4.81615">
        <ele>169</ele>
        <time>2017-04-22T10:01:22Z</time>
      </trkpt>
      <trkpt lat="45.91095" lon="4.81615">
        <ele>169</ele>
        <time>2017-04-22T10:01:23Z</time>
      </trkpt>
      <trkpt lat="45.91102" lon="4.81615">
        <ele>170</ele>
        <time>2017-04-22T10:01:24Z</time>
      </trkpt>
      <trkpt lat="45.91108" lon="4.81616">
        <ele>170</ele>
        <time>2017-04-22T10:01:25Z</time>
      </trkpt>
      <trkpt lat="45.91114" lon="4.81616">
        <ele>170</ele>
        <time>2017-04-22T10:01:26Z</time>
      </trkpt>
      <trkpt lat="45.9112" lon="4.81616">
        <ele>170</ele>
        <time>2017-04-22T10:01:27Z</time>
      </trkpt>
      <trkpt lat="45.91125" lon="4.81616">
        <ele>170</ele>
        <time>2017-04-22T10:01:28Z</time>
      </trkpt>
      <trkpt lat="45.91131" lon="4.81616">
        <ele>170</ele>
        <time>2017-04-22T10:01:29Z</time>
      </trkpt>
      <trkpt lat="45.91137" lon="4.81616">
        <ele>170</ele>
        <time>2017-04-22T10:01:30Z</time>
      </trkpt>
      <trkpt lat="45.91142" lon="4.81616">
        <ele>170</ele>
        <time>2017-04-22T10:01:31Z</time>
      </trkpt>
      <trkpt lat="45.91148" lon="4.81616">
        <ele>170</ele>
        <time>2017-04-22T10:01:32Z</time>
      </trkpt>
      <trkpt lat="45.91153" lon="4.81616">
        <ele>170</ele>
        <time>2017-04-22T10:01:33Z</time>
      </trkpt>
      <trkpt lat="45.91159" lon="4.81617">
        <ele>170</ele>
        <time>2017-04-22T10:01:34Z</time>
      </trkpt>
      <trkpt lat="45.91164" lon="4.81617">
        <ele>170</ele>
        <time>2017-04-22T10:01:35Z</time>
      </trkpt>
      <trkpt lat="45.9117" lon="4.81617">
        <ele>170</ele>
        <time>2017-04-22T10:01:36Z</time>
      </trkpt>
      <trkpt lat="45.91176" lon="4.81616">
        <ele>170</ele>
        <time>2017-04-22T10:01:37Z</time>
      </trkpt>
      <trkpt lat="45.91182" lon="4.81616">
        <ele>170</ele>
        <time>2017-04-22T10:01:38Z</time>
      </trkpt>
      <trkpt lat="45.91188" lon="4.81616">
        <ele>170</ele>
        <time>2017-04-22T10:01:39Z</time>
      </trkpt>
      <trkpt lat="45.91193" lon="4.81617">
        <ele>170</ele>
        <time>2017-04-22T10:01:40Z</time>
      </trkpt>
      <trkpt lat="45.91199" lon="4.81617">
        <ele>170</ele>
        <time>2017-04-22T10:01:41Z</time>
      </trkpt>
      <trkpt lat="45.91205" lon="4.81617">
        <ele>170</ele>
        <time>2017-04-22T10:01:42Z</time>
      </trkpt>
      <trkpt lat="45.91211" lon="4.81617">
        <ele>170</ele>
        <time>2017-04-22T10:01:43Z</time>
      </trkpt>
      <trkpt lat="45.91217" lon="4.81617">
        <ele>170</ele>
        <time>2017-04-22T10:01:44Z</time>
      </trkpt>
      <trkpt lat="45.91223" lon="4.81617">
        <ele>170</ele>
        <time>2017-04-22T10:01:45Z</time>
      </trkpt>
      <trkpt lat="45.91229" lon="4.81617">
        <ele>170</ele>
        <time>2017-04-22T10:01:46Z</time>
      </trkpt>
      <trkpt lat="45.91235" lon="4.81617">
        <ele>170</ele>
        <time>2017-04-22T10:01:47Z</time>
      </trkpt>
      <trkpt lat="45.91241" lon="4.81617">
        <ele>170</ele>
        <time>2017-04-22T10:01:48Z</time>
      </trkpt>
      <trkpt lat="45.91248" lon="4.81617">
        <ele>170</ele>
        <time>2017-04-22T10:01:49Z</time>
      </trkpt>
      <trkpt lat="45.91254" lon="4.81617">
        <ele>170</ele>
        <time>2017-04-22T10:01:50Z</time>
      </trkpt>
      <trkpt lat="45.9126" lon="4.81616">
        <ele>170</ele>
        <time>2017-04-22T10:01:51Z</time>
      </trkpt>
      <trkpt lat="45.91267" lon="4.81616">
        <ele>170</ele>
        <time>2017-04-22T10:01:52Z</time>
      </trkpt>
      <trkpt lat="45.91273" lon="4.81616">
        <ele>170</ele>
        <time>2017-04-22T10:01:53Z</time>
      </trkpt>
      <trkpt lat="45.91279" lon="4.81616">
        <ele>170</ele>
        <time>2017-04-22T10:01:54Z</time>
      </trkpt>
      <trkpt lat="45.91286" lon="4.81616">
        <ele>170</ele>
        <time>2017-04-22T10:01:55Z</time>
      </trkpt>
      <trkpt lat="45.91292" lon="4.81616">
        <ele>170</ele>
        <time>2017-04-22T10:01:56Z</time>
      </trkpt>
      <trkpt lat="45.91298" lon="4.81616">
        <ele>170</ele>
        <time>2017-04-22T10:01:57Z</time>
      </trkpt>
      <trkpt lat="45.91304" lon="4.81616">
        <ele>170</ele>
        <time>2017-04-22T10:01:58Z</time>
      </trkpt>
      <trkpt lat="45.9131" lon="4.81616">
        <ele>170</ele>
        <time>2017-04-22T10:01:59Z</time>
      </trkpt>
      <trkpt lat="45.91315" lon="4.81616">
        <ele>170</ele>
        <time>2017-04-22T10:02:00Z</time>
      </trkpt>
      <trkpt lat="45.91321" lon="4.81616">
        <ele>170</ele>
        <time>2017-04-22T10:02:01Z</time>
      </trkpt>
      <trkpt lat="45.91327" lon="4.81616">
        <ele>170</ele>
        <time>2017-04-22T10:02:02Z</time>
      </trkpt>
      <trkpt lat="45.91332" lon="4.81616">
        <ele>170</ele>
        <time>2017-04-22T10:02:03Z</time>
      </trkpt>
      <trkpt lat="45.91338" lon="4.81615">
        <ele>170</ele>
        <time>2017-04-22T10:02:04Z</time>
      </trkpt>
      <trkpt lat="45.91343" lon="4.81616">
        <ele>170</ele>
        <time>2017-04-22T10:02:05Z</time>
      </trkpt>
      <trkpt lat="45.91349" lon="4.81616">
        <ele>170</ele>
        <time>2017-04-22T10:02:06Z</time>
      </trkpt>
      <trkpt lat="45.91355" lon="4.81615">
        <ele>170</ele>
        <time>2017-04-22T10:02:07Z</time>
      </trkpt>
      <trkpt lat="45.9136" lon="4.81615">
        <ele>170</ele>
        <time>2017-04-22T10:02:08Z</time>
      </trkpt>
      <trkpt lat="45.91366" lon="4.81615">
        <ele>170</ele>
        <time>2017-04-22T10:02:09Z</time>
      </trkpt>
      <trkpt lat="45.91372" lon="4.81615">
        <ele>170</ele>
        <time>2017-04-22T10:02:10Z</time>
      </trkpt>
      <trkpt lat="45.91377" lon="4.81615">
        <ele>170</ele>
        <time>2017-04-22T10:02:11Z</time>
      </trkpt>
      <trkpt lat="45.91383" lon="4.81615">
        <ele>170</ele>
        <time>2017-04-22T10:02:12Z</time>
      </trkpt>
      <trkpt lat="45.91389" lon="4.81614">
        <ele>170</ele>
        <time>2017-04-22T10:02:13Z</time>
      </trkpt>
      <trkpt lat="45.91395" lon="4.81614">
        <ele>170</ele>
        <time>2017-04-22T10:02:14Z</time>
      </trkpt>
      <trkpt lat="45.91401" lon="4.81614">
        <ele>170</ele>
        <time>2017-04-22T10:02:15Z</time>
      </trkpt>
      <trkpt lat="45.91407" lon="4.81613">
        <ele>170</ele>
        <time>2017-04-22T10:02:16Z</time>
      </trkpt>
      <trkpt lat="45.91412" lon="4.81613">
        <ele>170</ele>
        <time>2017-04-22T10:02:17Z</time>
      </trkpt>
      <trkpt lat="45.91418" lon="4.81613">
        <ele>170</ele>
        <time>2017-04-22T10:02:18Z</time>
      </trkpt>
      <trkpt lat="45.91424" lon="4.81612">
        <ele>170</ele>
        <time>2017-04-22T10:02:19Z</time>
      </trkpt>
      <trkpt lat="45.9143" lon="4.81611">
        <ele>170</ele>
        <time>2017-04-22T10:02:20Z</time>
      </trkpt>
      <trkpt lat="45.91435" lon="4.81611">
        <ele>170</ele>
        <time>2017-04-22T10:02:21Z</time>
      </trkpt>
      <trkpt lat="45.91441" lon="4.8161">
        <ele>170</ele>
        <time>2017-04-22T10:02:22Z</time>
      </trkpt>
      <trkpt lat="45.91446" lon="4.8161">
        <ele>170</ele>
        <time>2017-04-22T10:02:23Z</time>
      </trkpt>
      <trkpt lat="45.91451" lon="4.8161">
        <ele>170</ele>
        <time>2017-04-22T10:02:24Z</time>
      </trkpt>
      <trkpt lat="45.91456" lon="4.81609">
        <ele>170</ele>
        <time>2017-04-22T10:02:25Z</time>
      </trkpt>
      <trkpt lat="45.91461" lon="4.81608">
        <ele>170</ele>
        <time>2017-04-22T10:02:26Z</time>
      </trkpt>
      <trkpt lat="45.91466" lon="4.81608">
        <ele>170</ele>
        <time>2017-04-22T10:02:27Z</time>
      </trkpt>
      <trkpt lat="45.91471" lon="4.81607">
        <ele>170</ele>
        <time>2017-04-22T10:02:28Z</time>
      </trkpt>
      <trkpt lat="45.91476" lon="4.81606">
        <ele>170</ele>
        <time>2017-04-22T10:02:29Z</time>
      </trkpt>
      <trkpt lat="45.91481" lon="4.81605">
        <ele>170</ele>
        <time>2017-04-22T10:02:30Z</time>
      </trkpt>
      <trkpt lat="45.91486" lon="4.81604">
        <ele>170</ele>
        <time>2017-04-22T10:02:31Z</time>
      </trkpt>
      <trkpt lat="45.91491" lon="4.81603">
        <ele>169</ele>
        <time>2017-04-22T10:02:32Z</time>
      </trkpt>
      <trkpt lat="45.91497" lon="4.81602">
        <ele>169</ele>
        <time>2017-04-22T10:02:33Z</time>
      </trkpt>
      <trkpt lat="45.91503" lon="4.81602">
        <ele>170</ele>
        <time>2017-04-22T10:02:34Z</time>
      </trkpt>
      <trkpt lat="45.91508" lon="4.81601">
        <ele>170</ele>
        <time>2017-04-22T10:02:35Z</time>
      </trkpt>
      <trkpt lat="45.91514" lon="4.816">
        <ele>170</ele>
        <time>2017-04-22T10:02:36Z</time>
      </trkpt>
      <trkpt lat="45.9152" lon="4.81599">
        <ele>170</ele>
        <time>2017-04-22T10:02:37Z</time>
      </trkpt>
      <trkpt lat="45.91526" lon="4.81598">
        <ele>170</ele>
        <time>2017-04-22T10:02:38Z</time>
      </trkpt>
      <trkpt lat="45.91531" lon="4.81597">
        <ele>170</ele>
        <time>2017-04-22T10:02:39Z</time>
      </trkpt>
      <trkpt lat="45.91537" lon="4.81597">
        <ele>170</ele>
        <time>2017-04-22T10:02:40Z</time>
      </trkpt>
      <trkpt lat="45.91542" lon="4.81596">
        <ele>170</ele>
        <time>2017-04-22T10:02:41Z</time>
      </trkpt>
      <trkpt lat="45.91547" lon="4.81595">
        <ele>170</ele>
        <time>2017-04-22T10:02:42Z</time>
      </trkpt>
      <trkpt lat="45.91552" lon="4.81594">
        <ele>170</ele>
        <time>2017-04-22T10:02:43Z</time>
      </trkpt>
      <trkpt lat="45.91558" lon="4.81593">
        <ele>170</ele>
        <time>2017-04-22T10:02:44Z</time>
      </trkpt>
      <trkpt lat="45.91563" lon="4.81592">
        <ele>170</ele>
        <time>2017-04-22T10:02:45Z</time>
      </trkpt>
      <trkpt lat="45.91568" lon="4.81591">
        <ele>170</ele>
        <time>2017-04-22T10:02:46Z</time>
      </trkpt>
      <trkpt lat="45.91574" lon="4.8159">
        <ele>170</ele>
        <time>2017-04-22T10:02:47Z</time>
      </trkpt>
      <trkpt lat="45.91579" lon="4.81589">
        <ele>170</ele>
        <time>2017-04-22T10:02:48Z</time>
      </trkpt>
      <trkpt lat="45.91585" lon="4.81588">
        <ele>170</ele>
        <time>2017-04-22T10:02:49Z</time>
      </trkpt>
      <trkpt lat="45.9159" lon="4.81587">
        <ele>170</ele>
        <time>2017-04-22T10:02:50Z</time>
      </trkpt>
      <trkpt lat="45.91595" lon="4.81586">
        <ele>170</ele>
        <time>2017-04-22T10:02:51Z</time>
      </trkpt>
      <trkpt lat="45.91601" lon="4.81585">
        <ele>170</ele>
        <time>2017-04-22T10:02:52Z</time>
      </trkpt>
      <trkpt lat="45.91607" lon="4.81584">
        <ele>170</ele>
        <time>2017-04-22T10:02:53Z</time>
      </trkpt>
      <trkpt lat="45.91613" lon="4.81583">
        <ele>170</ele>
        <time>2017-04-22T10:02:54Z</time>
      </trkpt>
      <trkpt lat="45.91618" lon="4.81582">
        <ele>170</ele>
        <time>2017-04-22T10:02:55Z</time>
      </trkpt>
      <trkpt lat="45.91624" lon="4.81581">
        <ele>170</ele>
        <time>2017-04-22T10:02:56Z</time>
      </trkpt>
      <trkpt lat="45.9163" lon="4.8158">
        <ele>170</ele>
        <time>2017-04-22T10:02:57Z</time>
      </trkpt>
      <trkpt lat="45.91636" lon="4.81579">
        <ele>170</ele>
        <time>2017-04-22T10:02:58Z</time>
      </trkpt>
      <trkpt lat="45.91641" lon="4.81578">
        <ele>170</ele>
        <time>2017-04-22T10:02:59Z</time>
      </trkpt>
      <trkpt lat="45.91647" lon="4.81577">
        <ele>170</ele>
        <time>2017-04-22T10:03:00Z</time>
      </trkpt>
      <trkpt lat="45.91652" lon="4.81575">
        <ele>170</ele>
        <time>2017-04-22T10:03:01Z</time>
      </trkpt>
      <trkpt lat="45.91658" lon="4.81574">
        <ele>170</ele>
        <time>2017-04-22T10:03:02Z</time>
      </trkpt>
      <trkpt lat="45.91663" lon="4.81572">
        <ele>170</ele>
        <time>2017-04-22T10:03:03Z</time>
      </trkpt>
      <trkpt lat="45.91669" lon="4.81571">
        <ele>170</ele>
        <time>2017-04-22T10:03:04Z</time>
      </trkpt>
      <trkpt lat="45.91675" lon="4.8157">
        <ele>170</ele>
        <time>2017-04-22T10:03:05Z</time>
      </trkpt>
      <trkpt lat="45.9168" lon="4.81568">
        <ele>170</ele>
        <time>2017-04-22T10:03:06Z</time>
      </trkpt>
      <trkpt lat="45.91686" lon="4.81567">
        <ele>169</ele>
        <time>2017-04-22T10:03:07Z</time>
      </trkpt>
      <trkpt lat="45.91691" lon="4.81566">
        <ele>169</ele>
        <time>2017-04-22T10:03:08Z</time>
      </trkpt>
      <trkpt lat="45.91697" lon="4.81565">
        <ele>169</ele>
        <time>2017-04-22T10:03:09Z</time>
      </trkpt>
      <trkpt lat="45.91702" lon="4.81563">
        <ele>169</ele>
        <time>2017-04-22T10:03:10Z</time>
      </trkpt>
      <trkpt lat="45.91708" lon="4.81562">
        <ele>169</ele>
        <time>2017-04-22T10:03:11Z</time>
      </trkpt>
      <trkpt lat="45.91713" lon="4.8156">
        <ele>169</ele>
        <time>2017-04-22T10:03:12Z</time>
      </trkpt>
      <trkpt lat="45.91718" lon="4.81558">
        <ele>169</ele>
        <time>2017-04-22T10:03:13Z</time>
      </trkpt>
      <trkpt lat="45.91723" lon="4.81557">
        <ele>169</ele>
        <time>2017-04-22T10:03:14Z</time>
      </trkpt>
      <trkpt lat="45.91728" lon="4.81555">
        <ele>169</ele>
        <time>2017-04-22T10:03:15Z</time>
      </trkpt>
      <trkpt lat="45.91734" lon="4.81554">
        <ele>169</ele>
        <time>2017-04-22T10:03:16Z</time>
      </trkpt>
      <trkpt lat="45.91739" lon="4.81552">
        <ele>169</ele>
        <time>2017-04-22T10:03:17Z</time>
      </trkpt>
      <trkpt lat="45.91744" lon="4.8155">
        <ele>169</ele>
        <time>2017-04-22T10:03:18Z</time>
      </trkpt>
      <trkpt lat="45.91749" lon="4.81548">
        <ele>169</ele>
        <time>2017-04-22T10:03:19Z</time>
      </trkpt>
      <trkpt lat="45.91755" lon="4.81547">
        <ele>168</ele>
        <time>2017-04-22T10:03:20Z</time>
      </trkpt>
      <trkpt lat="45.9176" lon="4.81545">
        <ele>168</ele>
        <time>2017-04-22T10:03:21Z</time>
      </trkpt>
      <trkpt lat="45.91766" lon="4.81543">
        <ele>168</ele>
        <time>2017-04-22T10:03:22Z</time>
      </trkpt>
      <trkpt lat="45.91772" lon="4.81542">
        <ele>169</ele>
        <time>2017-04-22T10:03:23Z</time>
      </trkpt>
      <trkpt lat="45.91777" lon="4.8154">
        <ele>169</ele>
        <time>2017-04-22T10:03:24Z</time>
      </trkpt>
      <trkpt lat="45.91783" lon="4.81537">
        <ele>169</ele>
        <time>2017-04-22T10:03:25Z</time>
      </trkpt>
      <trkpt lat="45.91788" lon="4.81535">
        <ele>169</ele>
        <time>2017-04-22T10:03:26Z</time>
      </trkpt>
      <trkpt lat="45.91793" lon="4.81533">
        <ele>168</ele>
        <time>2017-04-22T10:03:27Z</time>
      </trkpt>
      <trkpt lat="45.91798" lon="4.81531">
        <ele>168</ele>
        <time>2017-04-22T10:03:28Z</time>
      </trkpt>
      <trkpt lat="45.91803" lon="4.81529">
        <ele>168</ele>
        <time>2017-04-22T10:03:29Z</time>
      </trkpt>
      <trkpt lat="45.91808" lon="4.81527">
        <ele>168</ele>
        <time>2017-04-22T10:03:30Z</time>
      </trkpt>
      <trkpt lat="45.91814" lon="4.81525">
        <ele>168</ele>
        <time>2017-04-22T10:03:31Z</time>
      </trkpt>
      <trkpt lat="45.91819" lon="4.81523">
        <ele>168</ele>
        <time>2017-04-22T10:03:32Z</time>
      </trkpt>
      <trkpt lat="45.91824" lon="4.81522">
        <ele>168</ele>
        <time>2017-04-22T10:03:33Z</time>
      </trkpt>
      <trkpt lat="45.9183" lon="4.8152">
        <ele>168</ele>
        <time>2017-04-22T10:03:34Z</time>
      </trkpt>
      <trkpt lat="45.91835" lon="4.81518">
        <ele>169</ele>
        <time>2017-04-22T10:03:35Z</time>
      </trkpt>
      <trkpt lat="45.9184" lon="4.81516">
        <ele>169</ele>
        <time>2017-04-22T10:03:36Z</time>
      </trkpt>
      <trkpt lat="45.91845" lon="4.81514">
        <ele>169</ele>
        <time>2017-04-22T10:03:37Z</time>
      </trkpt>
      <trkpt lat="45.91851" lon="4.81512">
        <ele>169</ele>
        <time>2017-04-22T10:03:38Z</time>
      </trkpt>
      <trkpt lat="45.91856" lon="4.8151">
        <ele>169</ele>
        <time>2017-04-22T10:03:39Z</time>
      </trkpt>
      <trkpt lat="45.91862" lon="4.81509">
        <ele>169</ele>
        <time>2017-04-22T10:03:40Z</time>
      </trkpt>
      <trkpt lat="45.91867" lon="4.81507">
        <ele>169</ele>
        <time>2017-04-22T10:03:41Z</time>
      </trkpt>
      <trkpt lat="45.91872" lon="4.81505">
        <ele>169</ele>
        <time>2017-04-22T10:03:42Z</time>
      </trkpt>
      <trkpt lat="45.91877" lon="4.81504">
        <ele>169</ele>
        <time>2017-04-22T10:03:43Z</time>
      </trkpt>
      <trkpt lat="45.91882" lon="4.81503">
        <ele>169</ele>
        <time>2017-04-22T10:03:44Z</time>
      </trkpt>
      <trkpt lat="45.91887" lon="4.81501">
        <ele>169</ele>
        <time>2017-04-22T10:03:45Z</time>
      </trkpt>
      <trkpt lat="45.91892" lon="4.81499">
        <ele>169</ele>
        <time>2017-04-22T10:03:46Z</time>
      </trkpt>
      <trkpt lat="45.91897" lon="4.81497">
        <ele>169</ele>
        <time>2017-04-22T10:03:47Z</time>
      </trkpt>
      <trkpt lat="45.91903" lon="4.81495">
        <ele>169</ele>
        <time>2017-04-22T10:03:48Z</time>
      </trkpt>
      <trkpt lat="45.91908" lon="4.81493">
        <ele>170</ele>
        <time>2017-04-22T10:03:49Z</time>
      </trkpt>
      <trkpt lat="45.91914" lon="4.81491">
        <ele>170</ele>
        <time>2017-04-22T10:03:50Z</time>
      </trkpt>
      <trkpt lat="45.9192" lon="4.8149">
        <ele>170</ele>
        <time>2017-04-22T10:03:51Z</time>
      </trkpt>
      <trkpt lat="45.91925" lon="4.81488">
        <ele>170</ele>
        <time>2017-04-22T10:03:52Z</time>
      </trkpt>
      <trkpt lat="45.91931" lon="4.81486">
        <ele>170</ele>
        <time>2017-04-22T10:03:53Z</time>
      </trkpt>
      <trkpt lat="45.91937" lon="4.81483">
        <ele>170</ele>
        <time>2017-04-22T10:03:54Z</time>
      </trkpt>
      <trkpt lat="45.91942" lon="4.81481">
        <ele>170</ele>
        <time>2017-04-22T10:03:55Z</time>
      </trkpt>
      <trkpt lat="45.91947" lon="4.81479">
        <ele>170</ele>
        <time>2017-04-22T10:03:56Z</time>
      </trkpt>
      <trkpt lat="45.91952" lon="4.81476">
        <ele>170</ele>
        <time>2017-04-22T10:03:57Z</time>
      </trkpt>
      <trkpt lat="45.91958" lon="4.81474">
        <ele>170</ele>
        <time>2017-04-22T10:03:58Z</time>
      </trkpt>
      <trkpt lat="45.91963" lon="4.81472">
        <ele>170</ele>
        <time>2017-04-22T10:03:59Z</time>
      </trkpt>
      <trkpt lat="45.91968" lon="4.8147">
        <ele>170</ele>
        <time>2017-04-22T10:04:00Z</time>
      </trkpt>
      <trkpt lat="45.91973" lon="4.81467">
        <ele>170</ele>
        <time>2017-04-22T10:04:01Z</time>
      </trkpt>
      <trkpt lat="45.91978" lon="4.81465">
        <ele>170</ele>
        <time>2017-04-22T10:04:02Z</time>
      </trkpt>
      <trkpt lat="45.91984" lon="4.81463">
        <ele>170</ele>
        <time>2017-04-22T10:04:03Z</time>
      </trkpt>
      <trkpt lat="45.91989" lon="4.81461">
        <ele>170</ele>
        <time>2017-04-22T10:04:04Z</time>
      </trkpt>
      <trkpt lat="45.91994" lon="4.81459">
        <ele>170</ele>
        <time>2017-04-22T10:04:05Z</time>
      </trkpt>
      <trkpt lat="45.91999" lon="4.81456">
        <ele>170</ele>
        <time>2017-04-22T10:04:06Z</time>
      </trkpt>
      <trkpt lat="45.92005" lon="4.81454">
        <ele>170</ele>
        <time>2017-04-22T10:04:07Z</time>
      </trkpt>
      <trkpt lat="45.9201" lon="4.81451">
        <ele>170</ele>
        <time>2017-04-22T10:04:08Z</time>
      </trkpt>
      <trkpt lat="45.92015" lon="4.81449">
        <ele>170</ele>
        <time>2017-04-22T10:04:09Z</time>
      </trkpt>
      <trkpt lat="45.92021" lon="4.81446">
        <ele>170</ele>
        <time>2017-04-22T10:04:10Z</time>
      </trkpt>
      <trkpt lat="45.92026" lon="4.81443">
        <ele>170</ele>
        <time>2017-04-22T10:04:11Z</time>
      </trkpt>
      <trkpt lat="45.92032" lon="4.8144">
        <ele>170</ele>
        <time>2017-04-22T10:04:12Z</time>
      </trkpt>
      <trkpt lat="45.92037" lon="4.81437">
        <ele>170</ele>
        <time>2017-04-22T10:04:13Z</time>
      </trkpt>
      <trkpt lat="45.92042" lon="4.81434">
        <ele>170</ele>
        <time>2017-04-22T10:04:14Z</time>
      </trkpt>
      <trkpt lat="45.92047" lon="4.81432">
        <ele>170</ele>
        <time>2017-04-22T10:04:15Z</time>
      </trkpt>
      <trkpt lat="45.92051" lon="4.81429">
        <ele>170</ele>
        <time>2017-04-22T10:04:16Z</time>
      </trkpt>
      <trkpt lat="45.92056" lon="4.81426">
        <ele>170</ele>
        <time>2017-04-22T10:04:17Z</time>
      </trkpt>
      <trkpt lat="45.92061" lon="4.81422">
        <ele>170</ele>
        <time>2017-04-22T10:04:18Z</time>
      </trkpt>
      <trkpt lat="45.92066" lon="4.81419">
        <ele>170</ele>
        <time>2017-04-22T10:04:19Z</time>
      </trkpt>
      <trkpt lat="45.92072" lon="4.81416">
        <ele>170</ele>
        <time>2017-04-22T10:04:20Z</time>
      </trkpt>
      <trkpt lat="45.92077" lon="4.81413">
        <ele>170</ele>
        <time>2017-04-22T10:04:21Z</time>
      </trkpt>
      <trkpt lat="45.92083" lon="4.81409">
        <ele>170</ele>
        <time>2017-04-22T10:04:22Z</time>
      </trkpt>
      <trkpt lat="45.92089" lon="4.81406">
        <ele>170</ele>
        <time>2017-04-22T10:04:23Z</time>
      </trkpt>
      <trkpt lat="45.92094" lon="4.81403">
        <ele>170</ele>
        <time>2017-04-22T10:04:24Z</time>
      </trkpt>
      <trkpt lat="45.921" lon="4.814">
        <ele>170</ele>
        <time>2017-04-22T10:04:25Z</time>
      </trkpt>
      <trkpt lat="45.92105" lon="4.81397">
        <ele>170</ele>
        <time>2017-04-22T10:04:26Z</time>
      </trkpt>
      <trkpt lat="45.92111" lon="4.81395">
        <ele>170</ele>
        <time>2017-04-22T10:04:27Z</time>
      </trkpt>
      <trkpt lat="45.92116" lon="4.81394">
        <ele>170</ele>
        <time>2017-04-22T10:04:28Z</time>
      </trkpt>
      <trkpt lat="45.92121" lon="4.81392">
        <ele>170</ele>
        <time>2017-04-22T10:04:29Z</time>
      </trkpt>
      <trkpt lat="45.92126" lon="4.81391">
        <ele>170</ele>
        <time>2017-04-22T10:04:30Z</time>
      </trkpt>
      <trkpt lat="45.9213" lon="4.8139">
        <ele>170</ele>
        <time>2017-04-22T10:04:31Z</time>
      </trkpt>
      <trkpt lat="45.92135" lon="4.81389">
        <ele>170</ele>
        <time>2017-04-22T10:04:32Z</time>
      </trkpt>
      <trkpt lat="45.9214" lon="4.81389">
        <ele>170</ele>
        <time>2017-04-22T10:04:33Z</time>
      </trkpt>
      <trkpt lat="45.92145" lon="4.81389">
        <ele>170</ele>
        <time>2017-04-22T10:04:34Z</time>
      </trkpt>
      <trkpt lat="45.9215" lon="4.81389">
        <ele>170</ele>
        <time>2017-04-22T10:04:35Z</time>
      </trkpt>
      <trkpt lat="45.92155" lon="4.81389">
        <ele>170</ele>
        <time>2017-04-22T10:04:36Z</time>
      </trkpt>
      <trkpt lat="45.9216" lon="4.81391">
        <ele>170</ele>
        <time>2017-04-22T10:04:37Z</time>
      </trkpt>
      <trkpt lat="45.92165" lon="4.81394">
        <ele>170</ele>
        <time>2017-04-22T10:04:38Z</time>
      </trkpt>
      <trkpt lat="45.9217" lon="4.81397">
        <ele>170</ele>
        <time>2017-04-22T10:04:39Z</time>
      </trkpt>
      <trkpt lat="45.92175" lon="4.81399">
        <ele>170</ele>
        <time>2017-04-22T10:04:40Z</time>
      </trkpt>
      <trkpt lat="45.9218" lon="4.814">
        <ele>170</ele>
        <time>2017-04-22T10:04:41Z</time>
      </trkpt>
      <trkpt lat="45.92185" lon="4.81399">
        <ele>170</ele>
        <time>2017-04-22T10:04:42Z</time>
      </trkpt>
      <trkpt lat="45.9219" lon="4.81395">
        <ele>170</ele>
        <time>2017-04-22T10:04:43Z</time>
      </trkpt>
      <trkpt lat="45.92194" lon="4.8139">
        <ele>170</ele>
        <time>2017-04-22T10:04:44Z</time>
      </trkpt>
      <trkpt lat="45.92197" lon="4.81383">
        <ele>170</ele>
        <time>2017-04-22T10:04:45Z</time>
      </trkpt>
      <trkpt lat="45.92199" lon="4.81376">
        <ele>170</ele>
        <time>2017-04-22T10:04:46Z</time>
      </trkpt>
      <trkpt lat="45.92201" lon="4.81369">
        <ele>170</ele>
        <time>2017-04-22T10:04:47Z</time>
      </trkpt>
      <trkpt lat="45.92203" lon="4.81362">
        <ele>170</ele>
        <time>2017-04-22T10:04:48Z</time>
      </trkpt>
      <trkpt lat="45.92206" lon="4.81356">
        <ele>170</ele>
        <time>2017-04-22T10:04:49Z</time>
      </trkpt>
      <trkpt lat="45.9221" lon="4.8135">
        <ele>171</ele>
        <time>2017-04-22T10:04:50Z</time>
      </trkpt>
      <trkpt lat="45.92214" lon="4.81346">
        <ele>171</ele>
        <time>2017-04-22T10:04:51Z</time>
      </trkpt>
      <trkpt lat="45.92218" lon="4.81341">
        <ele>171</ele>
        <time>2017-04-22T10:04:52Z</time>
      </trkpt>
      <trkpt lat="45.92222" lon="4.81337">
        <ele>171</ele>
        <time>2017-04-22T10:04:53Z</time>
      </trkpt>
      <trkpt lat="45.92226" lon="4.81332">
        <ele>171</ele>
        <time>2017-04-22T10:04:54Z</time>
      </trkpt>
      <trkpt lat="45.9223" lon="4.81327">
        <ele>171</ele>
        <time>2017-04-22T10:04:55Z</time>
      </trkpt>
      <trkpt lat="45.92235" lon="4.81322">
        <ele>171</ele>
        <time>2017-04-22T10:04:56Z</time>
      </trkpt>
      <trkpt lat="45.92239" lon="4.81318">
        <ele>171</ele>
        <time>2017-04-22T10:04:57Z</time>
      </trkpt>
      <trkpt lat="45.92244" lon="4.81313">
        <ele>171</ele>
        <time>2017-04-22T10:04:58Z</time>
      </trkpt>
      <trkpt lat="45.92249" lon="4.81309">
        <ele>171</ele>
        <time>2017-04-22T10:04:59Z</time>
      </trkpt>
      <trkpt lat="45.92254" lon="4.81305">
        <ele>171</ele>
        <time>2017-04-22T10:05:00Z</time>
      </trkpt>
      <trkpt lat="45.92259" lon="4.81302">
        <ele>171</ele>
        <time>2017-04-22T10:05:01Z</time>
      </trkpt>
      <trkpt lat="45.92264" lon="4.81299">
        <ele>170</ele>
        <time>2017-04-22T10:05:02Z</time>
      </trkpt>
      <trkpt lat="45.92269" lon="4.81296">
        <ele>170</ele>
        <time>2017-04-22T10:05:03Z</time>
      </trkpt>
      <trkpt lat="45.92273" lon="4.81292">
        <ele>170</ele>
        <time>2017-04-22T10:05:04Z</time>
      </trkpt>
      <trkpt lat="45.92278" lon="4.81289">
        <ele>170</ele>
        <time>2017-04-22T10:05:05Z</time>
      </trkpt>
      <trkpt lat="45.92282" lon="4.81286">
        <ele>170</ele>
        <time>2017-04-22T10:05:06Z</time>
      </trkpt>
      <trkpt lat="45.92287" lon="4.81283">
        <ele>170</ele>
        <time>2017-04-22T10:05:07Z</time>
      </trkpt>
      <trkpt lat="45.92291" lon="4.81279">
        <ele>170</ele>
        <time>2017-04-22T10:05:08Z</time>
      </trkpt>
      <trkpt lat="45.92296" lon="4.81276">
        <ele>170</ele>
        <time>2017-04-22T10:05:09Z</time>
      </trkpt>
      <trkpt lat="45.92301" lon="4.81274">
        <ele>170</ele>
        <time>2017-04-22T10:05:10Z</time>
      </trkpt>
      <trkpt lat="45.92306" lon="4.81271">
        <ele>170</ele>
        <time>2017-04-22T10:05:11Z</time>
      </trkpt>
      <trkpt lat="45.9231" lon="4.81268">
        <ele>170</ele>
        <time>2017-04-22T10:05:12Z</time>
      </trkpt>
      <trkpt lat="45.92315" lon="4.81264">
        <ele>170</ele>
        <time>2017-04-22T10:05:13Z</time>
      </trkpt>
      <trkpt lat="45.92319" lon="4.81261">
        <ele>170</ele>
        <time>2017-04-22T10:05:14Z</time>
      </trkpt>
      <trkpt lat="45.92324" lon="4.81259">
        <ele>170</ele>
        <time>2017-04-22T10:05:15Z</time>
      </trkpt>
      <trkpt lat="45.92328" lon="4.81256">
        <ele>169</ele>
        <time>2017-04-22T10:05:16Z</time>
      </trkpt>
      <trkpt lat="45.92333" lon="4.81253">
        <ele>169</ele>
        <time>2017-04-22T10:05:17Z</time>
      </trkpt>
      <trkpt lat="45.92337" lon="4.81251">
        <ele>169</ele>
        <time>2017-04-22T10:05:18Z</time>
      </trkpt>
      <trkpt lat="45.92342" lon="4.81248">
        <ele>169</ele>
        <time>2017-04-22T10:05:19Z</time>
      </trkpt>
      <trkpt lat="45.92346" lon="4.81245">
        <ele>169</ele>
        <time>2017-04-22T10:05:20Z</time>
      </trkpt>
      <trkpt lat="45.92351" lon="4.81242">
        <ele>169</ele>
        <time>2017-04-22T10:05:21Z</time>
      </trkpt>
      <trkpt lat="45.92355" lon="4.81239">
        <ele>169</ele>
        <time>2017-04-22T10:05:22Z</time>
      </trkpt>
      <trkpt lat="45.9236" lon="4.81236">
        <ele>170</ele>
        <time>2017-04-22T10:05:23Z</time>
      </trkpt>
      <trkpt lat="45.92364" lon="4.81234">
        <ele>170</ele>
        <time>2017-04-22T10:05:24Z</time>
      </trkpt>
      <trkpt lat="45.92369" lon="4.81231">
        <ele>170</ele>
        <time>2017-04-22T10:05:25Z</time>
      </trkpt>
      <trkpt lat="45.92373" lon="4.81228">
        <ele>170</ele>
        <time>2017-04-22T10:05:26Z</time>
      </trkpt>
      <trkpt lat="45.92378" lon="4.81226">
        <ele>170</ele>
        <time>2017-04-22T10:05:27Z</time>
      </trkpt>
      <trkpt lat="45.92382" lon="4.81223">
        <ele>170</ele>
        <time>2017-04-22T10:05:28Z</time>
      </trkpt>
      <trkpt lat="45.92387" lon="4.8122">
        <ele>170</ele>
        <time>2017-04-22T10:05:29Z</time>
      </trkpt>
      <trkpt lat="45.92391" lon="4.81218">
        <ele>170</ele>
        <time>2017-04-22T10:05:30Z</time>
      </trkpt>
      <trkpt lat="45.92396" lon="4.81215">
        <ele>170</ele>
        <time>2017-04-22T10:05:31Z</time>
      </trkpt>
      <trkpt lat="45.92401" lon="4.81213">
        <ele>170</ele>
        <time>2017-04-22T10:05:32Z</time>
      </trkpt>
      <trkpt lat="45.92405" lon="4.81211">
        <ele>170</ele>
        <time>2017-04-22T10:05:33Z</time>
      </trkpt>
      <trkpt lat="45.9241" lon="4.81209">
        <ele>170</ele>
        <time>2017-04-22T10:05:34Z</time>
      </trkpt>
      <trkpt lat="45.92414" lon="4.81207">
        <ele>170</ele>
        <time>2017-04-22T10:05:35Z</time>
      </trkpt>
      <trkpt lat="45.92419" lon="4.81205">
        <ele>171</ele>
        <time>2017-04-22T10:05:36Z</time>
      </trkpt>
      <trkpt lat="45.92424" lon="4.81204">
        <ele>171</ele>
        <time>2017-04-22T10:05:37Z</time>
      </trkpt>
      <trkpt lat="45.92429" lon="4.81202">
        <ele>171</ele>
        <time>2017-04-22T10:05:38Z</time>
      </trkpt>
      <trkpt lat="45.92434" lon="4.81201">
        <ele>171</ele>
        <time>2017-04-22T10:05:39Z</time>
      </trkpt>
      <trkpt lat="45.92439" lon="4.812">
        <ele>171</ele>
        <time>2017-04-22T10:05:40Z</time>
      </trkpt>
      <trkpt lat="45.92445" lon="4.812">
        <ele>171</ele>
        <time>2017-04-22T10:05:41Z</time>
      </trkpt>
      <trkpt lat="45.9245" lon="4.81199">
        <ele>171</ele>
        <time>2017-04-22T10:05:42Z</time>
      </trkpt>
      <trkpt lat="45.92455" lon="4.81199">
        <ele>171</ele>
        <time>2017-04-22T10:05:43Z</time>
      </trkpt>
      <trkpt lat="45.92461" lon="4.81198">
        <ele>171</ele>
        <time>2017-04-22T10:05:44Z</time>
      </trkpt>
      <trkpt lat="45.92466" lon="4.81198">
        <ele>171</ele>
        <time>2017-04-22T10:05:45Z</time>
      </trkpt>
      <trkpt lat="45.92472" lon="4.81197">
        <ele>171</ele>
        <time>2017-04-22T10:05:46Z</time>
      </trkpt>
      <trkpt lat="45.92477" lon="4.81196">
        <ele>171</ele>
        <time>2017-04-22T10:05:47Z</time>
      </trkpt>
      <trkpt lat="45.92482" lon="4.81196">
        <ele>171</ele>
        <time>2017-04-22T10:05:48Z</time>
      </trkpt>
      <trkpt lat="45.92487" lon="4.81196">
        <ele>171</ele>
        <time>2017-04-22T10:05:49Z</time>
      </trkpt>
      <trkpt lat="45.92493" lon="4.81195">
        <ele>171</ele>
        <time>2017-04-22T10:05:50Z</time>
      </trkpt>
      <trkpt lat="45.92498" lon="4.81195">
        <ele>171</ele>
        <time>2017-04-22T10:05:51Z</time>
      </trkpt>
      <trkpt lat="45.92503" lon="4.81194">
        <ele>171</ele>
        <time>2017-04-22T10:05:52Z</time>
      </trkpt>
      <trkpt lat="45.92508" lon="4.81194">
        <ele>171</ele>
        <time>2017-04-22T10:05:53Z</time>
      </trkpt>
      <trkpt lat="45.92514" lon="4.81194">
        <ele>171</ele>
        <time>2017-04-22T10:05:54Z</time>
      </trkpt>
      <trkpt lat="45.92519" lon="4.81194">
        <ele>171</ele>
        <time>2017-04-22T10:05:55Z</time>
      </trkpt>
      <trkpt lat="45.92524" lon="4.81194">
        <ele>171</ele>
        <time>2017-04-22T10:05:56Z</time>
      </trkpt>
      <trkpt lat="45.92528" lon="4.81194">
        <ele>171</ele>
        <time>2017-04-22T10:05:57Z</time>
      </trkpt>
      <trkpt lat="45.92533" lon="4.81193">
        <ele>171</ele>
        <time>2017-04-22T10:05:58Z</time>
      </trkpt>
      <trkpt lat="45.92539" lon="4.81192">
        <ele>171</ele>
        <time>2017-04-22T10:05:59Z</time>
      </trkpt>
      <trkpt lat="45.92544" lon="4.81192">
        <ele>170</ele>
        <time>2017-04-22T10:06:00Z</time>
      </trkpt>
      <trkpt lat="45.92549" lon="4.81192">
        <ele>170</ele>
        <time>2017-04-22T10:06:01Z</time>
      </trkpt>
      <trkpt lat="45.92555" lon="4.81192">
        <ele>170</ele>
        <time>2017-04-22T10:06:02Z</time>
      </trkpt>
      <trkpt lat="45.92561" lon="4.81192">
        <ele>170</ele>
        <time>2017-04-22T10:06:03Z</time>
      </trkpt>
      <trkpt lat="45.92566" lon="4.81191">
        <ele>170</ele>
        <time>2017-04-22T10:06:04Z</time>
      </trkpt>
      <trkpt lat="45.92572" lon="4.81191">
        <ele>170</ele>
        <time>2017-04-22T10:06:05Z</time>
      </trkpt>
      <trkpt lat="45.92577" lon="4.81191">
        <ele>170</ele>
        <time>2017-04-22T10:06:06Z</time>
      </trkpt>
      <trkpt lat="45.92582" lon="4.81191">
        <ele>170</ele>
        <time>2017-04-22T10:06:07Z</time>
      </trkpt>
      <trkpt lat="45.92588" lon="4.8119">
        <ele>170</ele>
        <time>2017-04-22T10:06:08Z</time>
      </trkpt>
      <trkpt lat="45.92593" lon="4.8119">
        <ele>170</ele>
        <time>2017-04-22T10:06:09Z</time>
      </trkpt>
      <trkpt lat="45.92598" lon="4.8119">
        <ele>170</ele>
        <time>2017-04-22T10:06:10Z</time>
      </trkpt>
      <trkpt lat="45.92603" lon="4.8119">
        <ele>170</ele>
        <time>2017-04-22T10:06:11Z</time>
      </trkpt>
      <trkpt lat="45.92607" lon="4.8119">
        <ele>170</ele>
        <time>2017-04-22T10:06:12Z</time>
      </trkpt>
      <trkpt lat="45.92612" lon="4.8119">
        <ele>170</ele>
        <time>2017-04-22T10:06:13Z</time>
      </trkpt>
      <trkpt lat="45.92617" lon="4.81189">
        <ele>170</ele>
        <time>2017-04-22T10:06:14Z</time>
      </trkpt>
      <trkpt lat="45.92622" lon="4.81188">
        <ele>170</ele>
        <time>2017-04-22T10:06:15Z</time>
      </trkpt>
      <trkpt lat="45.92627" lon="4.81188">
        <ele>171</ele>
        <time>2017-04-22T10:06:16Z</time>
      </trkpt>
      <trkpt lat="45.92632" lon="4.81187">
        <ele>171</ele>
        <time>2017-04-22T10:06:17Z</time>
      </trkpt>
      <trkpt lat="45.92637" lon="4.81187">
        <ele>171</ele>
        <time>2017-04-22T10:06:18Z</time>
      </trkpt>
      <trkpt lat="45.92642" lon="4.81186">
        <ele>171</ele>
        <time>2017-04-22T10:06:19Z</time>
      </trkpt>
      <trkpt lat="45.92647" lon="4.81185">
        <ele>171</ele>
        <time>2017-04-22T10:06:20Z</time>
      </trkpt>
      <trkpt lat="45.92652" lon="4.81184">
        <ele>171</ele>
        <time>2017-04-22T10:06:21Z</time>
      </trkpt>
      <trkpt lat="45.92657" lon="4.81184">
        <ele>171</ele>
        <time>2017-04-22T10:06:22Z</time>
      </trkpt>
      <trkpt lat="45.92662" lon="4.81183">
        <ele>171</ele>
        <time>2017-04-22T10:06:23Z</time>
      </trkpt>
      <trkpt lat="45.92667" lon="4.81182">
        <ele>171</ele>
        <time>2017-04-22T10:06:24Z</time>
      </trkpt>
      <trkpt lat="45.92672" lon="4.81181">
        <ele>171</ele>
        <time>2017-04-22T10:06:25Z</time>
      </trkpt>
      <trkpt lat="45.92677" lon="4.8118">
        <ele>171</ele>
        <time>2017-04-22T10:06:26Z</time>
      </trkpt>
      <trkpt lat="45.92682" lon="4.81179">
        <ele>171</ele>
        <time>2017-04-22T10:06:27Z</time>
      </trkpt>
      <trkpt lat="45.92687" lon="4.81179">
        <ele>171</ele>
        <time>2017-04-22T10:06:28Z</time>
      </trkpt>
      <trkpt lat="45.92691" lon="4.81178">
        <ele>170</ele>
        <time>2017-04-22T10:06:29Z</time>
      </trkpt>
      <trkpt lat="45.92696" lon="4.81177">
        <ele>170</ele>
        <time>2017-04-22T10:06:30Z</time>
      </trkpt>
      <trkpt lat="45.92701" lon="4.81176">
        <ele>170</ele>
        <time>2017-04-22T10:06:31Z</time>
      </trkpt>
      <trkpt lat="45.92705" lon="4.81175">
        <ele>170</ele>
        <time>2017-04-22T10:06:32Z</time>
      </trkpt>
      <trkpt lat="45.9271" lon="4.81174">
        <ele>170</ele>
        <time>2017-04-22T10:06:33Z</time>
      </trkpt>
      <trkpt lat="45.92715" lon="4.81174">
        <ele>170</ele>
        <time>2017-04-22T10:06:34Z</time>
      </trkpt>
      <trkpt lat="45.9272" lon="4.81173">
        <ele>170</ele>
        <time>2017-04-22T10:06:35Z</time>
      </trkpt>
      <trkpt lat="45.92724" lon="4.81172">
        <ele>170</ele>
        <time>2017-04-22T10:06:36Z</time>
      </trkpt>
      <trkpt lat="45.92729" lon="4.81172">
        <ele>170</ele>
        <time>2017-04-22T10:06:37Z</time>
      </trkpt>
      <trkpt lat="45.92734" lon="4.81172">
        <ele>170</ele>
        <time>2017-04-22T10:06:38Z</time>
      </trkpt>
      <trkpt lat="45.92739" lon="4.81172">
        <ele>170</ele>
        <time>2017-04-22T10:06:39Z</time>
      </trkpt>
      <trkpt lat="45.92744" lon="4.81173">
        <ele>170</ele>
        <time>2017-04-22T10:06:40Z</time>
      </trkpt>
      <trkpt lat="45.92748" lon="4.81175">
        <ele>170</ele>
        <time>2017-04-22T10:06:41Z</time>
      </trkpt>
      <trkpt lat="45.92752" lon="4.81179">
        <ele>170</ele>
        <time>2017-04-22T10:06:42Z</time>
      </trkpt>
      <trkpt lat="45.92756" lon="4.81182">
        <ele>170</ele>
        <time>2017-04-22T10:06:43Z</time>
      </trkpt>
      <trkpt lat="45.92761" lon="4.81185">
        <ele>170</ele>
        <time>2017-04-22T10:06:44Z</time>
      </trkpt>
      <trkpt lat="45.92766" lon="4.81185">
        <ele>170</ele>
        <time>2017-04-22T10:06:45Z</time>
      </trkpt>
      <trkpt lat="45.92771" lon="4.81185">
        <ele>170</ele>
        <time>2017-04-22T10:06:46Z</time>
      </trkpt>
      <trkpt lat="45.92775" lon="4.81182">
        <ele>170</ele>
        <time>2017-04-22T10:06:47Z</time>
      </trkpt>
      <trkpt lat="45.92779" lon="4.81178">
        <ele>170</ele>
        <time>2017-04-22T10:06:48Z</time>
      </trkpt>
      <trkpt lat="45.92781" lon="4.81172">
        <ele>170</ele>
        <time>2017-04-22T10:06:49Z</time>
      </trkpt>
      <trkpt lat="45.92784" lon="4.81164">
        <ele>170</ele>
        <time>2017-04-22T10:06:50Z</time>
      </trkpt>
      <trkpt lat="45.92784" lon="4.81156">
        <ele>170</ele>
        <time>2017-04-22T10:06:51Z</time>
      </trkpt>
      <trkpt lat="45.92785" lon="4.81149">
        <ele>170</ele>
        <time>2017-04-22T10:06:52Z</time>
      </trkpt>
      <trkpt lat="45.92786" lon="4.81141">
        <ele>170</ele>
        <time>2017-04-22T10:06:53Z</time>
      </trkpt>
      <trkpt lat="45.92789" lon="4.81134">
        <ele>170</ele>
        <time>2017-04-22T10:06:54Z</time>
      </trkpt>
      <trkpt lat="45.92792" lon="4.81128">
        <ele>170</ele>
        <time>2017-04-22T10:06:55Z</time>
      </trkpt>
      <trkpt lat="45.92795" lon="4.81122">
        <ele>170</ele>
        <time>2017-04-22T10:06:56Z</time>
      </trkpt>
      <trkpt lat="45.92799" lon="4.81117">
        <ele>170</ele>
        <time>2017-04-22T10:06:57Z</time>
      </trkpt>
      <trkpt lat="45.92802" lon="4.81111">
        <ele>170</ele>
        <time>2017-04-22T10:06:58Z</time>
      </trkpt>
      <trkpt lat="45.92806" lon="4.81106">
        <ele>170</ele>
        <time>2017-04-22T10:06:59Z</time>
      </trkpt>
      <trkpt lat="45.92809" lon="4.811">
        <ele>170</ele>
        <time>2017-04-22T10:07:00Z</time>
      </trkpt>
      <trkpt lat="45.92813" lon="4.81094">
        <ele>170</ele>
        <time>2017-04-22T10:07:01Z</time>
      </trkpt>
      <trkpt lat="45.92817" lon="4.81088">
        <ele>170</ele>
        <time>2017-04-22T10:07:02Z</time>
      </trkpt>
      <trkpt lat="45.92821" lon="4.81082">
        <ele>170</ele>
        <time>2017-04-22T10:07:03Z</time>
      </trkpt>
      <trkpt lat="45.92824" lon="4.81075">
        <ele>170</ele>
        <time>2017-04-22T10:07:04Z</time>
      </trkpt>
      <trkpt lat="45.92828" lon="4.81068">
        <ele>170</ele>
        <time>2017-04-22T10:07:05Z</time>
      </trkpt>
      <trkpt lat="45.92832" lon="4.81062">
        <ele>169</ele>
        <time>2017-04-22T10:07:06Z</time>
      </trkpt>
      <trkpt lat="45.92835" lon="4.81056">
        <ele>169</ele>
        <time>2017-04-22T10:07:07Z</time>
      </trkpt>
      <trkpt lat="45.92838" lon="4.81049">
        <ele>169</ele>
        <time>2017-04-22T10:07:08Z</time>
      </trkpt>
      <trkpt lat="45.92841" lon="4.81044">
        <ele>169</ele>
        <time>2017-04-22T10:07:09Z</time>
      </trkpt>
      <trkpt lat="45.92844" lon="4.81038">
        <ele>169</ele>
        <time>2017-04-22T10:07:10Z</time>
      </trkpt>
      <trkpt lat="45.92847" lon="4.81032">
        <ele>169</ele>
        <time>2017-04-22T10:07:11Z</time>
      </trkpt>
      <trkpt lat="45.9285" lon="4.81026">
        <ele>169</ele>
        <time>2017-04-22T10:07:12Z</time>
      </trkpt>
      <trkpt lat="45.92853" lon="4.8102">
        <ele>169</ele>
        <time>2017-04-22T10:07:13Z</time>
      </trkpt>
      <trkpt lat="45.92855" lon="4.81014">
        <ele>169</ele>
        <time>2017-04-22T10:07:14Z</time>
      </trkpt>
      <trkpt lat="45.92858" lon="4.81008">
        <ele>169</ele>
        <time>2017-04-22T10:07:15Z</time>
      </trkpt>
      <trkpt lat="45.9286" lon="4.81002">
        <ele>169</ele>
        <time>2017-04-22T10:07:16Z</time>
      </trkpt>
      <trkpt lat="45.92862" lon="4.80995">
        <ele>169</ele>
        <time>2017-04-22T10:07:17Z</time>
      </trkpt>
      <trkpt lat="45.92865" lon="4.80989">
        <ele>169</ele>
        <time>2017-04-22T10:07:18Z</time>
      </trkpt>
      <trkpt lat="45.92867" lon="4.80983">
        <ele>169</ele>
        <time>2017-04-22T10:07:19Z</time>
      </trkpt>
      <trkpt lat="45.9287" lon="4.80976">
        <ele>169</ele>
        <time>2017-04-22T10:07:20Z</time>
      </trkpt>
      <trkpt lat="45.92872" lon="4.80969">
        <ele>169</ele>
        <time>2017-04-22T10:07:21Z</time>
      </trkpt>
      <trkpt lat="45.92875" lon="4.80963">
        <ele>169</ele>
        <time>2017-04-22T10:07:22Z</time>
      </trkpt>
      <trkpt lat="45.92877" lon="4.80956">
        <ele>170</ele>
        <time>2017-04-22T10:07:23Z</time>
      </trkpt>
      <trkpt lat="45.9288" lon="4.80949">
        <ele>170</ele>
        <time>2017-04-22T10:07:24Z</time>
      </trkpt>
      <trkpt lat="45.92882" lon="4.80942">
        <ele>170</ele>
        <time>2017-04-22T10:07:25Z</time>
      </trkpt>
      <trkpt lat="45.92884" lon="4.80935">
        <ele>170</ele>
        <time>2017-04-22T10:07:26Z</time>
      </trkpt>
      <trkpt lat="45.92887" lon="4.80929">
        <ele>170</ele>
        <time>2017-04-22T10:07:27Z</time>
      </trkpt>
      <trkpt lat="45.92889" lon="4.80922">
        <ele>170</ele>
        <time>2017-04-22T10:07:28Z</time>
      </trkpt>
      <trkpt lat="45.92891" lon="4.80915">
        <ele>170</ele>
        <time>2017-04-22T10:07:29Z</time>
      </trkpt>
      <trkpt lat="45.92893" lon="4.80908">
        <ele>170</ele>
        <time>2017-04-22T10:07:30Z</time>
      </trkpt>
      <trkpt lat="45.92895" lon="4.80902">
        <ele>170</ele>
        <time>2017-04-22T10:07:31Z</time>
      </trkpt>
      <trkpt lat="45.92897" lon="4.80895">
        <ele>170</ele>
        <time>2017-04-22T10:07:32Z</time>
      </trkpt>
      <trkpt lat="45.92899" lon="4.80889">
        <ele>170</ele>
        <time>2017-04-22T10:07:33Z</time>
      </trkpt>
      <trkpt lat="45.92901" lon="4.80882">
        <ele>171</ele>
        <time>2017-04-22T10:07:34Z</time>
      </trkpt>
      <trkpt lat="45.92903" lon="4.80875">
        <ele>171</ele>
        <time>2017-04-22T10:07:35Z</time>
      </trkpt>
      <trkpt lat="45.92906" lon="4.80869">
        <ele>171</ele>
        <time>2017-04-22T10:07:36Z</time>
      </trkpt>
      <trkpt lat="45.92908" lon="4.80862">
        <ele>171</ele>
        <time>2017-04-22T10:07:37Z</time>
      </trkpt>
      <trkpt lat="45.9291" lon="4.80855">
        <ele>171</ele>
        <time>2017-04-22T10:07:38Z</time>
      </trkpt>
      <trkpt lat="45.92912" lon="4.80848">
        <ele>171</ele>
        <time>2017-04-22T10:07:39Z</time>
      </trkpt>
      <trkpt lat="45.92914" lon="4.80841">
        <ele>172</ele>
        <time>2017-04-22T10:07:40Z</time>
      </trkpt>
      <trkpt lat="45.92917" lon="4.80834">
        <ele>172</ele>
        <time>2017-04-22T10:07:41Z</time>
      </trkpt>
      <trkpt lat="45.92919" lon="4.80828">
        <ele>172</ele>
        <time>2017-04-22T10:07:42Z</time>
      </trkpt>
      <trkpt lat="45.92921" lon="4.80821">
        <ele>172</ele>
        <time>2017-04-22T10:07:43Z</time>
      </trkpt>
      <trkpt lat="45.92923" lon="4.80814">
        <ele>172</ele>
        <time>2017-04-22T10:07:44Z</time>
      </trkpt>
      <trkpt lat="45.92925" lon="4.80808">
        <ele>172</ele>
        <time>2017-04-22T10:07:45Z</time>
      </trkpt>
      <trkpt lat="45.92927" lon="4.80802">
        <ele>172</ele>
        <time>2017-04-22T10:07:46Z</time>
      </trkpt>
      <trkpt lat="45.92929" lon="4.80796">
        <ele>172</ele>
        <time>2017-04-22T10:07:47Z</time>
      </trkpt>
      <trkpt lat="45.92931" lon="4.80789">
        <ele>172</ele>
        <time>2017-04-22T10:07:48Z</time>
      </trkpt>
      <trkpt lat="45.92934" lon="4.80783">
        <ele>172</ele>
        <time>2017-04-22T10:07:49Z</time>
      </trkpt>
      <trkpt lat="45.92936" lon="4.80776">
        <ele>172</ele>
        <time>2017-04-22T10:07:50Z</time>
      </trkpt>
      <trkpt lat="45.92938" lon="4.8077">
        <ele>172</ele>
        <time>2017-04-22T10:07:51Z</time>
      </trkpt>
      <trkpt lat="45.9294" lon="4.80763">
        <ele>172</ele>
        <time>2017-04-22T10:07:52Z</time>
      </trkpt>
      <trkpt lat="45.92942" lon="4.80757">
        <ele>172</ele>
        <time>2017-04-22T10:07:53Z</time>
      </trkpt>
      <trkpt lat="45.92944" lon="4.80751">
        <ele>172</ele>
        <time>2017-04-22T10:07:54Z</time>
      </trkpt>
      <trkpt lat="45.92946" lon="4.80745">
        <ele>172</ele>
        <time>2017-04-22T10:07:55Z</time>
      </trkpt>
      <trkpt lat="45.92948" lon="4.80738">
        <ele>172</ele>
        <time>2017-04-22T10:07:56Z</time>
      </trkpt>
      <trkpt lat="45.9295" lon="4.80732">
        <ele>172</ele>
        <time>2017-04-22T10:07:57Z</time>
      </trkpt>
      <trkpt lat="45.92953" lon="4.80726">
        <ele>172</ele>
        <time>2017-04-22T10:07:58Z</time>
      </trkpt>
      <trkpt lat="45.92955" lon="4.8072">
        <ele>172</ele>
        <time>2017-04-22T10:07:59Z</time>
      </trkpt>
      <trkpt lat="45.92957" lon="4.80714">
        <ele>172</ele>
        <time>2017-04-22T10:08:00Z</time>
      </trkpt>
      <trkpt lat="45.9296" lon="4.80707">
        <ele>172</ele>
        <time>2017-04-22T10:08:01Z</time>
      </trkpt>
      <trkpt lat="45.92963" lon="4.80701">
        <ele>172</ele>
        <time>2017-04-22T10:08:02Z</time>
      </trkpt>
      <trkpt lat="45.92965" lon="4.80694">
        <ele>172</ele>
        <time>2017-04-22T10:08:03Z</time>
      </trkpt>
      <trkpt lat="45.92967" lon="4.80687">
        <ele>172</ele>
        <time>2017-04-22T10:08:04Z</time>
      </trkpt>
      <trkpt lat="45.92969" lon="4.8068">
        <ele>172</ele>
        <time>2017-04-22T10:08:05Z</time>
      </trkpt>
      <trkpt lat="45.92972" lon="4.80673">
        <ele>172</ele>
        <time>2017-04-22T10:08:06Z</time>
      </trkpt>
      <trkpt lat="45.92974" lon="4.80666">
        <ele>172</ele>
        <time>2017-04-22T10:08:07Z</time>
      </trkpt>
      <trkpt lat="45.92977" lon="4.80659">
        <ele>172</ele>
        <time>2017-04-22T10:08:08Z</time>
      </trkpt>
      <trkpt lat="45.92979" lon="4.80652">
        <ele>172</ele>
        <time>2017-04-22T10:08:09Z</time>
      </trkpt>
      <trkpt lat="45.92981" lon="4.80645">
        <ele>172</ele>
        <time>2017-04-22T10:08:10Z</time>
      </trkpt>
      <trkpt lat="45.92984" lon="4.80638">
        <ele>172</ele>
        <time>2017-04-22T10:08:11Z</time>
      </trkpt>
      <trkpt lat="45.92986" lon="4.80631">
        <ele>172</ele>
        <time>2017-04-22T10:08:12Z</time>
      </trkpt>
      <trkpt lat="45.92988" lon="4.80624">
        <ele>172</ele>
        <time>2017-04-22T10:08:13Z</time>
      </trkpt>
      <trkpt lat="45.9299" lon="4.80617">
        <ele>172</ele>
        <time>2017-04-22T10:08:14Z</time>
      </trkpt>
      <trkpt lat="45.92993" lon="4.80611">
        <ele>172</ele>
        <time>2017-04-22T10:08:15Z</time>
      </trkpt>
      <trkpt lat="45.92995" lon="4.80604">
        <ele>172</ele>
        <time>2017-04-22T10:08:16Z</time>
      </trkpt>
      <trkpt lat="45.92997" lon="4.80597">
        <ele>172</ele>
        <time>2017-04-22T10:08:17Z</time>
      </trkpt>
      <trkpt lat="45.92999" lon="4.80591">
        <ele>172</ele>
        <time>2017-04-22T10:08:18Z</time>
      </trkpt>
      <trkpt lat="45.93001" lon="4.80584">
        <ele>172</ele>
        <time>2017-04-22T10:08:19Z</time>
      </trkpt>
      <trkpt lat="45.93004" lon="4.80577">
        <ele>172</ele>
        <time>2017-04-22T10:08:20Z</time>
      </trkpt>
      <trkpt lat="45.93006" lon="4.8057">
        <ele>172</ele>
        <time>2017-04-22T10:08:21Z</time>
      </trkpt>
      <trkpt lat="45.93008" lon="4.80563">
        <ele>172</ele>
        <time>2017-04-22T10:08:22Z</time>
      </trkpt>
      <trkpt lat="45.93011" lon="4.80555">
        <ele>172</ele>
        <time>2017-04-22T10:08:23Z</time>
      </trkpt>
      <trkpt lat="45.93013" lon="4.80548">
        <ele>172</ele>
        <time>2017-04-22T10:08:24Z</time>
      </trkpt>
      <trkpt lat="45.93015" lon="4.80541">
        <ele>172</ele>
        <time>2017-04-22T10:08:25Z</time>
      </trkpt>
      <trkpt lat="45.93017" lon="4.80534">
        <ele>172</ele>
        <time>2017-04-22T10:08:26Z</time>
      </trkpt>
      <trkpt lat="45.93019" lon="4.80528">
        <ele>172</ele>
        <time>2017-04-22T10:08:27Z</time>
      </trkpt>
      <trkpt lat="45.93021" lon="4.80521">
        <ele>172</ele>
        <time>2017-04-22T10:08:28Z</time>
      </trkpt>
      <trkpt lat="45.93024" lon="4.80515">
        <ele>172</ele>
        <time>2017-04-22T10:08:29Z</time>
      </trkpt>
      <trkpt lat="45.93026" lon="4.80507">
        <ele>172</ele>
        <time>2017-04-22T10:08:30Z</time>
      </trkpt>
      <trkpt lat="45.93029" lon="4.805">
        <ele>171</ele>
        <time>2017-04-22T10:08:31Z</time>
      </trkpt>
      <trkpt lat="45.93032" lon="4.80493">
        <ele>171</ele>
        <time>2017-04-22T10:08:32Z</time>
      </trkpt>
      <trkpt lat="45.93034" lon="4.80485">
        <ele>171</ele>
        <time>2017-04-22T10:08:33Z</time>
      </trkpt>
      <trkpt lat="45.93037" lon="4.80477">
        <ele>171</ele>
        <time>2017-04-22T10:08:34Z</time>
      </trkpt>
      <trkpt lat="45.93039" lon="4.80469">
        <ele>171</ele>
        <time>2017-04-22T10:08:35Z</time>
      </trkpt>
      <trkpt lat="45.93042" lon="4.80461">
        <ele>171</ele>
        <time>2017-04-22T10:08:36Z</time>
      </trkpt>
      <trkpt lat="45.93046" lon="4.80454">
        <ele>171</ele>
        <time>2017-04-22T10:08:37Z</time>
      </trkpt>
      <trkpt lat="45.93048" lon="4.80446">
        <ele>171</ele>
        <time>2017-04-22T10:08:38Z</time>
      </trkpt>
      <trkpt lat="45.9305" lon="4.80438">
        <ele>171</ele>
        <time>2017-04-22T10:08:39Z</time>
      </trkpt>
      <trkpt lat="45.93053" lon="4.80431">
        <ele>171</ele>
        <time>2017-04-22T10:08:40Z</time>
      </trkpt>
      <trkpt lat="45.93055" lon="4.80423">
        <ele>171</ele>
        <time>2017-04-22T10:08:41Z</time>
      </trkpt>
      <trkpt lat="45.93058" lon="4.80415">
        <ele>170</ele>
        <time>2017-04-22T10:08:42Z</time>
      </trkpt>
      <trkpt lat="45.93061" lon="4.80407">
        <ele>170</ele>
        <time>2017-04-22T10:08:43Z</time>
      </trkpt>
      <trkpt lat="45.93063" lon="4.80399">
        <ele>170</ele>
        <time>2017-04-22T10:08:44Z</time>
      </trkpt>
      <trkpt lat="45.93066" lon="4.8039">
        <ele>170</ele>
        <time>2017-04-22T10:08:45Z</time>
      </trkpt>
      <trkpt lat="45.93068" lon="4.80382">
        <ele>170</ele>
        <time>2017-04-22T10:08:46Z</time>
      </trkpt>
      <trkpt lat="45.93071" lon="4.80374">
        <ele>170</ele>
        <time>2017-04-22T10:08:47Z</time>
      </trkpt>
      <trkpt lat="45.93074" lon="4.80366">
        <ele>170</ele>
        <time>2017-04-22T10:08:48Z</time>
      </trkpt>
      <trkpt lat="45.93076" lon="4.80357">
        <ele>170</ele>
        <time>2017-04-22T10:08:49Z</time>
      </trkpt>
      <trkpt lat="45.93079" lon="4.80349">
        <ele>169</ele>
        <time>2017-04-22T10:08:50Z</time>
      </trkpt>
      <trkpt lat="45.93082" lon="4.8034">
        <ele>169</ele>
        <time>2017-04-22T10:08:51Z</time>
      </trkpt>
      <trkpt lat="45.93085" lon="4.80331">
        <ele>169</ele>
        <time>2017-04-22T10:08:52Z</time>
      </trkpt>
      <trkpt lat="45.93087" lon="4.80323">
        <ele>169</ele>
        <time>2017-04-22T10:08:53Z</time>
      </trkpt>
      <trkpt lat="45.9309" lon="4.80315">
        <ele>169</ele>
        <time>2017-04-22T10:08:54Z</time>
      </trkpt>
      <trkpt lat="45.93092" lon="4.80307">
        <ele>169</ele>
        <time>2017-04-22T10:08:55Z</time>
      </trkpt>
      <trkpt lat="45.93095" lon="4.80299">
        <ele>169</ele>
        <time>2017-04-22T10:08:56Z</time>
      </trkpt>
      <trkpt lat="45.93097" lon="4.80292">
        <ele>169</ele>
        <time>2017-04-22T10:08:57Z</time>
      </trkpt>
      <trkpt lat="45.93099" lon="4.80284">
        <ele>169</ele>
        <time>2017-04-22T10:08:58Z</time>
      </trkpt>
      <trkpt lat="45.93102" lon="4.80277">
        <ele>169</ele>
        <time>2017-04-22T10:08:59Z</time>
      </trkpt>
      <trkpt lat="45.93104" lon="4.8027">
        <ele>169</ele>
        <time>2017-04-22T10:09:00Z</time>
      </trkpt>
      <trkpt lat="45.93106" lon="4.80262">
        <ele>169</ele>
        <time>2017-04-22T10:09:01Z</time>
      </trkpt>
      <trkpt lat="45.93109" lon="4.80255">
        <ele>169</ele>
        <time>2017-04-22T10:09:02Z</time>
      </trkpt>
      <trkpt lat="45.93111" lon="4.80247">
        <ele>169</ele>
        <time>2017-04-22T10:09:03Z</time>
      </trkpt>
      <trkpt lat="45.93113" lon="4.8024">
        <ele>169</ele>
        <time>2017-04-22T10:09:04Z</time>
      </trkpt>
      <trkpt lat="45.93115" lon="4.80232">
        <ele>169</ele>
        <time>2017-04-22T10:09:05Z</time>
      </trkpt>
      <trkpt lat="45.93118" lon="4.80225">
        <ele>169</ele>
        <time>2017-04-22T10:09:06Z</time>
      </trkpt>
      <trkpt lat="45.93121" lon="4.80217">
        <ele>169</ele>
        <time>2017-04-22T10:09:07Z</time>
      </trkpt>
      <trkpt lat="45.93123" lon="4.8021">
        <ele>169</ele>
        <time>2017-04-22T10:09:08Z</time>
      </trkpt>
      <trkpt lat="45.93125" lon="4.80202">
        <ele>169</ele>
        <time>2017-04-22T10:09:09Z</time>
      </trkpt>
      <trkpt lat="45.93128" lon="4.80195">
        <ele>169</ele>
        <time>2017-04-22T10:09:10Z</time>
      </trkpt>
      <trkpt lat="45.9313" lon="4.80188">
        <ele>169</ele>
        <time>2017-04-22T10:09:11Z</time>
      </trkpt>
      <trkpt lat="45.93132" lon="4.8018">
        <ele>169</ele>
        <time>2017-04-22T10:09:12Z</time>
      </trkpt>
      <trkpt lat="45.93135" lon="4.80173">
        <ele>169</ele>
        <time>2017-04-22T10:09:13Z</time>
      </trkpt>
      <trkpt lat="45.93137" lon="4.80166">
        <ele>169</ele>
        <time>2017-04-22T10:09:14Z</time>
      </trkpt>
      <trkpt lat="45.9314" lon="4.80159">
        <ele>169</ele>
        <time>2017-04-22T10:09:15Z</time>
      </trkpt>
      <trkpt lat="45.93143" lon="4.80151">
        <ele>169</ele>
        <time>2017-04-22T10:09:16Z</time>
      </trkpt>
      <trkpt lat="45.93145" lon="4.80144">
        <ele>169</ele>
        <time>2017-04-22T10:09:17Z</time>
      </trkpt>
      <trkpt lat="45.93148" lon="4.80137">
        <ele>169</ele>
        <time>2017-04-22T10:09:18Z</time>
      </trkpt>
      <trkpt lat="45.9315" lon="4.80131">
        <ele>169</ele>
        <time>2017-04-22T10:09:19Z</time>
      </trkpt>
      <trkpt lat="45.93152" lon="4.80125">
        <ele>169</ele>
        <time>2017-04-22T10:09:20Z</time>
      </trkpt>
      <trkpt lat="45.93154" lon="4.80118">
        <ele>169</ele>
        <time>2017-04-22T10:09:21Z</time>
      </trkpt>
      <trkpt lat="45.93156" lon="4.80112">
        <ele>169</ele>
        <time>2017-04-22T10:09:22Z</time>
      </trkpt>
      <trkpt lat="45.93158" lon="4.80105">
        <ele>170</ele>
        <time>2017-04-22T10:09:23Z</time>
      </trkpt>
      <trkpt lat="45.9316" lon="4.80098">
        <ele>170</ele>
        <time>2017-04-22T10:09:24Z</time>
      </trkpt>
      <trkpt lat="45.93163" lon="4.80092">
        <ele>170</ele>
        <time>2017-04-22T10:09:25Z</time>
      </trkpt>
      <trkpt lat="45.93166" lon="4.80086">
        <ele>170</ele>
        <time>2017-04-22T10:09:26Z</time>
      </trkpt>
      <trkpt lat="45.9317" lon="4.80081">
        <ele>170</ele>
        <time>2017-04-22T10:09:27Z</time>
      </trkpt>
      <trkpt lat="45.93175" lon="4.80079">
        <ele>170</ele>
        <time>2017-04-22T10:09:28Z</time>
      </trkpt>
      <trkpt lat="45.93181" lon="4.80078">
        <ele>170</ele>
        <time>2017-04-22T10:09:29Z</time>
      </trkpt>
      <trkpt lat="45.93186" lon="4.80077">
        <ele>170</ele>
        <time>2017-04-22T10:09:30Z</time>
      </trkpt>
      <trkpt lat="45.93191" lon="4.80074">
        <ele>170</ele>
        <time>2017-04-22T10:09:31Z</time>
      </trkpt>
      <trkpt lat="45.93195" lon="4.80069">
        <ele>170</ele>
        <time>2017-04-22T10:09:32Z</time>
      </trkpt>
      <trkpt lat="45.93198" lon="4.80062">
        <ele>170</ele>
        <time>2017-04-22T10:09:33Z</time>
      </trkpt>
      <trkpt lat="45.932" lon="4.80054">
        <ele>170</ele>
        <time>2017-04-22T10:09:34Z</time>
      </trkpt>
      <trkpt lat="45.932" lon="4.80046">
        <ele>170</ele>
        <time>2017-04-22T10:09:35Z</time>
      </trkpt>
      <trkpt lat="45.93199" lon="4.80039">
        <ele>170</ele>
        <time>2017-04-22T10:09:36Z</time>
      </trkpt>
      <trkpt lat="45.93197" lon="4.80032">
        <ele>170</ele>
        <time>2017-04-22T10:09:37Z</time>
      </trkpt>
      <trkpt lat="45.93194" lon="4.80025">
        <ele>170</ele>
        <time>2017-04-22T10:09:38Z</time>
      </trkpt>
      <trkpt lat="45.93191" lon="4.80019">
        <ele>170</ele>
        <time>2017-04-22T10:09:39Z</time>
      </trkpt>
      <trkpt lat="45.93189" lon="4.80012">
        <ele>170</ele>
        <time>2017-04-22T10:09:40Z</time>
      </trkpt>
      <trkpt lat="45.93186" lon="4.80005">
        <ele>170</ele>
        <time>2017-04-22T10:09:41Z</time>
      </trkpt>
      <trkpt lat="45.93185" lon="4.79996">
        <ele>170</ele>
        <time>2017-04-22T10:09:42Z</time>
      </trkpt>
      <trkpt lat="45.93185" lon="4.79988">
        <ele>170</ele>
        <time>2017-04-22T10:09:43Z</time>
      </trkpt>
      <trkpt lat="45.93186" lon="4.79979">
        <ele>170</ele>
        <time>2017-04-22T10:09:44Z</time>
      </trkpt>
      <trkpt lat="45.93188" lon="4.79972">
        <ele>170</ele>
        <time>2017-04-22T10:09:45Z</time>
      </trkpt>
      <trkpt lat="45.9319" lon="4.79964">
        <ele>170</ele>
        <time>2017-04-22T10:09:46Z</time>
      </trkpt>
      <trkpt lat="45.93192" lon="4.79957">
        <ele>170</ele>
        <time>2017-04-22T10:09:47Z</time>
      </trkpt>
      <trkpt lat="45.93195" lon="4.7995">
        <ele>170</ele>
        <time>2017-04-22T10:09:48Z</time>
      </trkpt>
      <trkpt lat="45.93198" lon="4.79943">
        <ele>171</ele>
        <time>2017-04-22T10:09:49Z</time>
      </trkpt>
      <trkpt lat="45.93201" lon="4.79936">
        <ele>171</ele>
        <time>2017-04-22T10:09:50Z</time>
      </trkpt>
      <trkpt lat="45.93204" lon="4.7993">
        <ele>171</ele>
        <time>2017-04-22T10:09:51Z</time>
      </trkpt>
      <trkpt lat="45.93207" lon="4.79923">
        <ele>171</ele>
        <time>2017-04-22T10:09:52Z</time>
      </trkpt>
      <trkpt lat="45.9321" lon="4.79917">
        <ele>171</ele>
        <time>2017-04-22T10:09:53Z</time>
      </trkpt>
      <trkpt lat="45.93213" lon="4.79911">
        <ele>172</ele>
        <time>2017-04-22T10:09:54Z</time>
      </trkpt>
      <trkpt lat="45.93217" lon="4.79905">
        <ele>172</ele>
        <time>2017-04-22T10:09:55Z</time>
      </trkpt>
      <trkpt lat="45.9322" lon="4.79899">
        <ele>172</ele>
        <time>2017-04-22T10:09:56Z</time>
      </trkpt>
      <trkpt lat="45.93223" lon="4.79893">
        <ele>172</ele>
        <time>2017-04-22T10:09:57Z</time>
      </trkpt>
      <trkpt lat="45.93226" lon="4.79886">
        <ele>172</ele>
        <time>2017-04-22T10:09:58Z</time>
      </trkpt>
      <trkpt lat="45.93229" lon="4.79879">
        <ele>172</ele>
        <time>2017-04-22T10:09:59Z</time>
      </trkpt>
      <trkpt lat="45.93232" lon="4.79873">
        <ele>172</ele>
        <time>2017-04-22T10:10:00Z</time>
      </trkpt>
      <trkpt lat="45.93235" lon="4.79866">
        <ele>172</ele>
        <time>2017-04-22T10:10:01Z</time>
      </trkpt>
      <trkpt lat="45.93238" lon="4.79859">
        <ele>173</ele>
        <time>2017-04-22T10:10:02Z</time>
      </trkpt>
      <trkpt lat="45.9324" lon="4.79852">
        <ele>173</ele>
        <time>2017-04-22T10:10:03Z</time>
      </trkpt>
      <trkpt lat="45.93243" lon="4.79845">
        <ele>173</ele>
        <time>2017-04-22T10:10:04Z</time>
      </trkpt>
      <trkpt lat="45.93245" lon="4.79838">
        <ele>173</ele>
        <time>2017-04-22T10:10:05Z</time>
      </trkpt>
      <trkpt lat="45.93247" lon="4.79831">
        <ele>174</ele>
        <time>2017-04-22T10:10:06Z</time>
      </trkpt>
      <trkpt lat="45.9325" lon="4.79825">
        <ele>174</ele>
        <time>2017-04-22T10:10:07Z</time>
      </trkpt>
      <trkpt lat="45.93252" lon="4.79818">
        <ele>174</ele>
        <time>2017-04-22T10:10:08Z</time>
      </trkpt>
      <trkpt lat="45.93254" lon="4.79812">
        <ele>174</ele>
        <time>2017-04-22T10:10:09Z</time>
      </trkpt>
      <trkpt lat="45.93256" lon="4.79806">
        <ele>174</ele>
        <time>2017-04-22T10:10:10Z</time>
      </trkpt>
      <trkpt lat="45.93259" lon="4.798">
        <ele>175</ele>
        <time>2017-04-22T10:10:11Z</time>
      </trkpt>
      <trkpt lat="45.93261" lon="4.79794">
        <ele>175</ele>
        <time>2017-04-22T10:10:12Z</time>
      </trkpt>
      <trkpt lat="45.93263" lon="4.79788">
        <ele>175</ele>
        <time>2017-04-22T10:10:13Z</time>
      </trkpt>
      <trkpt lat="45.93265" lon="4.79782">
        <ele>175</ele>
        <time>2017-04-22T10:10:14Z</time>
      </trkpt>
      <trkpt lat="45.93267" lon="4.79776">
        <ele>175</ele>
        <time>2017-04-22T10:10:15Z</time>
      </trkpt>
      <trkpt lat="45.93269" lon="4.7977">
        <ele>175</ele>
        <time>2017-04-22T10:10:16Z</time>
      </trkpt>
      <trkpt lat="45.93272" lon="4.79764">
        <ele>175</ele>
        <time>2017-04-22T10:10:17Z</time>
      </trkpt>
      <trkpt lat="45.93274" lon="4.79758">
        <ele>176</ele>
        <time>2017-04-22T10:10:18Z</time>
      </trkpt>
      <trkpt lat="45.93277" lon="4.79752">
        <ele>176</ele>
        <time>2017-04-22T10:10:19Z</time>
      </trkpt>
      <trkpt lat="45.93278" lon="4.79746">
        <ele>177</ele>
        <time>2017-04-22T10:10:20Z</time>
      </trkpt>
      <trkpt lat="45.9328" lon="4.7974">
        <ele>177</ele>
        <time>2017-04-22T10:10:21Z</time>
      </trkpt>
      <trkpt lat="45.93282" lon="4.79734">
        <ele>177</ele>
        <time>2017-04-22T10:10:22Z</time>
      </trkpt>
      <trkpt lat="45.93284" lon="4.79728">
        <ele>177</ele>
        <time>2017-04-22T10:10:23Z</time>
      </trkpt>
      <trkpt lat="45.93287" lon="4.79722">
        <ele>177</ele>
        <time>2017-04-22T10:10:24Z</time>
      </trkpt>
      <trkpt lat="45.93289" lon="4.79715">
        <ele>177</ele>
        <time>2017-04-22T10:10:25Z</time>
      </trkpt>
      <trkpt lat="45.93291" lon="4.79709">
        <ele>177</ele>
        <time>2017-04-22T10:10:26Z</time>
      </trkpt>
      <trkpt lat="45.93293" lon="4.79703">
        <ele>177</ele>
        <time>2017-04-22T10:10:27Z</time>
      </trkpt>
      <trkpt lat="45.93295" lon="4.79696">
        <ele>177</ele>
        <time>2017-04-22T10:10:28Z</time>
      </trkpt>
      <trkpt lat="45.93297" lon="4.7969">
        <ele>177</ele>
        <time>2017-04-22T10:10:29Z</time>
      </trkpt>
      <trkpt lat="45.933" lon="4.79684">
        <ele>177</ele>
        <time>2017-04-22T10:10:30Z</time>
      </trkpt>
      <trkpt lat="45.93302" lon="4.79678">
        <ele>177</ele>
        <time>2017-04-22T10:10:31Z</time>
      </trkpt>
      <trkpt lat="45.93304" lon="4.79673">
        <ele>177</ele>
        <time>2017-04-22T10:10:32Z</time>
      </trkpt>
      <trkpt lat="45.93306" lon="4.79666">
        <ele>177</ele>
        <time>2017-04-22T10:10:33Z</time>
      </trkpt>
      <trkpt lat="45.93308" lon="4.7966">
        <ele>177</ele>
        <time>2017-04-22T10:10:34Z</time>
      </trkpt>
      <trkpt lat="45.9331" lon="4.79654">
        <ele>177</ele>
        <time>2017-04-22T10:10:35Z</time>
      </trkpt>
      <trkpt lat="45.93312" lon="4.79648">
        <ele>177</ele>
        <time>2017-04-22T10:10:36Z</time>
      </trkpt>
      <trkpt lat="45.93314" lon="4.79642">
        <ele>177</ele>
        <time>2017-04-22T10:10:37Z</time>
      </trkpt>
      <trkpt lat="45.93316" lon="4.79636">
        <ele>177</ele>
        <time>2017-04-22T10:10:38Z</time>
      </trkpt>
      <trkpt lat="45.93318" lon="4.7963">
        <ele>177</ele>
        <time>2017-04-22T10:10:39Z</time>
      </trkpt>
      <trkpt lat="45.9332" lon="4.79624">
        <ele>177</ele>
        <time>2017-04-22T10:10:40Z</time>
      </trkpt>
      <trkpt lat="45.93322" lon="4.79618">
        <ele>177</ele>
        <time>2017-04-22T10:10:41Z</time>
      </trkpt>
      <trkpt lat="45.93324" lon="4.79612">
        <ele>177</ele>
        <time>2017-04-22T10:10:42Z</time>
      </trkpt>
      <trkpt lat="45.93327" lon="4.79606">
        <ele>177</ele>
        <time>2017-04-22T10:10:43Z</time>
      </trkpt>
      <trkpt lat="45.93329" lon="4.796">
        <ele>177</ele>
        <time>2017-04-22T10:10:44Z</time>
      </trkpt>
      <trkpt lat="45.93332" lon="4.79594">
        <ele>177</ele>
        <time>2017-04-22T10:10:45Z</time>
      </trkpt>
      <trkpt lat="45.93334" lon="4.79588">
        <ele>177</ele>
        <time>2017-04-22T10:10:46Z</time>
      </trkpt>
      <trkpt lat="45.93336" lon="4.79582">
        <ele>177</ele>
        <time>2017-04-22T10:10:47Z</time>
      </trkpt>
      <trkpt lat="45.93338" lon="4.79575">
        <ele>177</ele>
        <time>2017-04-22T10:10:48Z</time>
      </trkpt>
      <trkpt lat="45.93339" lon="4.79569">
        <ele>177</ele>
        <time>2017-04-22T10:10:49Z</time>
      </trkpt>
      <trkpt lat="45.93341" lon="4.79563">
        <ele>177</ele>
        <time>2017-04-22T10:10:50Z</time>
      </trkpt>
      <trkpt lat="45.93343" lon="4.79557">
        <ele>177</ele>
        <time>2017-04-22T10:10:51Z</time>
      </trkpt>
      <trkpt lat="45.93346" lon="4.79551">
        <ele>177</ele>
        <time>2017-04-22T10:10:52Z</time>
      </trkpt>
      <trkpt lat="45.93348" lon="4.79544">
        <ele>177</ele>
        <time>2017-04-22T10:10:53Z</time>
      </trkpt>
      <trkpt lat="45.9335" lon="4.79536">
        <ele>177</ele>
        <time>2017-04-22T10:10:54Z</time>
      </trkpt>
      <trkpt lat="45.93352" lon="4.79529">
        <ele>177</ele>
        <time>2017-04-22T10:10:55Z</time>
      </trkpt>
      <trkpt lat="45.93355" lon="4.79521">
        <ele>177</ele>
        <time>2017-04-22T10:10:56Z</time>
      </trkpt>
      <trkpt lat="45.93357" lon="4.79514">
        <ele>177</ele>
        <time>2017-04-22T10:10:57Z</time>
      </trkpt>
      <trkpt lat="45.9336" lon="4.79507">
        <ele>177</ele>
        <time>2017-04-22T10:10:58Z</time>
      </trkpt>
      <trkpt lat="45.93362" lon="4.795">
        <ele>177</ele>
        <time>2017-04-22T10:10:59Z</time>
      </trkpt>
      <trkpt lat="45.93365" lon="4.79494">
        <ele>176</ele>
        <time>2017-04-22T10:11:00Z</time>
      </trkpt>
      <trkpt lat="45.93367" lon="4.79487">
        <ele>176</ele>
        <time>2017-04-22T10:11:01Z</time>
      </trkpt>
      <trkpt lat="45.9337" lon="4.7948">
        <ele>175</ele>
        <time>2017-04-22T10:11:02Z</time>
      </trkpt>
      <trkpt lat="45.93372" lon="4.79473">
        <ele>175</ele>
        <time>2017-04-22T10:11:03Z</time>
      </trkpt>
      <trkpt lat="45.93375" lon="4.79466">
        <ele>175</ele>
        <time>2017-04-22T10:11:04Z</time>
      </trkpt>
      <trkpt lat="45.93378" lon="4.79459">
        <ele>175</ele>
        <time>2017-04-22T10:11:05Z</time>
      </trkpt>
      <trkpt lat="45.9338" lon="4.79452">
        <ele>175</ele>
        <time>2017-04-22T10:11:06Z</time>
      </trkpt>
      <trkpt lat="45.93383" lon="4.79445">
        <ele>175</ele>
        <time>2017-04-22T10:11:07Z</time>
      </trkpt>
      <trkpt lat="45.93386" lon="4.79437">
        <ele>175</ele>
        <time>2017-04-22T10:11:08Z</time>
      </trkpt>
      <trkpt lat="45.93389" lon="4.79431">
        <ele>175</ele>
        <time>2017-04-22T10:11:09Z</time>
      </trkpt>
      <trkpt lat="45.93391" lon="4.79423">
        <ele>174</ele>
        <time>2017-04-22T10:11:10Z</time>
      </trkpt>
      <trkpt lat="45.93394" lon="4.79415">
        <ele>173</ele>
        <time>2017-04-22T10:11:11Z</time>
      </trkpt>
      <trkpt lat="45.93397" lon="4.79407">
        <ele>173</ele>
        <time>2017-04-22T10:11:12Z</time>
      </trkpt>
      <trkpt lat="45.934" lon="4.79399">
        <ele>173</ele>
        <time>2017-04-22T10:11:13Z</time>
      </trkpt>
      <trkpt lat="45.93403" lon="4.79392">
        <ele>172</ele>
        <time>2017-04-22T10:11:14Z</time>
      </trkpt>
      <trkpt lat="45.93405" lon="4.79384">
        <ele>172</ele>
        <time>2017-04-22T10:11:15Z</time>
      </trkpt>
      <trkpt lat="45.93408" lon="4.79377">
        <ele>172</ele>
        <time>2017-04-22T10:11:16Z</time>
      </trkpt>
      <trkpt lat="45.9341" lon="4.79369">
        <ele>172</ele>
        <time>2017-04-22T10:11:17Z</time>
      </trkpt>
      <trkpt lat="45.93413" lon="4.79362">
        <ele>172</ele>
        <time>2017-04-22T10:11:18Z</time>
      </trkpt>
      <trkpt lat="45.93415" lon="4.79355">
        <ele>172</ele>
        <time>2017-04-22T10:11:19Z</time>
      </trkpt>
      <trkpt lat="45.93417" lon="4.79348">
        <ele>173</ele>
        <time>2017-04-22T10:11:20Z</time>
      </trkpt>
      <trkpt lat="45.93419" lon="4.7934">
        <ele>173</ele>
        <time>2017-04-22T10:11:21Z</time>
      </trkpt>
      <trkpt lat="45.93422" lon="4.79333">
        <ele>172</ele>
        <time>2017-04-22T10:11:22Z</time>
      </trkpt>
      <trkpt lat="45.93425" lon="4.79326">
        <ele>172</ele>
        <time>2017-04-22T10:11:23Z</time>
      </trkpt>
      <trkpt lat="45.93428" lon="4.79318">
        <ele>172</ele>
        <time>2017-04-22T10:11:24Z</time>
      </trkpt>
      <trkpt lat="45.9343" lon="4.7931">
        <ele>173</ele>
        <time>2017-04-22T10:11:25Z</time>
      </trkpt>
      <trkpt lat="45.93433" lon="4.79303">
        <ele>173</ele>
        <time>2017-04-22T10:11:26Z</time>
      </trkpt>
      <trkpt lat="45.93435" lon="4.79296">
        <ele>173</ele>
        <time>2017-04-22T10:11:27Z</time>
      </trkpt>
      <trkpt lat="45.93438" lon="4.79288">
        <ele>173</ele>
        <time>2017-04-22T10:11:28Z</time>
      </trkpt>
      <trkpt lat="45.9344" lon="4.7928">
        <ele>173</ele>
        <time>2017-04-22T10:11:29Z</time>
      </trkpt>
      <trkpt lat="45.93444" lon="4.79273">
        <ele>173</ele>
        <time>2017-04-22T10:11:30Z</time>
      </trkpt>
      <trkpt lat="45.93446" lon="4.79265">
        <ele>172</ele>
        <time>2017-04-22T10:11:31Z</time>
      </trkpt>
      <trkpt lat="45.93449" lon="4.79257">
        <ele>172</ele>
        <time>2017-04-22T10:11:32Z</time>
      </trkpt>
      <trkpt lat="45.93452" lon="4.79249">
        <ele>172</ele>
        <time>2017-04-22T10:11:33Z</time>
      </trkpt>
      <trkpt lat="45.93455" lon="4.79241">
        <ele>172</ele>
        <time>2017-04-22T10:11:34Z</time>
      </trkpt>
      <trkpt lat="45.93457" lon="4.79234">
        <ele>172</ele>
        <time>2017-04-22T10:11:35Z</time>
      </trkpt>
      <trkpt lat="45.93459" lon="4.79227">
        <ele>172</ele>
        <time>2017-04-22T10:11:36Z</time>
      </trkpt>
      <trkpt lat="45.93461" lon="4.79219">
        <ele>172</ele>
        <time>2017-04-22T10:11:37Z</time>
      </trkpt>
      <trkpt lat="45.93463" lon="4.79213">
        <ele>172</ele>
        <time>2017-04-22T10:11:38Z</time>
      </trkpt>
      <trkpt lat="45.93465" lon="4.79206">
        <ele>172</ele>
        <time>2017-04-22T10:11:39Z</time>
      </trkpt>
      <trkpt lat="45.93468" lon="4.79198">
        <ele>172</ele>
        <time>2017-04-22T10:11:40Z</time>
      </trkpt>
      <trkpt lat="45.9347" lon="4.79191">
        <ele>172</ele>
        <time>2017-04-22T10:11:41Z</time>
      </trkpt>
      <trkpt lat="45.93472" lon="4.79183">
        <ele>172</ele>
        <time>2017-04-22T10:11:42Z</time>
      </trkpt>
      <trkpt lat="45.93475" lon="4.79176">
        <ele>172</ele>
        <time>2017-04-22T10:11:43Z</time>
      </trkpt>
      <trkpt lat="45.93478" lon="4.79169">
        <ele>172</ele>
        <time>2017-04-22T10:11:44Z</time>
      </trkpt>
      <trkpt lat="45.9348" lon="4.79161">
        <ele>172</ele>
        <time>2017-04-22T10:11:45Z</time>
      </trkpt>
      <trkpt lat="45.93483" lon="4.79153">
        <ele>172</ele>
        <time>2017-04-22T10:11:46Z</time>
      </trkpt>
      <trkpt lat="45.93485" lon="4.79145">
        <ele>172</ele>
        <time>2017-04-22T10:11:47Z</time>
      </trkpt>
      <trkpt lat="45.93488" lon="4.79138">
        <ele>172</ele>
        <time>2017-04-22T10:11:48Z</time>
      </trkpt>
      <trkpt lat="45.93491" lon="4.7913">
        <ele>172</ele>
        <time>2017-04-22T10:11:49Z</time>
      </trkpt>
      <trkpt lat="45.93494" lon="4.79123">
        <ele>172</ele>
        <time>2017-04-22T10:11:50Z</time>
      </trkpt>
      <trkpt lat="45.93497" lon="4.79115">
        <ele>172</ele>
        <time>2017-04-22T10:11:51Z</time>
      </trkpt>
      <trkpt lat="45.93499" lon="4.79108">
        <ele>172</ele>
        <time>2017-04-22T10:11:52Z</time>
      </trkpt>
      <trkpt lat="45.93502" lon="4.79101">
        <ele>173</ele>
        <time>2017-04-22T10:11:53Z</time>
      </trkpt>
      <trkpt lat="45.93505" lon="4.79094">
        <ele>173</ele>
        <time>2017-04-22T10:11:54Z</time>
      </trkpt>
      <trkpt lat="45.93507" lon="4.79087">
        <ele>173</ele>
        <time>2017-04-22T10:11:55Z</time>
      </trkpt>
      <trkpt lat="45.93509" lon="4.7908">
        <ele>173</ele>
        <time>2017-04-22T10:11:56Z</time>
      </trkpt>
      <trkpt lat="45.93512" lon="4.79074">
        <ele>173</ele>
        <time>2017-04-22T10:11:57Z</time>
      </trkpt>
      <trkpt lat="45.93514" lon="4.79068">
        <ele>173</ele>
        <time>2017-04-22T10:11:58Z</time>
      </trkpt>
      <trkpt lat="45.93517" lon="4.79061">
        <ele>173</ele>
        <time>2017-04-22T10:11:59Z</time>
      </trkpt>
      <trkpt lat="45.93519" lon="4.79055">
        <ele>173</ele>
        <time>2017-04-22T10:12:00Z</time>
      </trkpt>
      <trkpt lat="45.93522" lon="4.79049">
        <ele>173</ele>
        <time>2017-04-22T10:12:01Z</time>
      </trkpt>
      <trkpt lat="45.93525" lon="4.79042">
        <ele>173</ele>
        <time>2017-04-22T10:12:02Z</time>
      </trkpt>
      <trkpt lat="45.93527" lon="4.79035">
        <ele>173</ele>
        <time>2017-04-22T10:12:03Z</time>
      </trkpt>
      <trkpt lat="45.9353" lon="4.79028">
        <ele>173</ele>
        <time>2017-04-22T10:12:04Z</time>
      </trkpt>
      <trkpt lat="45.93532" lon="4.79022">
        <ele>173</ele>
        <time>2017-04-22T10:12:05Z</time>
      </trkpt>
      <trkpt lat="45.93535" lon="4.79015">
        <ele>173</ele>
        <time>2017-04-22T10:12:06Z</time>
      </trkpt>
      <trkpt lat="45.93538" lon="4.7901">
        <ele>173</ele>
        <time>2017-04-22T10:12:07Z</time>
      </trkpt>
      <trkpt lat="45.93542" lon="4.79004">
        <ele>173</ele>
        <time>2017-04-22T10:12:08Z</time>
      </trkpt>
      <trkpt lat="45.93546" lon="4.78998">
        <ele>172</ele>
        <time>2017-04-22T10:12:09Z</time>
      </trkpt>
      <trkpt lat="45.93549" lon="4.78991">
        <ele>172</ele>
        <time>2017-04-22T10:12:10Z</time>
      </trkpt>
      <trkpt lat="45.93551" lon="4.78983">
        <ele>172</ele>
        <time>2017-04-22T10:12:11Z</time>
      </trkpt>
      <trkpt lat="45.93553" lon="4.78975">
        <ele>172</ele>
        <time>2017-04-22T10:12:12Z</time>
      </trkpt>
      <trkpt lat="45.93556" lon="4.78967">
        <ele>172</ele>
        <time>2017-04-22T10:12:13Z</time>
      </trkpt>
      <trkpt lat="45.93559" lon="4.78959">
        <ele>172</ele>
        <time>2017-04-22T10:12:14Z</time>
      </trkpt>
      <trkpt lat="45.93563" lon="4.78952">
        <ele>172</ele>
        <time>2017-04-22T10:12:15Z</time>
      </trkpt>
      <trkpt lat="45.93566" lon="4.78945">
        <ele>172</ele>
        <time>2017-04-22T10:12:16Z</time>
      </trkpt>
      <trkpt lat="45.9357" lon="4.78938">
        <ele>172</ele>
        <time>2017-04-22T10:12:17Z</time>
      </trkpt>
      <trkpt lat="45.93573" lon="4.78932">
        <ele>172</ele>
        <time>2017-04-22T10:12:18Z</time>
      </trkpt>
      <trkpt lat="45.93575" lon="4.78925">
        <ele>172</ele>
        <time>2017-04-22T10:12:19Z</time>
      </trkpt>
      <trkpt lat="45.93578" lon="4.78919">
        <ele>172</ele>
        <time>2017-04-22T10:12:20Z</time>
      </trkpt>
      <trkpt lat="45.93581" lon="4.78913">
        <ele>172</ele>
        <time>2017-04-22T10:12:21Z</time>
      </trkpt>
      <trkpt lat="45.93584" lon="4.78907">
        <ele>173</ele>
        <time>2017-04-22T10:12:22Z</time>
      </trkpt>
      <trkpt lat="45.93587" lon="4.78901">
        <ele>173</ele>
        <time>2017-04-22T10:12:23Z</time>
      </trkpt>
      <trkpt lat="45.93589" lon="4.78896">
        <ele>173</ele>
        <time>2017-04-22T10:12:24Z</time>
      </trkpt>
      <trkpt lat="45.93592" lon="4.7889">
        <ele>173</ele>
        <time>2017-04-22T10:12:25Z</time>
      </trkpt>
      <trkpt lat="45.93594" lon="4.78885">
        <ele>173</ele>
        <time>2017-04-22T10:12:26Z</time>
      </trkpt>
      <trkpt lat="45.93597" lon="4.7888">
        <ele>174</ele>
        <time>2017-04-22T10:12:27Z</time>
      </trkpt>
      <trkpt lat="45.936" lon="4.78874">
        <ele>174</ele>
        <time>2017-04-22T10:12:28Z</time>
      </trkpt>
      <trkpt lat="45.93603" lon="4.78868">
        <ele>174</ele>
        <time>2017-04-22T10:12:29Z</time>
      </trkpt>
      <trkpt lat="45.93606" lon="4.78862">
        <ele>174</ele>
        <time>2017-04-22T10:12:30Z</time>
      </trkpt>
      <trkpt lat="45.93608" lon="4.78856">
        <ele>174</ele>
        <time>2017-04-22T10:12:31Z</time>
      </trkpt>
      <trkpt lat="45.93611" lon="4.7885">
        <ele>174</ele>
        <time>2017-04-22T10:12:32Z</time>
      </trkpt>
      <trkpt lat="45.93614" lon="4.78843">
        <ele>174</ele>
        <time>2017-04-22T10:12:33Z</time>
      </trkpt>
      <trkpt lat="45.93617" lon="4.78837">
        <ele>174</ele>
        <time>2017-04-22T10:12:34Z</time>
      </trkpt>
      <trkpt lat="45.93621" lon="4.78831">
        <ele>174</ele>
        <time>2017-04-22T10:12:35Z</time>
      </trkpt>
      <trkpt lat="45.93624" lon="4.78825">
        <ele>174</ele>
        <time>2017-04-22T10:12:36Z</time>
      </trkpt>
      <trkpt lat="45.93627" lon="4.78818">
        <ele>174</ele>
        <time>2017-04-22T10:12:37Z</time>
      </trkpt>
      <trkpt lat="45.9363" lon="4.78811">
        <ele>174</ele>
        <time>2017-04-22T10:12:38Z</time>
      </trkpt>
      <trkpt lat="45.93633" lon="4.78805">
        <ele>174</ele>
        <time>2017-04-22T10:12:39Z</time>
      </trkpt>
      <trkpt lat="45.93636" lon="4.78798">
        <ele>174</ele>
        <time>2017-04-22T10:12:40Z</time>
      </trkpt>
      <trkpt lat="45.93639" lon="4.78792">
        <ele>174</ele>
        <time>2017-04-22T10:12:41Z</time>
      </trkpt>
      <trkpt lat="45.93641" lon="4.78786">
        <ele>174</ele>
        <time>2017-04-22T10:12:42Z</time>
      </trkpt>
      <trkpt lat="45.93644" lon="4.7878">
        <ele>174</ele>
        <time>2017-04-22T10:12:43Z</time>
      </trkpt>
      <trkpt lat="45.93648" lon="4.78769">
        <ele>174</ele>
        <time>2017-04-22T10:12:45Z</time>
      </trkpt>
      <trkpt lat="45.9365" lon="4.78763">
        <ele>174</ele>
        <time>2017-04-22T10:12:46Z</time>
      </trkpt>
      <trkpt lat="45.93655" lon="4.78753">
        <ele>174</ele>
        <time>2017-04-22T10:12:48Z</time>
      </trkpt>
      <trkpt lat="45.93657" lon="4.78747">
        <ele>174</ele>
        <time>2017-04-22T10:12:49Z</time>
      </trkpt>
      <trkpt lat="45.9366" lon="4.78741">
        <ele>174</ele>
        <time>2017-04-22T10:12:50Z</time>
      </trkpt>
      <trkpt lat="45.93662" lon="4.78736">
        <ele>174</ele>
        <time>2017-04-22T10:12:51Z</time>
      </trkpt>
      <trkpt lat="45.93664" lon="4.7873">
        <ele>174</ele>
        <time>2017-04-22T10:12:52Z</time>
      </trkpt>
      <trkpt lat="45.93667" lon="4.78724">
        <ele>174</ele>
        <time>2017-04-22T10:12:53Z</time>
      </trkpt>
      <trkpt lat="45.93669" lon="4.78718">
        <ele>175</ele>
        <time>2017-04-22T10:12:54Z</time>
      </trkpt>
      <trkpt lat="45.93672" lon="4.78712">
        <ele>175</ele>
        <time>2017-04-22T10:12:55Z</time>
      </trkpt>
      <trkpt lat="45.93674" lon="4.78706">
        <ele>175</ele>
        <time>2017-04-22T10:12:56Z</time>
      </trkpt>
      <trkpt lat="45.93676" lon="4.787">
        <ele>175</ele>
        <time>2017-04-22T10:12:57Z</time>
      </trkpt>
      <trkpt lat="45.93678" lon="4.78695">
        <ele>175</ele>
        <time>2017-04-22T10:12:58Z</time>
      </trkpt>
      <trkpt lat="45.93681" lon="4.78689">
        <ele>175</ele>
        <time>2017-04-22T10:12:59Z</time>
      </trkpt>
      <trkpt lat="45.93684" lon="4.78683">
        <ele>175</ele>
        <time>2017-04-22T10:13:00Z</time>
      </trkpt>
      <trkpt lat="45.93686" lon="4.78677">
        <ele>175</ele>
        <time>2017-04-22T10:13:01Z</time>
      </trkpt>
      <trkpt lat="45.93689" lon="4.78672">
        <ele>175</ele>
        <time>2017-04-22T10:13:02Z</time>
      </trkpt>
      <trkpt lat="45.93691" lon="4.78666">
        <ele>175</ele>
        <time>2017-04-22T10:13:03Z</time>
      </trkpt>
      <trkpt lat="45.93694" lon="4.78661">
        <ele>176</ele>
        <time>2017-04-22T10:13:04Z</time>
      </trkpt>
      <trkpt lat="45.93697" lon="4.78655">
        <ele>176</ele>
        <time>2017-04-22T10:13:05Z</time>
      </trkpt>
      <trkpt lat="45.93702" lon="4.78646">
        <ele>176</ele>
        <time>2017-04-22T10:13:07Z</time>
      </trkpt>
      <trkpt lat="45.93705" lon="4.78642">
        <ele>176</ele>
        <time>2017-04-22T10:13:08Z</time>
      </trkpt>
      <trkpt lat="45.9371" lon="4.78633">
        <ele>176</ele>
        <time>2017-04-22T10:13:10Z</time>
      </trkpt>
      <trkpt lat="45.93711" lon="4.78627">
        <ele>176</ele>
        <time>2017-04-22T10:13:11Z</time>
      </trkpt>
      <trkpt lat="45.93712" lon="4.78621">
        <ele>176</ele>
        <time>2017-04-22T10:13:12Z</time>
      </trkpt>
      <trkpt lat="45.93712" lon="4.78613">
        <ele>176</ele>
        <time>2017-04-22T10:13:13Z</time>
      </trkpt>
      <trkpt lat="45.93712" lon="4.78606">
        <ele>176</ele>
        <time>2017-04-22T10:13:14Z</time>
      </trkpt>
      <trkpt lat="45.93712" lon="4.786">
        <ele>176</ele>
        <time>2017-04-22T10:13:15Z</time>
      </trkpt>
      <trkpt lat="45.93713" lon="4.78592">
        <ele>177</ele>
        <time>2017-04-22T10:13:16Z</time>
      </trkpt>
      <trkpt lat="45.93715" lon="4.78586">
        <ele>177</ele>
        <time>2017-04-22T10:13:17Z</time>
      </trkpt>
      <trkpt lat="45.93718" lon="4.78574">
        <ele>178</ele>
        <time>2017-04-22T10:13:19Z</time>
      </trkpt>
      <trkpt lat="45.9372" lon="4.78569">
        <ele>178</ele>
        <time>2017-04-22T10:13:20Z</time>
      </trkpt>
      <trkpt lat="45.93722" lon="4.78557">
        <ele>178</ele>
        <time>2017-04-22T10:13:22Z</time>
      </trkpt>
      <trkpt lat="45.93724" lon="4.78552">
        <ele>178</ele>
        <time>2017-04-22T10:13:23Z</time>
      </trkpt>
      <trkpt lat="45.93726" lon="4.7854">
        <ele>178</ele>
        <time>2017-04-22T10:13:25Z</time>
      </trkpt>
      <trkpt lat="45.93727" lon="4.78535">
        <ele>178</ele>
        <time>2017-04-22T10:13:26Z</time>
      </trkpt>
      <trkpt lat="45.9373" lon="4.78523">
        <ele>179</ele>
        <time>2017-04-22T10:13:28Z</time>
      </trkpt>
      <trkpt lat="45.93732" lon="4.78516">
        <ele>179</ele>
        <time>2017-04-22T10:13:29Z</time>
      </trkpt>
      <trkpt lat="45.93735" lon="4.78505">
        <ele>180</ele>
        <time>2017-04-22T10:13:31Z</time>
      </trkpt>
      <trkpt lat="45.93736" lon="4.78499">
        <ele>180</ele>
        <time>2017-04-22T10:13:32Z</time>
      </trkpt>
      <trkpt lat="45.93739" lon="4.78487">
        <ele>180</ele>
        <time>2017-04-22T10:13:34Z</time>
      </trkpt>
      <trkpt lat="45.9374" lon="4.78481">
        <ele>180</ele>
        <time>2017-04-22T10:13:35Z</time>
      </trkpt>
      <trkpt lat="45.93743" lon="4.7847">
        <ele>180</ele>
        <time>2017-04-22T10:13:37Z</time>
      </trkpt>
      <trkpt lat="45.93745" lon="4.78465">
        <ele>180</ele>
        <time>2017-04-22T10:13:38Z</time>
      </trkpt>
      <trkpt lat="45.93747" lon="4.78454">
        <ele>180</ele>
        <time>2017-04-22T10:13:40Z</time>
      </trkpt>
      <trkpt lat="45.93749" lon="4.78448">
        <ele>180</ele>
        <time>2017-04-22T10:13:41Z</time>
      </trkpt>
      <trkpt lat="45.93752" lon="4.78437">
        <ele>183</ele>
        <time>2017-04-22T10:13:43Z</time>
      </trkpt>
      <trkpt lat="45.93753" lon="4.78431">
        <ele>183</ele>
        <time>2017-04-22T10:13:44Z</time>
      </trkpt>
      <trkpt lat="45.93757" lon="4.7842">
        <ele>182</ele>
        <time>2017-04-22T10:13:46Z</time>
      </trkpt>
      <trkpt lat="45.93759" lon="4.78415">
        <ele>182</ele>
        <time>2017-04-22T10:13:47Z</time>
      </trkpt>
      <trkpt lat="45.93763" lon="4.78404">
        <ele>183</ele>
        <time>2017-04-22T10:13:49Z</time>
      </trkpt>
      <trkpt lat="45.93765" lon="4.78398">
        <ele>183</ele>
        <time>2017-04-22T10:13:50Z</time>
      </trkpt>
      <trkpt lat="45.93767" lon="4.78392">
        <ele>183</ele>
        <time>2017-04-22T10:13:51Z</time>
      </trkpt>
      <trkpt lat="45.93768" lon="4.78386">
        <ele>183</ele>
        <time>2017-04-22T10:13:52Z</time>
      </trkpt>
      <trkpt lat="45.93771" lon="4.78374">
        <ele>183</ele>
        <time>2017-04-22T10:13:54Z</time>
      </trkpt>
      <trkpt lat="45.93772" lon="4.78368">
        <ele>183</ele>
        <time>2017-04-22T10:13:55Z</time>
      </trkpt>
      <trkpt lat="45.93776" lon="4.78357">
        <ele>183</ele>
        <time>2017-04-22T10:13:57Z</time>
      </trkpt>
      <trkpt lat="45.93777" lon="4.7835">
        <ele>183</ele>
        <time>2017-04-22T10:13:58Z</time>
      </trkpt>
      <trkpt lat="45.93778" lon="4.78343">
        <ele>183</ele>
        <time>2017-04-22T10:13:59Z</time>
      </trkpt>
      <trkpt lat="45.9378" lon="4.78337">
        <ele>183</ele>
        <time>2017-04-22T10:14:00Z</time>
      </trkpt>
      <trkpt lat="45.93782" lon="4.78331">
        <ele>183</ele>
        <time>2017-04-22T10:14:01Z</time>
      </trkpt>
      <trkpt lat="45.93784" lon="4.78324">
        <ele>183</ele>
        <time>2017-04-22T10:14:02Z</time>
      </trkpt>
      <trkpt lat="45.93786" lon="4.78318">
        <ele>183</ele>
        <time>2017-04-22T10:14:03Z</time>
      </trkpt>
      <trkpt lat="45.93788" lon="4.78311">
        <ele>183</ele>
        <time>2017-04-22T10:14:04Z</time>
      </trkpt>
      <trkpt lat="45.9379" lon="4.78304">
        <ele>183</ele>
        <time>2017-04-22T10:14:05Z</time>
      </trkpt>
      <trkpt lat="45.93793" lon="4.78298">
        <ele>183</ele>
        <time>2017-04-22T10:14:06Z</time>
      </trkpt>
      <trkpt lat="45.93795" lon="4.78292">
        <ele>183</ele>
        <time>2017-04-22T10:14:07Z</time>
      </trkpt>
      <trkpt lat="45.93798" lon="4.78286">
        <ele>183</ele>
        <time>2017-04-22T10:14:08Z</time>
      </trkpt>
      <trkpt lat="45.93802" lon="4.78281">
        <ele>183</ele>
        <time>2017-04-22T10:14:09Z</time>
      </trkpt>
      <trkpt lat="45.93804" lon="4.78277">
        <ele>183</ele>
        <time>2017-04-22T10:14:10Z</time>
      </trkpt>
      <trkpt lat="45.93808" lon="4.78272">
        <ele>183</ele>
        <time>2017-04-22T10:14:11Z</time>
      </trkpt>
      <trkpt lat="45.9381" lon="4.78266">
        <ele>183</ele>
        <time>2017-04-22T10:14:12Z</time>
      </trkpt>
      <trkpt lat="45.93812" lon="4.78259">
        <ele>184</ele>
        <time>2017-04-22T10:14:13Z</time>
      </trkpt>
      <trkpt lat="45.93814" lon="4.78253">
        <ele>184</ele>
        <time>2017-04-22T10:14:14Z</time>
      </trkpt>
      <trkpt lat="45.93816" lon="4.78245">
        <ele>183</ele>
        <time>2017-04-22T10:14:15Z</time>
      </trkpt>
      <trkpt lat="45.93817" lon="4.78238">
        <ele>183</ele>
        <time>2017-04-22T10:14:16Z</time>
      </trkpt>
      <trkpt lat="45.93819" lon="4.78231">
        <ele>182</ele>
        <time>2017-04-22T10:14:17Z</time>
      </trkpt>
      <trkpt lat="45.93821" lon="4.78223">
        <ele>182</ele>
        <time>2017-04-22T10:14:18Z</time>
      </trkpt>
      <trkpt lat="45.93822" lon="4.78216">
        <ele>182</ele>
        <time>2017-04-22T10:14:19Z</time>
      </trkpt>
      <trkpt lat="45.93824" lon="4.78209">
        <ele>182</ele>
        <time>2017-04-22T10:14:20Z</time>
      </trkpt>
      <trkpt lat="45.93825" lon="4.78202">
        <ele>182</ele>
        <time>2017-04-22T10:14:21Z</time>
      </trkpt>
      <trkpt lat="45.93826" lon="4.78195">
        <ele>182</ele>
        <time>2017-04-22T10:14:22Z</time>
      </trkpt>
      <trkpt lat="45.93828" lon="4.78189">
        <ele>182</ele>
        <time>2017-04-22T10:14:23Z</time>
      </trkpt>
      <trkpt lat="45.9383" lon="4.78182">
        <ele>182</ele>
        <time>2017-04-22T10:14:24Z</time>
      </trkpt>
      <trkpt lat="45.93831" lon="4.78175">
        <ele>182</ele>
        <time>2017-04-22T10:14:25Z</time>
      </trkpt>
      <trkpt lat="45.93832" lon="4.78168">
        <ele>182</ele>
        <time>2017-04-22T10:14:26Z</time>
      </trkpt>
      <trkpt lat="45.93834" lon="4.78161">
        <ele>183</ele>
        <time>2017-04-22T10:14:27Z</time>
      </trkpt>
      <trkpt lat="45.93836" lon="4.78155">
        <ele>184</ele>
        <time>2017-04-22T10:14:28Z</time>
      </trkpt>
      <trkpt lat="45.93837" lon="4.78149">
        <ele>184</ele>
        <time>2017-04-22T10:14:29Z</time>
      </trkpt>
      <trkpt lat="45.93839" lon="4.78142">
        <ele>184</ele>
        <time>2017-04-22T10:14:30Z</time>
      </trkpt>
      <trkpt lat="45.93841" lon="4.78136">
        <ele>184</ele>
        <time>2017-04-22T10:14:31Z</time>
      </trkpt>
      <trkpt lat="45.93843" lon="4.7813">
        <ele>185</ele>
        <time>2017-04-22T10:14:32Z</time>
      </trkpt>
      <trkpt lat="45.93844" lon="4.78123">
        <ele>185</ele>
        <time>2017-04-22T10:14:33Z</time>
      </trkpt>
      <trkpt lat="45.93846" lon="4.78116">
        <ele>184</ele>
        <time>2017-04-22T10:14:34Z</time>
      </trkpt>
      <trkpt lat="45.93847" lon="4.78108">
        <ele>184</ele>
        <time>2017-04-22T10:14:35Z</time>
      </trkpt>
      <trkpt lat="45.93849" lon="4.781">
        <ele>184</ele>
        <time>2017-04-22T10:14:36Z</time>
      </trkpt>
      <trkpt lat="45.93851" lon="4.78092">
        <ele>183</ele>
        <time>2017-04-22T10:14:37Z</time>
      </trkpt>
      <trkpt lat="45.93852" lon="4.78084">
        <ele>183</ele>
        <time>2017-04-22T10:14:38Z</time>
      </trkpt>
      <trkpt lat="45.93854" lon="4.78076">
        <ele>182</ele>
        <time>2017-04-22T10:14:39Z</time>
      </trkpt>
      <trkpt lat="45.93855" lon="4.78068">
        <ele>183</ele>
        <time>2017-04-22T10:14:40Z</time>
      </trkpt>
      <trkpt lat="45.93856" lon="4.7806">
        <ele>183</ele>
        <time>2017-04-22T10:14:41Z</time>
      </trkpt>
      <trkpt lat="45.93858" lon="4.78051">
        <ele>183</ele>
        <time>2017-04-22T10:14:42Z</time>
      </trkpt>
      <trkpt lat="45.93861" lon="4.78044">
        <ele>183</ele>
        <time>2017-04-22T10:14:43Z</time>
      </trkpt>
      <trkpt lat="45.93863" lon="4.78037">
        <ele>183</ele>
        <time>2017-04-22T10:14:44Z</time>
      </trkpt>
      <trkpt lat="45.93865" lon="4.78031">
        <ele>183</ele>
        <time>2017-04-22T10:14:45Z</time>
      </trkpt>
      <trkpt lat="45.93868" lon="4.78023">
        <ele>183</ele>
        <time>2017-04-22T10:14:46Z</time>
      </trkpt>
      <trkpt lat="45.93869" lon="4.78016">
        <ele>183</ele>
        <time>2017-04-22T10:14:47Z</time>
      </trkpt>
      <trkpt lat="45.93869" lon="4.78009">
        <ele>183</ele>
        <time>2017-04-22T10:14:48Z</time>
      </trkpt>
      <trkpt lat="45.9387" lon="4.78001">
        <ele>183</ele>
        <time>2017-04-22T10:14:49Z</time>
      </trkpt>
      <trkpt lat="45.93871" lon="4.77993">
        <ele>180</ele>
        <time>2017-04-22T10:14:50Z</time>
      </trkpt>
      <trkpt lat="45.93873" lon="4.77985">
        <ele>180</ele>
        <time>2017-04-22T10:14:51Z</time>
      </trkpt>
      <trkpt lat="45.93875" lon="4.77977">
        <ele>180</ele>
        <time>2017-04-22T10:14:52Z</time>
      </trkpt>
      <trkpt lat="45.93878" lon="4.77968">
        <ele>179</ele>
        <time>2017-04-22T10:14:53Z</time>
      </trkpt>
      <trkpt lat="45.9388" lon="4.7796">
        <ele>179</ele>
        <time>2017-04-22T10:14:54Z</time>
      </trkpt>
      <trkpt lat="45.93882" lon="4.7795">
        <ele>179</ele>
        <time>2017-04-22T10:14:55Z</time>
      </trkpt>
      <trkpt lat="45.93885" lon="4.77941">
        <ele>179</ele>
        <time>2017-04-22T10:14:56Z</time>
      </trkpt>
      <trkpt lat="45.93886" lon="4.77931">
        <ele>179</ele>
        <time>2017-04-22T10:14:57Z</time>
      </trkpt>
      <trkpt lat="45.93887" lon="4.77921">
        <ele>179</ele>
        <time>2017-04-22T10:14:58Z</time>
      </trkpt>
      <trkpt lat="45.93889" lon="4.77912">
        <ele>176</ele>
        <time>2017-04-22T10:14:59Z</time>
      </trkpt>
      <trkpt lat="45.93892" lon="4.77902">
        <ele>176</ele>
        <time>2017-04-22T10:15:00Z</time>
      </trkpt>
      <trkpt lat="45.93895" lon="4.77893">
        <ele>176</ele>
        <time>2017-04-22T10:15:01Z</time>
      </trkpt>
      <trkpt lat="45.93898" lon="4.77883">
        <ele>176</ele>
        <time>2017-04-22T10:15:02Z</time>
      </trkpt>
      <trkpt lat="45.93901" lon="4.77873">
        <ele>176</ele>
        <time>2017-04-22T10:15:03Z</time>
      </trkpt>
      <trkpt lat="45.93904" lon="4.77863">
        <ele>176</ele>
        <time>2017-04-22T10:15:04Z</time>
      </trkpt>
      <trkpt lat="45.93908" lon="4.77853">
        <ele>176</ele>
        <time>2017-04-22T10:15:05Z</time>
      </trkpt>
      <trkpt lat="45.9391" lon="4.77842">
        <ele>177</ele>
        <time>2017-04-22T10:15:06Z</time>
      </trkpt>
      <trkpt lat="45.93913" lon="4.77831">
        <ele>176</ele>
        <time>2017-04-22T10:15:07Z</time>
      </trkpt>
      <trkpt lat="45.93916" lon="4.7782">
        <ele>174</ele>
        <time>2017-04-22T10:15:08Z</time>
      </trkpt>
      <trkpt lat="45.93918" lon="4.77809">
        <ele>180</ele>
        <time>2017-04-22T10:15:09Z</time>
      </trkpt>
      <trkpt lat="45.93921" lon="4.77798">
        <ele>179</ele>
        <time>2017-04-22T10:15:10Z</time>
      </trkpt>
      <trkpt lat="45.93923" lon="4.77788">
        <ele>178</ele>
        <time>2017-04-22T10:15:11Z</time>
      </trkpt>
      <trkpt lat="45.93927" lon="4.77777">
        <ele>177</ele>
        <time>2017-04-22T10:15:12Z</time>
      </trkpt>
      <trkpt lat="45.9393" lon="4.77767">
        <ele>176</ele>
        <time>2017-04-22T10:15:13Z</time>
      </trkpt>
      <trkpt lat="45.93934" lon="4.77758">
        <ele>175</ele>
        <time>2017-04-22T10:15:14Z</time>
      </trkpt>
      <trkpt lat="45.93938" lon="4.77749">
        <ele>173</ele>
        <time>2017-04-22T10:15:15Z</time>
      </trkpt>
      <trkpt lat="45.93942" lon="4.7774">
        <ele>175</ele>
        <time>2017-04-22T10:15:16Z</time>
      </trkpt>
      <trkpt lat="45.93945" lon="4.77732">
        <ele>176</ele>
        <time>2017-04-22T10:15:17Z</time>
      </trkpt>
      <trkpt lat="45.93947" lon="4.77723">
        <ele>176</ele>
        <time>2017-04-22T10:15:18Z</time>
      </trkpt>
      <trkpt lat="45.9395" lon="4.77715">
        <ele>177</ele>
        <time>2017-04-22T10:15:19Z</time>
      </trkpt>
      <trkpt lat="45.93953" lon="4.77706">
        <ele>177</ele>
        <time>2017-04-22T10:15:20Z</time>
      </trkpt>
      <trkpt lat="45.93955" lon="4.77698">
        <ele>177</ele>
        <time>2017-04-22T10:15:21Z</time>
      </trkpt>
      <trkpt lat="45.93958" lon="4.77689">
        <ele>178</ele>
        <time>2017-04-22T10:15:22Z</time>
      </trkpt>
      <trkpt lat="45.93961" lon="4.77681">
        <ele>178</ele>
        <time>2017-04-22T10:15:23Z</time>
      </trkpt>
      <trkpt lat="45.93964" lon="4.77674">
        <ele>179</ele>
        <time>2017-04-22T10:15:24Z</time>
      </trkpt>
      <trkpt lat="45.93966" lon="4.77666">
        <ele>179</ele>
        <time>2017-04-22T10:15:25Z</time>
      </trkpt>
      <trkpt lat="45.93968" lon="4.77659">
        <ele>179</ele>
        <time>2017-04-22T10:15:26Z</time>
      </trkpt>
      <trkpt lat="45.9397" lon="4.77652">
        <ele>179</ele>
        <time>2017-04-22T10:15:27Z</time>
      </trkpt>
      <trkpt lat="45.93971" lon="4.77645">
        <ele>179</ele>
        <time>2017-04-22T10:15:28Z</time>
      </trkpt>
      <trkpt lat="45.93973" lon="4.77638">
        <ele>179</ele>
        <time>2017-04-22T10:15:29Z</time>
      </trkpt>
      <trkpt lat="45.93974" lon="4.77631">
        <ele>179</ele>
        <time>2017-04-22T10:15:30Z</time>
      </trkpt>
      <trkpt lat="45.93975" lon="4.77624">
        <ele>179</ele>
        <time>2017-04-22T10:15:31Z</time>
      </trkpt>
      <trkpt lat="45.93976" lon="4.77617">
        <ele>179</ele>
        <time>2017-04-22T10:15:32Z</time>
      </trkpt>
      <trkpt lat="45.93978" lon="4.77609">
        <ele>180</ele>
        <time>2017-04-22T10:15:33Z</time>
      </trkpt>
      <trkpt lat="45.93979" lon="4.77601">
        <ele>180</ele>
        <time>2017-04-22T10:15:34Z</time>
      </trkpt>
      <trkpt lat="45.93981" lon="4.77593">
        <ele>181</ele>
        <time>2017-04-22T10:15:35Z</time>
      </trkpt>
      <trkpt lat="45.93983" lon="4.77584">
        <ele>182</ele>
        <time>2017-04-22T10:15:36Z</time>
      </trkpt>
      <trkpt lat="45.93984" lon="4.77575">
        <ele>181</ele>
        <time>2017-04-22T10:15:37Z</time>
      </trkpt>
      <trkpt lat="45.93986" lon="4.77567">
        <ele>180</ele>
        <time>2017-04-22T10:15:38Z</time>
      </trkpt>
      <trkpt lat="45.93988" lon="4.77558">
        <ele>180</ele>
        <time>2017-04-22T10:15:39Z</time>
      </trkpt>
      <trkpt lat="45.9399" lon="4.77549">
        <ele>179</ele>
        <time>2017-04-22T10:15:40Z</time>
      </trkpt>
      <trkpt lat="45.93991" lon="4.77541">
        <ele>179</ele>
        <time>2017-04-22T10:15:41Z</time>
      </trkpt>
      <trkpt lat="45.93992" lon="4.77533">
        <ele>179</ele>
        <time>2017-04-22T10:15:42Z</time>
      </trkpt>
      <trkpt lat="45.93994" lon="4.77525">
        <ele>179</ele>
        <time>2017-04-22T10:15:43Z</time>
      </trkpt>
      <trkpt lat="45.93995" lon="4.77517">
        <ele>180</ele>
        <time>2017-04-22T10:15:44Z</time>
      </trkpt>
      <trkpt lat="45.93996" lon="4.7751">
        <ele>181</ele>
        <time>2017-04-22T10:15:45Z</time>
      </trkpt>
      <trkpt lat="45.93997" lon="4.77503">
        <ele>182</ele>
        <time>2017-04-22T10:15:46Z</time>
      </trkpt>
      <trkpt lat="45.93998" lon="4.77497">
        <ele>181</ele>
        <time>2017-04-22T10:15:47Z</time>
      </trkpt>
      <trkpt lat="45.93998" lon="4.7749">
        <ele>180</ele>
        <time>2017-04-22T10:15:48Z</time>
      </trkpt>
      <trkpt lat="45.93999" lon="4.77483">
        <ele>178</ele>
        <time>2017-04-22T10:15:49Z</time>
      </trkpt>
      <trkpt lat="45.94" lon="4.77477">
        <ele>177</ele>
        <time>2017-04-22T10:15:50Z</time>
      </trkpt>
      <trkpt lat="45.94" lon="4.7747">
        <ele>185</ele>
        <time>2017-04-22T10:15:51Z</time>
      </trkpt>
      <trkpt lat="45.94001" lon="4.77464">
        <ele>185</ele>
        <time>2017-04-22T10:15:52Z</time>
      </trkpt>
      <trkpt lat="45.94002" lon="4.77457">
        <ele>185</ele>
        <time>2017-04-22T10:15:53Z</time>
      </trkpt>
      <trkpt lat="45.94004" lon="4.77449">
        <ele>184</ele>
        <time>2017-04-22T10:15:54Z</time>
      </trkpt>
      <trkpt lat="45.94005" lon="4.77442">
        <ele>183</ele>
        <time>2017-04-22T10:15:55Z</time>
      </trkpt>
      <trkpt lat="45.94007" lon="4.77434">
        <ele>182</ele>
        <time>2017-04-22T10:15:56Z</time>
      </trkpt>
      <trkpt lat="45.94008" lon="4.77427">
        <ele>181</ele>
        <time>2017-04-22T10:15:57Z</time>
      </trkpt>
      <trkpt lat="45.94009" lon="4.77419">
        <ele>180</ele>
        <time>2017-04-22T10:15:58Z</time>
      </trkpt>
      <trkpt lat="45.94009" lon="4.77411">
        <ele>178</ele>
        <time>2017-04-22T10:15:59Z</time>
      </trkpt>
      <trkpt lat="45.9401" lon="4.77403">
        <ele>179</ele>
        <time>2017-04-22T10:16:00Z</time>
      </trkpt>
      <trkpt lat="45.94011" lon="4.77396">
        <ele>179</ele>
        <time>2017-04-22T10:16:01Z</time>
      </trkpt>
      <trkpt lat="45.94011" lon="4.77388">
        <ele>179</ele>
        <time>2017-04-22T10:16:02Z</time>
      </trkpt>
      <trkpt lat="45.94012" lon="4.77381">
        <ele>179</ele>
        <time>2017-04-22T10:16:03Z</time>
      </trkpt>
      <trkpt lat="45.94012" lon="4.77374">
        <ele>179</ele>
        <time>2017-04-22T10:16:04Z</time>
      </trkpt>
      <trkpt lat="45.94014" lon="4.77368">
        <ele>179</ele>
        <time>2017-04-22T10:16:05Z</time>
      </trkpt>
      <trkpt lat="45.94015" lon="4.77361">
        <ele>179</ele>
        <time>2017-04-22T10:16:06Z</time>
      </trkpt>
      <trkpt lat="45.94016" lon="4.77349">
        <ele>178</ele>
        <time>2017-04-22T10:16:08Z</time>
      </trkpt>
      <trkpt lat="45.94017" lon="4.77342">
        <ele>177</ele>
        <time>2017-04-22T10:16:09Z</time>
      </trkpt>
      <trkpt lat="45.94017" lon="4.77335">
        <ele>177</ele>
        <time>2017-04-22T10:16:10Z</time>
      </trkpt>
      <trkpt lat="45.94018" lon="4.77328">
        <ele>175</ele>
        <time>2017-04-22T10:16:11Z</time>
      </trkpt>
      <trkpt lat="45.94018" lon="4.7732">
        <ele>175</ele>
        <time>2017-04-22T10:16:12Z</time>
      </trkpt>
      <trkpt lat="45.94019" lon="4.77313">
        <ele>176</ele>
        <time>2017-04-22T10:16:13Z</time>
      </trkpt>
      <trkpt lat="45.94019" lon="4.77306">
        <ele>176</ele>
        <time>2017-04-22T10:16:14Z</time>
      </trkpt>
      <trkpt lat="45.94019" lon="4.77298">
        <ele>176</ele>
        <time>2017-04-22T10:16:15Z</time>
      </trkpt>
      <trkpt lat="45.9402" lon="4.77291">
        <ele>176</ele>
        <time>2017-04-22T10:16:16Z</time>
      </trkpt>
      <trkpt lat="45.94021" lon="4.77283">
        <ele>176</ele>
        <time>2017-04-22T10:16:17Z</time>
      </trkpt>
      <trkpt lat="45.94022" lon="4.77276">
        <ele>175</ele>
        <time>2017-04-22T10:16:18Z</time>
      </trkpt>
      <trkpt lat="45.94023" lon="4.77269">
        <ele>175</ele>
        <time>2017-04-22T10:16:19Z</time>
      </trkpt>
      <trkpt lat="45.94024" lon="4.77261">
        <ele>175</ele>
        <time>2017-04-22T10:16:20Z</time>
      </trkpt>
      <trkpt lat="45.94025" lon="4.77254">
        <ele>175</ele>
        <time>2017-04-22T10:16:21Z</time>
      </trkpt>
      <trkpt lat="45.94026" lon="4.77246">
        <ele>174</ele>
        <time>2017-04-22T10:16:22Z</time>
      </trkpt>
      <trkpt lat="45.94027" lon="4.77239">
        <ele>174</ele>
        <time>2017-04-22T10:16:23Z</time>
      </trkpt>
      <trkpt lat="45.94028" lon="4.77231">
        <ele>174</ele>
        <time>2017-04-22T10:16:24Z</time>
      </trkpt>
      <trkpt lat="45.94029" lon="4.77224">
        <ele>174</ele>
        <time>2017-04-22T10:16:25Z</time>
      </trkpt>
      <trkpt lat="45.9403" lon="4.77217">
        <ele>175</ele>
        <time>2017-04-22T10:16:26Z</time>
      </trkpt>
      <trkpt lat="45.94031" lon="4.7721">
        <ele>175</ele>
        <time>2017-04-22T10:16:27Z</time>
      </trkpt>
      <trkpt lat="45.94032" lon="4.77203">
        <ele>175</ele>
        <time>2017-04-22T10:16:28Z</time>
      </trkpt>
      <trkpt lat="45.94033" lon="4.77196">
        <ele>175</ele>
        <time>2017-04-22T10:16:29Z</time>
      </trkpt>
      <trkpt lat="45.94034" lon="4.77189">
        <ele>175</ele>
        <time>2017-04-22T10:16:30Z</time>
      </trkpt>
      <trkpt lat="45.94035" lon="4.77182">
        <ele>175</ele>
        <time>2017-04-22T10:16:31Z</time>
      </trkpt>
      <trkpt lat="45.94036" lon="4.77175">
        <ele>175</ele>
        <time>2017-04-22T10:16:32Z</time>
      </trkpt>
      <trkpt lat="45.94037" lon="4.77167">
        <ele>175</ele>
        <time>2017-04-22T10:16:33Z</time>
      </trkpt>
      <trkpt lat="45.94038" lon="4.7716">
        <ele>175</ele>
        <time>2017-04-22T10:16:34Z</time>
      </trkpt>
      <trkpt lat="45.94039" lon="4.77153">
        <ele>175</ele>
        <time>2017-04-22T10:16:35Z</time>
      </trkpt>
      <trkpt lat="45.94041" lon="4.77145">
        <ele>175</ele>
        <time>2017-04-22T10:16:36Z</time>
      </trkpt>
      <trkpt lat="45.94042" lon="4.77137">
        <ele>175</ele>
        <time>2017-04-22T10:16:37Z</time>
      </trkpt>
      <trkpt lat="45.94044" lon="4.7713">
        <ele>175</ele>
        <time>2017-04-22T10:16:38Z</time>
      </trkpt>
      <trkpt lat="45.94045" lon="4.77122">
        <ele>175</ele>
        <time>2017-04-22T10:16:39Z</time>
      </trkpt>
      <trkpt lat="45.94046" lon="4.77115">
        <ele>175</ele>
        <time>2017-04-22T10:16:40Z</time>
      </trkpt>
      <trkpt lat="45.94046" lon="4.77107">
        <ele>175</ele>
        <time>2017-04-22T10:16:41Z</time>
      </trkpt>
      <trkpt lat="45.94046" lon="4.771">
        <ele>175</ele>
        <time>2017-04-22T10:16:42Z</time>
      </trkpt>
      <trkpt lat="45.94047" lon="4.77094">
        <ele>175</ele>
        <time>2017-04-22T10:16:43Z</time>
      </trkpt>
      <trkpt lat="45.94047" lon="4.77087">
        <ele>175</ele>
        <time>2017-04-22T10:16:44Z</time>
      </trkpt>
      <trkpt lat="45.94048" lon="4.7708">
        <ele>175</ele>
        <time>2017-04-22T10:16:45Z</time>
      </trkpt>
      <trkpt lat="45.94049" lon="4.77073">
        <ele>175</ele>
        <time>2017-04-22T10:16:46Z</time>
      </trkpt>
      <trkpt lat="45.94049" lon="4.77067">
        <ele>175</ele>
        <time>2017-04-22T10:16:47Z</time>
      </trkpt>
      <trkpt lat="45.9405" lon="4.7706">
        <ele>175</ele>
        <time>2017-04-22T10:16:48Z</time>
      </trkpt>
      <trkpt lat="45.94051" lon="4.77053">
        <ele>175</ele>
        <time>2017-04-22T10:16:49Z</time>
      </trkpt>
      <trkpt lat="45.94052" lon="4.77045">
        <ele>175</ele>
        <time>2017-04-22T10:16:50Z</time>
      </trkpt>
      <trkpt lat="45.94053" lon="4.77038">
        <ele>175</ele>
        <time>2017-04-22T10:16:51Z</time>
      </trkpt>
      <trkpt lat="45.94054" lon="4.7703">
        <ele>175</ele>
        <time>2017-04-22T10:16:52Z</time>
      </trkpt>
      <trkpt lat="45.94055" lon="4.77023">
        <ele>175</ele>
        <time>2017-04-22T10:16:53Z</time>
      </trkpt>
      <trkpt lat="45.94056" lon="4.77016">
        <ele>175</ele>
        <time>2017-04-22T10:16:54Z</time>
      </trkpt>
      <trkpt lat="45.94056" lon="4.77009">
        <ele>175</ele>
        <time>2017-04-22T10:16:55Z</time>
      </trkpt>
      <trkpt lat="45.94058" lon="4.77003">
        <ele>175</ele>
        <time>2017-04-22T10:16:56Z</time>
      </trkpt>
      <trkpt lat="45.9406" lon="4.76997">
        <ele>175</ele>
        <time>2017-04-22T10:16:57Z</time>
      </trkpt>
      <trkpt lat="45.94064" lon="4.76986">
        <ele>175</ele>
        <time>2017-04-22T10:16:59Z</time>
      </trkpt>
      <trkpt lat="45.94065" lon="4.7698">
        <ele>175</ele>
        <time>2017-04-22T10:17:00Z</time>
      </trkpt>
      <trkpt lat="45.94064" lon="4.76973">
        <ele>175</ele>
        <time>2017-04-22T10:17:01Z</time>
      </trkpt>
      <trkpt lat="45.94062" lon="4.76967">
        <ele>174</ele>
        <time>2017-04-22T10:17:02Z</time>
      </trkpt>
      <trkpt lat="45.94058" lon="4.76963">
        <ele>174</ele>
        <time>2017-04-22T10:17:03Z</time>
      </trkpt>
      <trkpt lat="45.94055" lon="4.76959">
        <ele>174</ele>
        <time>2017-04-22T10:17:04Z</time>
      </trkpt>
      <trkpt lat="45.94051" lon="4.76956">
        <ele>174</ele>
        <time>2017-04-22T10:17:05Z</time>
      </trkpt>
      <trkpt lat="45.94047" lon="4.76951">
        <ele>174</ele>
        <time>2017-04-22T10:17:06Z</time>
      </trkpt>
      <trkpt lat="45.94044" lon="4.76945">
        <ele>174</ele>
        <time>2017-04-22T10:17:07Z</time>
      </trkpt>
      <trkpt lat="45.94043" lon="4.76938">
        <ele>174</ele>
        <time>2017-04-22T10:17:08Z</time>
      </trkpt>
      <trkpt lat="45.94041" lon="4.76931">
        <ele>174</ele>
        <time>2017-04-22T10:17:09Z</time>
      </trkpt>
      <trkpt lat="45.9404" lon="4.76923">
        <ele>174</ele>
        <time>2017-04-22T10:17:10Z</time>
      </trkpt>
      <trkpt lat="45.94038" lon="4.76916">
        <ele>173</ele>
        <time>2017-04-22T10:17:11Z</time>
      </trkpt>
      <trkpt lat="45.94035" lon="4.76908">
        <ele>173</ele>
        <time>2017-04-22T10:17:12Z</time>
      </trkpt>
      <trkpt lat="45.94032" lon="4.769">
        <ele>173</ele>
        <time>2017-04-22T10:17:13Z</time>
      </trkpt>
      <trkpt lat="45.94029" lon="4.76893">
        <ele>173</ele>
        <time>2017-04-22T10:17:14Z</time>
      </trkpt>
      <trkpt lat="45.94025" lon="4.76886">
        <ele>173</ele>
        <time>2017-04-22T10:17:15Z</time>
      </trkpt>
      <trkpt lat="45.94022" lon="4.76878">
        <ele>173</ele>
        <time>2017-04-22T10:17:16Z</time>
      </trkpt>
      <trkpt lat="45.94019" lon="4.7687">
        <ele>173</ele>
        <time>2017-04-22T10:17:17Z</time>
      </trkpt>
      <trkpt lat="45.94016" lon="4.76863">
        <ele>172</ele>
        <time>2017-04-22T10:17:18Z</time>
      </trkpt>
      <trkpt lat="45.94013" lon="4.76855">
        <ele>172</ele>
        <time>2017-04-22T10:17:19Z</time>
      </trkpt>
      <trkpt lat="45.94011" lon="4.76848">
        <ele>172</ele>
        <time>2017-04-22T10:17:20Z</time>
      </trkpt>
      <trkpt lat="45.94009" lon="4.76839">
        <ele>172</ele>
        <time>2017-04-22T10:17:21Z</time>
      </trkpt>
      <trkpt lat="45.94007" lon="4.76831">
        <ele>172</ele>
        <time>2017-04-22T10:17:22Z</time>
      </trkpt>
      <trkpt lat="45.94006" lon="4.76823">
        <ele>172</ele>
        <time>2017-04-22T10:17:23Z</time>
      </trkpt>
      <trkpt lat="45.94002" lon="4.76816">
        <ele>172</ele>
        <time>2017-04-22T10:17:24Z</time>
      </trkpt>
      <trkpt lat="45.94001" lon="4.76809">
        <ele>172</ele>
        <time>2017-04-22T10:17:25Z</time>
      </trkpt>
      <trkpt lat="45.94" lon="4.76802">
        <ele>172</ele>
        <time>2017-04-22T10:17:26Z</time>
      </trkpt>
      <trkpt lat="45.93999" lon="4.76795">
        <ele>172</ele>
        <time>2017-04-22T10:17:27Z</time>
      </trkpt>
      <trkpt lat="45.93999" lon="4.76787">
        <ele>172</ele>
        <time>2017-04-22T10:17:28Z</time>
      </trkpt>
      <trkpt lat="45.93999" lon="4.7678">
        <ele>172</ele>
        <time>2017-04-22T10:17:29Z</time>
      </trkpt>
      <trkpt lat="45.94" lon="4.76772">
        <ele>173</ele>
        <time>2017-04-22T10:17:30Z</time>
      </trkpt>
      <trkpt lat="45.94002" lon="4.76765">
        <ele>173</ele>
        <time>2017-04-22T10:17:31Z</time>
      </trkpt>
      <trkpt lat="45.94004" lon="4.76757">
        <ele>173</ele>
        <time>2017-04-22T10:17:32Z</time>
      </trkpt>
      <trkpt lat="45.94006" lon="4.76749">
        <ele>173</ele>
        <time>2017-04-22T10:17:33Z</time>
      </trkpt>
      <trkpt lat="45.94007" lon="4.76742">
        <ele>173</ele>
        <time>2017-04-22T10:17:34Z</time>
      </trkpt>
      <trkpt lat="45.9401" lon="4.76734">
        <ele>173</ele>
        <time>2017-04-22T10:17:35Z</time>
      </trkpt>
      <trkpt lat="45.94012" lon="4.76727">
        <ele>173</ele>
        <time>2017-04-22T10:17:36Z</time>
      </trkpt>
      <trkpt lat="45.94014" lon="4.76719">
        <ele>173</ele>
        <time>2017-04-22T10:17:37Z</time>
      </trkpt>
      <trkpt lat="45.94016" lon="4.76712">
        <ele>173</ele>
        <time>2017-04-22T10:17:38Z</time>
      </trkpt>
      <trkpt lat="45.94018" lon="4.76704">
        <ele>173</ele>
        <time>2017-04-22T10:17:39Z</time>
      </trkpt>
      <trkpt lat="45.94019" lon="4.76697">
        <ele>173</ele>
        <time>2017-04-22T10:17:40Z</time>
      </trkpt>
      <trkpt lat="45.9402" lon="4.7669">
        <ele>173</ele>
        <time>2017-04-22T10:17:41Z</time>
      </trkpt>
      <trkpt lat="45.9402" lon="4.76683">
        <ele>173</ele>
        <time>2017-04-22T10:17:42Z</time>
      </trkpt>
      <trkpt lat="45.94021" lon="4.76676">
        <ele>173</ele>
        <time>2017-04-22T10:17:43Z</time>
      </trkpt>
      <trkpt lat="45.9402" lon="4.76669">
        <ele>173</ele>
        <time>2017-04-22T10:17:44Z</time>
      </trkpt>
      <trkpt lat="45.94019" lon="4.76663">
        <ele>172</ele>
        <time>2017-04-22T10:17:45Z</time>
      </trkpt>
      <trkpt lat="45.94018" lon="4.76655">
        <ele>172</ele>
        <time>2017-04-22T10:17:46Z</time>
      </trkpt>
      <trkpt lat="45.94016" lon="4.76647">
        <ele>172</ele>
        <time>2017-04-22T10:17:47Z</time>
      </trkpt>
      <trkpt lat="45.94014" lon="4.76639">
        <ele>172</ele>
        <time>2017-04-22T10:17:48Z</time>
      </trkpt>
      <trkpt lat="45.94012" lon="4.76631">
        <ele>172</ele>
        <time>2017-04-22T10:17:49Z</time>
      </trkpt>
      <trkpt lat="45.9401" lon="4.76622">
        <ele>172</ele>
        <time>2017-04-22T10:17:50Z</time>
      </trkpt>
      <trkpt lat="45.94007" lon="4.76614">
        <ele>172</ele>
        <time>2017-04-22T10:17:51Z</time>
      </trkpt>
      <trkpt lat="45.94005" lon="4.76605">
        <ele>172</ele>
        <time>2017-04-22T10:17:52Z</time>
      </trkpt>
      <trkpt lat="45.94002" lon="4.76596">
        <ele>172</ele>
        <time>2017-04-22T10:17:53Z</time>
      </trkpt>
      <trkpt lat="45.94" lon="4.76587">
        <ele>172</ele>
        <time>2017-04-22T10:17:54Z</time>
      </trkpt>
      <trkpt lat="45.93998" lon="4.76578">
        <ele>172</ele>
        <time>2017-04-22T10:17:55Z</time>
      </trkpt>
      <trkpt lat="45.93996" lon="4.76569">
        <ele>172</ele>
        <time>2017-04-22T10:17:56Z</time>
      </trkpt>
      <trkpt lat="45.93995" lon="4.7656">
        <ele>172</ele>
        <time>2017-04-22T10:17:57Z</time>
      </trkpt>
      <trkpt lat="45.93995" lon="4.7655">
        <ele>172</ele>
        <time>2017-04-22T10:17:58Z</time>
      </trkpt>
      <trkpt lat="45.93995" lon="4.76541">
        <ele>171</ele>
        <time>2017-04-22T10:17:59Z</time>
      </trkpt>
      <trkpt lat="45.93995" lon="4.76532">
        <ele>171</ele>
        <time>2017-04-22T10:18:00Z</time>
      </trkpt>
      <trkpt lat="45.93995" lon="4.76523">
        <ele>171</ele>
        <time>2017-04-22T10:18:01Z</time>
      </trkpt>
      <trkpt lat="45.93995" lon="4.76514">
        <ele>171</ele>
        <time>2017-04-22T10:18:02Z</time>
      </trkpt>
      <trkpt lat="45.93994" lon="4.76505">
        <ele>171</ele>
        <time>2017-04-22T10:18:03Z</time>
      </trkpt>
      <trkpt lat="45.93994" lon="4.76496">
        <ele>171</ele>
        <time>2017-04-22T10:18:04Z</time>
      </trkpt>
      <trkpt lat="45.93994" lon="4.76488">
        <ele>171</ele>
        <time>2017-04-22T10:18:05Z</time>
      </trkpt>
      <trkpt lat="45.93993" lon="4.7648">
        <ele>170</ele>
        <time>2017-04-22T10:18:06Z</time>
      </trkpt>
      <trkpt lat="45.93993" lon="4.76472">
        <ele>170</ele>
        <time>2017-04-22T10:18:07Z</time>
      </trkpt>
      <trkpt lat="45.93993" lon="4.76464">
        <ele>170</ele>
        <time>2017-04-22T10:18:08Z</time>
      </trkpt>
      <trkpt lat="45.93993" lon="4.76456">
        <ele>170</ele>
        <time>2017-04-22T10:18:09Z</time>
      </trkpt>
      <trkpt lat="45.93993" lon="4.76448">
        <ele>170</ele>
        <time>2017-04-22T10:18:10Z</time>
      </trkpt>
      <trkpt lat="45.93994" lon="4.76442">
        <ele>169</ele>
        <time>2017-04-22T10:18:11Z</time>
      </trkpt>
      <trkpt lat="45.93995" lon="4.76435">
        <ele>169</ele>
        <time>2017-04-22T10:18:12Z</time>
      </trkpt>
      <trkpt lat="45.93997" lon="4.76428">
        <ele>169</ele>
        <time>2017-04-22T10:18:13Z</time>
      </trkpt>
      <trkpt lat="45.93999" lon="4.76422">
        <ele>168</ele>
        <time>2017-04-22T10:18:14Z</time>
      </trkpt>
      <trkpt lat="45.94002" lon="4.76416">
        <ele>168</ele>
        <time>2017-04-22T10:18:15Z</time>
      </trkpt>
      <trkpt lat="45.94005" lon="4.7641">
        <ele>169</ele>
        <time>2017-04-22T10:18:16Z</time>
      </trkpt>
      <trkpt lat="45.94009" lon="4.76405">
        <ele>169</ele>
        <time>2017-04-22T10:18:17Z</time>
      </trkpt>
      <trkpt lat="45.94012" lon="4.76399">
        <ele>169</ele>
        <time>2017-04-22T10:18:18Z</time>
      </trkpt>
      <trkpt lat="45.94016" lon="4.76395">
        <ele>169</ele>
        <time>2017-04-22T10:18:19Z</time>
      </trkpt>
      <trkpt lat="45.9402" lon="4.7639">
        <ele>169</ele>
        <time>2017-04-22T10:18:20Z</time>
      </trkpt>
      <trkpt lat="45.94027" lon="4.76383">
        <ele>170</ele>
        <time>2017-04-22T10:18:22Z</time>
      </trkpt>
      <trkpt lat="45.94031" lon="4.76379">
        <ele>170</ele>
        <time>2017-04-22T10:18:23Z</time>
      </trkpt>
      <trkpt lat="45.94035" lon="4.76368">
        <ele>170</ele>
        <time>2017-04-22T10:18:25Z</time>
      </trkpt>
      <trkpt lat="45.94037" lon="4.76362">
        <ele>170</ele>
        <time>2017-04-22T10:18:26Z</time>
      </trkpt>
      <trkpt lat="45.9404" lon="4.76351">
        <ele>170</ele>
        <time>2017-04-22T10:18:28Z</time>
      </trkpt>
      <trkpt lat="45.94042" lon="4.76345">
        <ele>170</ele>
        <time>2017-04-22T10:18:29Z</time>
      </trkpt>
      <trkpt lat="45.94046" lon="4.76334">
        <ele>170</ele>
        <time>2017-04-22T10:18:31Z</time>
      </trkpt>
      <trkpt lat="45.94049" lon="4.76329">
        <ele>170</ele>
        <time>2017-04-22T10:18:32Z</time>
      </trkpt>
      <trkpt lat="45.94053" lon="4.7632">
        <ele>171</ele>
        <time>2017-04-22T10:18:34Z</time>
      </trkpt>
      <trkpt lat="45.94056" lon="4.76316">
        <ele>171</ele>
        <time>2017-04-22T10:18:35Z</time>
      </trkpt>
      <trkpt lat="45.94061" lon="4.76309">
        <ele>171</ele>
        <time>2017-04-22T10:18:37Z</time>
      </trkpt>
      <trkpt lat="45.94064" lon="4.76305">
        <ele>171</ele>
        <time>2017-04-22T10:18:38Z</time>
      </trkpt>
      <trkpt lat="45.9407" lon="4.76299">
        <ele>171</ele>
        <time>2017-04-22T10:18:40Z</time>
      </trkpt>
      <trkpt lat="45.94073" lon="4.76296">
        <ele>171</ele>
        <time>2017-04-22T10:18:41Z</time>
      </trkpt>
      <trkpt lat="45.94078" lon="4.76288">
        <ele>172</ele>
        <time>2017-04-22T10:18:43Z</time>
      </trkpt>
      <trkpt lat="45.94081" lon="4.76284">
        <ele>172</ele>
        <time>2017-04-22T10:18:44Z</time>
      </trkpt>
      <trkpt lat="45.94086" lon="4.76277">
        <ele>176</ele>
        <time>2017-04-22T10:18:46Z</time>
      </trkpt>
      <trkpt lat="45.94089" lon="4.76274">
        <ele>176</ele>
        <time>2017-04-22T10:18:47Z</time>
      </trkpt>
      <trkpt lat="45.94096" lon="4.7627">
        <ele>176</ele>
        <time>2017-04-22T10:18:49Z</time>
      </trkpt>
      <trkpt lat="45.94099" lon="4.76269">
        <ele>176</ele>
        <time>2017-04-22T10:18:50Z</time>
      </trkpt>
      <trkpt lat="45.94107" lon="4.76268">
        <ele>176</ele>
        <time>2017-04-22T10:18:52Z</time>
      </trkpt>
      <trkpt lat="45.9411" lon="4.76269">
        <ele>177</ele>
        <time>2017-04-22T10:18:53Z</time>
      </trkpt>
      <trkpt lat="45.94118" lon="4.76268">
        <ele>177</ele>
        <time>2017-04-22T10:18:56Z</time>
      </trkpt>
      <trkpt lat="45.94121" lon="4.76267">
        <ele>177</ele>
        <time>2017-04-22T10:18:57Z</time>
      </trkpt>
      <trkpt lat="45.94127" lon="4.76264">
        <ele>177</ele>
        <time>2017-04-22T10:18:59Z</time>
      </trkpt>
      <trkpt lat="45.9413" lon="4.76263">
        <ele>178</ele>
        <time>2017-04-22T10:19:00Z</time>
      </trkpt>
      <trkpt lat="45.94137" lon="4.76262">
        <ele>178</ele>
        <time>2017-04-22T10:19:02Z</time>
      </trkpt>
      <trkpt lat="45.9414" lon="4.76262">
        <ele>178</ele>
        <time>2017-04-22T10:19:03Z</time>
      </trkpt>
      <trkpt lat="45.94147" lon="4.76261">
        <ele>179</ele>
        <time>2017-04-22T10:19:05Z</time>
      </trkpt>
      <trkpt lat="45.9415" lon="4.76262">
        <ele>179</ele>
        <time>2017-04-22T10:19:06Z</time>
      </trkpt>
      <trkpt lat="45.94157" lon="4.76261">
        <ele>179</ele>
        <time>2017-04-22T10:19:08Z</time>
      </trkpt>
      <trkpt lat="45.9416" lon="4.76259">
        <ele>180</ele>
        <time>2017-04-22T10:19:09Z</time>
      </trkpt>
      <trkpt lat="45.94166" lon="4.76249">
        <ele>181</ele>
        <time>2017-04-22T10:19:11Z</time>
      </trkpt>
      <trkpt lat="45.94167" lon="4.76243">
        <ele>181</ele>
        <time>2017-04-22T10:19:12Z</time>
      </trkpt>
      <trkpt lat="45.94169" lon="4.76231">
        <ele>182</ele>
        <time>2017-04-22T10:19:14Z</time>
      </trkpt>
      <trkpt lat="45.9417" lon="4.76225">
        <ele>182</ele>
        <time>2017-04-22T10:19:15Z</time>
      </trkpt>
      <trkpt lat="45.94172" lon="4.76214">
        <ele>182</ele>
        <time>2017-04-22T10:19:17Z</time>
      </trkpt>
      <trkpt lat="45.94173" lon="4.76208">
        <ele>182</ele>
        <time>2017-04-22T10:19:18Z</time>
      </trkpt>
      <trkpt lat="45.94175" lon="4.76196">
        <ele>182</ele>
        <time>2017-04-22T10:19:20Z</time>
      </trkpt>
      <trkpt lat="45.94176" lon="4.7619">
        <ele>182</ele>
        <time>2017-04-22T10:19:21Z</time>
      </trkpt>
      <trkpt lat="45.94177" lon="4.76184">
        <ele>182</ele>
        <time>2017-04-22T10:19:22Z</time>
      </trkpt>
      <trkpt lat="45.94179" lon="4.76177">
        <ele>181</ele>
        <time>2017-04-22T10:19:23Z</time>
      </trkpt>
      <trkpt lat="45.9418" lon="4.7617">
        <ele>181</ele>
        <time>2017-04-22T10:19:24Z</time>
      </trkpt>
      <trkpt lat="45.94181" lon="4.76163">
        <ele>180</ele>
        <time>2017-04-22T10:19:25Z</time>
      </trkpt>
      <trkpt lat="45.94181" lon="4.76156">
        <ele>181</ele>
        <time>2017-04-22T10:19:26Z</time>
      </trkpt>
      <trkpt lat="45.94182" lon="4.7615">
        <ele>181</ele>
        <time>2017-04-22T10:19:27Z</time>
      </trkpt>
      <trkpt lat="45.94181" lon="4.76143">
        <ele>181</ele>
        <time>2017-04-22T10:19:28Z</time>
      </trkpt>
      <trkpt lat="45.94182" lon="4.76136">
        <ele>181</ele>
        <time>2017-04-22T10:19:29Z</time>
      </trkpt>
      <trkpt lat="45.94181" lon="4.76129">
        <ele>180</ele>
        <time>2017-04-22T10:19:30Z</time>
      </trkpt>
      <trkpt lat="45.94181" lon="4.76122">
        <ele>180</ele>
        <time>2017-04-22T10:19:31Z</time>
      </trkpt>
      <trkpt lat="45.94181" lon="4.76115">
        <ele>180</ele>
        <time>2017-04-22T10:19:32Z</time>
      </trkpt>
      <trkpt lat="45.9418" lon="4.76107">
        <ele>180</ele>
        <time>2017-04-22T10:19:33Z</time>
      </trkpt>
      <trkpt lat="45.9418" lon="4.761">
        <ele>180</ele>
        <time>2017-04-22T10:19:34Z</time>
      </trkpt>
      <trkpt lat="45.9418" lon="4.76094">
        <ele>179</ele>
        <time>2017-04-22T10:19:35Z</time>
      </trkpt>
      <trkpt lat="45.9418" lon="4.76087">
        <ele>179</ele>
        <time>2017-04-22T10:19:36Z</time>
      </trkpt>
      <trkpt lat="45.9418" lon="4.76079">
        <ele>179</ele>
        <time>2017-04-22T10:19:37Z</time>
      </trkpt>
      <trkpt lat="45.9418" lon="4.76072">
        <ele>179</ele>
        <time>2017-04-22T10:19:38Z</time>
      </trkpt>
      <trkpt lat="45.9418" lon="4.76066">
        <ele>179</ele>
        <time>2017-04-22T10:19:39Z</time>
      </trkpt>
      <trkpt lat="45.94181" lon="4.76053">
        <ele>179</ele>
        <time>2017-04-22T10:19:41Z</time>
      </trkpt>
      <trkpt lat="45.94181" lon="4.76047">
        <ele>179</ele>
        <time>2017-04-22T10:19:42Z</time>
      </trkpt>
      <trkpt lat="45.9418" lon="4.76034">
        <ele>179</ele>
        <time>2017-04-22T10:19:44Z</time>
      </trkpt>
      <trkpt lat="45.9418" lon="4.76027">
        <ele>179</ele>
        <time>2017-04-22T10:19:45Z</time>
      </trkpt>
      <trkpt lat="45.9418" lon="4.76021">
        <ele>179</ele>
        <time>2017-04-22T10:19:46Z</time>
      </trkpt>
      <trkpt lat="45.9418" lon="4.76014">
        <ele>179</ele>
        <time>2017-04-22T10:19:47Z</time>
      </trkpt>
      <trkpt lat="45.9418" lon="4.76007">
        <ele>179</ele>
        <time>2017-04-22T10:19:48Z</time>
      </trkpt>
      <trkpt lat="45.9418" lon="4.76">
        <ele>178</ele>
        <time>2017-04-22T10:19:49Z</time>
      </trkpt>
      <trkpt lat="45.9418" lon="4.75993">
        <ele>178</ele>
        <time>2017-04-22T10:19:50Z</time>
      </trkpt>
      <trkpt lat="45.94179" lon="4.75986">
        <ele>178</ele>
        <time>2017-04-22T10:19:51Z</time>
      </trkpt>
      <trkpt lat="45.94179" lon="4.75979">
        <ele>177</ele>
        <time>2017-04-22T10:19:52Z</time>
      </trkpt>
      <trkpt lat="45.94178" lon="4.75972">
        <ele>177</ele>
        <time>2017-04-22T10:19:53Z</time>
      </trkpt>
      <trkpt lat="45.94178" lon="4.75965">
        <ele>177</ele>
        <time>2017-04-22T10:19:54Z</time>
      </trkpt>
      <trkpt lat="45.94178" lon="4.75957">
        <ele>177</ele>
        <time>2017-04-22T10:19:55Z</time>
      </trkpt>
      <trkpt lat="45.94177" lon="4.75949">
        <ele>177</ele>
        <time>2017-04-22T10:19:56Z</time>
      </trkpt>
      <trkpt lat="45.94177" lon="4.75942">
        <ele>177</ele>
        <time>2017-04-22T10:19:57Z</time>
      </trkpt>
      <trkpt lat="45.94176" lon="4.75933">
        <ele>176</ele>
        <time>2017-04-22T10:19:58Z</time>
      </trkpt>
      <trkpt lat="45.94175" lon="4.75925">
        <ele>176</ele>
        <time>2017-04-22T10:19:59Z</time>
      </trkpt>
      <trkpt lat="45.94175" lon="4.75917">
        <ele>176</ele>
        <time>2017-04-22T10:20:00Z</time>
      </trkpt>
      <trkpt lat="45.94175" lon="4.7591">
        <ele>175</ele>
        <time>2017-04-22T10:20:01Z</time>
      </trkpt>
      <trkpt lat="45.94174" lon="4.75903">
        <ele>175</ele>
        <time>2017-04-22T10:20:02Z</time>
      </trkpt>
      <trkpt lat="45.94174" lon="4.75896">
        <ele>175</ele>
        <time>2017-04-22T10:20:03Z</time>
      </trkpt>
      <trkpt lat="45.94173" lon="4.75889">
        <ele>175</ele>
        <time>2017-04-22T10:20:04Z</time>
      </trkpt>
      <trkpt lat="45.94173" lon="4.75883">
        <ele>175</ele>
        <time>2017-04-22T10:20:05Z</time>
      </trkpt>
      <trkpt lat="45.94172" lon="4.75876">
        <ele>175</ele>
        <time>2017-04-22T10:20:06Z</time>
      </trkpt>
      <trkpt lat="45.94172" lon="4.75868">
        <ele>175</ele>
        <time>2017-04-22T10:20:07Z</time>
      </trkpt>
      <trkpt lat="45.94172" lon="4.75861">
        <ele>175</ele>
        <time>2017-04-22T10:20:08Z</time>
      </trkpt>
      <trkpt lat="45.94171" lon="4.75853">
        <ele>174</ele>
        <time>2017-04-22T10:20:09Z</time>
      </trkpt>
      <trkpt lat="45.94171" lon="4.75845">
        <ele>174</ele>
        <time>2017-04-22T10:20:10Z</time>
      </trkpt>
      <trkpt lat="45.9417" lon="4.75836">
        <ele>174</ele>
        <time>2017-04-22T10:20:11Z</time>
      </trkpt>
      <trkpt lat="45.9417" lon="4.75827">
        <ele>174</ele>
        <time>2017-04-22T10:20:12Z</time>
      </trkpt>
      <trkpt lat="45.94169" lon="4.75819">
        <ele>174</ele>
        <time>2017-04-22T10:20:13Z</time>
      </trkpt>
      <trkpt lat="45.94169" lon="4.7581">
        <ele>174</ele>
        <time>2017-04-22T10:20:14Z</time>
      </trkpt>
      <trkpt lat="45.94169" lon="4.75802">
        <ele>174</ele>
        <time>2017-04-22T10:20:15Z</time>
      </trkpt>
      <trkpt lat="45.94169" lon="4.75794">
        <ele>174</ele>
        <time>2017-04-22T10:20:16Z</time>
      </trkpt>
      <trkpt lat="45.94169" lon="4.75786">
        <ele>174</ele>
        <time>2017-04-22T10:20:17Z</time>
      </trkpt>
      <trkpt lat="45.94168" lon="4.75778">
        <ele>174</ele>
        <time>2017-04-22T10:20:18Z</time>
      </trkpt>
      <trkpt lat="45.94168" lon="4.75771">
        <ele>174</ele>
        <time>2017-04-22T10:20:19Z</time>
      </trkpt>
      <trkpt lat="45.94168" lon="4.75763">
        <ele>174</ele>
        <time>2017-04-22T10:20:20Z</time>
      </trkpt>
      <trkpt lat="45.94169" lon="4.75755">
        <ele>174</ele>
        <time>2017-04-22T10:20:21Z</time>
      </trkpt>
      <trkpt lat="45.94168" lon="4.75748">
        <ele>174</ele>
        <time>2017-04-22T10:20:22Z</time>
      </trkpt>
      <trkpt lat="45.94168" lon="4.75741">
        <ele>174</ele>
        <time>2017-04-22T10:20:23Z</time>
      </trkpt>
      <trkpt lat="45.94168" lon="4.75734">
        <ele>174</ele>
        <time>2017-04-22T10:20:24Z</time>
      </trkpt>
      <trkpt lat="45.94168" lon="4.75726">
        <ele>173</ele>
        <time>2017-04-22T10:20:25Z</time>
      </trkpt>
      <trkpt lat="45.94168" lon="4.75718">
        <ele>173</ele>
        <time>2017-04-22T10:20:26Z</time>
      </trkpt>
      <trkpt lat="45.94167" lon="4.75709">
        <ele>173</ele>
        <time>2017-04-22T10:20:27Z</time>
      </trkpt>
      <trkpt lat="45.94167" lon="4.75701">
        <ele>173</ele>
        <time>2017-04-22T10:20:28Z</time>
      </trkpt>
      <trkpt lat="45.94167" lon="4.75692">
        <ele>173</ele>
        <time>2017-04-22T10:20:29Z</time>
      </trkpt>
      <trkpt lat="45.94167" lon="4.75683">
        <ele>173</ele>
        <time>2017-04-22T10:20:30Z</time>
      </trkpt>
      <trkpt lat="45.94167" lon="4.75674">
        <ele>173</ele>
        <time>2017-04-22T10:20:31Z</time>
      </trkpt>
      <trkpt lat="45.94167" lon="4.75664">
        <ele>173</ele>
        <time>2017-04-22T10:20:32Z</time>
      </trkpt>
      <trkpt lat="45.94168" lon="4.75655">
        <ele>173</ele>
        <time>2017-04-22T10:20:33Z</time>
      </trkpt>
      <trkpt lat="45.94168" lon="4.75646">
        <ele>173</ele>
        <time>2017-04-22T10:20:34Z</time>
      </trkpt>
      <trkpt lat="45.94168" lon="4.75637">
        <ele>173</ele>
        <time>2017-04-22T10:20:35Z</time>
      </trkpt>
      <trkpt lat="45.94168" lon="4.75629">
        <ele>173</ele>
        <time>2017-04-22T10:20:36Z</time>
      </trkpt>
      <trkpt lat="45.94168" lon="4.75621">
        <ele>173</ele>
        <time>2017-04-22T10:20:37Z</time>
      </trkpt>
      <trkpt lat="45.94168" lon="4.75613">
        <ele>173</ele>
        <time>2017-04-22T10:20:38Z</time>
      </trkpt>
      <trkpt lat="45.94169" lon="4.75605">
        <ele>173</ele>
        <time>2017-04-22T10:20:39Z</time>
      </trkpt>
      <trkpt lat="45.9417" lon="4.75596">
        <ele>173</ele>
        <time>2017-04-22T10:20:40Z</time>
      </trkpt>
      <trkpt lat="45.9417" lon="4.75588">
        <ele>173</ele>
        <time>2017-04-22T10:20:41Z</time>
      </trkpt>
      <trkpt lat="45.94171" lon="4.75581">
        <ele>173</ele>
        <time>2017-04-22T10:20:42Z</time>
      </trkpt>
      <trkpt lat="45.94171" lon="4.75574">
        <ele>173</ele>
        <time>2017-04-22T10:20:43Z</time>
      </trkpt>
      <trkpt lat="45.94172" lon="4.75566">
        <ele>173</ele>
        <time>2017-04-22T10:20:44Z</time>
      </trkpt>
      <trkpt lat="45.94173" lon="4.75559">
        <ele>173</ele>
        <time>2017-04-22T10:20:45Z</time>
      </trkpt>
      <trkpt lat="45.94173" lon="4.75551">
        <ele>173</ele>
        <time>2017-04-22T10:20:46Z</time>
      </trkpt>
      <trkpt lat="45.94174" lon="4.75544">
        <ele>173</ele>
        <time>2017-04-22T10:20:47Z</time>
      </trkpt>
      <trkpt lat="45.94175" lon="4.75536">
        <ele>173</ele>
        <time>2017-04-22T10:20:48Z</time>
      </trkpt>
      <trkpt lat="45.94176" lon="4.75528">
        <ele>173</ele>
        <time>2017-04-22T10:20:49Z</time>
      </trkpt>
      <trkpt lat="45.94177" lon="4.7552">
        <ele>173</ele>
        <time>2017-04-22T10:20:50Z</time>
      </trkpt>
      <trkpt lat="45.94177" lon="4.75512">
        <ele>173</ele>
        <time>2017-04-22T10:20:51Z</time>
      </trkpt>
      <trkpt lat="45.94178" lon="4.75504">
        <ele>173</ele>
        <time>2017-04-22T10:20:52Z</time>
      </trkpt>
      <trkpt lat="45.94179" lon="4.75496">
        <ele>172</ele>
        <time>2017-04-22T10:20:53Z</time>
      </trkpt>
      <trkpt lat="45.94181" lon="4.75488">
        <ele>172</ele>
        <time>2017-04-22T10:20:54Z</time>
      </trkpt>
      <trkpt lat="45.94182" lon="4.75481">
        <ele>172</ele>
        <time>2017-04-22T10:20:55Z</time>
      </trkpt>
      <trkpt lat="45.94186" lon="4.7547">
        <ele>172</ele>
        <time>2017-04-22T10:20:57Z</time>
      </trkpt>
      <trkpt lat="45.94187" lon="4.75468">
        <ele>172</ele>
        <time>2017-04-22T10:20:58Z</time>
      </trkpt>
      <trkpt lat="45.9419" lon="4.75459">
        <ele>172</ele>
        <time>2017-04-22T10:21:01Z</time>
      </trkpt>
      <trkpt lat="45.94191" lon="4.75454">
        <ele>172</ele>
        <time>2017-04-22T10:21:02Z</time>
      </trkpt>
      <trkpt lat="45.94191" lon="4.75443">
        <ele>171</ele>
        <time>2017-04-22T10:21:04Z</time>
      </trkpt>
      <trkpt lat="45.9419" lon="4.75437">
        <ele>171</ele>
        <time>2017-04-22T10:21:05Z</time>
      </trkpt>
      <trkpt lat="45.94188" lon="4.75431">
        <ele>171</ele>
        <time>2017-04-22T10:21:06Z</time>
      </trkpt>
      <trkpt lat="45.94186" lon="4.75424">
        <ele>171</ele>
        <time>2017-04-22T10:21:07Z</time>
      </trkpt>
      <trkpt lat="45.94185" lon="4.75417">
        <ele>170</ele>
        <time>2017-04-22T10:21:08Z</time>
      </trkpt>
      <trkpt lat="45.94186" lon="4.75409">
        <ele>171</ele>
        <time>2017-04-22T10:21:09Z</time>
      </trkpt>
      <trkpt lat="45.94187" lon="4.75401">
        <ele>171</ele>
        <time>2017-04-22T10:21:10Z</time>
      </trkpt>
      <trkpt lat="45.94189" lon="4.75393">
        <ele>171</ele>
        <time>2017-04-22T10:21:11Z</time>
      </trkpt>
      <trkpt lat="45.9419" lon="4.75386">
        <ele>171</ele>
        <time>2017-04-22T10:21:12Z</time>
      </trkpt>
      <trkpt lat="45.94191" lon="4.75378">
        <ele>171</ele>
        <time>2017-04-22T10:21:13Z</time>
      </trkpt>
      <trkpt lat="45.94191" lon="4.7537">
        <ele>171</ele>
        <time>2017-04-22T10:21:14Z</time>
      </trkpt>
      <trkpt lat="45.94192" lon="4.75363">
        <ele>171</ele>
        <time>2017-04-22T10:21:15Z</time>
      </trkpt>
      <trkpt lat="45.94193" lon="4.75356">
        <ele>171</ele>
        <time>2017-04-22T10:21:16Z</time>
      </trkpt>
      <trkpt lat="45.94194" lon="4.75349">
        <ele>171</ele>
        <time>2017-04-22T10:21:17Z</time>
      </trkpt>
      <trkpt lat="45.94195" lon="4.75341">
        <ele>171</ele>
        <time>2017-04-22T10:21:18Z</time>
      </trkpt>
      <trkpt lat="45.94196" lon="4.75334">
        <ele>171</ele>
        <time>2017-04-22T10:21:19Z</time>
      </trkpt>
      <trkpt lat="45.94198" lon="4.75327">
        <ele>171</ele>
        <time>2017-04-22T10:21:20Z</time>
      </trkpt>
      <trkpt lat="45.94199" lon="4.75319">
        <ele>171</ele>
        <time>2017-04-22T10:21:21Z</time>
      </trkpt>
      <trkpt lat="45.942" lon="4.75312">
        <ele>171</ele>
        <time>2017-04-22T10:21:22Z</time>
      </trkpt>
      <trkpt lat="45.94201" lon="4.75304">
        <ele>171</ele>
        <time>2017-04-22T10:21:23Z</time>
      </trkpt>
      <trkpt lat="45.94202" lon="4.75297">
        <ele>171</ele>
        <time>2017-04-22T10:21:24Z</time>
      </trkpt>
      <trkpt lat="45.94203" lon="4.7529">
        <ele>171</ele>
        <time>2017-04-22T10:21:25Z</time>
      </trkpt>
      <trkpt lat="45.94204" lon="4.75284">
        <ele>171</ele>
        <time>2017-04-22T10:21:26Z</time>
      </trkpt>
      <trkpt lat="45.94206" lon="4.75277">
        <ele>171</ele>
        <time>2017-04-22T10:21:27Z</time>
      </trkpt>
      <trkpt lat="45.94207" lon="4.7527">
        <ele>171</ele>
        <time>2017-04-22T10:21:28Z</time>
      </trkpt>
      <trkpt lat="45.94208" lon="4.75264">
        <ele>171</ele>
        <time>2017-04-22T10:21:29Z</time>
      </trkpt>
      <trkpt lat="45.94209" lon="4.75257">
        <ele>172</ele>
        <time>2017-04-22T10:21:30Z</time>
      </trkpt>
      <trkpt lat="45.9421" lon="4.75249">
        <ele>171</ele>
        <time>2017-04-22T10:21:31Z</time>
      </trkpt>
      <trkpt lat="45.94211" lon="4.75241">
        <ele>171</ele>
        <time>2017-04-22T10:21:32Z</time>
      </trkpt>
      <trkpt lat="45.94213" lon="4.75234">
        <ele>171</ele>
        <time>2017-04-22T10:21:33Z</time>
      </trkpt>
      <trkpt lat="45.94214" lon="4.75226">
        <ele>171</ele>
        <time>2017-04-22T10:21:34Z</time>
      </trkpt>
      <trkpt lat="45.94216" lon="4.75218">
        <ele>171</ele>
        <time>2017-04-22T10:21:35Z</time>
      </trkpt>
      <trkpt lat="45.94217" lon="4.7521">
        <ele>171</ele>
        <time>2017-04-22T10:21:36Z</time>
      </trkpt>
      <trkpt lat="45.94219" lon="4.75203">
        <ele>171</ele>
        <time>2017-04-22T10:21:37Z</time>
      </trkpt>
      <trkpt lat="45.9422" lon="4.75196">
        <ele>171</ele>
        <time>2017-04-22T10:21:38Z</time>
      </trkpt>
      <trkpt lat="45.94222" lon="4.7519">
        <ele>171</ele>
        <time>2017-04-22T10:21:39Z</time>
      </trkpt>
      <trkpt lat="45.94224" lon="4.75183">
        <ele>171</ele>
        <time>2017-04-22T10:21:40Z</time>
      </trkpt>
      <trkpt lat="45.94225" lon="4.75176">
        <ele>171</ele>
        <time>2017-04-22T10:21:41Z</time>
      </trkpt>
      <trkpt lat="45.94227" lon="4.75169">
        <ele>171</ele>
        <time>2017-04-22T10:21:42Z</time>
      </trkpt>
      <trkpt lat="45.94228" lon="4.75162">
        <ele>171</ele>
        <time>2017-04-22T10:21:43Z</time>
      </trkpt>
      <trkpt lat="45.9423" lon="4.75155">
        <ele>171</ele>
        <time>2017-04-22T10:21:44Z</time>
      </trkpt>
      <trkpt lat="45.94231" lon="4.75148">
        <ele>171</ele>
        <time>2017-04-22T10:21:45Z</time>
      </trkpt>
      <trkpt lat="45.94233" lon="4.75141">
        <ele>171</ele>
        <time>2017-04-22T10:21:46Z</time>
      </trkpt>
      <trkpt lat="45.94234" lon="4.75135">
        <ele>171</ele>
        <time>2017-04-22T10:21:47Z</time>
      </trkpt>
      <trkpt lat="45.94236" lon="4.75129">
        <ele>171</ele>
        <time>2017-04-22T10:21:48Z</time>
      </trkpt>
      <trkpt lat="45.94238" lon="4.75123">
        <ele>171</ele>
        <time>2017-04-22T10:21:49Z</time>
      </trkpt>
      <trkpt lat="45.9424" lon="4.75117">
        <ele>172</ele>
        <time>2017-04-22T10:21:50Z</time>
      </trkpt>
      <trkpt lat="45.94242" lon="4.75111">
        <ele>172</ele>
        <time>2017-04-22T10:21:51Z</time>
      </trkpt>
      <trkpt lat="45.94244" lon="4.75105">
        <ele>172</ele>
        <time>2017-04-22T10:21:52Z</time>
      </trkpt>
      <trkpt lat="45.94245" lon="4.75099">
        <ele>172</ele>
        <time>2017-04-22T10:21:53Z</time>
      </trkpt>
      <trkpt lat="45.94247" lon="4.75092">
        <ele>172</ele>
        <time>2017-04-22T10:21:54Z</time>
      </trkpt>
      <trkpt lat="45.94249" lon="4.75085">
        <ele>173</ele>
        <time>2017-04-22T10:21:55Z</time>
      </trkpt>
      <trkpt lat="45.94251" lon="4.75078">
        <ele>173</ele>
        <time>2017-04-22T10:21:56Z</time>
      </trkpt>
      <trkpt lat="45.94253" lon="4.7507">
        <ele>174</ele>
        <time>2017-04-22T10:21:57Z</time>
      </trkpt>
      <trkpt lat="45.94256" lon="4.75063">
        <ele>174</ele>
        <time>2017-04-22T10:21:58Z</time>
      </trkpt>
      <trkpt lat="45.94259" lon="4.75055">
        <ele>174</ele>
        <time>2017-04-22T10:21:59Z</time>
      </trkpt>
      <trkpt lat="45.94259" lon="4.75046">
        <ele>174</ele>
        <time>2017-04-22T10:22:00Z</time>
      </trkpt>
      <trkpt lat="45.94262" lon="4.75038">
        <ele>174</ele>
        <time>2017-04-22T10:22:01Z</time>
      </trkpt>
      <trkpt lat="45.94264" lon="4.75031">
        <ele>174</ele>
        <time>2017-04-22T10:22:02Z</time>
      </trkpt>
      <trkpt lat="45.94265" lon="4.75023">
        <ele>174</ele>
        <time>2017-04-22T10:22:03Z</time>
      </trkpt>
      <trkpt lat="45.94267" lon="4.75016">
        <ele>174</ele>
        <time>2017-04-22T10:22:04Z</time>
      </trkpt>
      <trkpt lat="45.9427" lon="4.75009">
        <ele>174</ele>
        <time>2017-04-22T10:22:05Z</time>
      </trkpt>
      <trkpt lat="45.94272" lon="4.75002">
        <ele>174</ele>
        <time>2017-04-22T10:22:06Z</time>
      </trkpt>
      <trkpt lat="45.94274" lon="4.74996">
        <ele>175</ele>
        <time>2017-04-22T10:22:07Z</time>
      </trkpt>
      <trkpt lat="45.94276" lon="4.74988">
        <ele>175</ele>
        <time>2017-04-22T10:22:08Z</time>
      </trkpt>
      <trkpt lat="45.94278" lon="4.74981">
        <ele>175</ele>
        <time>2017-04-22T10:22:09Z</time>
      </trkpt>
      <trkpt lat="45.9428" lon="4.74975">
        <ele>175</ele>
        <time>2017-04-22T10:22:10Z</time>
      </trkpt>
      <trkpt lat="45.94282" lon="4.74968">
        <ele>175</ele>
        <time>2017-04-22T10:22:11Z</time>
      </trkpt>
      <trkpt lat="45.94284" lon="4.74962">
        <ele>175</ele>
        <time>2017-04-22T10:22:12Z</time>
      </trkpt>
      <trkpt lat="45.94287" lon="4.74956">
        <ele>175</ele>
        <time>2017-04-22T10:22:13Z</time>
      </trkpt>
      <trkpt lat="45.94289" lon="4.7495">
        <ele>175</ele>
        <time>2017-04-22T10:22:14Z</time>
      </trkpt>
      <trkpt lat="45.94291" lon="4.74944">
        <ele>175</ele>
        <time>2017-04-22T10:22:15Z</time>
      </trkpt>
      <trkpt lat="45.94292" lon="4.74936">
        <ele>175</ele>
        <time>2017-04-22T10:22:16Z</time>
      </trkpt>
      <trkpt lat="45.94294" lon="4.74929">
        <ele>175</ele>
        <time>2017-04-22T10:22:17Z</time>
      </trkpt>
      <trkpt lat="45.94297" lon="4.74922">
        <ele>175</ele>
        <time>2017-04-22T10:22:18Z</time>
      </trkpt>
      <trkpt lat="45.94299" lon="4.74914">
        <ele>174</ele>
        <time>2017-04-22T10:22:19Z</time>
      </trkpt>
      <trkpt lat="45.94301" lon="4.74907">
        <ele>174</ele>
        <time>2017-04-22T10:22:20Z</time>
      </trkpt>
      <trkpt lat="45.94303" lon="4.749">
        <ele>174</ele>
        <time>2017-04-22T10:22:21Z</time>
      </trkpt>
      <trkpt lat="45.94304" lon="4.74892">
        <ele>174</ele>
        <time>2017-04-22T10:22:22Z</time>
      </trkpt>
      <trkpt lat="45.94306" lon="4.74884">
        <ele>174</ele>
        <time>2017-04-22T10:22:23Z</time>
      </trkpt>
      <trkpt lat="45.94308" lon="4.74876">
        <ele>174</ele>
        <time>2017-04-22T10:22:24Z</time>
      </trkpt>
      <trkpt lat="45.9431" lon="4.74869">
        <ele>174</ele>
        <time>2017-04-22T10:22:25Z</time>
      </trkpt>
      <trkpt lat="45.94312" lon="4.74862">
        <ele>174</ele>
        <time>2017-04-22T10:22:26Z</time>
      </trkpt>
      <trkpt lat="45.94314" lon="4.74855">
        <ele>174</ele>
        <time>2017-04-22T10:22:27Z</time>
      </trkpt>
      <trkpt lat="45.94316" lon="4.74848">
        <ele>174</ele>
        <time>2017-04-22T10:22:28Z</time>
      </trkpt>
      <trkpt lat="45.94317" lon="4.74842">
        <ele>174</ele>
        <time>2017-04-22T10:22:29Z</time>
      </trkpt>
      <trkpt lat="45.94319" lon="4.74835">
        <ele>174</ele>
        <time>2017-04-22T10:22:30Z</time>
      </trkpt>
      <trkpt lat="45.94319" lon="4.74829">
        <ele>173</ele>
        <time>2017-04-22T10:22:31Z</time>
      </trkpt>
      <trkpt lat="45.94321" lon="4.74822">
        <ele>173</ele>
        <time>2017-04-22T10:22:32Z</time>
      </trkpt>
      <trkpt lat="45.94322" lon="4.74815">
        <ele>172</ele>
        <time>2017-04-22T10:22:33Z</time>
      </trkpt>
      <trkpt lat="45.94323" lon="4.74808">
        <ele>172</ele>
        <time>2017-04-22T10:22:34Z</time>
      </trkpt>
      <trkpt lat="45.94325" lon="4.74801">
        <ele>172</ele>
        <time>2017-04-22T10:22:35Z</time>
      </trkpt>
      <trkpt lat="45.94327" lon="4.74794">
        <ele>172</ele>
        <time>2017-04-22T10:22:36Z</time>
      </trkpt>
      <trkpt lat="45.94329" lon="4.74787">
        <ele>172</ele>
        <time>2017-04-22T10:22:37Z</time>
      </trkpt>
      <trkpt lat="45.94331" lon="4.7478">
        <ele>171</ele>
        <time>2017-04-22T10:22:38Z</time>
      </trkpt>
      <trkpt lat="45.94333" lon="4.74773">
        <ele>171</ele>
        <time>2017-04-22T10:22:39Z</time>
      </trkpt>
      <trkpt lat="45.94335" lon="4.74765">
        <ele>172</ele>
        <time>2017-04-22T10:22:40Z</time>
      </trkpt>
      <trkpt lat="45.94336" lon="4.74758">
        <ele>172</ele>
        <time>2017-04-22T10:22:41Z</time>
      </trkpt>
      <trkpt lat="45.94338" lon="4.74751">
        <ele>171</ele>
        <time>2017-04-22T10:22:42Z</time>
      </trkpt>
      <trkpt lat="45.94339" lon="4.74744">
        <ele>171</ele>
        <time>2017-04-22T10:22:43Z</time>
      </trkpt>
      <trkpt lat="45.9434" lon="4.74737">
        <ele>171</ele>
        <time>2017-04-22T10:22:44Z</time>
      </trkpt>
      <trkpt lat="45.94341" lon="4.7473">
        <ele>171</ele>
        <time>2017-04-22T10:22:45Z</time>
      </trkpt>
      <trkpt lat="45.94342" lon="4.74724">
        <ele>171</ele>
        <time>2017-04-22T10:22:46Z</time>
      </trkpt>
      <trkpt lat="45.94342" lon="4.74717">
        <ele>171</ele>
        <time>2017-04-22T10:22:47Z</time>
      </trkpt>
      <trkpt lat="45.94343" lon="4.7471">
        <ele>171</ele>
        <time>2017-04-22T10:22:48Z</time>
      </trkpt>
      <trkpt lat="45.94344" lon="4.74704">
        <ele>172</ele>
        <time>2017-04-22T10:22:49Z</time>
      </trkpt>
      <trkpt lat="45.94345" lon="4.74697">
        <ele>172</ele>
        <time>2017-04-22T10:22:50Z</time>
      </trkpt>
      <trkpt lat="45.94346" lon="4.74691">
        <ele>172</ele>
        <time>2017-04-22T10:22:51Z</time>
      </trkpt>
      <trkpt lat="45.94347" lon="4.74678">
        <ele>172</ele>
        <time>2017-04-22T10:22:53Z</time>
      </trkpt>
      <trkpt lat="45.94348" lon="4.74671">
        <ele>172</ele>
        <time>2017-04-22T10:22:54Z</time>
      </trkpt>
      <trkpt lat="45.94349" lon="4.74665">
        <ele>172</ele>
        <time>2017-04-22T10:22:55Z</time>
      </trkpt>
      <trkpt lat="45.9435" lon="4.74658">
        <ele>172</ele>
        <time>2017-04-22T10:22:56Z</time>
      </trkpt>
      <trkpt lat="45.9435" lon="4.74651">
        <ele>171</ele>
        <time>2017-04-22T10:22:57Z</time>
      </trkpt>
      <trkpt lat="45.94351" lon="4.74643">
        <ele>171</ele>
        <time>2017-04-22T10:22:58Z</time>
      </trkpt>
      <trkpt lat="45.94351" lon="4.74636">
        <ele>171</ele>
        <time>2017-04-22T10:22:59Z</time>
      </trkpt>
      <trkpt lat="45.94352" lon="4.74629">
        <ele>171</ele>
        <time>2017-04-22T10:23:00Z</time>
      </trkpt>
      <trkpt lat="45.94353" lon="4.74622">
        <ele>171</ele>
        <time>2017-04-22T10:23:01Z</time>
      </trkpt>
      <trkpt lat="45.94353" lon="4.74616">
        <ele>171</ele>
        <time>2017-04-22T10:23:02Z</time>
      </trkpt>
      <trkpt lat="45.94354" lon="4.74604">
        <ele>171</ele>
        <time>2017-04-22T10:23:04Z</time>
      </trkpt>
      <trkpt lat="45.94355" lon="4.74597">
        <ele>171</ele>
        <time>2017-04-22T10:23:05Z</time>
      </trkpt>
      <trkpt lat="45.94355" lon="4.7459">
        <ele>171</ele>
        <time>2017-04-22T10:23:06Z</time>
      </trkpt>
      <trkpt lat="45.94356" lon="4.74582">
        <ele>171</ele>
        <time>2017-04-22T10:23:07Z</time>
      </trkpt>
      <trkpt lat="45.94356" lon="4.74575">
        <ele>171</ele>
        <time>2017-04-22T10:23:08Z</time>
      </trkpt>
      <trkpt lat="45.94357" lon="4.74567">
        <ele>171</ele>
        <time>2017-04-22T10:23:09Z</time>
      </trkpt>
      <trkpt lat="45.94357" lon="4.74558">
        <ele>171</ele>
        <time>2017-04-22T10:23:10Z</time>
      </trkpt>
      <trkpt lat="45.94358" lon="4.7455">
        <ele>171</ele>
        <time>2017-04-22T10:23:11Z</time>
      </trkpt>
      <trkpt lat="45.94359" lon="4.74542">
        <ele>171</ele>
        <time>2017-04-22T10:23:12Z</time>
      </trkpt>
      <trkpt lat="45.9436" lon="4.74534">
        <ele>171</ele>
        <time>2017-04-22T10:23:13Z</time>
      </trkpt>
      <trkpt lat="45.9436" lon="4.74526">
        <ele>171</ele>
        <time>2017-04-22T10:23:14Z</time>
      </trkpt>
      <trkpt lat="45.94361" lon="4.74519">
        <ele>171</ele>
        <time>2017-04-22T10:23:15Z</time>
      </trkpt>
      <trkpt lat="45.94361" lon="4.74511">
        <ele>171</ele>
        <time>2017-04-22T10:23:16Z</time>
      </trkpt>
      <trkpt lat="45.94362" lon="4.74504">
        <ele>171</ele>
        <time>2017-04-22T10:23:17Z</time>
      </trkpt>
      <trkpt lat="45.94363" lon="4.74497">
        <ele>170</ele>
        <time>2017-04-22T10:23:18Z</time>
      </trkpt>
      <trkpt lat="45.94363" lon="4.7449">
        <ele>170</ele>
        <time>2017-04-22T10:23:19Z</time>
      </trkpt>
      <trkpt lat="45.94364" lon="4.74483">
        <ele>170</ele>
        <time>2017-04-22T10:23:20Z</time>
      </trkpt>
      <trkpt lat="45.94365" lon="4.74476">
        <ele>171</ele>
        <time>2017-04-22T10:23:21Z</time>
      </trkpt>
      <trkpt lat="45.94365" lon="4.7447">
        <ele>171</ele>
        <time>2017-04-22T10:23:22Z</time>
      </trkpt>
      <trkpt lat="45.94366" lon="4.74463">
        <ele>171</ele>
        <time>2017-04-22T10:23:23Z</time>
      </trkpt>
      <trkpt lat="45.94367" lon="4.74456">
        <ele>171</ele>
        <time>2017-04-22T10:23:24Z</time>
      </trkpt>
      <trkpt lat="45.94367" lon="4.7445">
        <ele>171</ele>
        <time>2017-04-22T10:23:25Z</time>
      </trkpt>
      <trkpt lat="45.94368" lon="4.74443">
        <ele>171</ele>
        <time>2017-04-22T10:23:26Z</time>
      </trkpt>
      <trkpt lat="45.94368" lon="4.74437">
        <ele>171</ele>
        <time>2017-04-22T10:23:27Z</time>
      </trkpt>
      <trkpt lat="45.94369" lon="4.7443">
        <ele>171</ele>
        <time>2017-04-22T10:23:28Z</time>
      </trkpt>
      <trkpt lat="45.9437" lon="4.74424">
        <ele>171</ele>
        <time>2017-04-22T10:23:29Z</time>
      </trkpt>
      <trkpt lat="45.9437" lon="4.74416">
        <ele>170</ele>
        <time>2017-04-22T10:23:30Z</time>
      </trkpt>
      <trkpt lat="45.94371" lon="4.74409">
        <ele>170</ele>
        <time>2017-04-22T10:23:31Z</time>
      </trkpt>
      <trkpt lat="45.94372" lon="4.74402">
        <ele>170</ele>
        <time>2017-04-22T10:23:32Z</time>
      </trkpt>
      <trkpt lat="45.94373" lon="4.74394">
        <ele>170</ele>
        <time>2017-04-22T10:23:33Z</time>
      </trkpt>
      <trkpt lat="45.94373" lon="4.74387">
        <ele>170</ele>
        <time>2017-04-22T10:23:34Z</time>
      </trkpt>
      <trkpt lat="45.94374" lon="4.74379">
        <ele>170</ele>
        <time>2017-04-22T10:23:35Z</time>
      </trkpt>
      <trkpt lat="45.94375" lon="4.74371">
        <ele>171</ele>
        <time>2017-04-22T10:23:36Z</time>
      </trkpt>
      <trkpt lat="45.94376" lon="4.74364">
        <ele>171</ele>
        <time>2017-04-22T10:23:37Z</time>
      </trkpt>
      <trkpt lat="45.94377" lon="4.74356">
        <ele>171</ele>
        <time>2017-04-22T10:23:38Z</time>
      </trkpt>
      <trkpt lat="45.94378" lon="4.74349">
        <ele>171</ele>
        <time>2017-04-22T10:23:39Z</time>
      </trkpt>
      <trkpt lat="45.94379" lon="4.74341">
        <ele>171</ele>
        <time>2017-04-22T10:23:40Z</time>
      </trkpt>
      <trkpt lat="45.9438" lon="4.74334">
        <ele>171</ele>
        <time>2017-04-22T10:23:41Z</time>
      </trkpt>
      <trkpt lat="45.94381" lon="4.74327">
        <ele>170</ele>
        <time>2017-04-22T10:23:42Z</time>
      </trkpt>
      <trkpt lat="45.94382" lon="4.7432">
        <ele>170</ele>
        <time>2017-04-22T10:23:43Z</time>
      </trkpt>
      <trkpt lat="45.94383" lon="4.74314">
        <ele>170</ele>
        <time>2017-04-22T10:23:44Z</time>
      </trkpt>
      <trkpt lat="45.94384" lon="4.74307">
        <ele>170</ele>
        <time>2017-04-22T10:23:45Z</time>
      </trkpt>
      <trkpt lat="45.94384" lon="4.743">
        <ele>170</ele>
        <time>2017-04-22T10:23:46Z</time>
      </trkpt>
      <trkpt lat="45.94385" lon="4.74294">
        <ele>170</ele>
        <time>2017-04-22T10:23:47Z</time>
      </trkpt>
      <trkpt lat="45.94386" lon="4.74286">
        <ele>170</ele>
        <time>2017-04-22T10:23:48Z</time>
      </trkpt>
      <trkpt lat="45.94388" lon="4.74279">
        <ele>170</ele>
        <time>2017-04-22T10:23:49Z</time>
      </trkpt>
      <trkpt lat="45.9439" lon="4.74272">
        <ele>170</ele>
        <time>2017-04-22T10:23:50Z</time>
      </trkpt>
      <trkpt lat="45.94392" lon="4.74264">
        <ele>170</ele>
        <time>2017-04-22T10:23:51Z</time>
      </trkpt>
      <trkpt lat="45.94394" lon="4.74257">
        <ele>170</ele>
        <time>2017-04-22T10:23:52Z</time>
      </trkpt>
      <trkpt lat="45.94395" lon="4.74249">
        <ele>171</ele>
        <time>2017-04-22T10:23:53Z</time>
      </trkpt>
      <trkpt lat="45.94396" lon="4.74242">
        <ele>171</ele>
        <time>2017-04-22T10:23:54Z</time>
      </trkpt>
      <trkpt lat="45.94397" lon="4.74235">
        <ele>171</ele>
        <time>2017-04-22T10:23:55Z</time>
      </trkpt>
      <trkpt lat="45.94399" lon="4.74222">
        <ele>171</ele>
        <time>2017-04-22T10:23:57Z</time>
      </trkpt>
      <trkpt lat="45.944" lon="4.74216">
        <ele>171</ele>
        <time>2017-04-22T10:23:58Z</time>
      </trkpt>
      <trkpt lat="45.94401" lon="4.74205">
        <ele>171</ele>
        <time>2017-04-22T10:24:00Z</time>
      </trkpt>
      <trkpt lat="45.94402" lon="4.74198">
        <ele>171</ele>
        <time>2017-04-22T10:24:01Z</time>
      </trkpt>
      <trkpt lat="45.94403" lon="4.74186">
        <ele>172</ele>
        <time>2017-04-22T10:24:03Z</time>
      </trkpt>
      <trkpt lat="45.94404" lon="4.7418">
        <ele>172</ele>
        <time>2017-04-22T10:24:04Z</time>
      </trkpt>
      <trkpt lat="45.94406" lon="4.74168">
        <ele>173</ele>
        <time>2017-04-22T10:24:06Z</time>
      </trkpt>
      <trkpt lat="45.94406" lon="4.74162">
        <ele>174</ele>
        <time>2017-04-22T10:24:07Z</time>
      </trkpt>
      <trkpt lat="45.94407" lon="4.74149">
        <ele>174</ele>
        <time>2017-04-22T10:24:09Z</time>
      </trkpt>
      <trkpt lat="45.94408" lon="4.74143">
        <ele>174</ele>
        <time>2017-04-22T10:24:10Z</time>
      </trkpt>
      <trkpt lat="45.94409" lon="4.74131">
        <ele>174</ele>
        <time>2017-04-22T10:24:12Z</time>
      </trkpt>
      <trkpt lat="45.94409" lon="4.74125">
        <ele>174</ele>
        <time>2017-04-22T10:24:13Z</time>
      </trkpt>
      <trkpt lat="45.94411" lon="4.74114">
        <ele>174</ele>
        <time>2017-04-22T10:24:15Z</time>
      </trkpt>
      <trkpt lat="45.94412" lon="4.74108">
        <ele>175</ele>
        <time>2017-04-22T10:24:16Z</time>
      </trkpt>
      <trkpt lat="45.94415" lon="4.74097">
        <ele>175</ele>
        <time>2017-04-22T10:24:18Z</time>
      </trkpt>
      <trkpt lat="45.94416" lon="4.74092">
        <ele>176</ele>
        <time>2017-04-22T10:24:19Z</time>
      </trkpt>
      <trkpt lat="45.94417" lon="4.7408">
        <ele>177</ele>
        <time>2017-04-22T10:24:21Z</time>
      </trkpt>
      <trkpt lat="45.94418" lon="4.74074">
        <ele>178</ele>
        <time>2017-04-22T10:24:22Z</time>
      </trkpt>
      <trkpt lat="45.9442" lon="4.74064">
        <ele>178</ele>
        <time>2017-04-22T10:24:24Z</time>
      </trkpt>
      <trkpt lat="45.94421" lon="4.74058">
        <ele>178</ele>
        <time>2017-04-22T10:24:25Z</time>
      </trkpt>
      <trkpt lat="45.94423" lon="4.74048">
        <ele>179</ele>
        <time>2017-04-22T10:24:27Z</time>
      </trkpt>
      <trkpt lat="45.94424" lon="4.74043">
        <ele>179</ele>
        <time>2017-04-22T10:24:28Z</time>
      </trkpt>
      <trkpt lat="45.94427" lon="4.74034">
        <ele>179</ele>
        <time>2017-04-22T10:24:30Z</time>
      </trkpt>
      <trkpt lat="45.94428" lon="4.7403">
        <ele>179</ele>
        <time>2017-04-22T10:24:31Z</time>
      </trkpt>
      <trkpt lat="45.9443" lon="4.7402">
        <ele>179</ele>
        <time>2017-04-22T10:24:33Z</time>
      </trkpt>
      <trkpt lat="45.94431" lon="4.74015">
        <ele>179</ele>
        <time>2017-04-22T10:24:34Z</time>
      </trkpt>
      <trkpt lat="45.94432" lon="4.74005">
        <ele>179</ele>
        <time>2017-04-22T10:24:36Z</time>
      </trkpt>
      <trkpt lat="45.94433" lon="4.74">
        <ele>179</ele>
        <time>2017-04-22T10:24:37Z</time>
      </trkpt>
      <trkpt lat="45.94435" lon="4.73991">
        <ele>180</ele>
        <time>2017-04-22T10:24:39Z</time>
      </trkpt>
      <trkpt lat="45.94437" lon="4.73986">
        <ele>180</ele>
        <time>2017-04-22T10:24:40Z</time>
      </trkpt>
      <trkpt lat="45.94439" lon="4.73975">
        <ele>180</ele>
        <time>2017-04-22T10:24:42Z</time>
      </trkpt>
      <trkpt lat="45.9444" lon="4.7397">
        <ele>180</ele>
        <time>2017-04-22T10:24:43Z</time>
      </trkpt>
      <trkpt lat="45.94442" lon="4.7396">
        <ele>181</ele>
        <time>2017-04-22T10:24:45Z</time>
      </trkpt>
      <trkpt lat="45.94443" lon="4.73956">
        <ele>181</ele>
        <time>2017-04-22T10:24:46Z</time>
      </trkpt>
      <trkpt lat="45.94445" lon="4.73947">
        <ele>181</ele>
        <time>2017-04-22T10:24:48Z</time>
      </trkpt>
      <trkpt lat="45.94446" lon="4.73943">
        <ele>181</ele>
        <time>2017-04-22T10:24:49Z</time>
      </trkpt>
      <trkpt lat="45.94447" lon="4.73935">
        <ele>181</ele>
        <time>2017-04-22T10:24:51Z</time>
      </trkpt>
      <trkpt lat="45.94448" lon="4.7393">
        <ele>181</ele>
        <time>2017-04-22T10:24:52Z</time>
      </trkpt>
      <trkpt lat="45.9445" lon="4.73921">
        <ele>181</ele>
        <time>2017-04-22T10:24:54Z</time>
      </trkpt>
      <trkpt lat="45.94451" lon="4.73917">
        <ele>183</ele>
        <time>2017-04-22T10:24:55Z</time>
      </trkpt>
      <trkpt lat="45.94453" lon="4.73908">
        <ele>183</ele>
        <time>2017-04-22T10:24:57Z</time>
      </trkpt>
      <trkpt lat="45.94453" lon="4.73904">
        <ele>183</ele>
        <time>2017-04-22T10:24:58Z</time>
      </trkpt>
      <trkpt lat="45.94455" lon="4.73895">
        <ele>183</ele>
        <time>2017-04-22T10:25:00Z</time>
      </trkpt>
      <trkpt lat="45.94456" lon="4.73891">
        <ele>183</ele>
        <time>2017-04-22T10:25:01Z</time>
      </trkpt>
      <trkpt lat="45.94457" lon="4.73882">
        <ele>183</ele>
        <time>2017-04-22T10:25:03Z</time>
      </trkpt>
      <trkpt lat="45.94458" lon="4.73878">
        <ele>183</ele>
        <time>2017-04-22T10:25:04Z</time>
      </trkpt>
      <trkpt lat="45.94459" lon="4.73869">
        <ele>184</ele>
        <time>2017-04-22T10:25:06Z</time>
      </trkpt>
      <trkpt lat="45.9446" lon="4.73865">
        <ele>184</ele>
        <time>2017-04-22T10:25:07Z</time>
      </trkpt>
      <trkpt lat="45.94462" lon="4.73857">
        <ele>184</ele>
        <time>2017-04-22T10:25:09Z</time>
      </trkpt>
      <trkpt lat="45.94463" lon="4.73852">
        <ele>184</ele>
        <time>2017-04-22T10:25:10Z</time>
      </trkpt>
      <trkpt lat="45.94464" lon="4.73844">
        <ele>184</ele>
        <time>2017-04-22T10:25:12Z</time>
      </trkpt>
      <trkpt lat="45.94465" lon="4.73839">
        <ele>184</ele>
        <time>2017-04-22T10:25:13Z</time>
      </trkpt>
      <trkpt lat="45.94467" lon="4.7383">
        <ele>185</ele>
        <time>2017-04-22T10:25:15Z</time>
      </trkpt>
      <trkpt lat="45.94468" lon="4.73826">
        <ele>185</ele>
        <time>2017-04-22T10:25:16Z</time>
      </trkpt>
      <trkpt lat="45.9447" lon="4.73816">
        <ele>185</ele>
        <time>2017-04-22T10:25:18Z</time>
      </trkpt>
      <trkpt lat="45.94471" lon="4.73811">
        <ele>185</ele>
        <time>2017-04-22T10:25:19Z</time>
      </trkpt>
      <trkpt lat="45.94469" lon="4.73799">
        <ele>185</ele>
        <time>2017-04-22T10:25:22Z</time>
      </trkpt>
      <trkpt lat="45.94468" lon="4.73796">
        <ele>185</ele>
        <time>2017-04-22T10:25:23Z</time>
      </trkpt>
      <trkpt lat="45.94471" lon="4.73786">
        <ele>186</ele>
        <time>2017-04-22T10:25:26Z</time>
      </trkpt>
      <trkpt lat="45.94475" lon="4.73784">
        <ele>186</ele>
        <time>2017-04-22T10:25:27Z</time>
      </trkpt>
      <trkpt lat="45.94481" lon="4.7378">
        <ele>186</ele>
        <time>2017-04-22T10:25:29Z</time>
      </trkpt>
      <trkpt lat="45.94485" lon="4.73777">
        <ele>186</ele>
        <time>2017-04-22T10:25:30Z</time>
      </trkpt>
      <trkpt lat="45.94489" lon="4.73766">
        <ele>186</ele>
        <time>2017-04-22T10:25:32Z</time>
      </trkpt>
      <trkpt lat="45.94488" lon="4.73759">
        <ele>186</ele>
        <time>2017-04-22T10:25:33Z</time>
      </trkpt>
      <trkpt lat="45.94488" lon="4.73752">
        <ele>186</ele>
        <time>2017-04-22T10:25:34Z</time>
      </trkpt>
      <trkpt lat="45.94488" lon="4.73745">
        <ele>186</ele>
        <time>2017-04-22T10:25:35Z</time>
      </trkpt>
      <trkpt lat="45.94488" lon="4.73739">
        <ele>186</ele>
        <time>2017-04-22T10:25:36Z</time>
      </trkpt>
      <trkpt lat="45.94489" lon="4.73732">
        <ele>186</ele>
        <time>2017-04-22T10:25:37Z</time>
      </trkpt>
      <trkpt lat="45.9449" lon="4.73725">
        <ele>186</ele>
        <time>2017-04-22T10:25:38Z</time>
      </trkpt>
      <trkpt lat="45.94491" lon="4.73718">
        <ele>186</ele>
        <time>2017-04-22T10:25:39Z</time>
      </trkpt>
      <trkpt lat="45.94492" lon="4.73712">
        <ele>186</ele>
        <time>2017-04-22T10:25:40Z</time>
      </trkpt>
      <trkpt lat="45.94493" lon="4.73705">
        <ele>186</ele>
        <time>2017-04-22T10:25:41Z</time>
      </trkpt>
      <trkpt lat="45.94494" lon="4.73699">
        <ele>186</ele>
        <time>2017-04-22T10:25:42Z</time>
      </trkpt>
      <trkpt lat="45.94495" lon="4.73692">
        <ele>186</ele>
        <time>2017-04-22T10:25:43Z</time>
      </trkpt>
      <trkpt lat="45.94496" lon="4.73686">
        <ele>186</ele>
        <time>2017-04-22T10:25:44Z</time>
      </trkpt>
      <trkpt lat="45.94497" lon="4.73679">
        <ele>185</ele>
        <time>2017-04-22T10:25:45Z</time>
      </trkpt>
      <trkpt lat="45.94499" lon="4.73672">
        <ele>185</ele>
        <time>2017-04-22T10:25:46Z</time>
      </trkpt>
      <trkpt lat="45.945" lon="4.73665">
        <ele>185</ele>
        <time>2017-04-22T10:25:47Z</time>
      </trkpt>
      <trkpt lat="45.94501" lon="4.73658">
        <ele>185</ele>
        <time>2017-04-22T10:25:48Z</time>
      </trkpt>
      <trkpt lat="45.94502" lon="4.7365">
        <ele>184</ele>
        <time>2017-04-22T10:25:49Z</time>
      </trkpt>
      <trkpt lat="45.94503" lon="4.73644">
        <ele>184</ele>
        <time>2017-04-22T10:25:50Z</time>
      </trkpt>
      <trkpt lat="45.94504" lon="4.73637">
        <ele>184</ele>
        <time>2017-04-22T10:25:51Z</time>
      </trkpt>
      <trkpt lat="45.94504" lon="4.7363">
        <ele>184</ele>
        <time>2017-04-22T10:25:52Z</time>
      </trkpt>
      <trkpt lat="45.94504" lon="4.73623">
        <ele>184</ele>
        <time>2017-04-22T10:25:53Z</time>
      </trkpt>
      <trkpt lat="45.94505" lon="4.73616">
        <ele>184</ele>
        <time>2017-04-22T10:25:54Z</time>
      </trkpt>
      <trkpt lat="45.94505" lon="4.73609">
        <ele>184</ele>
        <time>2017-04-22T10:25:55Z</time>
      </trkpt>
      <trkpt lat="45.94506" lon="4.73602">
        <ele>184</ele>
        <time>2017-04-22T10:25:56Z</time>
      </trkpt>
      <trkpt lat="45.94506" lon="4.73595">
        <ele>184</ele>
        <time>2017-04-22T10:25:57Z</time>
      </trkpt>
      <trkpt lat="45.94507" lon="4.73588">
        <ele>185</ele>
        <time>2017-04-22T10:25:58Z</time>
      </trkpt>
      <trkpt lat="45.94507" lon="4.73581">
        <ele>184</ele>
        <time>2017-04-22T10:25:59Z</time>
      </trkpt>
      <trkpt lat="45.94507" lon="4.73574">
        <ele>184</ele>
        <time>2017-04-22T10:26:00Z</time>
      </trkpt>
      <trkpt lat="45.94508" lon="4.73567">
        <ele>184</ele>
        <time>2017-04-22T10:26:01Z</time>
      </trkpt>
      <trkpt lat="45.94508" lon="4.73559">
        <ele>184</ele>
        <time>2017-04-22T10:26:02Z</time>
      </trkpt>
      <trkpt lat="45.94508" lon="4.73551">
        <ele>183</ele>
        <time>2017-04-22T10:26:03Z</time>
      </trkpt>
      <trkpt lat="45.94508" lon="4.73543">
        <ele>183</ele>
        <time>2017-04-22T10:26:04Z</time>
      </trkpt>
      <trkpt lat="45.94509" lon="4.73535">
        <ele>183</ele>
        <time>2017-04-22T10:26:05Z</time>
      </trkpt>
      <trkpt lat="45.94509" lon="4.73527">
        <ele>183</ele>
        <time>2017-04-22T10:26:06Z</time>
      </trkpt>
      <trkpt lat="45.94509" lon="4.73518">
        <ele>183</ele>
        <time>2017-04-22T10:26:07Z</time>
      </trkpt>
      <trkpt lat="45.94509" lon="4.7351">
        <ele>183</ele>
        <time>2017-04-22T10:26:08Z</time>
      </trkpt>
      <trkpt lat="45.94508" lon="4.73501">
        <ele>183</ele>
        <time>2017-04-22T10:26:09Z</time>
      </trkpt>
      <trkpt lat="45.94508" lon="4.73493">
        <ele>182</ele>
        <time>2017-04-22T10:26:10Z</time>
      </trkpt>
      <trkpt lat="45.94508" lon="4.73484">
        <ele>182</ele>
        <time>2017-04-22T10:26:11Z</time>
      </trkpt>
      <trkpt lat="45.94508" lon="4.73475">
        <ele>182</ele>
        <time>2017-04-22T10:26:12Z</time>
      </trkpt>
      <trkpt lat="45.94508" lon="4.73466">
        <ele>181</ele>
        <time>2017-04-22T10:26:13Z</time>
      </trkpt>
      <trkpt lat="45.94508" lon="4.73456">
        <ele>181</ele>
        <time>2017-04-22T10:26:14Z</time>
      </trkpt>
      <trkpt lat="45.94507" lon="4.73447">
        <ele>181</ele>
        <time>2017-04-22T10:26:15Z</time>
      </trkpt>
      <trkpt lat="45.94506" lon="4.73437">
        <ele>181</ele>
        <time>2017-04-22T10:26:16Z</time>
      </trkpt>
      <trkpt lat="45.94505" lon="4.73427">
        <ele>180</ele>
        <time>2017-04-22T10:26:17Z</time>
      </trkpt>
      <trkpt lat="45.94503" lon="4.73417">
        <ele>180</ele>
        <time>2017-04-22T10:26:18Z</time>
      </trkpt>
      <trkpt lat="45.94502" lon="4.73407">
        <ele>179</ele>
        <time>2017-04-22T10:26:19Z</time>
      </trkpt>
      <trkpt lat="45.94502" lon="4.73397">
        <ele>179</ele>
        <time>2017-04-22T10:26:20Z</time>
      </trkpt>
      <trkpt lat="45.94501" lon="4.73386">
        <ele>179</ele>
        <time>2017-04-22T10:26:21Z</time>
      </trkpt>
      <trkpt lat="45.945" lon="4.73376">
        <ele>178</ele>
        <time>2017-04-22T10:26:22Z</time>
      </trkpt>
      <trkpt lat="45.94499" lon="4.73366">
        <ele>179</ele>
        <time>2017-04-22T10:26:23Z</time>
      </trkpt>
      <trkpt lat="45.94498" lon="4.73356">
        <ele>178</ele>
        <time>2017-04-22T10:26:24Z</time>
      </trkpt>
      <trkpt lat="45.94497" lon="4.73346">
        <ele>178</ele>
        <time>2017-04-22T10:26:25Z</time>
      </trkpt>
      <trkpt lat="45.94496" lon="4.73335">
        <ele>177</ele>
        <time>2017-04-22T10:26:26Z</time>
      </trkpt>
      <trkpt lat="45.94495" lon="4.73325">
        <ele>177</ele>
        <time>2017-04-22T10:26:27Z</time>
      </trkpt>
      <trkpt lat="45.94494" lon="4.73315">
        <ele>177</ele>
        <time>2017-04-22T10:26:28Z</time>
      </trkpt>
      <trkpt lat="45.94493" lon="4.73304">
        <ele>177</ele>
        <time>2017-04-22T10:26:29Z</time>
      </trkpt>
      <trkpt lat="45.94491" lon="4.73294">
        <ele>177</ele>
        <time>2017-04-22T10:26:30Z</time>
      </trkpt>
      <trkpt lat="45.9449" lon="4.73283">
        <ele>177</ele>
        <time>2017-04-22T10:26:31Z</time>
      </trkpt>
      <trkpt lat="45.94488" lon="4.73273">
        <ele>177</ele>
        <time>2017-04-22T10:26:32Z</time>
      </trkpt>
      <trkpt lat="45.94486" lon="4.73262">
        <ele>176</ele>
        <time>2017-04-22T10:26:33Z</time>
      </trkpt>
      <trkpt lat="45.94485" lon="4.73252">
        <ele>176</ele>
        <time>2017-04-22T10:26:34Z</time>
      </trkpt>
      <trkpt lat="45.94484" lon="4.73241">
        <ele>175</ele>
        <time>2017-04-22T10:26:35Z</time>
      </trkpt>
      <trkpt lat="45.94483" lon="4.7323">
        <ele>175</ele>
        <time>2017-04-22T10:26:36Z</time>
      </trkpt>
      <trkpt lat="45.94482" lon="4.73219">
        <ele>175</ele>
        <time>2017-04-22T10:26:37Z</time>
      </trkpt>
      <trkpt lat="45.9448" lon="4.73207">
        <ele>175</ele>
        <time>2017-04-22T10:26:38Z</time>
      </trkpt>
      <trkpt lat="45.94478" lon="4.73195">
        <ele>174</ele>
        <time>2017-04-22T10:26:39Z</time>
      </trkpt>
      <trkpt lat="45.94476" lon="4.73183">
        <ele>174</ele>
        <time>2017-04-22T10:26:40Z</time>
      </trkpt>
      <trkpt lat="45.94474" lon="4.73172">
        <ele>174</ele>
        <time>2017-04-22T10:26:41Z</time>
      </trkpt>
      <trkpt lat="45.94473" lon="4.73162">
        <ele>173</ele>
        <time>2017-04-22T10:26:42Z</time>
      </trkpt>
      <trkpt lat="45.94471" lon="4.73152">
        <ele>172</ele>
        <time>2017-04-22T10:26:43Z</time>
      </trkpt>
      <trkpt lat="45.94469" lon="4.73142">
        <ele>172</ele>
        <time>2017-04-22T10:26:44Z</time>
      </trkpt>
      <trkpt lat="45.94468" lon="4.73132">
        <ele>172</ele>
        <time>2017-04-22T10:26:45Z</time>
      </trkpt>
      <trkpt lat="45.94467" lon="4.73123">
        <ele>172</ele>
        <time>2017-04-22T10:26:46Z</time>
      </trkpt>
      <trkpt lat="45.94466" lon="4.73113">
        <ele>172</ele>
        <time>2017-04-22T10:26:47Z</time>
      </trkpt>
      <trkpt lat="45.94465" lon="4.73104">
        <ele>172</ele>
        <time>2017-04-22T10:26:48Z</time>
      </trkpt>
      <trkpt lat="45.94464" lon="4.73095">
        <ele>171</ele>
        <time>2017-04-22T10:26:49Z</time>
      </trkpt>
      <trkpt lat="45.94463" lon="4.73086">
        <ele>171</ele>
        <time>2017-04-22T10:26:50Z</time>
      </trkpt>
      <trkpt lat="45.94461" lon="4.73078">
        <ele>170</ele>
        <time>2017-04-22T10:26:51Z</time>
      </trkpt>
      <trkpt lat="45.9446" lon="4.73069">
        <ele>170</ele>
        <time>2017-04-22T10:26:52Z</time>
      </trkpt>
      <trkpt lat="45.94459" lon="4.73062">
        <ele>170</ele>
        <time>2017-04-22T10:26:53Z</time>
      </trkpt>
      <trkpt lat="45.94458" lon="4.73054">
        <ele>170</ele>
        <time>2017-04-22T10:26:54Z</time>
      </trkpt>
      <trkpt lat="45.94457" lon="4.73047">
        <ele>170</ele>
        <time>2017-04-22T10:26:55Z</time>
      </trkpt>
      <trkpt lat="45.94456" lon="4.73039">
        <ele>169</ele>
        <time>2017-04-22T10:26:56Z</time>
      </trkpt>
      <trkpt lat="45.94455" lon="4.73032">
        <ele>169</ele>
        <time>2017-04-22T10:26:57Z</time>
      </trkpt>
      <trkpt lat="45.94454" lon="4.73025">
        <ele>169</ele>
        <time>2017-04-22T10:26:58Z</time>
      </trkpt>
      <trkpt lat="45.94453" lon="4.73017">
        <ele>169</ele>
        <time>2017-04-22T10:26:59Z</time>
      </trkpt>
      <trkpt lat="45.94452" lon="4.7301">
        <ele>169</ele>
        <time>2017-04-22T10:27:00Z</time>
      </trkpt>
      <trkpt lat="45.9445" lon="4.73003">
        <ele>169</ele>
        <time>2017-04-22T10:27:01Z</time>
      </trkpt>
      <trkpt lat="45.94449" lon="4.72995">
        <ele>167</ele>
        <time>2017-04-22T10:27:02Z</time>
      </trkpt>
      <trkpt lat="45.94448" lon="4.72988">
        <ele>167</ele>
        <time>2017-04-22T10:27:03Z</time>
      </trkpt>
      <trkpt lat="45.94448" lon="4.72981">
        <ele>167</ele>
        <time>2017-04-22T10:27:04Z</time>
      </trkpt>
      <trkpt lat="45.94447" lon="4.72974">
        <ele>167</ele>
        <time>2017-04-22T10:27:05Z</time>
      </trkpt>
      <trkpt lat="45.94446" lon="4.72967">
        <ele>167</ele>
        <time>2017-04-22T10:27:06Z</time>
      </trkpt>
      <trkpt lat="45.94445" lon="4.7296">
        <ele>167</ele>
        <time>2017-04-22T10:27:07Z</time>
      </trkpt>
      <trkpt lat="45.94444" lon="4.72952">
        <ele>167</ele>
        <time>2017-04-22T10:27:08Z</time>
      </trkpt>
      <trkpt lat="45.94443" lon="4.72945">
        <ele>167</ele>
        <time>2017-04-22T10:27:09Z</time>
      </trkpt>
      <trkpt lat="45.94441" lon="4.72938">
        <ele>167</ele>
        <time>2017-04-22T10:27:10Z</time>
      </trkpt>
      <trkpt lat="45.94441" lon="4.72931">
        <ele>167</ele>
        <time>2017-04-22T10:27:11Z</time>
      </trkpt>
      <trkpt lat="45.9444" lon="4.72924">
        <ele>167</ele>
        <time>2017-04-22T10:27:12Z</time>
      </trkpt>
      <trkpt lat="45.94439" lon="4.72917">
        <ele>167</ele>
        <time>2017-04-22T10:27:13Z</time>
      </trkpt>
      <trkpt lat="45.94438" lon="4.7291">
        <ele>166</ele>
        <time>2017-04-22T10:27:14Z</time>
      </trkpt>
      <trkpt lat="45.94437" lon="4.72903">
        <ele>166</ele>
        <time>2017-04-22T10:27:15Z</time>
      </trkpt>
      <trkpt lat="45.94437" lon="4.72896">
        <ele>166</ele>
        <time>2017-04-22T10:27:16Z</time>
      </trkpt>
      <trkpt lat="45.94436" lon="4.7289">
        <ele>166</ele>
        <time>2017-04-22T10:27:17Z</time>
      </trkpt>
      <trkpt lat="45.94435" lon="4.72883">
        <ele>166</ele>
        <time>2017-04-22T10:27:18Z</time>
      </trkpt>
      <trkpt lat="45.94434" lon="4.72877">
        <ele>166</ele>
        <time>2017-04-22T10:27:19Z</time>
      </trkpt>
      <trkpt lat="45.94433" lon="4.7287">
        <ele>166</ele>
        <time>2017-04-22T10:27:20Z</time>
      </trkpt>
      <trkpt lat="45.94432" lon="4.72863">
        <ele>166</ele>
        <time>2017-04-22T10:27:21Z</time>
      </trkpt>
      <trkpt lat="45.94431" lon="4.72856">
        <ele>166</ele>
        <time>2017-04-22T10:27:22Z</time>
      </trkpt>
      <trkpt lat="45.9443" lon="4.72849">
        <ele>166</ele>
        <time>2017-04-22T10:27:23Z</time>
      </trkpt>
      <trkpt lat="45.94429" lon="4.72841">
        <ele>166</ele>
        <time>2017-04-22T10:27:24Z</time>
      </trkpt>
      <trkpt lat="45.94428" lon="4.72833">
        <ele>166</ele>
        <time>2017-04-22T10:27:25Z</time>
      </trkpt>
      <trkpt lat="45.94426" lon="4.72825">
        <ele>167</ele>
        <time>2017-04-22T10:27:26Z</time>
      </trkpt>
      <trkpt lat="45.94425" lon="4.72816">
        <ele>167</ele>
        <time>2017-04-22T10:27:27Z</time>
      </trkpt>
      <trkpt lat="45.94424" lon="4.72807">
        <ele>167</ele>
        <time>2017-04-22T10:27:28Z</time>
      </trkpt>
      <trkpt lat="45.94423" lon="4.72798">
        <ele>167</ele>
        <time>2017-04-22T10:27:29Z</time>
      </trkpt>
      <trkpt lat="45.94422" lon="4.72788">
        <ele>168</ele>
        <time>2017-04-22T10:27:30Z</time>
      </trkpt>
      <trkpt lat="45.9442" lon="4.72779">
        <ele>168</ele>
        <time>2017-04-22T10:27:31Z</time>
      </trkpt>
      <trkpt lat="45.94419" lon="4.72769">
        <ele>169</ele>
        <time>2017-04-22T10:27:32Z</time>
      </trkpt>
      <trkpt lat="45.94418" lon="4.72759">
        <ele>170</ele>
        <time>2017-04-22T10:27:33Z</time>
      </trkpt>
      <trkpt lat="45.94417" lon="4.72749">
        <ele>171</ele>
        <time>2017-04-22T10:27:34Z</time>
      </trkpt>
      <trkpt lat="45.94415" lon="4.7274">
        <ele>171</ele>
        <time>2017-04-22T10:27:35Z</time>
      </trkpt>
      <trkpt lat="45.94414" lon="4.7273">
        <ele>172</ele>
        <time>2017-04-22T10:27:36Z</time>
      </trkpt>
      <trkpt lat="45.94413" lon="4.7272">
        <ele>172</ele>
        <time>2017-04-22T10:27:37Z</time>
      </trkpt>
      <trkpt lat="45.94412" lon="4.7271">
        <ele>172</ele>
        <time>2017-04-22T10:27:38Z</time>
      </trkpt>
      <trkpt lat="45.9441" lon="4.72701">
        <ele>172</ele>
        <time>2017-04-22T10:27:39Z</time>
      </trkpt>
      <trkpt lat="45.94409" lon="4.72692">
        <ele>173</ele>
        <time>2017-04-22T10:27:40Z</time>
      </trkpt>
      <trkpt lat="45.94408" lon="4.72682">
        <ele>173</ele>
        <time>2017-04-22T10:27:41Z</time>
      </trkpt>
      <trkpt lat="45.94407" lon="4.72673">
        <ele>173</ele>
        <time>2017-04-22T10:27:42Z</time>
      </trkpt>
      <trkpt lat="45.94406" lon="4.72663">
        <ele>174</ele>
        <time>2017-04-22T10:27:43Z</time>
      </trkpt>
      <trkpt lat="45.94404" lon="4.72653">
        <ele>174</ele>
        <time>2017-04-22T10:27:44Z</time>
      </trkpt>
      <trkpt lat="45.94404" lon="4.72643">
        <ele>174</ele>
        <time>2017-04-22T10:27:45Z</time>
      </trkpt>
      <trkpt lat="45.94402" lon="4.72634">
        <ele>174</ele>
        <time>2017-04-22T10:27:46Z</time>
      </trkpt>
      <trkpt lat="45.94401" lon="4.72625">
        <ele>173</ele>
        <time>2017-04-22T10:27:47Z</time>
      </trkpt>
      <trkpt lat="45.944" lon="4.72616">
        <ele>173</ele>
        <time>2017-04-22T10:27:48Z</time>
      </trkpt>
      <trkpt lat="45.94399" lon="4.72607">
        <ele>173</ele>
        <time>2017-04-22T10:27:49Z</time>
      </trkpt>
      <trkpt lat="45.94398" lon="4.72599">
        <ele>173</ele>
        <time>2017-04-22T10:27:50Z</time>
      </trkpt>
      <trkpt lat="45.94396" lon="4.7259">
        <ele>173</ele>
        <time>2017-04-22T10:27:51Z</time>
      </trkpt>
      <trkpt lat="45.94395" lon="4.72582">
        <ele>173</ele>
        <time>2017-04-22T10:27:52Z</time>
      </trkpt>
      <trkpt lat="45.94394" lon="4.72574">
        <ele>173</ele>
        <time>2017-04-22T10:27:53Z</time>
      </trkpt>
      <trkpt lat="45.94392" lon="4.72566">
        <ele>173</ele>
        <time>2017-04-22T10:27:54Z</time>
      </trkpt>
      <trkpt lat="45.94391" lon="4.72558">
        <ele>173</ele>
        <time>2017-04-22T10:27:55Z</time>
      </trkpt>
      <trkpt lat="45.94389" lon="4.72551">
        <ele>173</ele>
        <time>2017-04-22T10:27:56Z</time>
      </trkpt>
      <trkpt lat="45.94388" lon="4.72543">
        <ele>173</ele>
        <time>2017-04-22T10:27:57Z</time>
      </trkpt>
      <trkpt lat="45.94386" lon="4.72536">
        <ele>174</ele>
        <time>2017-04-22T10:27:58Z</time>
      </trkpt>
      <trkpt lat="45.94384" lon="4.72529">
        <ele>174</ele>
        <time>2017-04-22T10:27:59Z</time>
      </trkpt>
      <trkpt lat="45.94382" lon="4.72522">
        <ele>174</ele>
        <time>2017-04-22T10:28:00Z</time>
      </trkpt>
      <trkpt lat="45.94381" lon="4.72514">
        <ele>174</ele>
        <time>2017-04-22T10:28:01Z</time>
      </trkpt>
      <trkpt lat="45.94379" lon="4.72507">
        <ele>174</ele>
        <time>2017-04-22T10:28:02Z</time>
      </trkpt>
      <trkpt lat="45.94376" lon="4.725">
        <ele>173</ele>
        <time>2017-04-22T10:28:03Z</time>
      </trkpt>
      <trkpt lat="45.94374" lon="4.72493">
        <ele>173</ele>
        <time>2017-04-22T10:28:04Z</time>
      </trkpt>
      <trkpt lat="45.94371" lon="4.72486">
        <ele>173</ele>
        <time>2017-04-22T10:28:05Z</time>
      </trkpt>
      <trkpt lat="45.9437" lon="4.7248">
        <ele>173</ele>
        <time>2017-04-22T10:28:06Z</time>
      </trkpt>
      <trkpt lat="45.94367" lon="4.72474">
        <ele>173</ele>
        <time>2017-04-22T10:28:07Z</time>
      </trkpt>
      <trkpt lat="45.94364" lon="4.72468">
        <ele>173</ele>
        <time>2017-04-22T10:28:08Z</time>
      </trkpt>
      <trkpt lat="45.94362" lon="4.72463">
        <ele>173</ele>
        <time>2017-04-22T10:28:09Z</time>
      </trkpt>
      <trkpt lat="45.94359" lon="4.72456">
        <ele>173</ele>
        <time>2017-04-22T10:28:10Z</time>
      </trkpt>
      <trkpt lat="45.94356" lon="4.72449">
        <ele>173</ele>
        <time>2017-04-22T10:28:11Z</time>
      </trkpt>
      <trkpt lat="45.94354" lon="4.72442">
        <ele>173</ele>
        <time>2017-04-22T10:28:12Z</time>
      </trkpt>
      <trkpt lat="45.94351" lon="4.72435">
        <ele>173</ele>
        <time>2017-04-22T10:28:13Z</time>
      </trkpt>
      <trkpt lat="45.94349" lon="4.72428">
        <ele>173</ele>
        <time>2017-04-22T10:28:14Z</time>
      </trkpt>
      <trkpt lat="45.94345" lon="4.72421">
        <ele>173</ele>
        <time>2017-04-22T10:28:15Z</time>
      </trkpt>
      <trkpt lat="45.94342" lon="4.72414">
        <ele>173</ele>
        <time>2017-04-22T10:28:16Z</time>
      </trkpt>
      <trkpt lat="45.94339" lon="4.72407">
        <ele>173</ele>
        <time>2017-04-22T10:28:17Z</time>
      </trkpt>
      <trkpt lat="45.94336" lon="4.72401">
        <ele>173</ele>
        <time>2017-04-22T10:28:18Z</time>
      </trkpt>
      <trkpt lat="45.94333" lon="4.72394">
        <ele>172</ele>
        <time>2017-04-22T10:28:19Z</time>
      </trkpt>
      <trkpt lat="45.94329" lon="4.72387">
        <ele>172</ele>
        <time>2017-04-22T10:28:20Z</time>
      </trkpt>
      <trkpt lat="45.94326" lon="4.7238">
        <ele>172</ele>
        <time>2017-04-22T10:28:21Z</time>
      </trkpt>
      <trkpt lat="45.94322" lon="4.72374">
        <ele>172</ele>
        <time>2017-04-22T10:28:22Z</time>
      </trkpt>
      <trkpt lat="45.94318" lon="4.72367">
        <ele>172</ele>
        <time>2017-04-22T10:28:23Z</time>
      </trkpt>
      <trkpt lat="45.94315" lon="4.7236">
        <ele>172</ele>
        <time>2017-04-22T10:28:24Z</time>
      </trkpt>
      <trkpt lat="45.94311" lon="4.72352">
        <ele>172</ele>
        <time>2017-04-22T10:28:25Z</time>
      </trkpt>
      <trkpt lat="45.94308" lon="4.72345">
        <ele>172</ele>
        <time>2017-04-22T10:28:26Z</time>
      </trkpt>
      <trkpt lat="45.94304" lon="4.72337">
        <ele>172</ele>
        <time>2017-04-22T10:28:27Z</time>
      </trkpt>
      <trkpt lat="45.94301" lon="4.7233">
        <ele>171</ele>
        <time>2017-04-22T10:28:28Z</time>
      </trkpt>
      <trkpt lat="45.94298" lon="4.72322">
        <ele>171</ele>
        <time>2017-04-22T10:28:29Z</time>
      </trkpt>
      <trkpt lat="45.94295" lon="4.72315">
        <ele>171</ele>
        <time>2017-04-22T10:28:30Z</time>
      </trkpt>
      <trkpt lat="45.94292" lon="4.72308">
        <ele>171</ele>
        <time>2017-04-22T10:28:31Z</time>
      </trkpt>
      <trkpt lat="45.94289" lon="4.72301">
        <ele>171</ele>
        <time>2017-04-22T10:28:32Z</time>
      </trkpt>
      <trkpt lat="45.94286" lon="4.72294">
        <ele>171</ele>
        <time>2017-04-22T10:28:33Z</time>
      </trkpt>
      <trkpt lat="45.94282" lon="4.72288">
        <ele>171</ele>
        <time>2017-04-22T10:28:34Z</time>
      </trkpt>
      <trkpt lat="45.94279" lon="4.72282">
        <ele>171</ele>
        <time>2017-04-22T10:28:35Z</time>
      </trkpt>
      <trkpt lat="45.94275" lon="4.72279">
        <ele>171</ele>
        <time>2017-04-22T10:28:36Z</time>
      </trkpt>
      <trkpt lat="45.9427" lon="4.72277">
        <ele>171</ele>
        <time>2017-04-22T10:28:37Z</time>
      </trkpt>
      <trkpt lat="45.94265" lon="4.72277">
        <ele>171</ele>
        <time>2017-04-22T10:28:38Z</time>
      </trkpt>
      <trkpt lat="45.94259" lon="4.72278">
        <ele>171</ele>
        <time>2017-04-22T10:28:39Z</time>
      </trkpt>
      <trkpt lat="45.94254" lon="4.7228">
        <ele>171</ele>
        <time>2017-04-22T10:28:40Z</time>
      </trkpt>
      <trkpt lat="45.94249" lon="4.72281">
        <ele>171</ele>
        <time>2017-04-22T10:28:41Z</time>
      </trkpt>
      <trkpt lat="45.94244" lon="4.72282">
        <ele>171</ele>
        <time>2017-04-22T10:28:42Z</time>
      </trkpt>
      <trkpt lat="45.94238" lon="4.72283">
        <ele>171</ele>
        <time>2017-04-22T10:28:43Z</time>
      </trkpt>
      <trkpt lat="45.94232" lon="4.72284">
        <ele>171</ele>
        <time>2017-04-22T10:28:44Z</time>
      </trkpt>
      <trkpt lat="45.94226" lon="4.72284">
        <ele>171</ele>
        <time>2017-04-22T10:28:45Z</time>
      </trkpt>
      <trkpt lat="45.9422" lon="4.72284">
        <ele>171</ele>
        <time>2017-04-22T10:28:46Z</time>
      </trkpt>
      <trkpt lat="45.94214" lon="4.72285">
        <ele>171</ele>
        <time>2017-04-22T10:28:47Z</time>
      </trkpt>
      <trkpt lat="45.94208" lon="4.72285">
        <ele>171</ele>
        <time>2017-04-22T10:28:48Z</time>
      </trkpt>
      <trkpt lat="45.94202" lon="4.72286">
        <ele>171</ele>
        <time>2017-04-22T10:28:49Z</time>
      </trkpt>
      <trkpt lat="45.94196" lon="4.72287">
        <ele>171</ele>
        <time>2017-04-22T10:28:50Z</time>
      </trkpt>
      <trkpt lat="45.94191" lon="4.72287">
        <ele>171</ele>
        <time>2017-04-22T10:28:51Z</time>
      </trkpt>
      <trkpt lat="45.94185" lon="4.72287">
        <ele>171</ele>
        <time>2017-04-22T10:28:52Z</time>
      </trkpt>
      <trkpt lat="45.9418" lon="4.72286">
        <ele>171</ele>
        <time>2017-04-22T10:28:53Z</time>
      </trkpt>
      <trkpt lat="45.94174" lon="4.72286">
        <ele>171</ele>
        <time>2017-04-22T10:28:54Z</time>
      </trkpt>
      <trkpt lat="45.94169" lon="4.72285">
        <ele>171</ele>
        <time>2017-04-22T10:28:55Z</time>
      </trkpt>
      <trkpt lat="45.94163" lon="4.72284">
        <ele>171</ele>
        <time>2017-04-22T10:28:56Z</time>
      </trkpt>
      <trkpt lat="45.94158" lon="4.72283">
        <ele>171</ele>
        <time>2017-04-22T10:28:57Z</time>
      </trkpt>
      <trkpt lat="45.94154" lon="4.72282">
        <ele>171</ele>
        <time>2017-04-22T10:28:58Z</time>
      </trkpt>
      <trkpt lat="45.94149" lon="4.72281">
        <ele>171</ele>
        <time>2017-04-22T10:28:59Z</time>
      </trkpt>
      <trkpt lat="45.94145" lon="4.7228">
        <ele>171</ele>
        <time>2017-04-22T10:29:00Z</time>
      </trkpt>
      <trkpt lat="45.9414" lon="4.72278">
        <ele>171</ele>
        <time>2017-04-22T10:29:01Z</time>
      </trkpt>
      <trkpt lat="45.94135" lon="4.72276">
        <ele>171</ele>
        <time>2017-04-22T10:29:02Z</time>
      </trkpt>
      <trkpt lat="45.94129" lon="4.72273">
        <ele>171</ele>
        <time>2017-04-22T10:29:03Z</time>
      </trkpt>
      <trkpt lat="45.94125" lon="4.7227">
        <ele>171</ele>
        <time>2017-04-22T10:29:04Z</time>
      </trkpt>
      <trkpt lat="45.94119" lon="4.72268">
        <ele>171</ele>
        <time>2017-04-22T10:29:05Z</time>
      </trkpt>
      <trkpt lat="45.94113" lon="4.72266">
        <ele>171</ele>
        <time>2017-04-22T10:29:06Z</time>
      </trkpt>
      <trkpt lat="45.94107" lon="4.72265">
        <ele>171</ele>
        <time>2017-04-22T10:29:07Z</time>
      </trkpt>
      <trkpt lat="45.941" lon="4.72265">
        <ele>171</ele>
        <time>2017-04-22T10:29:08Z</time>
      </trkpt>
      <trkpt lat="45.94094" lon="4.72265">
        <ele>171</ele>
        <time>2017-04-22T10:29:09Z</time>
      </trkpt>
      <trkpt lat="45.94088" lon="4.72266">
        <ele>171</ele>
        <time>2017-04-22T10:29:10Z</time>
      </trkpt>
      <trkpt lat="45.94082" lon="4.72268">
        <ele>171</ele>
        <time>2017-04-22T10:29:11Z</time>
      </trkpt>
      <trkpt lat="45.94076" lon="4.72271">
        <ele>171</ele>
        <time>2017-04-22T10:29:12Z</time>
      </trkpt>
      <trkpt lat="45.94071" lon="4.72275">
        <ele>171</ele>
        <time>2017-04-22T10:29:13Z</time>
      </trkpt>
      <trkpt lat="45.94066" lon="4.72279">
        <ele>171</ele>
        <time>2017-04-22T10:29:14Z</time>
      </trkpt>
      <trkpt lat="45.94061" lon="4.72283">
        <ele>171</ele>
        <time>2017-04-22T10:29:15Z</time>
      </trkpt>
      <trkpt lat="45.94057" lon="4.72289">
        <ele>171</ele>
        <time>2017-04-22T10:29:16Z</time>
      </trkpt>
      <trkpt lat="45.94052" lon="4.72294">
        <ele>171</ele>
        <time>2017-04-22T10:29:17Z</time>
      </trkpt>
      <trkpt lat="45.94048" lon="4.72299">
        <ele>171</ele>
        <time>2017-04-22T10:29:18Z</time>
      </trkpt>
      <trkpt lat="45.94044" lon="4.72304">
        <ele>171</ele>
        <time>2017-04-22T10:29:19Z</time>
      </trkpt>
      <trkpt lat="45.94039" lon="4.7231">
        <ele>171</ele>
        <time>2017-04-22T10:29:20Z</time>
      </trkpt>
      <trkpt lat="45.94035" lon="4.72315">
        <ele>171</ele>
        <time>2017-04-22T10:29:21Z</time>
      </trkpt>
      <trkpt lat="45.94031" lon="4.72321">
        <ele>171</ele>
        <time>2017-04-22T10:29:22Z</time>
      </trkpt>
      <trkpt lat="45.94026" lon="4.72327">
        <ele>171</ele>
        <time>2017-04-22T10:29:23Z</time>
      </trkpt>
      <trkpt lat="45.94022" lon="4.72332">
        <ele>171</ele>
        <time>2017-04-22T10:29:24Z</time>
      </trkpt>
      <trkpt lat="45.94017" lon="4.72339">
        <ele>171</ele>
        <time>2017-04-22T10:29:25Z</time>
      </trkpt>
      <trkpt lat="45.94013" lon="4.72345">
        <ele>171</ele>
        <time>2017-04-22T10:29:26Z</time>
      </trkpt>
      <trkpt lat="45.94008" lon="4.7235">
        <ele>171</ele>
        <time>2017-04-22T10:29:27Z</time>
      </trkpt>
      <trkpt lat="45.94003" lon="4.72356">
        <ele>171</ele>
        <time>2017-04-22T10:29:28Z</time>
      </trkpt>
      <trkpt lat="45.93998" lon="4.72362">
        <ele>171</ele>
        <time>2017-04-22T10:29:29Z</time>
      </trkpt>
      <trkpt lat="45.93994" lon="4.72368">
        <ele>171</ele>
        <time>2017-04-22T10:29:30Z</time>
      </trkpt>
      <trkpt lat="45.93989" lon="4.72373">
        <ele>171</ele>
        <time>2017-04-22T10:29:31Z</time>
      </trkpt>
      <trkpt lat="45.93985" lon="4.72379">
        <ele>171</ele>
        <time>2017-04-22T10:29:32Z</time>
      </trkpt>
      <trkpt lat="45.93981" lon="4.72384">
        <ele>171</ele>
        <time>2017-04-22T10:29:33Z</time>
      </trkpt>
      <trkpt lat="45.93977" lon="4.7239">
        <ele>171</ele>
        <time>2017-04-22T10:29:34Z</time>
      </trkpt>
      <trkpt lat="45.93973" lon="4.72395">
        <ele>171</ele>
        <time>2017-04-22T10:29:35Z</time>
      </trkpt>
      <trkpt lat="45.93969" lon="4.72399">
        <ele>171</ele>
        <time>2017-04-22T10:29:36Z</time>
      </trkpt>
      <trkpt lat="45.93965" lon="4.72404">
        <ele>171</ele>
        <time>2017-04-22T10:29:37Z</time>
      </trkpt>
      <trkpt lat="45.93961" lon="4.72409">
        <ele>171</ele>
        <time>2017-04-22T10:29:38Z</time>
      </trkpt>
      <trkpt lat="45.93957" lon="4.72414">
        <ele>171</ele>
        <time>2017-04-22T10:29:39Z</time>
      </trkpt>
      <trkpt lat="45.93953" lon="4.72419">
        <ele>171</ele>
        <time>2017-04-22T10:29:40Z</time>
      </trkpt>
      <trkpt lat="45.93948" lon="4.72424">
        <ele>171</ele>
        <time>2017-04-22T10:29:41Z</time>
      </trkpt>
      <trkpt lat="45.93944" lon="4.72429">
        <ele>171</ele>
        <time>2017-04-22T10:29:42Z</time>
      </trkpt>
      <trkpt lat="45.9394" lon="4.72434">
        <ele>171</ele>
        <time>2017-04-22T10:29:43Z</time>
      </trkpt>
      <trkpt lat="45.93936" lon="4.72439">
        <ele>171</ele>
        <time>2017-04-22T10:29:44Z</time>
      </trkpt>
      <trkpt lat="45.93932" lon="4.72444">
        <ele>171</ele>
        <time>2017-04-22T10:29:45Z</time>
      </trkpt>
      <trkpt lat="45.93928" lon="4.72449">
        <ele>171</ele>
        <time>2017-04-22T10:29:46Z</time>
      </trkpt>
      <trkpt lat="45.93924" lon="4.72454">
        <ele>171</ele>
        <time>2017-04-22T10:29:47Z</time>
      </trkpt>
      <trkpt lat="45.93921" lon="4.72459">
        <ele>171</ele>
        <time>2017-04-22T10:29:48Z</time>
      </trkpt>
      <trkpt lat="45.93917" lon="4.72464">
        <ele>172</ele>
        <time>2017-04-22T10:29:49Z</time>
      </trkpt>
      <trkpt lat="45.93913" lon="4.72469">
        <ele>172</ele>
        <time>2017-04-22T10:29:50Z</time>
      </trkpt>
      <trkpt lat="45.93909" lon="4.72475">
        <ele>172</ele>
        <time>2017-04-22T10:29:51Z</time>
      </trkpt>
      <trkpt lat="45.93905" lon="4.7248">
        <ele>172</ele>
        <time>2017-04-22T10:29:52Z</time>
      </trkpt>
      <trkpt lat="45.93901" lon="4.72486">
        <ele>172</ele>
        <time>2017-04-22T10:29:53Z</time>
      </trkpt>
      <trkpt lat="45.93897" lon="4.72492">
        <ele>172</ele>
        <time>2017-04-22T10:29:54Z</time>
      </trkpt>
      <trkpt lat="45.93893" lon="4.72497">
        <ele>172</ele>
        <time>2017-04-22T10:29:55Z</time>
      </trkpt>
      <trkpt lat="45.93888" lon="4.72502">
        <ele>173</ele>
        <time>2017-04-22T10:29:56Z</time>
      </trkpt>
      <trkpt lat="45.93884" lon="4.72507">
        <ele>173</ele>
        <time>2017-04-22T10:29:57Z</time>
      </trkpt>
      <trkpt lat="45.93879" lon="4.72511">
        <ele>173</ele>
        <time>2017-04-22T10:29:58Z</time>
      </trkpt>
      <trkpt lat="45.93874" lon="4.72515">
        <ele>173</ele>
        <time>2017-04-22T10:29:59Z</time>
      </trkpt>
      <trkpt lat="45.93869" lon="4.72517">
        <ele>173</ele>
        <time>2017-04-22T10:30:00Z</time>
      </trkpt>
      <trkpt lat="45.93863" lon="4.72517">
        <ele>173</ele>
        <time>2017-04-22T10:30:01Z</time>
      </trkpt>
      <trkpt lat="45.93858" lon="4.72514">
        <ele>173</ele>
        <time>2017-04-22T10:30:02Z</time>
      </trkpt>
      <trkpt lat="45.93853" lon="4.72511">
        <ele>173</ele>
        <time>2017-04-22T10:30:03Z</time>
      </trkpt>
      <trkpt lat="45.93849" lon="4.72509">
        <ele>174</ele>
        <time>2017-04-22T10:30:04Z</time>
      </trkpt>
      <trkpt lat="45.93844" lon="4.72507">
        <ele>174</ele>
        <time>2017-04-22T10:30:05Z</time>
      </trkpt>
      <trkpt lat="45.93839" lon="4.72504">
        <ele>174</ele>
        <time>2017-04-22T10:30:06Z</time>
      </trkpt>
      <trkpt lat="45.93834" lon="4.72502">
        <ele>174</ele>
        <time>2017-04-22T10:30:07Z</time>
      </trkpt>
      <trkpt lat="45.9383" lon="4.725">
        <ele>174</ele>
        <time>2017-04-22T10:30:08Z</time>
      </trkpt>
      <trkpt lat="45.93825" lon="4.72498">
        <ele>173</ele>
        <time>2017-04-22T10:30:09Z</time>
      </trkpt>
      <trkpt lat="45.9382" lon="4.72486">
        <ele>173</ele>
        <time>2017-04-22T10:30:10Z</time>
      </trkpt>
      <trkpt lat="45.93816" lon="4.72479">
        <ele>172</ele>
        <time>2017-04-22T10:30:11Z</time>
      </trkpt>
      <trkpt lat="45.93812" lon="4.72476">
        <ele>172</ele>
        <time>2017-04-22T10:30:12Z</time>
      </trkpt>
      <trkpt lat="45.93808" lon="4.72471">
        <ele>172</ele>
        <time>2017-04-22T10:30:13Z</time>
      </trkpt>
      <trkpt lat="45.93804" lon="4.72467">
        <ele>172</ele>
        <time>2017-04-22T10:30:14Z</time>
      </trkpt>
      <trkpt lat="45.93801" lon="4.72464">
        <ele>172</ele>
        <time>2017-04-22T10:30:15Z</time>
      </trkpt>
      <trkpt lat="45.93797" lon="4.72458">
        <ele>172</ele>
        <time>2017-04-22T10:30:16Z</time>
      </trkpt>
      <trkpt lat="45.93793" lon="4.72454">
        <ele>172</ele>
        <time>2017-04-22T10:30:17Z</time>
      </trkpt>
      <trkpt lat="45.93789" lon="4.7245">
        <ele>172</ele>
        <time>2017-04-22T10:30:18Z</time>
      </trkpt>
      <trkpt lat="45.93785" lon="4.72444">
        <ele>172</ele>
        <time>2017-04-22T10:30:19Z</time>
      </trkpt>
      <trkpt lat="45.93781" lon="4.7244">
        <ele>172</ele>
        <time>2017-04-22T10:30:20Z</time>
      </trkpt>
      <trkpt lat="45.93777" lon="4.72435">
        <ele>172</ele>
        <time>2017-04-22T10:30:21Z</time>
      </trkpt>
      <trkpt lat="45.93773" lon="4.7243">
        <ele>171</ele>
        <time>2017-04-22T10:30:22Z</time>
      </trkpt>
      <trkpt lat="45.93769" lon="4.72425">
        <ele>171</ele>
        <time>2017-04-22T10:30:23Z</time>
      </trkpt>
      <trkpt lat="45.93765" lon="4.72421">
        <ele>171</ele>
        <time>2017-04-22T10:30:24Z</time>
      </trkpt>
      <trkpt lat="45.9376" lon="4.72416">
        <ele>171</ele>
        <time>2017-04-22T10:30:25Z</time>
      </trkpt>
      <trkpt lat="45.93755" lon="4.72411">
        <ele>171</ele>
        <time>2017-04-22T10:30:26Z</time>
      </trkpt>
      <trkpt lat="45.9375" lon="4.72406">
        <ele>171</ele>
        <time>2017-04-22T10:30:27Z</time>
      </trkpt>
      <trkpt lat="45.93745" lon="4.72401">
        <ele>171</ele>
        <time>2017-04-22T10:30:28Z</time>
      </trkpt>
      <trkpt lat="45.9374" lon="4.72397">
        <ele>171</ele>
        <time>2017-04-22T10:30:29Z</time>
      </trkpt>
      <trkpt lat="45.93736" lon="4.72392">
        <ele>171</ele>
        <time>2017-04-22T10:30:30Z</time>
      </trkpt>
      <trkpt lat="45.93732" lon="4.72388">
        <ele>171</ele>
        <time>2017-04-22T10:30:31Z</time>
      </trkpt>
      <trkpt lat="45.93727" lon="4.72384">
        <ele>171</ele>
        <time>2017-04-22T10:30:32Z</time>
      </trkpt>
      <trkpt lat="45.93723" lon="4.7238">
        <ele>171</ele>
        <time>2017-04-22T10:30:33Z</time>
      </trkpt>
      <trkpt lat="45.93718" lon="4.72376">
        <ele>171</ele>
        <time>2017-04-22T10:30:34Z</time>
      </trkpt>
      <trkpt lat="45.93714" lon="4.72371">
        <ele>172</ele>
        <time>2017-04-22T10:30:35Z</time>
      </trkpt>
      <trkpt lat="45.9371" lon="4.72367">
        <ele>172</ele>
        <time>2017-04-22T10:30:36Z</time>
      </trkpt>
      <trkpt lat="45.93706" lon="4.72363">
        <ele>171</ele>
        <time>2017-04-22T10:30:37Z</time>
      </trkpt>
      <trkpt lat="45.93701" lon="4.72359">
        <ele>171</ele>
        <time>2017-04-22T10:30:38Z</time>
      </trkpt>
      <trkpt lat="45.93698" lon="4.72355">
        <ele>171</ele>
        <time>2017-04-22T10:30:39Z</time>
      </trkpt>
      <trkpt lat="45.93694" lon="4.72351">
        <ele>171</ele>
        <time>2017-04-22T10:30:40Z</time>
      </trkpt>
      <trkpt lat="45.9369" lon="4.72348">
        <ele>171</ele>
        <time>2017-04-22T10:30:41Z</time>
      </trkpt>
      <trkpt lat="45.93686" lon="4.72344">
        <ele>171</ele>
        <time>2017-04-22T10:30:42Z</time>
      </trkpt>
      <trkpt lat="45.9368" lon="4.72339">
        <ele>171</ele>
        <time>2017-04-22T10:30:44Z</time>
      </trkpt>
      <trkpt lat="45.93676" lon="4.72335">
        <ele>171</ele>
        <time>2017-04-22T10:30:45Z</time>
      </trkpt>
      <trkpt lat="45.93673" lon="4.72332">
        <ele>171</ele>
        <time>2017-04-22T10:30:46Z</time>
      </trkpt>
      <trkpt lat="45.93668" lon="4.72328">
        <ele>171</ele>
        <time>2017-04-22T10:30:47Z</time>
      </trkpt>
      <trkpt lat="45.93664" lon="4.72324">
        <ele>171</ele>
        <time>2017-04-22T10:30:48Z</time>
      </trkpt>
      <trkpt lat="45.9366" lon="4.72319">
        <ele>172</ele>
        <time>2017-04-22T10:30:49Z</time>
      </trkpt>
      <trkpt lat="45.93655" lon="4.72314">
        <ele>172</ele>
        <time>2017-04-22T10:30:50Z</time>
      </trkpt>
      <trkpt lat="45.93651" lon="4.7231">
        <ele>172</ele>
        <time>2017-04-22T10:30:51Z</time>
      </trkpt>
      <trkpt lat="45.93646" lon="4.72306">
        <ele>172</ele>
        <time>2017-04-22T10:30:52Z</time>
      </trkpt>
      <trkpt lat="45.93642" lon="4.72302">
        <ele>172</ele>
        <time>2017-04-22T10:30:53Z</time>
      </trkpt>
      <trkpt lat="45.93638" lon="4.72298">
        <ele>172</ele>
        <time>2017-04-22T10:30:54Z</time>
      </trkpt>
      <trkpt lat="45.93633" lon="4.72294">
        <ele>172</ele>
        <time>2017-04-22T10:30:55Z</time>
      </trkpt>
      <trkpt lat="45.93625" lon="4.72288">
        <ele>172</ele>
        <time>2017-04-22T10:30:57Z</time>
      </trkpt>
      <trkpt lat="45.93622" lon="4.72284">
        <ele>172</ele>
        <time>2017-04-22T10:30:58Z</time>
      </trkpt>
      <trkpt lat="45.93615" lon="4.72277">
        <ele>172</ele>
        <time>2017-04-22T10:31:00Z</time>
      </trkpt>
      <trkpt lat="45.93611" lon="4.72273">
        <ele>172</ele>
        <time>2017-04-22T10:31:01Z</time>
      </trkpt>
      <trkpt lat="45.93604" lon="4.72266">
        <ele>173</ele>
        <time>2017-04-22T10:31:03Z</time>
      </trkpt>
      <trkpt lat="45.936" lon="4.72262">
        <ele>173</ele>
        <time>2017-04-22T10:31:04Z</time>
      </trkpt>
      <trkpt lat="45.93596" lon="4.72257">
        <ele>173</ele>
        <time>2017-04-22T10:31:05Z</time>
      </trkpt>
      <trkpt lat="45.93592" lon="4.72253">
        <ele>173</ele>
        <time>2017-04-22T10:31:06Z</time>
      </trkpt>
      <trkpt lat="45.93588" lon="4.72249">
        <ele>173</ele>
        <time>2017-04-22T10:31:07Z</time>
      </trkpt>
      <trkpt lat="45.93585" lon="4.72245">
        <ele>173</ele>
        <time>2017-04-22T10:31:08Z</time>
      </trkpt>
      <trkpt lat="45.93582" lon="4.7224">
        <ele>173</ele>
        <time>2017-04-22T10:31:09Z</time>
      </trkpt>
      <trkpt lat="45.9358" lon="4.72234">
        <ele>173</ele>
        <time>2017-04-22T10:31:10Z</time>
      </trkpt>
      <trkpt lat="45.93576" lon="4.72223">
        <ele>173</ele>
        <time>2017-04-22T10:31:12Z</time>
      </trkpt>
      <trkpt lat="45.93575" lon="4.72218">
        <ele>173</ele>
        <time>2017-04-22T10:31:13Z</time>
      </trkpt>
      <trkpt lat="45.93571" lon="4.72207">
        <ele>173</ele>
        <time>2017-04-22T10:31:16Z</time>
      </trkpt>
      <trkpt lat="45.93569" lon="4.72204">
        <ele>173</ele>
        <time>2017-04-22T10:31:17Z</time>
      </trkpt>
      <trkpt lat="45.93561" lon="4.72204">
        <ele>173</ele>
        <time>2017-04-22T10:31:20Z</time>
      </trkpt>
      <trkpt lat="45.93557" lon="4.72207">
        <ele>173</ele>
        <time>2017-04-22T10:31:21Z</time>
      </trkpt>
      <trkpt lat="45.93551" lon="4.72216">
        <ele>173</ele>
        <time>2017-04-22T10:31:23Z</time>
      </trkpt>
      <trkpt lat="45.93548" lon="4.72221">
        <ele>172</ele>
        <time>2017-04-22T10:31:24Z</time>
      </trkpt>
      <trkpt lat="45.93544" lon="4.72231">
        <ele>172</ele>
        <time>2017-04-22T10:31:26Z</time>
      </trkpt>
      <trkpt lat="45.93542" lon="4.72236">
        <ele>172</ele>
        <time>2017-04-22T10:31:27Z</time>
      </trkpt>
      <trkpt lat="45.93537" lon="4.72247">
        <ele>172</ele>
        <time>2017-04-22T10:31:29Z</time>
      </trkpt>
      <trkpt lat="45.93535" lon="4.72252">
        <ele>172</ele>
        <time>2017-04-22T10:31:30Z</time>
      </trkpt>
      <trkpt lat="45.93532" lon="4.72258">
        <ele>172</ele>
        <time>2017-04-22T10:31:31Z</time>
      </trkpt>
      <trkpt lat="45.9353" lon="4.72263">
        <ele>172</ele>
        <time>2017-04-22T10:31:32Z</time>
      </trkpt>
      <trkpt lat="45.93527" lon="4.7227">
        <ele>172</ele>
        <time>2017-04-22T10:31:33Z</time>
      </trkpt>
      <trkpt lat="45.93525" lon="4.72276">
        <ele>172</ele>
        <time>2017-04-22T10:31:34Z</time>
      </trkpt>
      <trkpt lat="45.93523" lon="4.72282">
        <ele>172</ele>
        <time>2017-04-22T10:31:35Z</time>
      </trkpt>
      <trkpt lat="45.9352" lon="4.72289">
        <ele>172</ele>
        <time>2017-04-22T10:31:36Z</time>
      </trkpt>
      <trkpt lat="45.93517" lon="4.72295">
        <ele>172</ele>
        <time>2017-04-22T10:31:37Z</time>
      </trkpt>
      <trkpt lat="45.93514" lon="4.72301">
        <ele>172</ele>
        <time>2017-04-22T10:31:38Z</time>
      </trkpt>
      <trkpt lat="45.9351" lon="4.72307">
        <ele>173</ele>
        <time>2017-04-22T10:31:39Z</time>
      </trkpt>
      <trkpt lat="45.93506" lon="4.72313">
        <ele>173</ele>
        <time>2017-04-22T10:31:40Z</time>
      </trkpt>
      <trkpt lat="45.93503" lon="4.72319">
        <ele>173</ele>
        <time>2017-04-22T10:31:41Z</time>
      </trkpt>
      <trkpt lat="45.93498" lon="4.72325">
        <ele>173</ele>
        <time>2017-04-22T10:31:42Z</time>
      </trkpt>
      <trkpt lat="45.93494" lon="4.72332">
        <ele>173</ele>
        <time>2017-04-22T10:31:43Z</time>
      </trkpt>
      <trkpt lat="45.93489" lon="4.72338">
        <ele>173</ele>
        <time>2017-04-22T10:31:44Z</time>
      </trkpt>
      <trkpt lat="45.93485" lon="4.72344">
        <ele>173</ele>
        <time>2017-04-22T10:31:45Z</time>
      </trkpt>
      <trkpt lat="45.9348" lon="4.7235">
        <ele>173</ele>
        <time>2017-04-22T10:31:46Z</time>
      </trkpt>
      <trkpt lat="45.93476" lon="4.72356">
        <ele>173</ele>
        <time>2017-04-22T10:31:47Z</time>
      </trkpt>
      <trkpt lat="45.93472" lon="4.72363">
        <ele>173</ele>
        <time>2017-04-22T10:31:48Z</time>
      </trkpt>
      <trkpt lat="45.93467" lon="4.72369">
        <ele>173</ele>
        <time>2017-04-22T10:31:49Z</time>
      </trkpt>
      <trkpt lat="45.93462" lon="4.72375">
        <ele>173</ele>
        <time>2017-04-22T10:31:50Z</time>
      </trkpt>
      <trkpt lat="45.93458" lon="4.7238">
        <ele>173</ele>
        <time>2017-04-22T10:31:51Z</time>
      </trkpt>
      <trkpt lat="45.93454" lon="4.72386">
        <ele>173</ele>
        <time>2017-04-22T10:31:52Z</time>
      </trkpt>
      <trkpt lat="45.93449" lon="4.7239">
        <ele>173</ele>
        <time>2017-04-22T10:31:53Z</time>
      </trkpt>
      <trkpt lat="45.93444" lon="4.72394">
        <ele>173</ele>
        <time>2017-04-22T10:31:54Z</time>
      </trkpt>
      <trkpt lat="45.93439" lon="4.72397">
        <ele>173</ele>
        <time>2017-04-22T10:31:55Z</time>
      </trkpt>
      <trkpt lat="45.93434" lon="4.724">
        <ele>174</ele>
        <time>2017-04-22T10:31:56Z</time>
      </trkpt>
      <trkpt lat="45.93429" lon="4.72403">
        <ele>174</ele>
        <time>2017-04-22T10:31:57Z</time>
      </trkpt>
      <trkpt lat="45.93424" lon="4.72406">
        <ele>174</ele>
        <time>2017-04-22T10:31:58Z</time>
      </trkpt>
      <trkpt lat="45.93416" lon="4.7241">
        <ele>174</ele>
        <time>2017-04-22T10:32:00Z</time>
      </trkpt>
      <trkpt lat="45.93411" lon="4.72411">
        <ele>174</ele>
        <time>2017-04-22T10:32:01Z</time>
      </trkpt>
      <trkpt lat="45.93402" lon="4.72411">
        <ele>174</ele>
        <time>2017-04-22T10:32:03Z</time>
      </trkpt>
      <trkpt lat="45.93398" lon="4.7241">
        <ele>174</ele>
        <time>2017-04-22T10:32:04Z</time>
      </trkpt>
      <trkpt lat="45.93394" lon="4.7241">
        <ele>174</ele>
        <time>2017-04-22T10:32:05Z</time>
      </trkpt>
      <trkpt lat="45.93389" lon="4.72412">
        <ele>174</ele>
        <time>2017-04-22T10:32:06Z</time>
      </trkpt>
      <trkpt lat="45.93385" lon="4.72416">
        <ele>174</ele>
        <time>2017-04-22T10:32:07Z</time>
      </trkpt>
      <trkpt lat="45.93383" lon="4.72422">
        <ele>173</ele>
        <time>2017-04-22T10:32:08Z</time>
      </trkpt>
      <trkpt lat="45.93382" lon="4.72429">
        <ele>173</ele>
        <time>2017-04-22T10:32:09Z</time>
      </trkpt>
      <trkpt lat="45.93384" lon="4.72436">
        <ele>173</ele>
        <time>2017-04-22T10:32:10Z</time>
      </trkpt>
      <trkpt lat="45.93386" lon="4.72442">
        <ele>173</ele>
        <time>2017-04-22T10:32:11Z</time>
      </trkpt>
      <trkpt lat="45.93388" lon="4.72448">
        <ele>173</ele>
        <time>2017-04-22T10:32:12Z</time>
      </trkpt>
      <trkpt lat="45.93389" lon="4.72455">
        <ele>173</ele>
        <time>2017-04-22T10:32:13Z</time>
      </trkpt>
      <trkpt lat="45.93389" lon="4.72461">
        <ele>173</ele>
        <time>2017-04-22T10:32:14Z</time>
      </trkpt>
      <trkpt lat="45.93387" lon="4.72467">
        <ele>173</ele>
        <time>2017-04-22T10:32:15Z</time>
      </trkpt>
      <trkpt lat="45.93383" lon="4.72473">
        <ele>173</ele>
        <time>2017-04-22T10:32:16Z</time>
      </trkpt>
      <trkpt lat="45.93379" lon="4.72477">
        <ele>173</ele>
        <time>2017-04-22T10:32:17Z</time>
      </trkpt>
      <trkpt lat="45.93374" lon="4.72482">
        <ele>173</ele>
        <time>2017-04-22T10:32:18Z</time>
      </trkpt>
      <trkpt lat="45.9337" lon="4.72487">
        <ele>173</ele>
        <time>2017-04-22T10:32:19Z</time>
      </trkpt>
      <trkpt lat="45.93365" lon="4.72491">
        <ele>173</ele>
        <time>2017-04-22T10:32:20Z</time>
      </trkpt>
      <trkpt lat="45.93361" lon="4.72497">
        <ele>173</ele>
        <time>2017-04-22T10:32:21Z</time>
      </trkpt>
      <trkpt lat="45.93357" lon="4.72502">
        <ele>172</ele>
        <time>2017-04-22T10:32:22Z</time>
      </trkpt>
      <trkpt lat="45.93352" lon="4.72508">
        <ele>172</ele>
        <time>2017-04-22T10:32:23Z</time>
      </trkpt>
      <trkpt lat="45.93348" lon="4.72513">
        <ele>172</ele>
        <time>2017-04-22T10:32:24Z</time>
      </trkpt>
      <trkpt lat="45.93344" lon="4.72518">
        <ele>172</ele>
        <time>2017-04-22T10:32:25Z</time>
      </trkpt>
      <trkpt lat="45.93339" lon="4.72523">
        <ele>172</ele>
        <time>2017-04-22T10:32:26Z</time>
      </trkpt>
      <trkpt lat="45.93335" lon="4.72528">
        <ele>172</ele>
        <time>2017-04-22T10:32:27Z</time>
      </trkpt>
      <trkpt lat="45.93331" lon="4.72533">
        <ele>172</ele>
        <time>2017-04-22T10:32:28Z</time>
      </trkpt>
      <trkpt lat="45.93327" lon="4.72538">
        <ele>172</ele>
        <time>2017-04-22T10:32:29Z</time>
      </trkpt>
      <trkpt lat="45.93323" lon="4.72544">
        <ele>172</ele>
        <time>2017-04-22T10:32:30Z</time>
      </trkpt>
      <trkpt lat="45.93319" lon="4.72549">
        <ele>172</ele>
        <time>2017-04-22T10:32:31Z</time>
      </trkpt>
      <trkpt lat="45.93314" lon="4.72554">
        <ele>172</ele>
        <time>2017-04-22T10:32:32Z</time>
      </trkpt>
      <trkpt lat="45.93309" lon="4.72559">
        <ele>172</ele>
        <time>2017-04-22T10:32:33Z</time>
      </trkpt>
      <trkpt lat="45.93304" lon="4.72565">
        <ele>171</ele>
        <time>2017-04-22T10:32:34Z</time>
      </trkpt>
      <trkpt lat="45.93299" lon="4.7257">
        <ele>171</ele>
        <time>2017-04-22T10:32:35Z</time>
      </trkpt>
      <trkpt lat="45.93295" lon="4.72576">
        <ele>171</ele>
        <time>2017-04-22T10:32:36Z</time>
      </trkpt>
      <trkpt lat="45.9329" lon="4.72581">
        <ele>171</ele>
        <time>2017-04-22T10:32:37Z</time>
      </trkpt>
      <trkpt lat="45.93286" lon="4.72586">
        <ele>170</ele>
        <time>2017-04-22T10:32:38Z</time>
      </trkpt>
      <trkpt lat="45.93281" lon="4.72591">
        <ele>170</ele>
        <time>2017-04-22T10:32:39Z</time>
      </trkpt>
      <trkpt lat="45.93277" lon="4.72597">
        <ele>170</ele>
        <time>2017-04-22T10:32:40Z</time>
      </trkpt>
      <trkpt lat="45.93273" lon="4.72601">
        <ele>170</ele>
        <time>2017-04-22T10:32:41Z</time>
      </trkpt>
      <trkpt lat="45.93269" lon="4.72606">
        <ele>170</ele>
        <time>2017-04-22T10:32:42Z</time>
      </trkpt>
      <trkpt lat="45.93265" lon="4.72611">
        <ele>170</ele>
        <time>2017-04-22T10:32:43Z</time>
      </trkpt>
      <trkpt lat="45.93261" lon="4.72615">
        <ele>170</ele>
        <time>2017-04-22T10:32:44Z</time>
      </trkpt>
      <trkpt lat="45.93257" lon="4.7262">
        <ele>170</ele>
        <time>2017-04-22T10:32:45Z</time>
      </trkpt>
      <trkpt lat="45.93253" lon="4.72624">
        <ele>170</ele>
        <time>2017-04-22T10:32:46Z</time>
      </trkpt>
      <trkpt lat="45.93249" lon="4.72629">
        <ele>170</ele>
        <time>2017-04-22T10:32:47Z</time>
      </trkpt>
      <trkpt lat="45.93245" lon="4.72634">
        <ele>170</ele>
        <time>2017-04-22T10:32:48Z</time>
      </trkpt>
      <trkpt lat="45.9324" lon="4.72638">
        <ele>170</ele>
        <time>2017-04-22T10:32:49Z</time>
      </trkpt>
      <trkpt lat="45.93236" lon="4.72642">
        <ele>170</ele>
        <time>2017-04-22T10:32:50Z</time>
      </trkpt>
      <trkpt lat="45.93231" lon="4.72646">
        <ele>170</ele>
        <time>2017-04-22T10:32:51Z</time>
      </trkpt>
      <trkpt lat="45.93227" lon="4.72651">
        <ele>170</ele>
        <time>2017-04-22T10:32:52Z</time>
      </trkpt>
      <trkpt lat="45.93222" lon="4.72656">
        <ele>170</ele>
        <time>2017-04-22T10:32:53Z</time>
      </trkpt>
      <trkpt lat="45.93218" lon="4.72661">
        <ele>170</ele>
        <time>2017-04-22T10:32:54Z</time>
      </trkpt>
      <trkpt lat="45.93214" lon="4.72667">
        <ele>170</ele>
        <time>2017-04-22T10:32:55Z</time>
      </trkpt>
      <trkpt lat="45.93209" lon="4.72672">
        <ele>169</ele>
        <time>2017-04-22T10:32:56Z</time>
      </trkpt>
      <trkpt lat="45.93204" lon="4.72678">
        <ele>169</ele>
        <time>2017-04-22T10:32:57Z</time>
      </trkpt>
      <trkpt lat="45.93199" lon="4.72683">
        <ele>169</ele>
        <time>2017-04-22T10:32:58Z</time>
      </trkpt>
      <trkpt lat="45.93195" lon="4.72689">
        <ele>169</ele>
        <time>2017-04-22T10:32:59Z</time>
      </trkpt>
      <trkpt lat="45.9319" lon="4.72695">
        <ele>169</ele>
        <time>2017-04-22T10:33:00Z</time>
      </trkpt>
      <trkpt lat="45.93186" lon="4.72699">
        <ele>169</ele>
        <time>2017-04-22T10:33:01Z</time>
      </trkpt>
      <trkpt lat="45.93182" lon="4.72704">
        <ele>169</ele>
        <time>2017-04-22T10:33:02Z</time>
      </trkpt>
      <trkpt lat="45.93178" lon="4.72709">
        <ele>169</ele>
        <time>2017-04-22T10:33:03Z</time>
      </trkpt>
      <trkpt lat="45.93174" lon="4.72714">
        <ele>170</ele>
        <time>2017-04-22T10:33:04Z</time>
      </trkpt>
      <trkpt lat="45.9317" lon="4.72719">
        <ele>170</ele>
        <time>2017-04-22T10:33:05Z</time>
      </trkpt>
      <trkpt lat="45.93165" lon="4.72724">
        <ele>170</ele>
        <time>2017-04-22T10:33:06Z</time>
      </trkpt>
      <trkpt lat="45.93161" lon="4.72729">
        <ele>170</ele>
        <time>2017-04-22T10:33:07Z</time>
      </trkpt>
      <trkpt lat="45.93157" lon="4.72734">
        <ele>170</ele>
        <time>2017-04-22T10:33:08Z</time>
      </trkpt>
      <trkpt lat="45.93152" lon="4.72738">
        <ele>170</ele>
        <time>2017-04-22T10:33:09Z</time>
      </trkpt>
      <trkpt lat="45.93148" lon="4.72743">
        <ele>170</ele>
        <time>2017-04-22T10:33:10Z</time>
      </trkpt>
      <trkpt lat="45.93143" lon="4.72749">
        <ele>170</ele>
        <time>2017-04-22T10:33:11Z</time>
      </trkpt>
      <trkpt lat="45.93138" lon="4.72754">
        <ele>171</ele>
        <time>2017-04-22T10:33:12Z</time>
      </trkpt>
      <trkpt lat="45.93134" lon="4.72759">
        <ele>171</ele>
        <time>2017-04-22T10:33:13Z</time>
      </trkpt>
      <trkpt lat="45.93129" lon="4.72765">
        <ele>171</ele>
        <time>2017-04-22T10:33:14Z</time>
      </trkpt>
      <trkpt lat="45.93124" lon="4.72771">
        <ele>171</ele>
        <time>2017-04-22T10:33:15Z</time>
      </trkpt>
      <trkpt lat="45.93119" lon="4.72776">
        <ele>171</ele>
        <time>2017-04-22T10:33:16Z</time>
      </trkpt>
      <trkpt lat="45.93115" lon="4.72783">
        <ele>171</ele>
        <time>2017-04-22T10:33:17Z</time>
      </trkpt>
      <trkpt lat="45.9311" lon="4.72789">
        <ele>171</ele>
        <time>2017-04-22T10:33:18Z</time>
      </trkpt>
      <trkpt lat="45.93106" lon="4.72794">
        <ele>171</ele>
        <time>2017-04-22T10:33:19Z</time>
      </trkpt>
      <trkpt lat="45.93101" lon="4.728">
        <ele>171</ele>
        <time>2017-04-22T10:33:20Z</time>
      </trkpt>
      <trkpt lat="45.93097" lon="4.72805">
        <ele>171</ele>
        <time>2017-04-22T10:33:21Z</time>
      </trkpt>
      <trkpt lat="45.93092" lon="4.7281">
        <ele>172</ele>
        <time>2017-04-22T10:33:22Z</time>
      </trkpt>
      <trkpt lat="45.93088" lon="4.72815">
        <ele>172</ele>
        <time>2017-04-22T10:33:23Z</time>
      </trkpt>
      <trkpt lat="45.93083" lon="4.72819">
        <ele>173</ele>
        <time>2017-04-22T10:33:24Z</time>
      </trkpt>
      <trkpt lat="45.93079" lon="4.72824">
        <ele>173</ele>
        <time>2017-04-22T10:33:25Z</time>
      </trkpt>
      <trkpt lat="45.93075" lon="4.72828">
        <ele>173</ele>
        <time>2017-04-22T10:33:26Z</time>
      </trkpt>
      <trkpt lat="45.93071" lon="4.72832">
        <ele>173</ele>
        <time>2017-04-22T10:33:27Z</time>
      </trkpt>
      <trkpt lat="45.93067" lon="4.72836">
        <ele>173</ele>
        <time>2017-04-22T10:33:28Z</time>
      </trkpt>
      <trkpt lat="45.93063" lon="4.72841">
        <ele>172</ele>
        <time>2017-04-22T10:33:29Z</time>
      </trkpt>
      <trkpt lat="45.93059" lon="4.7285">
        <ele>172</ele>
        <time>2017-04-22T10:33:30Z</time>
      </trkpt>
      <trkpt lat="45.93055" lon="4.72856">
        <ele>172</ele>
        <time>2017-04-22T10:33:31Z</time>
      </trkpt>
      <trkpt lat="45.9305" lon="4.7286">
        <ele>172</ele>
        <time>2017-04-22T10:33:32Z</time>
      </trkpt>
      <trkpt lat="45.93045" lon="4.72865">
        <ele>172</ele>
        <time>2017-04-22T10:33:33Z</time>
      </trkpt>
      <trkpt lat="45.9304" lon="4.7287">
        <ele>172</ele>
        <time>2017-04-22T10:33:34Z</time>
      </trkpt>
      <trkpt lat="45.93034" lon="4.72876">
        <ele>172</ele>
        <time>2017-04-22T10:33:35Z</time>
      </trkpt>
      <trkpt lat="45.93029" lon="4.72882">
        <ele>172</ele>
        <time>2017-04-22T10:33:36Z</time>
      </trkpt>
      <trkpt lat="45.93024" lon="4.72888">
        <ele>172</ele>
        <time>2017-04-22T10:33:37Z</time>
      </trkpt>
      <trkpt lat="45.93019" lon="4.72894">
        <ele>172</ele>
        <time>2017-04-22T10:33:38Z</time>
      </trkpt>
      <trkpt lat="45.93015" lon="4.729">
        <ele>172</ele>
        <time>2017-04-22T10:33:39Z</time>
      </trkpt>
      <trkpt lat="45.9301" lon="4.72905">
        <ele>171</ele>
        <time>2017-04-22T10:33:40Z</time>
      </trkpt>
      <trkpt lat="45.93005" lon="4.72911">
        <ele>171</ele>
        <time>2017-04-22T10:33:41Z</time>
      </trkpt>
      <trkpt lat="45.93001" lon="4.72917">
        <ele>171</ele>
        <time>2017-04-22T10:33:42Z</time>
      </trkpt>
      <trkpt lat="45.92996" lon="4.72923">
        <ele>171</ele>
        <time>2017-04-22T10:33:43Z</time>
      </trkpt>
      <trkpt lat="45.92992" lon="4.72928">
        <ele>171</ele>
        <time>2017-04-22T10:33:44Z</time>
      </trkpt>
      <trkpt lat="45.92987" lon="4.72934">
        <ele>171</ele>
        <time>2017-04-22T10:33:45Z</time>
      </trkpt>
      <trkpt lat="45.92983" lon="4.72939">
        <ele>171</ele>
        <time>2017-04-22T10:33:46Z</time>
      </trkpt>
      <trkpt lat="45.92979" lon="4.72944">
        <ele>171</ele>
        <time>2017-04-22T10:33:47Z</time>
      </trkpt>
      <trkpt lat="45.92975" lon="4.72949">
        <ele>171</ele>
        <time>2017-04-22T10:33:48Z</time>
      </trkpt>
      <trkpt lat="45.9297" lon="4.72953">
        <ele>171</ele>
        <time>2017-04-22T10:33:49Z</time>
      </trkpt>
      <trkpt lat="45.92967" lon="4.72958">
        <ele>171</ele>
        <time>2017-04-22T10:33:50Z</time>
      </trkpt>
      <trkpt lat="45.92962" lon="4.72963">
        <ele>171</ele>
        <time>2017-04-22T10:33:51Z</time>
      </trkpt>
      <trkpt lat="45.92958" lon="4.72968">
        <ele>171</ele>
        <time>2017-04-22T10:33:52Z</time>
      </trkpt>
      <trkpt lat="45.92954" lon="4.72973">
        <ele>171</ele>
        <time>2017-04-22T10:33:53Z</time>
      </trkpt>
      <trkpt lat="45.92949" lon="4.72978">
        <ele>171</ele>
        <time>2017-04-22T10:33:54Z</time>
      </trkpt>
      <trkpt lat="45.92944" lon="4.72984">
        <ele>171</ele>
        <time>2017-04-22T10:33:55Z</time>
      </trkpt>
      <trkpt lat="45.9294" lon="4.7299">
        <ele>171</ele>
        <time>2017-04-22T10:33:56Z</time>
      </trkpt>
      <trkpt lat="45.92935" lon="4.72995">
        <ele>172</ele>
        <time>2017-04-22T10:33:57Z</time>
      </trkpt>
      <trkpt lat="45.9293" lon="4.73001">
        <ele>172</ele>
        <time>2017-04-22T10:33:58Z</time>
      </trkpt>
      <trkpt lat="45.92925" lon="4.73006">
        <ele>172</ele>
        <time>2017-04-22T10:33:59Z</time>
      </trkpt>
      <trkpt lat="45.92921" lon="4.73012">
        <ele>172</ele>
        <time>2017-04-22T10:34:00Z</time>
      </trkpt>
      <trkpt lat="45.92917" lon="4.73017">
        <ele>172</ele>
        <time>2017-04-22T10:34:01Z</time>
      </trkpt>
      <trkpt lat="45.92912" lon="4.73023">
        <ele>172</ele>
        <time>2017-04-22T10:34:02Z</time>
      </trkpt>
      <trkpt lat="45.92908" lon="4.73028">
        <ele>172</ele>
        <time>2017-04-22T10:34:03Z</time>
      </trkpt>
      <trkpt lat="45.92905" lon="4.73033">
        <ele>172</ele>
        <time>2017-04-22T10:34:04Z</time>
      </trkpt>
      <trkpt lat="45.92901" lon="4.73038">
        <ele>172</ele>
        <time>2017-04-22T10:34:05Z</time>
      </trkpt>
      <trkpt lat="45.92897" lon="4.73043">
        <ele>172</ele>
        <time>2017-04-22T10:34:06Z</time>
      </trkpt>
      <trkpt lat="45.92894" lon="4.73049">
        <ele>172</ele>
        <time>2017-04-22T10:34:07Z</time>
      </trkpt>
      <trkpt lat="45.9289" lon="4.73055">
        <ele>172</ele>
        <time>2017-04-22T10:34:08Z</time>
      </trkpt>
      <trkpt lat="45.92887" lon="4.73061">
        <ele>172</ele>
        <time>2017-04-22T10:34:09Z</time>
      </trkpt>
      <trkpt lat="45.92883" lon="4.73067">
        <ele>172</ele>
        <time>2017-04-22T10:34:10Z</time>
      </trkpt>
      <trkpt lat="45.9288" lon="4.73074">
        <ele>172</ele>
        <time>2017-04-22T10:34:11Z</time>
      </trkpt>
      <trkpt lat="45.92877" lon="4.73081">
        <ele>172</ele>
        <time>2017-04-22T10:34:12Z</time>
      </trkpt>
      <trkpt lat="45.92874" lon="4.73089">
        <ele>172</ele>
        <time>2017-04-22T10:34:13Z</time>
      </trkpt>
      <trkpt lat="45.92871" lon="4.73097">
        <ele>172</ele>
        <time>2017-04-22T10:34:14Z</time>
      </trkpt>
      <trkpt lat="45.92869" lon="4.73105">
        <ele>172</ele>
        <time>2017-04-22T10:34:15Z</time>
      </trkpt>
      <trkpt lat="45.92867" lon="4.73113">
        <ele>171</ele>
        <time>2017-04-22T10:34:16Z</time>
      </trkpt>
      <trkpt lat="45.92865" lon="4.73122">
        <ele>171</ele>
        <time>2017-04-22T10:34:17Z</time>
      </trkpt>
      <trkpt lat="45.92863" lon="4.7313">
        <ele>171</ele>
        <time>2017-04-22T10:34:18Z</time>
      </trkpt>
      <trkpt lat="45.92862" lon="4.73138">
        <ele>171</ele>
        <time>2017-04-22T10:34:19Z</time>
      </trkpt>
      <trkpt lat="45.92861" lon="4.73146">
        <ele>171</ele>
        <time>2017-04-22T10:34:20Z</time>
      </trkpt>
      <trkpt lat="45.92859" lon="4.73153">
        <ele>171</ele>
        <time>2017-04-22T10:34:21Z</time>
      </trkpt>
      <trkpt lat="45.92858" lon="4.73161">
        <ele>171</ele>
        <time>2017-04-22T10:34:22Z</time>
      </trkpt>
      <trkpt lat="45.92858" lon="4.73168">
        <ele>171</ele>
        <time>2017-04-22T10:34:23Z</time>
      </trkpt>
      <trkpt lat="45.92857" lon="4.73176">
        <ele>171</ele>
        <time>2017-04-22T10:34:24Z</time>
      </trkpt>
      <trkpt lat="45.92856" lon="4.73183">
        <ele>171</ele>
        <time>2017-04-22T10:34:25Z</time>
      </trkpt>
      <trkpt lat="45.92855" lon="4.73191">
        <ele>171</ele>
        <time>2017-04-22T10:34:26Z</time>
      </trkpt>
      <trkpt lat="45.92854" lon="4.732">
        <ele>171</ele>
        <time>2017-04-22T10:34:27Z</time>
      </trkpt>
      <trkpt lat="45.92854" lon="4.73208">
        <ele>171</ele>
        <time>2017-04-22T10:34:28Z</time>
      </trkpt>
      <trkpt lat="45.92853" lon="4.73217">
        <ele>171</ele>
        <time>2017-04-22T10:34:29Z</time>
      </trkpt>
      <trkpt lat="45.92852" lon="4.73226">
        <ele>171</ele>
        <time>2017-04-22T10:34:30Z</time>
      </trkpt>
      <trkpt lat="45.92851" lon="4.73235">
        <ele>171</ele>
        <time>2017-04-22T10:34:31Z</time>
      </trkpt>
      <trkpt lat="45.92851" lon="4.73244">
        <ele>171</ele>
        <time>2017-04-22T10:34:32Z</time>
      </trkpt>
      <trkpt lat="45.9285" lon="4.73253">
        <ele>171</ele>
        <time>2017-04-22T10:34:33Z</time>
      </trkpt>
      <trkpt lat="45.92849" lon="4.73262">
        <ele>171</ele>
        <time>2017-04-22T10:34:34Z</time>
      </trkpt>
      <trkpt lat="45.92848" lon="4.73271">
        <ele>171</ele>
        <time>2017-04-22T10:34:35Z</time>
      </trkpt>
      <trkpt lat="45.92846" lon="4.7328">
        <ele>171</ele>
        <time>2017-04-22T10:34:36Z</time>
      </trkpt>
      <trkpt lat="45.92845" lon="4.73288">
        <ele>171</ele>
        <time>2017-04-22T10:34:37Z</time>
      </trkpt>
      <trkpt lat="45.92844" lon="4.73297">
        <ele>171</ele>
        <time>2017-04-22T10:34:38Z</time>
      </trkpt>
      <trkpt lat="45.92843" lon="4.73305">
        <ele>171</ele>
        <time>2017-04-22T10:34:39Z</time>
      </trkpt>
      <trkpt lat="45.92842" lon="4.73313">
        <ele>171</ele>
        <time>2017-04-22T10:34:40Z</time>
      </trkpt>
      <trkpt lat="45.92841" lon="4.73321">
        <ele>171</ele>
        <time>2017-04-22T10:34:41Z</time>
      </trkpt>
      <trkpt lat="45.9284" lon="4.73329">
        <ele>171</ele>
        <time>2017-04-22T10:34:42Z</time>
      </trkpt>
      <trkpt lat="45.92839" lon="4.73337">
        <ele>171</ele>
        <time>2017-04-22T10:34:43Z</time>
      </trkpt>
      <trkpt lat="45.92839" lon="4.73345">
        <ele>171</ele>
        <time>2017-04-22T10:34:44Z</time>
      </trkpt>
      <trkpt lat="45.92837" lon="4.73354">
        <ele>171</ele>
        <time>2017-04-22T10:34:45Z</time>
      </trkpt>
      <trkpt lat="45.92836" lon="4.73362">
        <ele>171</ele>
        <time>2017-04-22T10:34:46Z</time>
      </trkpt>
      <trkpt lat="45.92835" lon="4.7337">
        <ele>171</ele>
        <time>2017-04-22T10:34:47Z</time>
      </trkpt>
      <trkpt lat="45.92834" lon="4.73379">
        <ele>172</ele>
        <time>2017-04-22T10:34:48Z</time>
      </trkpt>
      <trkpt lat="45.92833" lon="4.73388">
        <ele>171</ele>
        <time>2017-04-22T10:34:49Z</time>
      </trkpt>
      <trkpt lat="45.92832" lon="4.73397">
        <ele>172</ele>
        <time>2017-04-22T10:34:50Z</time>
      </trkpt>
      <trkpt lat="45.92831" lon="4.73406">
        <ele>172</ele>
        <time>2017-04-22T10:34:51Z</time>
      </trkpt>
      <trkpt lat="45.9283" lon="4.73414">
        <ele>172</ele>
        <time>2017-04-22T10:34:52Z</time>
      </trkpt>
      <trkpt lat="45.92829" lon="4.73423">
        <ele>172</ele>
        <time>2017-04-22T10:34:53Z</time>
      </trkpt>
      <trkpt lat="45.92828" lon="4.73431">
        <ele>172</ele>
        <time>2017-04-22T10:34:54Z</time>
      </trkpt>
      <trkpt lat="45.92827" lon="4.7344">
        <ele>172</ele>
        <time>2017-04-22T10:34:55Z</time>
      </trkpt>
      <trkpt lat="45.92826" lon="4.73447">
        <ele>172</ele>
        <time>2017-04-22T10:34:56Z</time>
      </trkpt>
      <trkpt lat="45.92825" lon="4.73454">
        <ele>172</ele>
        <time>2017-04-22T10:34:57Z</time>
      </trkpt>
      <trkpt lat="45.92825" lon="4.73462">
        <ele>172</ele>
        <time>2017-04-22T10:34:58Z</time>
      </trkpt>
      <trkpt lat="45.92824" lon="4.73469">
        <ele>172</ele>
        <time>2017-04-22T10:34:59Z</time>
      </trkpt>
      <trkpt lat="45.92823" lon="4.73476">
        <ele>172</ele>
        <time>2017-04-22T10:35:00Z</time>
      </trkpt>
      <trkpt lat="45.92823" lon="4.73483">
        <ele>172</ele>
        <time>2017-04-22T10:35:01Z</time>
      </trkpt>
      <trkpt lat="45.92822" lon="4.7349">
        <ele>172</ele>
        <time>2017-04-22T10:35:02Z</time>
      </trkpt>
      <trkpt lat="45.92821" lon="4.73497">
        <ele>172</ele>
        <time>2017-04-22T10:35:03Z</time>
      </trkpt>
      <trkpt lat="45.9282" lon="4.73504">
        <ele>172</ele>
        <time>2017-04-22T10:35:04Z</time>
      </trkpt>
      <trkpt lat="45.9282" lon="4.73511">
        <ele>172</ele>
        <time>2017-04-22T10:35:05Z</time>
      </trkpt>
      <trkpt lat="45.92819" lon="4.73518">
        <ele>172</ele>
        <time>2017-04-22T10:35:06Z</time>
      </trkpt>
      <trkpt lat="45.92818" lon="4.73525">
        <ele>172</ele>
        <time>2017-04-22T10:35:07Z</time>
      </trkpt>
      <trkpt lat="45.92817" lon="4.73532">
        <ele>172</ele>
        <time>2017-04-22T10:35:08Z</time>
      </trkpt>
      <trkpt lat="45.92816" lon="4.73539">
        <ele>172</ele>
        <time>2017-04-22T10:35:09Z</time>
      </trkpt>
      <trkpt lat="45.92815" lon="4.73546">
        <ele>171</ele>
        <time>2017-04-22T10:35:10Z</time>
      </trkpt>
      <trkpt lat="45.92815" lon="4.73554">
        <ele>171</ele>
        <time>2017-04-22T10:35:11Z</time>
      </trkpt>
      <trkpt lat="45.92814" lon="4.73561">
        <ele>171</ele>
        <time>2017-04-22T10:35:12Z</time>
      </trkpt>
      <trkpt lat="45.92814" lon="4.73568">
        <ele>171</ele>
        <time>2017-04-22T10:35:13Z</time>
      </trkpt>
      <trkpt lat="45.92813" lon="4.73575">
        <ele>171</ele>
        <time>2017-04-22T10:35:14Z</time>
      </trkpt>
      <trkpt lat="45.92813" lon="4.73583">
        <ele>171</ele>
        <time>2017-04-22T10:35:15Z</time>
      </trkpt>
      <trkpt lat="45.92813" lon="4.7359">
        <ele>171</ele>
        <time>2017-04-22T10:35:16Z</time>
      </trkpt>
      <trkpt lat="45.92813" lon="4.73597">
        <ele>172</ele>
        <time>2017-04-22T10:35:17Z</time>
      </trkpt>
      <trkpt lat="45.92813" lon="4.73604">
        <ele>172</ele>
        <time>2017-04-22T10:35:18Z</time>
      </trkpt>
      <trkpt lat="45.92813" lon="4.73611">
        <ele>172</ele>
        <time>2017-04-22T10:35:19Z</time>
      </trkpt>
      <trkpt lat="45.92813" lon="4.73618">
        <ele>172</ele>
        <time>2017-04-22T10:35:20Z</time>
      </trkpt>
      <trkpt lat="45.92812" lon="4.73624">
        <ele>172</ele>
        <time>2017-04-22T10:35:21Z</time>
      </trkpt>
      <trkpt lat="45.9281" lon="4.7363">
        <ele>172</ele>
        <time>2017-04-22T10:35:22Z</time>
      </trkpt>
      <trkpt lat="45.92807" lon="4.73636">
        <ele>172</ele>
        <time>2017-04-22T10:35:23Z</time>
      </trkpt>
      <trkpt lat="45.92804" lon="4.73641">
        <ele>172</ele>
        <time>2017-04-22T10:35:24Z</time>
      </trkpt>
      <trkpt lat="45.92801" lon="4.73648">
        <ele>172</ele>
        <time>2017-04-22T10:35:25Z</time>
      </trkpt>
      <trkpt lat="45.92799" lon="4.73656">
        <ele>172</ele>
        <time>2017-04-22T10:35:26Z</time>
      </trkpt>
      <trkpt lat="45.92798" lon="4.73664">
        <ele>172</ele>
        <time>2017-04-22T10:35:27Z</time>
      </trkpt>
      <trkpt lat="45.92796" lon="4.73671">
        <ele>172</ele>
        <time>2017-04-22T10:35:28Z</time>
      </trkpt>
      <trkpt lat="45.92794" lon="4.73678">
        <ele>172</ele>
        <time>2017-04-22T10:35:29Z</time>
      </trkpt>
      <trkpt lat="45.92792" lon="4.73685">
        <ele>172</ele>
        <time>2017-04-22T10:35:30Z</time>
      </trkpt>
      <trkpt lat="45.9279" lon="4.73691">
        <ele>172</ele>
        <time>2017-04-22T10:35:31Z</time>
      </trkpt>
      <trkpt lat="45.92788" lon="4.73698">
        <ele>172</ele>
        <time>2017-04-22T10:35:32Z</time>
      </trkpt>
      <trkpt lat="45.92787" lon="4.73704">
        <ele>172</ele>
        <time>2017-04-22T10:35:33Z</time>
      </trkpt>
      <trkpt lat="45.92785" lon="4.7371">
        <ele>172</ele>
        <time>2017-04-22T10:35:34Z</time>
      </trkpt>
      <trkpt lat="45.92783" lon="4.73722">
        <ele>172</ele>
        <time>2017-04-22T10:35:36Z</time>
      </trkpt>
      <trkpt lat="45.92782" lon="4.73727">
        <ele>172</ele>
        <time>2017-04-22T10:35:37Z</time>
      </trkpt>
      <trkpt lat="45.92777" lon="4.73733">
        <ele>172</ele>
        <time>2017-04-22T10:35:39Z</time>
      </trkpt>
      <trkpt lat="45.92773" lon="4.73733">
        <ele>172</ele>
        <time>2017-04-22T10:35:40Z</time>
      </trkpt>
      <trkpt lat="45.92765" lon="4.73728">
        <ele>172</ele>
        <time>2017-04-22T10:35:42Z</time>
      </trkpt>
      <trkpt lat="45.92761" lon="4.73726">
        <ele>172</ele>
        <time>2017-04-22T10:35:43Z</time>
      </trkpt>
      <trkpt lat="45.92752" lon="4.73722">
        <ele>172</ele>
        <time>2017-04-22T10:35:45Z</time>
      </trkpt>
      <trkpt lat="45.92747" lon="4.73721">
        <ele>173</ele>
        <time>2017-04-22T10:35:46Z</time>
      </trkpt>
      <trkpt lat="45.92741" lon="4.7372">
        <ele>173</ele>
        <time>2017-04-22T10:35:47Z</time>
      </trkpt>
      <trkpt lat="45.92735" lon="4.73719">
        <ele>173</ele>
        <time>2017-04-22T10:35:48Z</time>
      </trkpt>
      <trkpt lat="45.9273" lon="4.73719">
        <ele>173</ele>
        <time>2017-04-22T10:35:49Z</time>
      </trkpt>
      <trkpt lat="45.92725" lon="4.73718">
        <ele>173</ele>
        <time>2017-04-22T10:35:50Z</time>
      </trkpt>
      <trkpt lat="45.92719" lon="4.73717">
        <ele>173</ele>
        <time>2017-04-22T10:35:51Z</time>
      </trkpt>
      <trkpt lat="45.92713" lon="4.73714">
        <ele>173</ele>
        <time>2017-04-22T10:35:52Z</time>
      </trkpt>
      <trkpt lat="45.92708" lon="4.73713">
        <ele>173</ele>
        <time>2017-04-22T10:35:53Z</time>
      </trkpt>
      <trkpt lat="45.92703" lon="4.73712">
        <ele>173</ele>
        <time>2017-04-22T10:35:54Z</time>
      </trkpt>
      <trkpt lat="45.92698" lon="4.7371">
        <ele>173</ele>
        <time>2017-04-22T10:35:55Z</time>
      </trkpt>
      <trkpt lat="45.92693" lon="4.73709">
        <ele>173</ele>
        <time>2017-04-22T10:35:56Z</time>
      </trkpt>
      <trkpt lat="45.92686" lon="4.73708">
        <ele>173</ele>
        <time>2017-04-22T10:35:57Z</time>
      </trkpt>
      <trkpt lat="45.9268" lon="4.73708">
        <ele>173</ele>
        <time>2017-04-22T10:35:58Z</time>
      </trkpt>
      <trkpt lat="45.92675" lon="4.73706">
        <ele>174</ele>
        <time>2017-04-22T10:35:59Z</time>
      </trkpt>
      <trkpt lat="45.9267" lon="4.73704">
        <ele>174</ele>
        <time>2017-04-22T10:36:00Z</time>
      </trkpt>
      <trkpt lat="45.92665" lon="4.73702">
        <ele>173</ele>
        <time>2017-04-22T10:36:01Z</time>
      </trkpt>
      <trkpt lat="45.9266" lon="4.73698">
        <ele>173</ele>
        <time>2017-04-22T10:36:02Z</time>
      </trkpt>
      <trkpt lat="45.92656" lon="4.73695">
        <ele>173</ele>
        <time>2017-04-22T10:36:03Z</time>
      </trkpt>
      <trkpt lat="45.92651" lon="4.73691">
        <ele>173</ele>
        <time>2017-04-22T10:36:04Z</time>
      </trkpt>
      <trkpt lat="45.92647" lon="4.73687">
        <ele>173</ele>
        <time>2017-04-22T10:36:05Z</time>
      </trkpt>
      <trkpt lat="45.92643" lon="4.73683">
        <ele>173</ele>
        <time>2017-04-22T10:36:06Z</time>
      </trkpt>
      <trkpt lat="45.92639" lon="4.73678">
        <ele>173</ele>
        <time>2017-04-22T10:36:07Z</time>
      </trkpt>
      <trkpt lat="45.92636" lon="4.73672">
        <ele>173</ele>
        <time>2017-04-22T10:36:08Z</time>
      </trkpt>
      <trkpt lat="45.92633" lon="4.73665">
        <ele>173</ele>
        <time>2017-04-22T10:36:09Z</time>
      </trkpt>
      <trkpt lat="45.9263" lon="4.73659">
        <ele>173</ele>
        <time>2017-04-22T10:36:10Z</time>
      </trkpt>
      <trkpt lat="45.92627" lon="4.73651">
        <ele>173</ele>
        <time>2017-04-22T10:36:11Z</time>
      </trkpt>
      <trkpt lat="45.92624" lon="4.73644">
        <ele>173</ele>
        <time>2017-04-22T10:36:12Z</time>
      </trkpt>
      <trkpt lat="45.9262" lon="4.73638">
        <ele>173</ele>
        <time>2017-04-22T10:36:13Z</time>
      </trkpt>
      <trkpt lat="45.92616" lon="4.73632">
        <ele>173</ele>
        <time>2017-04-22T10:36:14Z</time>
      </trkpt>
      <trkpt lat="45.9261" lon="4.73628">
        <ele>173</ele>
        <time>2017-04-22T10:36:15Z</time>
      </trkpt>
      <trkpt lat="45.92604" lon="4.73625">
        <ele>173</ele>
        <time>2017-04-22T10:36:16Z</time>
      </trkpt>
      <trkpt lat="45.92598" lon="4.73624">
        <ele>173</ele>
        <time>2017-04-22T10:36:17Z</time>
      </trkpt>
      <trkpt lat="45.92592" lon="4.73624">
        <ele>173</ele>
        <time>2017-04-22T10:36:18Z</time>
      </trkpt>
      <trkpt lat="45.92586" lon="4.73625">
        <ele>172</ele>
        <time>2017-04-22T10:36:19Z</time>
      </trkpt>
      <trkpt lat="45.9258" lon="4.73626">
        <ele>173</ele>
        <time>2017-04-22T10:36:20Z</time>
      </trkpt>
      <trkpt lat="45.92574" lon="4.73627">
        <ele>173</ele>
        <time>2017-04-22T10:36:21Z</time>
      </trkpt>
      <trkpt lat="45.92568" lon="4.73629">
        <ele>173</ele>
        <time>2017-04-22T10:36:22Z</time>
      </trkpt>
      <trkpt lat="45.92562" lon="4.73631">
        <ele>173</ele>
        <time>2017-04-22T10:36:23Z</time>
      </trkpt>
      <trkpt lat="45.92556" lon="4.73632">
        <ele>173</ele>
        <time>2017-04-22T10:36:24Z</time>
      </trkpt>
      <trkpt lat="45.92551" lon="4.73633">
        <ele>173</ele>
        <time>2017-04-22T10:36:25Z</time>
      </trkpt>
      <trkpt lat="45.92545" lon="4.73635">
        <ele>173</ele>
        <time>2017-04-22T10:36:26Z</time>
      </trkpt>
      <trkpt lat="45.92539" lon="4.73636">
        <ele>173</ele>
        <time>2017-04-22T10:36:27Z</time>
      </trkpt>
      <trkpt lat="45.92532" lon="4.73636">
        <ele>173</ele>
        <time>2017-04-22T10:36:28Z</time>
      </trkpt>
      <trkpt lat="45.92526" lon="4.73637">
        <ele>173</ele>
        <time>2017-04-22T10:36:29Z</time>
      </trkpt>
      <trkpt lat="45.92521" lon="4.73637">
        <ele>173</ele>
        <time>2017-04-22T10:36:30Z</time>
      </trkpt>
      <trkpt lat="45.92515" lon="4.73638">
        <ele>173</ele>
        <time>2017-04-22T10:36:31Z</time>
      </trkpt>
      <trkpt lat="45.9251" lon="4.73639">
        <ele>174</ele>
        <time>2017-04-22T10:36:32Z</time>
      </trkpt>
      <trkpt lat="45.92505" lon="4.73639">
        <ele>174</ele>
        <time>2017-04-22T10:36:33Z</time>
      </trkpt>
      <trkpt lat="45.92501" lon="4.7364">
        <ele>174</ele>
        <time>2017-04-22T10:36:34Z</time>
      </trkpt>
      <trkpt lat="45.92496" lon="4.73641">
        <ele>174</ele>
        <time>2017-04-22T10:36:35Z</time>
      </trkpt>
      <trkpt lat="45.92491" lon="4.73641">
        <ele>174</ele>
        <time>2017-04-22T10:36:36Z</time>
      </trkpt>
      <trkpt lat="45.92486" lon="4.7364">
        <ele>174</ele>
        <time>2017-04-22T10:36:37Z</time>
      </trkpt>
      <trkpt lat="45.92481" lon="4.7364">
        <ele>174</ele>
        <time>2017-04-22T10:36:38Z</time>
      </trkpt>
      <trkpt lat="45.92477" lon="4.73641">
        <ele>174</ele>
        <time>2017-04-22T10:36:39Z</time>
      </trkpt>
      <trkpt lat="45.92473" lon="4.73644">
        <ele>174</ele>
        <time>2017-04-22T10:36:40Z</time>
      </trkpt>
      <trkpt lat="45.92469" lon="4.73649">
        <ele>174</ele>
        <time>2017-04-22T10:36:41Z</time>
      </trkpt>
      <trkpt lat="45.92468" lon="4.73655">
        <ele>174</ele>
        <time>2017-04-22T10:36:42Z</time>
      </trkpt>
      <trkpt lat="45.92466" lon="4.73667">
        <ele>174</ele>
        <time>2017-04-22T10:36:44Z</time>
      </trkpt>
      <trkpt lat="45.92465" lon="4.73674">
        <ele>174</ele>
        <time>2017-04-22T10:36:45Z</time>
      </trkpt>
      <trkpt lat="45.92464" lon="4.73686">
        <ele>174</ele>
        <time>2017-04-22T10:36:47Z</time>
      </trkpt>
      <trkpt lat="45.92463" lon="4.73692">
        <ele>174</ele>
        <time>2017-04-22T10:36:48Z</time>
      </trkpt>
      <trkpt lat="45.92462" lon="4.73702">
        <ele>174</ele>
        <time>2017-04-22T10:36:50Z</time>
      </trkpt>
      <trkpt lat="45.92462" lon="4.73706">
        <ele>174</ele>
        <time>2017-04-22T10:36:51Z</time>
      </trkpt>
      <trkpt lat="45.92462" lon="4.7371">
        <ele>174</ele>
        <time>2017-04-22T10:37:29.184Z</time>
      </trkpt>
    </trkseg>
  </trk>
</gpx>